<?xml version="1.0" encoding="UTF-8" standalone="no" ?>
<gpx xmlns="http://www.topografix.com/GPX/1/1" xmlns:xsi="http://www.w3.org/2001/XMLSchema-instance" xsi:schemaLocation="http://www.topografix.com/GPX/1/1 http://www.topografix.com/GPX/1/1/gpx.xsd" version="1.1" creator="VisuGPX - https://www.visugpx.com">
  <metadata>
    <name>Grenoble Trail - entrainement - 2021-08-25</name>
    <desc><![CDATA[avec reconnaissance d'un nouveau sentier]]></desc>
  </metadata>
  <trk>
    <name><![CDATA[Grenoble Trail]]></name>
    <trkseg>
      <trkpt lat="45.19674" lon="5.73976">
        <ele>214.60000610352</ele>
        <time>2021-08-25T03:11:01.000Z</time>
      </trkpt>
      <trkpt lat="45.19674" lon="5.73975">
        <ele>214.60000610352</ele>
        <time>2021-08-25T03:11:02.000Z</time>
      </trkpt>
      <trkpt lat="45.19671" lon="5.73976">
        <ele>214.39999389648</ele>
        <time>2021-08-25T03:11:05.000Z</time>
      </trkpt>
      <trkpt lat="45.1967" lon="5.73977">
        <ele>214.39999389648</ele>
        <time>2021-08-25T03:11:06.000Z</time>
      </trkpt>
      <trkpt lat="45.19661" lon="5.73977">
        <ele>214.60000610352</ele>
        <time>2021-08-25T03:11:12.000Z</time>
      </trkpt>
      <trkpt lat="45.19659" lon="5.73976">
        <ele>214.60000610352</ele>
        <time>2021-08-25T03:11:13.000Z</time>
      </trkpt>
      <trkpt lat="45.19655" lon="5.73977">
        <ele>214.60000610352</ele>
        <time>2021-08-25T03:11:17.000Z</time>
      </trkpt>
      <trkpt lat="45.19655" lon="5.73978">
        <ele>214.60000610352</ele>
        <time>2021-08-25T03:11:21.000Z</time>
      </trkpt>
      <trkpt lat="45.19653" lon="5.73975">
        <ele>214.60000610352</ele>
        <time>2021-08-25T03:11:24.000Z</time>
      </trkpt>
      <trkpt lat="45.1965" lon="5.73978">
        <ele>213.60000610352</ele>
        <time>2021-08-25T03:11:27.000Z</time>
      </trkpt>
      <trkpt lat="45.19649" lon="5.73979">
        <ele>213</ele>
        <time>2021-08-25T03:11:28.000Z</time>
      </trkpt>
      <trkpt lat="45.19649" lon="5.73978">
        <ele>212.19999694824</ele>
        <time>2021-08-25T03:11:31.000Z</time>
      </trkpt>
      <trkpt lat="45.19648" lon="5.73976">
        <ele>212</ele>
        <time>2021-08-25T03:11:33.000Z</time>
      </trkpt>
      <trkpt lat="45.19647" lon="5.73979">
        <ele>211</ele>
        <time>2021-08-25T03:11:37.000Z</time>
      </trkpt>
      <trkpt lat="45.19646" lon="5.73979">
        <ele>210.60000610352</ele>
        <time>2021-08-25T03:11:38.000Z</time>
      </trkpt>
      <trkpt lat="45.19645" lon="5.73978">
        <ele>210</ele>
        <time>2021-08-25T03:11:40.000Z</time>
      </trkpt>
      <trkpt lat="45.19645" lon="5.73976">
        <ele>209.39999389648</ele>
        <time>2021-08-25T03:11:41.000Z</time>
      </trkpt>
      <trkpt lat="45.1965" lon="5.73968">
        <ele>207.39999389648</ele>
        <time>2021-08-25T03:11:50.000Z</time>
      </trkpt>
      <trkpt lat="45.19652" lon="5.73967">
        <ele>206.80000305176</ele>
        <time>2021-08-25T03:11:52.000Z</time>
      </trkpt>
      <trkpt lat="45.19655" lon="5.73967">
        <ele>206.80000305176</ele>
        <time>2021-08-25T03:11:53.000Z</time>
      </trkpt>
      <trkpt lat="45.19651" lon="5.73968">
        <ele>206.80000305176</ele>
        <time>2021-08-25T03:11:54.000Z</time>
      </trkpt>
      <trkpt lat="45.19651" lon="5.73968">
        <ele>206.80000305176</ele>
        <time>2021-08-25T03:11:55.000Z</time>
      </trkpt>
      <trkpt lat="45.19659" lon="5.73969">
        <ele>207.19999694824</ele>
        <time>2021-08-25T03:12:01.000Z</time>
      </trkpt>
      <trkpt lat="45.19662" lon="5.7397">
        <ele>207.19999694824</ele>
        <time>2021-08-25T03:12:03.000Z</time>
      </trkpt>
      <trkpt lat="45.19663" lon="5.73971">
        <ele>207.19999694824</ele>
        <time>2021-08-25T03:12:04.000Z</time>
      </trkpt>
      <trkpt lat="45.19667" lon="5.73974">
        <ele>207.39999389648</ele>
        <time>2021-08-25T03:12:07.000Z</time>
      </trkpt>
      <trkpt lat="45.1967" lon="5.73974">
        <ele>207.19999694824</ele>
        <time>2021-08-25T03:12:09.000Z</time>
      </trkpt>
      <trkpt lat="45.19672" lon="5.7397">
        <ele>207.39999389648</ele>
        <time>2021-08-25T03:12:11.000Z</time>
      </trkpt>
      <trkpt lat="45.19674" lon="5.73966">
        <ele>207.19999694824</ele>
        <time>2021-08-25T03:12:12.000Z</time>
      </trkpt>
      <trkpt lat="45.19678" lon="5.73962">
        <ele>207.19999694824</ele>
        <time>2021-08-25T03:12:13.000Z</time>
      </trkpt>
      <trkpt lat="45.19682" lon="5.73957">
        <ele>207.19999694824</ele>
        <time>2021-08-25T03:12:15.000Z</time>
      </trkpt>
      <trkpt lat="45.19682" lon="5.73955">
        <ele>207.19999694824</ele>
        <time>2021-08-25T03:12:16.000Z</time>
      </trkpt>
      <trkpt lat="45.19682" lon="5.73954">
        <ele>207.19999694824</ele>
        <time>2021-08-25T03:12:18.000Z</time>
      </trkpt>
      <trkpt lat="45.19681" lon="5.73952">
        <ele>207</ele>
        <time>2021-08-25T03:12:20.000Z</time>
      </trkpt>
      <trkpt lat="45.19681" lon="5.73951">
        <ele>207</ele>
        <time>2021-08-25T03:12:21.000Z</time>
      </trkpt>
      <trkpt lat="45.19677" lon="5.73952">
        <ele>207.39999389648</ele>
        <time>2021-08-25T03:12:25.000Z</time>
      </trkpt>
      <trkpt lat="45.19676" lon="5.73953">
        <ele>207.60000610352</ele>
        <time>2021-08-25T03:12:26.000Z</time>
      </trkpt>
      <trkpt lat="45.19674" lon="5.73956">
        <ele>207.60000610352</ele>
        <time>2021-08-25T03:12:27.000Z</time>
      </trkpt>
      <trkpt lat="45.19674" lon="5.73962">
        <ele>207</ele>
        <time>2021-08-25T03:12:29.000Z</time>
      </trkpt>
      <trkpt lat="45.19679" lon="5.73973">
        <ele>206.80000305176</ele>
        <time>2021-08-25T03:12:32.000Z</time>
      </trkpt>
      <trkpt lat="45.19682" lon="5.73982">
        <ele>206.80000305176</ele>
        <time>2021-08-25T03:12:36.000Z</time>
      </trkpt>
      <trkpt lat="45.19685" lon="5.73985">
        <ele>206.80000305176</ele>
        <time>2021-08-25T03:12:37.000Z</time>
      </trkpt>
      <trkpt lat="45.19693" lon="5.73996">
        <ele>207</ele>
        <time>2021-08-25T03:12:41.000Z</time>
      </trkpt>
      <trkpt lat="45.19699" lon="5.74009">
        <ele>207</ele>
        <time>2021-08-25T03:12:45.000Z</time>
      </trkpt>
      <trkpt lat="45.19705" lon="5.74021">
        <ele>207</ele>
        <time>2021-08-25T03:12:48.000Z</time>
      </trkpt>
      <trkpt lat="45.19705" lon="5.74025">
        <ele>207</ele>
        <time>2021-08-25T03:12:49.000Z</time>
      </trkpt>
      <trkpt lat="45.19705" lon="5.74027">
        <ele>206.80000305176</ele>
        <time>2021-08-25T03:12:50.000Z</time>
      </trkpt>
      <trkpt lat="45.19705" lon="5.74031">
        <ele>207</ele>
        <time>2021-08-25T03:12:51.000Z</time>
      </trkpt>
      <trkpt lat="45.19707" lon="5.7404">
        <ele>207.19999694824</ele>
        <time>2021-08-25T03:12:54.000Z</time>
      </trkpt>
      <trkpt lat="45.19708" lon="5.74045">
        <ele>207.19999694824</ele>
        <time>2021-08-25T03:12:56.000Z</time>
      </trkpt>
      <trkpt lat="45.19709" lon="5.74049">
        <ele>207.19999694824</ele>
        <time>2021-08-25T03:12:57.000Z</time>
      </trkpt>
      <trkpt lat="45.19711" lon="5.74057">
        <ele>207.19999694824</ele>
        <time>2021-08-25T03:12:59.000Z</time>
      </trkpt>
      <trkpt lat="45.19711" lon="5.74065">
        <ele>207</ele>
        <time>2021-08-25T03:13:01.000Z</time>
      </trkpt>
      <trkpt lat="45.19712" lon="5.74079">
        <ele>207</ele>
        <time>2021-08-25T03:13:05.000Z</time>
      </trkpt>
      <trkpt lat="45.19708" lon="5.74085">
        <ele>207.39999389648</ele>
        <time>2021-08-25T03:13:07.000Z</time>
      </trkpt>
      <trkpt lat="45.19706" lon="5.7409">
        <ele>207.39999389648</ele>
        <time>2021-08-25T03:13:09.000Z</time>
      </trkpt>
      <trkpt lat="45.19707" lon="5.74095">
        <ele>207.19999694824</ele>
        <time>2021-08-25T03:13:11.000Z</time>
      </trkpt>
      <trkpt lat="45.19706" lon="5.74099">
        <ele>207.39999389648</ele>
        <time>2021-08-25T03:13:12.000Z</time>
      </trkpt>
      <trkpt lat="45.19705" lon="5.74103">
        <ele>207.19999694824</ele>
        <time>2021-08-25T03:13:14.000Z</time>
      </trkpt>
      <trkpt lat="45.19708" lon="5.74109">
        <ele>206.80000305176</ele>
        <time>2021-08-25T03:13:16.000Z</time>
      </trkpt>
      <trkpt lat="45.19708" lon="5.74115">
        <ele>207.39999389648</ele>
        <time>2021-08-25T03:13:18.000Z</time>
      </trkpt>
      <trkpt lat="45.19709" lon="5.74118">
        <ele>207</ele>
        <time>2021-08-25T03:13:19.000Z</time>
      </trkpt>
      <trkpt lat="45.19711" lon="5.74124">
        <ele>207</ele>
        <time>2021-08-25T03:13:21.000Z</time>
      </trkpt>
      <trkpt lat="45.19713" lon="5.74127">
        <ele>207</ele>
        <time>2021-08-25T03:13:22.000Z</time>
      </trkpt>
      <trkpt lat="45.1972" lon="5.7414">
        <ele>207.39999389648</ele>
        <time>2021-08-25T03:13:26.000Z</time>
      </trkpt>
      <trkpt lat="45.19719" lon="5.74143">
        <ele>207.19999694824</ele>
        <time>2021-08-25T03:13:27.000Z</time>
      </trkpt>
      <trkpt lat="45.19716" lon="5.7415">
        <ele>207.19999694824</ele>
        <time>2021-08-25T03:13:29.000Z</time>
      </trkpt>
      <trkpt lat="45.19714" lon="5.74154">
        <ele>207.19999694824</ele>
        <time>2021-08-25T03:13:30.000Z</time>
      </trkpt>
      <trkpt lat="45.19714" lon="5.74169">
        <ele>207.19999694824</ele>
        <time>2021-08-25T03:13:34.000Z</time>
      </trkpt>
      <trkpt lat="45.19716" lon="5.7419">
        <ele>207.39999389648</ele>
        <time>2021-08-25T03:13:40.000Z</time>
      </trkpt>
      <trkpt lat="45.19721" lon="5.74214">
        <ele>207.19999694824</ele>
        <time>2021-08-25T03:13:47.000Z</time>
      </trkpt>
      <trkpt lat="45.19726" lon="5.74218">
        <ele>207.19999694824</ele>
        <time>2021-08-25T03:13:48.000Z</time>
      </trkpt>
      <trkpt lat="45.19735" lon="5.74227">
        <ele>207.19999694824</ele>
        <time>2021-08-25T03:13:51.000Z</time>
      </trkpt>
      <trkpt lat="45.19737" lon="5.74232">
        <ele>207.19999694824</ele>
        <time>2021-08-25T03:13:53.000Z</time>
      </trkpt>
      <trkpt lat="45.19736" lon="5.74238">
        <ele>208.39999389648</ele>
        <time>2021-08-25T03:13:57.000Z</time>
      </trkpt>
      <trkpt lat="45.19733" lon="5.74243">
        <ele>208.60000610352</ele>
        <time>2021-08-25T03:14:00.000Z</time>
      </trkpt>
      <trkpt lat="45.19719" lon="5.74249">
        <ele>209.39999389648</ele>
        <time>2021-08-25T03:14:07.000Z</time>
      </trkpt>
      <trkpt lat="45.19699" lon="5.74252">
        <ele>209</ele>
        <time>2021-08-25T03:14:15.000Z</time>
      </trkpt>
      <trkpt lat="45.19688" lon="5.7425">
        <ele>209.39999389648</ele>
        <time>2021-08-25T03:14:19.000Z</time>
      </trkpt>
      <trkpt lat="45.19681" lon="5.7425">
        <ele>209.39999389648</ele>
        <time>2021-08-25T03:14:22.000Z</time>
      </trkpt>
      <trkpt lat="45.1968" lon="5.7425">
        <ele>209.19999694824</ele>
        <time>2021-08-25T03:14:23.000Z</time>
      </trkpt>
      <trkpt lat="45.1967" lon="5.7425">
        <ele>209.19999694824</ele>
        <time>2021-08-25T03:14:28.000Z</time>
      </trkpt>
      <trkpt lat="45.1965" lon="5.74251">
        <ele>209.19999694824</ele>
        <time>2021-08-25T03:14:36.000Z</time>
      </trkpt>
      <trkpt lat="45.19646" lon="5.7425">
        <ele>209.80000305176</ele>
        <time>2021-08-25T03:14:38.000Z</time>
      </trkpt>
      <trkpt lat="45.19632" lon="5.74248">
        <ele>209</ele>
        <time>2021-08-25T03:14:44.000Z</time>
      </trkpt>
      <trkpt lat="45.19621" lon="5.74246">
        <ele>209.39999389648</ele>
        <time>2021-08-25T03:14:49.000Z</time>
      </trkpt>
      <trkpt lat="45.19617" lon="5.74246">
        <ele>209.39999389648</ele>
        <time>2021-08-25T03:14:51.000Z</time>
      </trkpt>
      <trkpt lat="45.19598" lon="5.74244">
        <ele>209.19999694824</ele>
        <time>2021-08-25T03:14:58.000Z</time>
      </trkpt>
      <trkpt lat="45.19589" lon="5.74241">
        <ele>209.19999694824</ele>
        <time>2021-08-25T03:15:03.000Z</time>
      </trkpt>
      <trkpt lat="45.19577" lon="5.74238">
        <ele>209</ele>
        <time>2021-08-25T03:15:08.000Z</time>
      </trkpt>
      <trkpt lat="45.1956" lon="5.74233">
        <ele>209.19999694824</ele>
        <time>2021-08-25T03:15:16.000Z</time>
      </trkpt>
      <trkpt lat="45.19544" lon="5.74229">
        <ele>209</ele>
        <time>2021-08-25T03:15:22.000Z</time>
      </trkpt>
      <trkpt lat="45.19541" lon="5.74228">
        <ele>209.19999694824</ele>
        <time>2021-08-25T03:15:23.000Z</time>
      </trkpt>
      <trkpt lat="45.19533" lon="5.74226">
        <ele>209.19999694824</ele>
        <time>2021-08-25T03:15:26.000Z</time>
      </trkpt>
      <trkpt lat="45.19522" lon="5.74223">
        <ele>210</ele>
        <time>2021-08-25T03:15:31.000Z</time>
      </trkpt>
      <trkpt lat="45.19506" lon="5.74215">
        <ele>210.19999694824</ele>
        <time>2021-08-25T03:15:37.000Z</time>
      </trkpt>
      <trkpt lat="45.19503" lon="5.74214">
        <ele>210.39999389648</ele>
        <time>2021-08-25T03:15:38.000Z</time>
      </trkpt>
      <trkpt lat="45.19494" lon="5.7421">
        <ele>210.39999389648</ele>
        <time>2021-08-25T03:15:41.000Z</time>
      </trkpt>
      <trkpt lat="45.19487" lon="5.74206">
        <ele>210.39999389648</ele>
        <time>2021-08-25T03:15:43.000Z</time>
      </trkpt>
      <trkpt lat="45.1948" lon="5.74201">
        <ele>210.39999389648</ele>
        <time>2021-08-25T03:15:47.000Z</time>
      </trkpt>
      <trkpt lat="45.19477" lon="5.74199">
        <ele>210.60000610352</ele>
        <time>2021-08-25T03:15:49.000Z</time>
      </trkpt>
      <trkpt lat="45.19458" lon="5.74192">
        <ele>210.60000610352</ele>
        <time>2021-08-25T03:15:57.000Z</time>
      </trkpt>
      <trkpt lat="45.19446" lon="5.74187">
        <ele>210.60000610352</ele>
        <time>2021-08-25T03:16:02.000Z</time>
      </trkpt>
      <trkpt lat="45.19444" lon="5.74186">
        <ele>210.19999694824</ele>
        <time>2021-08-25T03:16:03.000Z</time>
      </trkpt>
      <trkpt lat="45.19427" lon="5.74179">
        <ele>210.19999694824</ele>
        <time>2021-08-25T03:16:10.000Z</time>
      </trkpt>
      <trkpt lat="45.19406" lon="5.74172">
        <ele>210.39999389648</ele>
        <time>2021-08-25T03:16:16.000Z</time>
      </trkpt>
      <trkpt lat="45.19386" lon="5.74169">
        <ele>210.19999694824</ele>
        <time>2021-08-25T03:16:21.000Z</time>
      </trkpt>
      <trkpt lat="45.19381" lon="5.74168">
        <ele>210.19999694824</ele>
        <time>2021-08-25T03:16:23.000Z</time>
      </trkpt>
      <trkpt lat="45.1936" lon="5.74163">
        <ele>210.60000610352</ele>
        <time>2021-08-25T03:16:30.000Z</time>
      </trkpt>
      <trkpt lat="45.19357" lon="5.74161">
        <ele>210.39999389648</ele>
        <time>2021-08-25T03:16:31.000Z</time>
      </trkpt>
      <trkpt lat="45.19338" lon="5.74158">
        <ele>210.60000610352</ele>
        <time>2021-08-25T03:16:38.000Z</time>
      </trkpt>
      <trkpt lat="45.19335" lon="5.74157">
        <ele>210.60000610352</ele>
        <time>2021-08-25T03:16:39.000Z</time>
      </trkpt>
      <trkpt lat="45.19325" lon="5.74156">
        <ele>210.60000610352</ele>
        <time>2021-08-25T03:16:43.000Z</time>
      </trkpt>
      <trkpt lat="45.1932" lon="5.74154">
        <ele>210.39999389648</ele>
        <time>2021-08-25T03:16:45.000Z</time>
      </trkpt>
      <trkpt lat="45.193" lon="5.74151">
        <ele>210.60000610352</ele>
        <time>2021-08-25T03:16:53.000Z</time>
      </trkpt>
      <trkpt lat="45.19279" lon="5.74148">
        <ele>210.39999389648</ele>
        <time>2021-08-25T03:17:00.000Z</time>
      </trkpt>
      <trkpt lat="45.19277" lon="5.74148">
        <ele>210.39999389648</ele>
        <time>2021-08-25T03:17:01.000Z</time>
      </trkpt>
      <trkpt lat="45.19266" lon="5.74146">
        <ele>210.39999389648</ele>
        <time>2021-08-25T03:17:06.000Z</time>
      </trkpt>
      <trkpt lat="45.19255" lon="5.74144">
        <ele>209.80000305176</ele>
        <time>2021-08-25T03:17:11.000Z</time>
      </trkpt>
      <trkpt lat="45.1924" lon="5.74142">
        <ele>210.60000610352</ele>
        <time>2021-08-25T03:17:18.000Z</time>
      </trkpt>
      <trkpt lat="45.19225" lon="5.74139">
        <ele>210.19999694824</ele>
        <time>2021-08-25T03:17:23.000Z</time>
      </trkpt>
      <trkpt lat="45.19214" lon="5.74136">
        <ele>210.60000610352</ele>
        <time>2021-08-25T03:17:27.000Z</time>
      </trkpt>
      <trkpt lat="45.19209" lon="5.74136">
        <ele>210</ele>
        <time>2021-08-25T03:17:29.000Z</time>
      </trkpt>
      <trkpt lat="45.19204" lon="5.74136">
        <ele>210</ele>
        <time>2021-08-25T03:17:31.000Z</time>
      </trkpt>
      <trkpt lat="45.19191" lon="5.74136">
        <ele>209.60000610352</ele>
        <time>2021-08-25T03:17:35.000Z</time>
      </trkpt>
      <trkpt lat="45.19188" lon="5.74136">
        <ele>209.19999694824</ele>
        <time>2021-08-25T03:17:36.000Z</time>
      </trkpt>
      <trkpt lat="45.19174" lon="5.74139">
        <ele>209</ele>
        <time>2021-08-25T03:17:40.000Z</time>
      </trkpt>
      <trkpt lat="45.19167" lon="5.74139">
        <ele>209</ele>
        <time>2021-08-25T03:17:42.000Z</time>
      </trkpt>
      <trkpt lat="45.19161" lon="5.74138">
        <ele>208.80000305176</ele>
        <time>2021-08-25T03:17:44.000Z</time>
      </trkpt>
      <trkpt lat="45.19149" lon="5.74137">
        <ele>209</ele>
        <time>2021-08-25T03:17:48.000Z</time>
      </trkpt>
      <trkpt lat="45.19137" lon="5.74137">
        <ele>210.19999694824</ele>
        <time>2021-08-25T03:17:52.000Z</time>
      </trkpt>
      <trkpt lat="45.19131" lon="5.74139">
        <ele>210.19999694824</ele>
        <time>2021-08-25T03:17:55.000Z</time>
      </trkpt>
      <trkpt lat="45.1913" lon="5.74139">
        <ele>210.39999389648</ele>
        <time>2021-08-25T03:17:56.000Z</time>
      </trkpt>
      <trkpt lat="45.19128" lon="5.74139">
        <ele>210.60000610352</ele>
        <time>2021-08-25T03:17:57.000Z</time>
      </trkpt>
      <trkpt lat="45.19123" lon="5.74139">
        <ele>210.60000610352</ele>
        <time>2021-08-25T03:17:59.000Z</time>
      </trkpt>
      <trkpt lat="45.19117" lon="5.74139">
        <ele>210.80000305176</ele>
        <time>2021-08-25T03:18:01.000Z</time>
      </trkpt>
      <trkpt lat="45.19104" lon="5.74141">
        <ele>210.60000610352</ele>
        <time>2021-08-25T03:18:06.000Z</time>
      </trkpt>
      <trkpt lat="45.19102" lon="5.74143">
        <ele>210.60000610352</ele>
        <time>2021-08-25T03:18:07.000Z</time>
      </trkpt>
      <trkpt lat="45.1909" lon="5.74152">
        <ele>210.80000305176</ele>
        <time>2021-08-25T03:18:12.000Z</time>
      </trkpt>
      <trkpt lat="45.19072" lon="5.74161">
        <ele>210.60000610352</ele>
        <time>2021-08-25T03:18:19.000Z</time>
      </trkpt>
      <trkpt lat="45.19069" lon="5.74161">
        <ele>210.39999389648</ele>
        <time>2021-08-25T03:18:20.000Z</time>
      </trkpt>
      <trkpt lat="45.19056" lon="5.74168">
        <ele>210.80000305176</ele>
        <time>2021-08-25T03:18:25.000Z</time>
      </trkpt>
      <trkpt lat="45.19052" lon="5.74171">
        <ele>210.39999389648</ele>
        <time>2021-08-25T03:18:27.000Z</time>
      </trkpt>
      <trkpt lat="45.19034" lon="5.74183">
        <ele>210.39999389648</ele>
        <time>2021-08-25T03:18:33.000Z</time>
      </trkpt>
      <trkpt lat="45.19031" lon="5.74185">
        <ele>210.39999389648</ele>
        <time>2021-08-25T03:18:34.000Z</time>
      </trkpt>
      <trkpt lat="45.19015" lon="5.74197">
        <ele>210.39999389648</ele>
        <time>2021-08-25T03:18:40.000Z</time>
      </trkpt>
      <trkpt lat="45.19013" lon="5.74199">
        <ele>210.39999389648</ele>
        <time>2021-08-25T03:18:41.000Z</time>
      </trkpt>
      <trkpt lat="45.18997" lon="5.74212">
        <ele>210.60000610352</ele>
        <time>2021-08-25T03:18:47.000Z</time>
      </trkpt>
      <trkpt lat="45.18982" lon="5.74229">
        <ele>210</ele>
        <time>2021-08-25T03:18:53.000Z</time>
      </trkpt>
      <trkpt lat="45.18978" lon="5.74232">
        <ele>210</ele>
        <time>2021-08-25T03:18:54.000Z</time>
      </trkpt>
      <trkpt lat="45.18934" lon="5.74285">
        <ele>210.39999389648</ele>
        <time>2021-08-25T03:19:12.000Z</time>
      </trkpt>
      <trkpt lat="45.18934" lon="5.74295">
        <ele>210.39999389648</ele>
        <time>2021-08-25T03:19:14.000Z</time>
      </trkpt>
      <trkpt lat="45.18928" lon="5.74315">
        <ele>210.60000610352</ele>
        <time>2021-08-25T03:19:19.000Z</time>
      </trkpt>
      <trkpt lat="45.18919" lon="5.74341">
        <ele>211</ele>
        <time>2021-08-25T03:19:26.000Z</time>
      </trkpt>
      <trkpt lat="45.18918" lon="5.74344">
        <ele>211</ele>
        <time>2021-08-25T03:19:27.000Z</time>
      </trkpt>
      <trkpt lat="45.18911" lon="5.74363">
        <ele>210.80000305176</ele>
        <time>2021-08-25T03:19:32.000Z</time>
      </trkpt>
      <trkpt lat="45.18906" lon="5.74389">
        <ele>211</ele>
        <time>2021-08-25T03:19:38.000Z</time>
      </trkpt>
      <trkpt lat="45.18905" lon="5.74399">
        <ele>211</ele>
        <time>2021-08-25T03:19:41.000Z</time>
      </trkpt>
      <trkpt lat="45.18903" lon="5.74412">
        <ele>211.39999389648</ele>
        <time>2021-08-25T03:19:44.000Z</time>
      </trkpt>
      <trkpt lat="45.18903" lon="5.74416">
        <ele>211.39999389648</ele>
        <time>2021-08-25T03:19:45.000Z</time>
      </trkpt>
      <trkpt lat="45.18901" lon="5.74434">
        <ele>210.80000305176</ele>
        <time>2021-08-25T03:19:50.000Z</time>
      </trkpt>
      <trkpt lat="45.18896" lon="5.74447">
        <ele>210.80000305176</ele>
        <time>2021-08-25T03:19:54.000Z</time>
      </trkpt>
      <trkpt lat="45.18895" lon="5.74451">
        <ele>210.80000305176</ele>
        <time>2021-08-25T03:19:55.000Z</time>
      </trkpt>
      <trkpt lat="45.18891" lon="5.74465">
        <ele>211</ele>
        <time>2021-08-25T03:19:59.000Z</time>
      </trkpt>
      <trkpt lat="45.1889" lon="5.74467">
        <ele>210.39999389648</ele>
        <time>2021-08-25T03:20:00.000Z</time>
      </trkpt>
      <trkpt lat="45.1889" lon="5.74468">
        <ele>210.39999389648</ele>
        <time>2021-08-25T03:20:03.000Z</time>
      </trkpt>
      <trkpt lat="45.18892" lon="5.74468">
        <ele>210.19999694824</ele>
        <time>2021-08-25T03:20:04.000Z</time>
      </trkpt>
      <trkpt lat="45.18894" lon="5.74466">
        <ele>208.60000610352</ele>
        <time>2021-08-25T03:20:07.000Z</time>
      </trkpt>
      <trkpt lat="45.18895" lon="5.74465">
        <ele>208.19999694824</ele>
        <time>2021-08-25T03:20:08.000Z</time>
      </trkpt>
      <trkpt lat="45.18895" lon="5.74463">
        <ele>208</ele>
        <time>2021-08-25T03:20:10.000Z</time>
      </trkpt>
      <trkpt lat="45.18894" lon="5.74459">
        <ele>208</ele>
        <time>2021-08-25T03:20:11.000Z</time>
      </trkpt>
      <trkpt lat="45.18894" lon="5.74456">
        <ele>208</ele>
        <time>2021-08-25T03:20:12.000Z</time>
      </trkpt>
      <trkpt lat="45.18894" lon="5.74449">
        <ele>208.39999389648</ele>
        <time>2021-08-25T03:20:15.000Z</time>
      </trkpt>
      <trkpt lat="45.18895" lon="5.74445">
        <ele>208.39999389648</ele>
        <time>2021-08-25T03:20:17.000Z</time>
      </trkpt>
      <trkpt lat="45.189" lon="5.74429">
        <ele>208</ele>
        <time>2021-08-25T03:20:21.000Z</time>
      </trkpt>
      <trkpt lat="45.18903" lon="5.74426">
        <ele>210.80000305176</ele>
        <time>2021-08-25T03:20:23.000Z</time>
      </trkpt>
      <trkpt lat="45.18903" lon="5.74424">
        <ele>210.80000305176</ele>
        <time>2021-08-25T03:20:24.000Z</time>
      </trkpt>
      <trkpt lat="45.18904" lon="5.74421">
        <ele>210.80000305176</ele>
        <time>2021-08-25T03:20:25.000Z</time>
      </trkpt>
      <trkpt lat="45.18906" lon="5.74412">
        <ele>209.80000305176</ele>
        <time>2021-08-25T03:20:28.000Z</time>
      </trkpt>
      <trkpt lat="45.1891" lon="5.74401">
        <ele>210</ele>
        <time>2021-08-25T03:20:31.000Z</time>
      </trkpt>
      <trkpt lat="45.18914" lon="5.74393">
        <ele>211.60000610352</ele>
        <time>2021-08-25T03:20:33.000Z</time>
      </trkpt>
      <trkpt lat="45.18917" lon="5.74372">
        <ele>211.19999694824</ele>
        <time>2021-08-25T03:20:37.000Z</time>
      </trkpt>
      <trkpt lat="45.18917" lon="5.74367">
        <ele>210.60000610352</ele>
        <time>2021-08-25T03:20:38.000Z</time>
      </trkpt>
      <trkpt lat="45.18919" lon="5.74357">
        <ele>210.80000305176</ele>
        <time>2021-08-25T03:20:40.000Z</time>
      </trkpt>
      <trkpt lat="45.1892" lon="5.74352">
        <ele>210.80000305176</ele>
        <time>2021-08-25T03:20:41.000Z</time>
      </trkpt>
      <trkpt lat="45.18922" lon="5.74345">
        <ele>210.80000305176</ele>
        <time>2021-08-25T03:20:43.000Z</time>
      </trkpt>
      <trkpt lat="45.18925" lon="5.74338">
        <ele>210.60000610352</ele>
        <time>2021-08-25T03:20:45.000Z</time>
      </trkpt>
      <trkpt lat="45.18938" lon="5.74316">
        <ele>210.60000610352</ele>
        <time>2021-08-25T03:20:51.000Z</time>
      </trkpt>
      <trkpt lat="45.18939" lon="5.74312">
        <ele>210.60000610352</ele>
        <time>2021-08-25T03:20:52.000Z</time>
      </trkpt>
      <trkpt lat="45.18944" lon="5.74295">
        <ele>210.60000610352</ele>
        <time>2021-08-25T03:20:57.000Z</time>
      </trkpt>
      <trkpt lat="45.18946" lon="5.74288">
        <ele>210.60000610352</ele>
        <time>2021-08-25T03:21:00.000Z</time>
      </trkpt>
      <trkpt lat="45.18947" lon="5.74285">
        <ele>210.60000610352</ele>
        <time>2021-08-25T03:21:02.000Z</time>
      </trkpt>
      <trkpt lat="45.1895" lon="5.74278">
        <ele>210.60000610352</ele>
        <time>2021-08-25T03:21:05.000Z</time>
      </trkpt>
      <trkpt lat="45.18951" lon="5.74275">
        <ele>210.60000610352</ele>
        <time>2021-08-25T03:21:06.000Z</time>
      </trkpt>
      <trkpt lat="45.18953" lon="5.74269">
        <ele>211</ele>
        <time>2021-08-25T03:21:08.000Z</time>
      </trkpt>
      <trkpt lat="45.18951" lon="5.74264">
        <ele>211</ele>
        <time>2021-08-25T03:21:10.000Z</time>
      </trkpt>
      <trkpt lat="45.18943" lon="5.74255">
        <ele>211</ele>
        <time>2021-08-25T03:21:13.000Z</time>
      </trkpt>
      <trkpt lat="45.18944" lon="5.74252">
        <ele>211.19999694824</ele>
        <time>2021-08-25T03:21:14.000Z</time>
      </trkpt>
      <trkpt lat="45.18948" lon="5.7425">
        <ele>211.19999694824</ele>
        <time>2021-08-25T03:21:15.000Z</time>
      </trkpt>
      <trkpt lat="45.18957" lon="5.74241">
        <ele>211.60000610352</ele>
        <time>2021-08-25T03:21:18.000Z</time>
      </trkpt>
      <trkpt lat="45.18958" lon="5.74239">
        <ele>211.60000610352</ele>
        <time>2021-08-25T03:21:19.000Z</time>
      </trkpt>
      <trkpt lat="45.18959" lon="5.74231">
        <ele>212.60000610352</ele>
        <time>2021-08-25T03:21:22.000Z</time>
      </trkpt>
      <trkpt lat="45.18962" lon="5.74226">
        <ele>212.80000305176</ele>
        <time>2021-08-25T03:21:24.000Z</time>
      </trkpt>
      <trkpt lat="45.18972" lon="5.74218">
        <ele>213.19999694824</ele>
        <time>2021-08-25T03:21:28.000Z</time>
      </trkpt>
      <trkpt lat="45.18991" lon="5.74204">
        <ele>213.39999389648</ele>
        <time>2021-08-25T03:21:33.000Z</time>
      </trkpt>
      <trkpt lat="45.18996" lon="5.74201">
        <ele>213.39999389648</ele>
        <time>2021-08-25T03:21:34.000Z</time>
      </trkpt>
      <trkpt lat="45.19005" lon="5.74193">
        <ele>213.19999694824</ele>
        <time>2021-08-25T03:21:37.000Z</time>
      </trkpt>
      <trkpt lat="45.19012" lon="5.7419">
        <ele>213.19999694824</ele>
        <time>2021-08-25T03:21:39.000Z</time>
      </trkpt>
      <trkpt lat="45.19019" lon="5.74186">
        <ele>213.19999694824</ele>
        <time>2021-08-25T03:21:41.000Z</time>
      </trkpt>
      <trkpt lat="45.19037" lon="5.74177">
        <ele>213.39999389648</ele>
        <time>2021-08-25T03:21:47.000Z</time>
      </trkpt>
      <trkpt lat="45.19043" lon="5.74173">
        <ele>213.19999694824</ele>
        <time>2021-08-25T03:21:49.000Z</time>
      </trkpt>
      <trkpt lat="45.1906" lon="5.74166">
        <ele>213.39999389648</ele>
        <time>2021-08-25T03:21:55.000Z</time>
      </trkpt>
      <trkpt lat="45.19066" lon="5.74161">
        <ele>213.39999389648</ele>
        <time>2021-08-25T03:21:58.000Z</time>
      </trkpt>
      <trkpt lat="45.19067" lon="5.74159">
        <ele>213.39999389648</ele>
        <time>2021-08-25T03:21:59.000Z</time>
      </trkpt>
      <trkpt lat="45.19072" lon="5.74154">
        <ele>213.60000610352</ele>
        <time>2021-08-25T03:22:02.000Z</time>
      </trkpt>
      <trkpt lat="45.19076" lon="5.74152">
        <ele>213.60000610352</ele>
        <time>2021-08-25T03:22:03.000Z</time>
      </trkpt>
      <trkpt lat="45.19091" lon="5.74147">
        <ele>213.80000305176</ele>
        <time>2021-08-25T03:22:08.000Z</time>
      </trkpt>
      <trkpt lat="45.19094" lon="5.74146">
        <ele>213.80000305176</ele>
        <time>2021-08-25T03:22:09.000Z</time>
      </trkpt>
      <trkpt lat="45.19106" lon="5.74142">
        <ele>211</ele>
        <time>2021-08-25T03:22:13.000Z</time>
      </trkpt>
      <trkpt lat="45.1912" lon="5.7414">
        <ele>211.39999389648</ele>
        <time>2021-08-25T03:22:18.000Z</time>
      </trkpt>
      <trkpt lat="45.1914" lon="5.74141">
        <ele>210.39999389648</ele>
        <time>2021-08-25T03:22:24.000Z</time>
      </trkpt>
      <trkpt lat="45.19154" lon="5.74142">
        <ele>210</ele>
        <time>2021-08-25T03:22:29.000Z</time>
      </trkpt>
      <trkpt lat="45.1917" lon="5.74139">
        <ele>210.19999694824</ele>
        <time>2021-08-25T03:22:35.000Z</time>
      </trkpt>
      <trkpt lat="45.19176" lon="5.74134">
        <ele>210.39999389648</ele>
        <time>2021-08-25T03:22:38.000Z</time>
      </trkpt>
      <trkpt lat="45.19178" lon="5.74134">
        <ele>210.60000610352</ele>
        <time>2021-08-25T03:22:39.000Z</time>
      </trkpt>
      <trkpt lat="45.19182" lon="5.74134">
        <ele>211.39999389648</ele>
        <time>2021-08-25T03:22:41.000Z</time>
      </trkpt>
      <trkpt lat="45.19187" lon="5.74132">
        <ele>211.60000610352</ele>
        <time>2021-08-25T03:22:43.000Z</time>
      </trkpt>
      <trkpt lat="45.19192" lon="5.74131">
        <ele>211.80000305176</ele>
        <time>2021-08-25T03:22:45.000Z</time>
      </trkpt>
      <trkpt lat="45.19194" lon="5.74131">
        <ele>211.80000305176</ele>
        <time>2021-08-25T03:22:46.000Z</time>
      </trkpt>
      <trkpt lat="45.19199" lon="5.74131">
        <ele>211.80000305176</ele>
        <time>2021-08-25T03:22:48.000Z</time>
      </trkpt>
      <trkpt lat="45.19203" lon="5.74132">
        <ele>211.80000305176</ele>
        <time>2021-08-25T03:22:50.000Z</time>
      </trkpt>
      <trkpt lat="45.19207" lon="5.74133">
        <ele>211.60000610352</ele>
        <time>2021-08-25T03:22:52.000Z</time>
      </trkpt>
      <trkpt lat="45.19212" lon="5.74134">
        <ele>211.60000610352</ele>
        <time>2021-08-25T03:22:53.000Z</time>
      </trkpt>
      <trkpt lat="45.19229" lon="5.74136">
        <ele>211.80000305176</ele>
        <time>2021-08-25T03:22:59.000Z</time>
      </trkpt>
      <trkpt lat="45.19231" lon="5.74136">
        <ele>211.80000305176</ele>
        <time>2021-08-25T03:23:00.000Z</time>
      </trkpt>
      <trkpt lat="45.1924" lon="5.74137">
        <ele>211.80000305176</ele>
        <time>2021-08-25T03:23:03.000Z</time>
      </trkpt>
      <trkpt lat="45.19256" lon="5.74141">
        <ele>211.80000305176</ele>
        <time>2021-08-25T03:23:08.000Z</time>
      </trkpt>
      <trkpt lat="45.1926" lon="5.74141">
        <ele>211.80000305176</ele>
        <time>2021-08-25T03:23:09.000Z</time>
      </trkpt>
      <trkpt lat="45.19279" lon="5.74147">
        <ele>211.60000610352</ele>
        <time>2021-08-25T03:23:14.000Z</time>
      </trkpt>
      <trkpt lat="45.19283" lon="5.74147">
        <ele>211.60000610352</ele>
        <time>2021-08-25T03:23:16.000Z</time>
      </trkpt>
      <trkpt lat="45.19285" lon="5.74147">
        <ele>211.60000610352</ele>
        <time>2021-08-25T03:23:17.000Z</time>
      </trkpt>
      <trkpt lat="45.19291" lon="5.74148">
        <ele>211.80000305176</ele>
        <time>2021-08-25T03:23:19.000Z</time>
      </trkpt>
      <trkpt lat="45.1931" lon="5.7415">
        <ele>211.80000305176</ele>
        <time>2021-08-25T03:23:25.000Z</time>
      </trkpt>
      <trkpt lat="45.19326" lon="5.74153">
        <ele>211.60000610352</ele>
        <time>2021-08-25T03:23:30.000Z</time>
      </trkpt>
      <trkpt lat="45.1933" lon="5.74155">
        <ele>211.60000610352</ele>
        <time>2021-08-25T03:23:31.000Z</time>
      </trkpt>
      <trkpt lat="45.19341" lon="5.74157">
        <ele>211.60000610352</ele>
        <time>2021-08-25T03:23:34.000Z</time>
      </trkpt>
      <trkpt lat="45.19348" lon="5.74158">
        <ele>211.60000610352</ele>
        <time>2021-08-25T03:23:36.000Z</time>
      </trkpt>
      <trkpt lat="45.19362" lon="5.74159">
        <ele>211.39999389648</ele>
        <time>2021-08-25T03:23:41.000Z</time>
      </trkpt>
      <trkpt lat="45.19381" lon="5.74162">
        <ele>211.39999389648</ele>
        <time>2021-08-25T03:23:47.000Z</time>
      </trkpt>
      <trkpt lat="45.19385" lon="5.74163">
        <ele>212</ele>
        <time>2021-08-25T03:23:48.000Z</time>
      </trkpt>
      <trkpt lat="45.19393" lon="5.74165">
        <ele>211.80000305176</ele>
        <time>2021-08-25T03:23:52.000Z</time>
      </trkpt>
      <trkpt lat="45.19413" lon="5.7417">
        <ele>211.80000305176</ele>
        <time>2021-08-25T03:24:00.000Z</time>
      </trkpt>
      <trkpt lat="45.19421" lon="5.74174">
        <ele>211.80000305176</ele>
        <time>2021-08-25T03:24:03.000Z</time>
      </trkpt>
      <trkpt lat="45.19431" lon="5.74177">
        <ele>211.80000305176</ele>
        <time>2021-08-25T03:24:07.000Z</time>
      </trkpt>
      <trkpt lat="45.19447" lon="5.74183">
        <ele>212</ele>
        <time>2021-08-25T03:24:12.000Z</time>
      </trkpt>
      <trkpt lat="45.19467" lon="5.74189">
        <ele>211.80000305176</ele>
        <time>2021-08-25T03:24:17.000Z</time>
      </trkpt>
      <trkpt lat="45.19483" lon="5.74195">
        <ele>211.80000305176</ele>
        <time>2021-08-25T03:24:21.000Z</time>
      </trkpt>
      <trkpt lat="45.19498" lon="5.74202">
        <ele>211.60000610352</ele>
        <time>2021-08-25T03:24:26.000Z</time>
      </trkpt>
      <trkpt lat="45.19506" lon="5.74205">
        <ele>211.39999389648</ele>
        <time>2021-08-25T03:24:29.000Z</time>
      </trkpt>
      <trkpt lat="45.19521" lon="5.74212">
        <ele>211.19999694824</ele>
        <time>2021-08-25T03:24:34.000Z</time>
      </trkpt>
      <trkpt lat="45.19527" lon="5.74214">
        <ele>210.80000305176</ele>
        <time>2021-08-25T03:24:36.000Z</time>
      </trkpt>
      <trkpt lat="45.19538" lon="5.74219">
        <ele>210.80000305176</ele>
        <time>2021-08-25T03:24:39.000Z</time>
      </trkpt>
      <trkpt lat="45.19559" lon="5.74226">
        <ele>210.60000610352</ele>
        <time>2021-08-25T03:24:45.000Z</time>
      </trkpt>
      <trkpt lat="45.19571" lon="5.74229">
        <ele>210.80000305176</ele>
        <time>2021-08-25T03:24:50.000Z</time>
      </trkpt>
      <trkpt lat="45.19574" lon="5.7423">
        <ele>210.80000305176</ele>
        <time>2021-08-25T03:24:51.000Z</time>
      </trkpt>
      <trkpt lat="45.19584" lon="5.74232">
        <ele>211</ele>
        <time>2021-08-25T03:24:55.000Z</time>
      </trkpt>
      <trkpt lat="45.19597" lon="5.74236">
        <ele>211</ele>
        <time>2021-08-25T03:24:59.000Z</time>
      </trkpt>
      <trkpt lat="45.19613" lon="5.74239">
        <ele>210.80000305176</ele>
        <time>2021-08-25T03:25:04.000Z</time>
      </trkpt>
      <trkpt lat="45.19624" lon="5.74239">
        <ele>210.19999694824</ele>
        <time>2021-08-25T03:25:09.000Z</time>
      </trkpt>
      <trkpt lat="45.19625" lon="5.74238">
        <ele>210.80000305176</ele>
        <time>2021-08-25T03:25:10.000Z</time>
      </trkpt>
      <trkpt lat="45.19629" lon="5.74238">
        <ele>210.80000305176</ele>
        <time>2021-08-25T03:25:12.000Z</time>
      </trkpt>
      <trkpt lat="45.1964" lon="5.74239">
        <ele>210.80000305176</ele>
        <time>2021-08-25T03:25:15.000Z</time>
      </trkpt>
      <trkpt lat="45.19645" lon="5.7424">
        <ele>210.80000305176</ele>
        <time>2021-08-25T03:25:16.000Z</time>
      </trkpt>
      <trkpt lat="45.19663" lon="5.74243">
        <ele>210.80000305176</ele>
        <time>2021-08-25T03:25:21.000Z</time>
      </trkpt>
      <trkpt lat="45.19684" lon="5.74243">
        <ele>210.80000305176</ele>
        <time>2021-08-25T03:25:28.000Z</time>
      </trkpt>
      <trkpt lat="45.1969" lon="5.74243">
        <ele>210.80000305176</ele>
        <time>2021-08-25T03:25:30.000Z</time>
      </trkpt>
      <trkpt lat="45.19709" lon="5.74244">
        <ele>210.60000610352</ele>
        <time>2021-08-25T03:25:37.000Z</time>
      </trkpt>
      <trkpt lat="45.19716" lon="5.74244">
        <ele>210.60000610352</ele>
        <time>2021-08-25T03:25:41.000Z</time>
      </trkpt>
      <trkpt lat="45.19719" lon="5.74244">
        <ele>210.60000610352</ele>
        <time>2021-08-25T03:25:43.000Z</time>
      </trkpt>
      <trkpt lat="45.19724" lon="5.7424">
        <ele>210.80000305176</ele>
        <time>2021-08-25T03:25:47.000Z</time>
      </trkpt>
      <trkpt lat="45.19725" lon="5.74238">
        <ele>210.60000610352</ele>
        <time>2021-08-25T03:25:48.000Z</time>
      </trkpt>
      <trkpt lat="45.19727" lon="5.74237">
        <ele>210.60000610352</ele>
        <time>2021-08-25T03:25:49.000Z</time>
      </trkpt>
      <trkpt lat="45.19732" lon="5.74235">
        <ele>210.60000610352</ele>
        <time>2021-08-25T03:25:52.000Z</time>
      </trkpt>
      <trkpt lat="45.19734" lon="5.74235">
        <ele>210.60000610352</ele>
        <time>2021-08-25T03:25:53.000Z</time>
      </trkpt>
      <trkpt lat="45.19751" lon="5.74233">
        <ele>210.60000610352</ele>
        <time>2021-08-25T03:25:59.000Z</time>
      </trkpt>
      <trkpt lat="45.19763" lon="5.74235">
        <ele>210.39999389648</ele>
        <time>2021-08-25T03:26:04.000Z</time>
      </trkpt>
      <trkpt lat="45.19778" lon="5.74232">
        <ele>210.80000305176</ele>
        <time>2021-08-25T03:26:10.000Z</time>
      </trkpt>
      <trkpt lat="45.19791" lon="5.74234">
        <ele>210.60000610352</ele>
        <time>2021-08-25T03:26:16.000Z</time>
      </trkpt>
      <trkpt lat="45.19796" lon="5.74233">
        <ele>210.60000610352</ele>
        <time>2021-08-25T03:26:18.000Z</time>
      </trkpt>
      <trkpt lat="45.19811" lon="5.74224">
        <ele>210.60000610352</ele>
        <time>2021-08-25T03:26:24.000Z</time>
      </trkpt>
      <trkpt lat="45.19828" lon="5.7422">
        <ele>210.80000305176</ele>
        <time>2021-08-25T03:26:29.000Z</time>
      </trkpt>
      <trkpt lat="45.1983" lon="5.74219">
        <ele>210.80000305176</ele>
        <time>2021-08-25T03:26:30.000Z</time>
      </trkpt>
      <trkpt lat="45.19831" lon="5.74218">
        <ele>210.80000305176</ele>
        <time>2021-08-25T03:26:31.000Z</time>
      </trkpt>
      <trkpt lat="45.19835" lon="5.74217">
        <ele>210.80000305176</ele>
        <time>2021-08-25T03:26:32.000Z</time>
      </trkpt>
      <trkpt lat="45.19848" lon="5.74214">
        <ele>210.80000305176</ele>
        <time>2021-08-25T03:26:36.000Z</time>
      </trkpt>
      <trkpt lat="45.19864" lon="5.7421">
        <ele>210.80000305176</ele>
        <time>2021-08-25T03:26:41.000Z</time>
      </trkpt>
      <trkpt lat="45.19881" lon="5.74209">
        <ele>210.80000305176</ele>
        <time>2021-08-25T03:26:46.000Z</time>
      </trkpt>
      <trkpt lat="45.19882" lon="5.74207">
        <ele>210.80000305176</ele>
        <time>2021-08-25T03:26:47.000Z</time>
      </trkpt>
      <trkpt lat="45.19883" lon="5.74202">
        <ele>210.80000305176</ele>
        <time>2021-08-25T03:26:49.000Z</time>
      </trkpt>
      <trkpt lat="45.19889" lon="5.74194">
        <ele>210.60000610352</ele>
        <time>2021-08-25T03:26:53.000Z</time>
      </trkpt>
      <trkpt lat="45.19891" lon="5.74192">
        <ele>210.60000610352</ele>
        <time>2021-08-25T03:26:54.000Z</time>
      </trkpt>
      <trkpt lat="45.19895" lon="5.74187">
        <ele>210.60000610352</ele>
        <time>2021-08-25T03:26:56.000Z</time>
      </trkpt>
      <trkpt lat="45.19903" lon="5.74181">
        <ele>210.80000305176</ele>
        <time>2021-08-25T03:26:59.000Z</time>
      </trkpt>
      <trkpt lat="45.19907" lon="5.7418">
        <ele>210.80000305176</ele>
        <time>2021-08-25T03:27:00.000Z</time>
      </trkpt>
      <trkpt lat="45.1991" lon="5.74179">
        <ele>210.80000305176</ele>
        <time>2021-08-25T03:27:01.000Z</time>
      </trkpt>
      <trkpt lat="45.19915" lon="5.74176">
        <ele>210.80000305176</ele>
        <time>2021-08-25T03:27:03.000Z</time>
      </trkpt>
      <trkpt lat="45.19919" lon="5.74173">
        <ele>210.80000305176</ele>
        <time>2021-08-25T03:27:05.000Z</time>
      </trkpt>
      <trkpt lat="45.19924" lon="5.74168">
        <ele>211</ele>
        <time>2021-08-25T03:27:07.000Z</time>
      </trkpt>
      <trkpt lat="45.19927" lon="5.74163">
        <ele>211</ele>
        <time>2021-08-25T03:27:09.000Z</time>
      </trkpt>
      <trkpt lat="45.1993" lon="5.74159">
        <ele>211</ele>
        <time>2021-08-25T03:27:11.000Z</time>
      </trkpt>
      <trkpt lat="45.19933" lon="5.74154">
        <ele>211</ele>
        <time>2021-08-25T03:27:13.000Z</time>
      </trkpt>
      <trkpt lat="45.19933" lon="5.74149">
        <ele>211</ele>
        <time>2021-08-25T03:27:15.000Z</time>
      </trkpt>
      <trkpt lat="45.19935" lon="5.74145">
        <ele>211</ele>
        <time>2021-08-25T03:27:17.000Z</time>
      </trkpt>
      <trkpt lat="45.19936" lon="5.74141">
        <ele>210.80000305176</ele>
        <time>2021-08-25T03:27:19.000Z</time>
      </trkpt>
      <trkpt lat="45.19938" lon="5.74137">
        <ele>210.80000305176</ele>
        <time>2021-08-25T03:27:21.000Z</time>
      </trkpt>
      <trkpt lat="45.19943" lon="5.7413">
        <ele>210.80000305176</ele>
        <time>2021-08-25T03:27:24.000Z</time>
      </trkpt>
      <trkpt lat="45.19956" lon="5.74114">
        <ele>211.19999694824</ele>
        <time>2021-08-25T03:27:29.000Z</time>
      </trkpt>
      <trkpt lat="45.19964" lon="5.74104">
        <ele>212</ele>
        <time>2021-08-25T03:27:32.000Z</time>
      </trkpt>
      <trkpt lat="45.19971" lon="5.74098">
        <ele>212.60000610352</ele>
        <time>2021-08-25T03:27:34.000Z</time>
      </trkpt>
      <trkpt lat="45.19972" lon="5.74093">
        <ele>212.60000610352</ele>
        <time>2021-08-25T03:27:36.000Z</time>
      </trkpt>
      <trkpt lat="45.19976" lon="5.74091">
        <ele>213.19999694824</ele>
        <time>2021-08-25T03:27:37.000Z</time>
      </trkpt>
      <trkpt lat="45.19978" lon="5.74088">
        <ele>213.19999694824</ele>
        <time>2021-08-25T03:27:38.000Z</time>
      </trkpt>
      <trkpt lat="45.19988" lon="5.7408">
        <ele>213.60000610352</ele>
        <time>2021-08-25T03:27:41.000Z</time>
      </trkpt>
      <trkpt lat="45.1999" lon="5.74076">
        <ele>214</ele>
        <time>2021-08-25T03:27:42.000Z</time>
      </trkpt>
      <trkpt lat="45.20002" lon="5.7406">
        <ele>214.19999694824</ele>
        <time>2021-08-25T03:27:47.000Z</time>
      </trkpt>
      <trkpt lat="45.20006" lon="5.74057">
        <ele>214.39999389648</ele>
        <time>2021-08-25T03:27:48.000Z</time>
      </trkpt>
      <trkpt lat="45.20014" lon="5.74053">
        <ele>214.39999389648</ele>
        <time>2021-08-25T03:27:51.000Z</time>
      </trkpt>
      <trkpt lat="45.20017" lon="5.74054">
        <ele>214.39999389648</ele>
        <time>2021-08-25T03:27:52.000Z</time>
      </trkpt>
      <trkpt lat="45.20019" lon="5.74056">
        <ele>214.39999389648</ele>
        <time>2021-08-25T03:27:53.000Z</time>
      </trkpt>
      <trkpt lat="45.20025" lon="5.74064">
        <ele>214.39999389648</ele>
        <time>2021-08-25T03:27:56.000Z</time>
      </trkpt>
      <trkpt lat="45.2003" lon="5.74073">
        <ele>214.60000610352</ele>
        <time>2021-08-25T03:28:00.000Z</time>
      </trkpt>
      <trkpt lat="45.20043" lon="5.74085">
        <ele>214.60000610352</ele>
        <time>2021-08-25T03:28:04.000Z</time>
      </trkpt>
      <trkpt lat="45.20051" lon="5.7409">
        <ele>214.60000610352</ele>
        <time>2021-08-25T03:28:06.000Z</time>
      </trkpt>
      <trkpt lat="45.20063" lon="5.74101">
        <ele>215</ele>
        <time>2021-08-25T03:28:10.000Z</time>
      </trkpt>
      <trkpt lat="45.20069" lon="5.74109">
        <ele>214.80000305176</ele>
        <time>2021-08-25T03:28:13.000Z</time>
      </trkpt>
      <trkpt lat="45.2007" lon="5.7411">
        <ele>215</ele>
        <time>2021-08-25T03:28:14.000Z</time>
      </trkpt>
      <trkpt lat="45.20072" lon="5.74115">
        <ele>215</ele>
        <time>2021-08-25T03:28:16.000Z</time>
      </trkpt>
      <trkpt lat="45.20077" lon="5.74121">
        <ele>214.80000305176</ele>
        <time>2021-08-25T03:28:18.000Z</time>
      </trkpt>
      <trkpt lat="45.20084" lon="5.7413">
        <ele>214.80000305176</ele>
        <time>2021-08-25T03:28:21.000Z</time>
      </trkpt>
      <trkpt lat="45.20086" lon="5.74137">
        <ele>214.80000305176</ele>
        <time>2021-08-25T03:28:24.000Z</time>
      </trkpt>
      <trkpt lat="45.20087" lon="5.74142">
        <ele>214.80000305176</ele>
        <time>2021-08-25T03:28:26.000Z</time>
      </trkpt>
      <trkpt lat="45.20095" lon="5.7415">
        <ele>214.60000610352</ele>
        <time>2021-08-25T03:28:29.000Z</time>
      </trkpt>
      <trkpt lat="45.20104" lon="5.74158">
        <ele>214.19999694824</ele>
        <time>2021-08-25T03:28:32.000Z</time>
      </trkpt>
      <trkpt lat="45.20105" lon="5.74158">
        <ele>214.19999694824</ele>
        <time>2021-08-25T03:28:33.000Z</time>
      </trkpt>
      <trkpt lat="45.20106" lon="5.74154">
        <ele>214.19999694824</ele>
        <time>2021-08-25T03:28:35.000Z</time>
      </trkpt>
      <trkpt lat="45.20109" lon="5.74146">
        <ele>213.60000610352</ele>
        <time>2021-08-25T03:28:37.000Z</time>
      </trkpt>
      <trkpt lat="45.20116" lon="5.74136">
        <ele>213.19999694824</ele>
        <time>2021-08-25T03:28:40.000Z</time>
      </trkpt>
      <trkpt lat="45.20117" lon="5.74132">
        <ele>213</ele>
        <time>2021-08-25T03:28:41.000Z</time>
      </trkpt>
      <trkpt lat="45.20122" lon="5.74125">
        <ele>212.80000305176</ele>
        <time>2021-08-25T03:28:43.000Z</time>
      </trkpt>
      <trkpt lat="45.20127" lon="5.7412">
        <ele>212.39999389648</ele>
        <time>2021-08-25T03:28:45.000Z</time>
      </trkpt>
      <trkpt lat="45.2013" lon="5.74119">
        <ele>212</ele>
        <time>2021-08-25T03:28:46.000Z</time>
      </trkpt>
      <trkpt lat="45.20133" lon="5.74117">
        <ele>211.80000305176</ele>
        <time>2021-08-25T03:28:47.000Z</time>
      </trkpt>
      <trkpt lat="45.20135" lon="5.74115">
        <ele>211.60000610352</ele>
        <time>2021-08-25T03:28:48.000Z</time>
      </trkpt>
      <trkpt lat="45.20137" lon="5.74109">
        <ele>211.19999694824</ele>
        <time>2021-08-25T03:28:50.000Z</time>
      </trkpt>
      <trkpt lat="45.20142" lon="5.74104">
        <ele>210.80000305176</ele>
        <time>2021-08-25T03:28:52.000Z</time>
      </trkpt>
      <trkpt lat="45.20144" lon="5.74098">
        <ele>210.60000610352</ele>
        <time>2021-08-25T03:28:54.000Z</time>
      </trkpt>
      <trkpt lat="45.20152" lon="5.7409">
        <ele>210.39999389648</ele>
        <time>2021-08-25T03:28:57.000Z</time>
      </trkpt>
      <trkpt lat="45.20156" lon="5.74079">
        <ele>209.80000305176</ele>
        <time>2021-08-25T03:29:00.000Z</time>
      </trkpt>
      <trkpt lat="45.20156" lon="5.74075">
        <ele>209.80000305176</ele>
        <time>2021-08-25T03:29:01.000Z</time>
      </trkpt>
      <trkpt lat="45.20157" lon="5.74069">
        <ele>209.80000305176</ele>
        <time>2021-08-25T03:29:03.000Z</time>
      </trkpt>
      <trkpt lat="45.2016" lon="5.74065">
        <ele>209.60000610352</ele>
        <time>2021-08-25T03:29:04.000Z</time>
      </trkpt>
      <trkpt lat="45.20164" lon="5.74057">
        <ele>209.60000610352</ele>
        <time>2021-08-25T03:29:06.000Z</time>
      </trkpt>
      <trkpt lat="45.20166" lon="5.74053">
        <ele>209.60000610352</ele>
        <time>2021-08-25T03:29:07.000Z</time>
      </trkpt>
      <trkpt lat="45.20167" lon="5.74049">
        <ele>209.60000610352</ele>
        <time>2021-08-25T03:29:08.000Z</time>
      </trkpt>
      <trkpt lat="45.20173" lon="5.74041">
        <ele>209.60000610352</ele>
        <time>2021-08-25T03:29:10.000Z</time>
      </trkpt>
      <trkpt lat="45.20176" lon="5.74032">
        <ele>209.60000610352</ele>
        <time>2021-08-25T03:29:12.000Z</time>
      </trkpt>
      <trkpt lat="45.20175" lon="5.74023">
        <ele>209.60000610352</ele>
        <time>2021-08-25T03:29:14.000Z</time>
      </trkpt>
      <trkpt lat="45.20184" lon="5.74009">
        <ele>209.39999389648</ele>
        <time>2021-08-25T03:29:18.000Z</time>
      </trkpt>
      <trkpt lat="45.20186" lon="5.74006">
        <ele>209.39999389648</ele>
        <time>2021-08-25T03:29:19.000Z</time>
      </trkpt>
      <trkpt lat="45.20191" lon="5.74001">
        <ele>209.39999389648</ele>
        <time>2021-08-25T03:29:21.000Z</time>
      </trkpt>
      <trkpt lat="45.202" lon="5.73993">
        <ele>209.39999389648</ele>
        <time>2021-08-25T03:29:24.000Z</time>
      </trkpt>
      <trkpt lat="45.202" lon="5.73991">
        <ele>209.39999389648</ele>
        <time>2021-08-25T03:29:25.000Z</time>
      </trkpt>
      <trkpt lat="45.202" lon="5.73988">
        <ele>209.39999389648</ele>
        <time>2021-08-25T03:29:26.000Z</time>
      </trkpt>
      <trkpt lat="45.20201" lon="5.73982">
        <ele>209.60000610352</ele>
        <time>2021-08-25T03:29:28.000Z</time>
      </trkpt>
      <trkpt lat="45.20208" lon="5.73962">
        <ele>209.39999389648</ele>
        <time>2021-08-25T03:29:34.000Z</time>
      </trkpt>
      <trkpt lat="45.20209" lon="5.73957">
        <ele>209.39999389648</ele>
        <time>2021-08-25T03:29:35.000Z</time>
      </trkpt>
      <trkpt lat="45.20213" lon="5.73954">
        <ele>209.39999389648</ele>
        <time>2021-08-25T03:29:36.000Z</time>
      </trkpt>
      <trkpt lat="45.20219" lon="5.73947">
        <ele>209.39999389648</ele>
        <time>2021-08-25T03:29:38.000Z</time>
      </trkpt>
      <trkpt lat="45.2022" lon="5.73943">
        <ele>209.60000610352</ele>
        <time>2021-08-25T03:29:39.000Z</time>
      </trkpt>
      <trkpt lat="45.20224" lon="5.73934">
        <ele>209.60000610352</ele>
        <time>2021-08-25T03:29:41.000Z</time>
      </trkpt>
      <trkpt lat="45.20233" lon="5.73911">
        <ele>209.39999389648</ele>
        <time>2021-08-25T03:29:46.000Z</time>
      </trkpt>
      <trkpt lat="45.20241" lon="5.7389">
        <ele>209.39999389648</ele>
        <time>2021-08-25T03:29:51.000Z</time>
      </trkpt>
      <trkpt lat="45.2025" lon="5.73868">
        <ele>209.39999389648</ele>
        <time>2021-08-25T03:29:56.000Z</time>
      </trkpt>
      <trkpt lat="45.20261" lon="5.73843">
        <ele>209.39999389648</ele>
        <time>2021-08-25T03:30:01.000Z</time>
      </trkpt>
      <trkpt lat="45.20264" lon="5.73823">
        <ele>209.39999389648</ele>
        <time>2021-08-25T03:30:05.000Z</time>
      </trkpt>
      <trkpt lat="45.20266" lon="5.73819">
        <ele>209.39999389648</ele>
        <time>2021-08-25T03:30:06.000Z</time>
      </trkpt>
      <trkpt lat="45.20269" lon="5.7381">
        <ele>209.19999694824</ele>
        <time>2021-08-25T03:30:08.000Z</time>
      </trkpt>
      <trkpt lat="45.20279" lon="5.73792">
        <ele>209.39999389648</ele>
        <time>2021-08-25T03:30:13.000Z</time>
      </trkpt>
      <trkpt lat="45.20282" lon="5.73783">
        <ele>209.39999389648</ele>
        <time>2021-08-25T03:30:15.000Z</time>
      </trkpt>
      <trkpt lat="45.20287" lon="5.73774">
        <ele>209.39999389648</ele>
        <time>2021-08-25T03:30:17.000Z</time>
      </trkpt>
      <trkpt lat="45.20289" lon="5.7377">
        <ele>209.39999389648</ele>
        <time>2021-08-25T03:30:18.000Z</time>
      </trkpt>
      <trkpt lat="45.20291" lon="5.73767">
        <ele>209</ele>
        <time>2021-08-25T03:30:19.000Z</time>
      </trkpt>
      <trkpt lat="45.20292" lon="5.73763">
        <ele>209.39999389648</ele>
        <time>2021-08-25T03:30:20.000Z</time>
      </trkpt>
      <trkpt lat="45.20299" lon="5.73741">
        <ele>209.19999694824</ele>
        <time>2021-08-25T03:30:26.000Z</time>
      </trkpt>
      <trkpt lat="45.20299" lon="5.73738">
        <ele>209.19999694824</ele>
        <time>2021-08-25T03:30:27.000Z</time>
      </trkpt>
      <trkpt lat="45.20284" lon="5.7372">
        <ele>209</ele>
        <time>2021-08-25T03:30:31.000Z</time>
      </trkpt>
      <trkpt lat="45.20268" lon="5.73698">
        <ele>209.19999694824</ele>
        <time>2021-08-25T03:30:36.000Z</time>
      </trkpt>
      <trkpt lat="45.20256" lon="5.73676">
        <ele>209.19999694824</ele>
        <time>2021-08-25T03:30:41.000Z</time>
      </trkpt>
      <trkpt lat="45.20246" lon="5.73649">
        <ele>209</ele>
        <time>2021-08-25T03:30:47.000Z</time>
      </trkpt>
      <trkpt lat="45.20242" lon="5.7364">
        <ele>209</ele>
        <time>2021-08-25T03:30:49.000Z</time>
      </trkpt>
      <trkpt lat="45.20234" lon="5.73614">
        <ele>208.60000610352</ele>
        <time>2021-08-25T03:30:55.000Z</time>
      </trkpt>
      <trkpt lat="45.2023" lon="5.73608">
        <ele>209</ele>
        <time>2021-08-25T03:30:57.000Z</time>
      </trkpt>
      <trkpt lat="45.20222" lon="5.73594">
        <ele>209</ele>
        <time>2021-08-25T03:31:02.000Z</time>
      </trkpt>
      <trkpt lat="45.2022" lon="5.73592">
        <ele>209</ele>
        <time>2021-08-25T03:31:03.000Z</time>
      </trkpt>
      <trkpt lat="45.20209" lon="5.73577">
        <ele>209.19999694824</ele>
        <time>2021-08-25T03:31:09.000Z</time>
      </trkpt>
      <trkpt lat="45.20198" lon="5.73565">
        <ele>209</ele>
        <time>2021-08-25T03:31:14.000Z</time>
      </trkpt>
      <trkpt lat="45.20193" lon="5.73538">
        <ele>208.80000305176</ele>
        <time>2021-08-25T03:31:19.000Z</time>
      </trkpt>
      <trkpt lat="45.20188" lon="5.73531">
        <ele>208.19999694824</ele>
        <time>2021-08-25T03:31:21.000Z</time>
      </trkpt>
      <trkpt lat="45.20177" lon="5.73516">
        <ele>208.19999694824</ele>
        <time>2021-08-25T03:31:26.000Z</time>
      </trkpt>
      <trkpt lat="45.20165" lon="5.73495">
        <ele>208</ele>
        <time>2021-08-25T03:31:32.000Z</time>
      </trkpt>
      <trkpt lat="45.20163" lon="5.73492">
        <ele>208</ele>
        <time>2021-08-25T03:31:33.000Z</time>
      </trkpt>
      <trkpt lat="45.20158" lon="5.73487">
        <ele>207.60000610352</ele>
        <time>2021-08-25T03:31:35.000Z</time>
      </trkpt>
      <trkpt lat="45.20146" lon="5.7347">
        <ele>207.60000610352</ele>
        <time>2021-08-25T03:31:41.000Z</time>
      </trkpt>
      <trkpt lat="45.20134" lon="5.73447">
        <ele>208</ele>
        <time>2021-08-25T03:31:47.000Z</time>
      </trkpt>
      <trkpt lat="45.20133" lon="5.73444">
        <ele>208.19999694824</ele>
        <time>2021-08-25T03:31:48.000Z</time>
      </trkpt>
      <trkpt lat="45.20129" lon="5.73439">
        <ele>208.39999389648</ele>
        <time>2021-08-25T03:31:50.000Z</time>
      </trkpt>
      <trkpt lat="45.20125" lon="5.73434">
        <ele>208.39999389648</ele>
        <time>2021-08-25T03:31:52.000Z</time>
      </trkpt>
      <trkpt lat="45.2012" lon="5.7343">
        <ele>208.60000610352</ele>
        <time>2021-08-25T03:31:54.000Z</time>
      </trkpt>
      <trkpt lat="45.20114" lon="5.73424">
        <ele>209</ele>
        <time>2021-08-25T03:31:57.000Z</time>
      </trkpt>
      <trkpt lat="45.20108" lon="5.73421">
        <ele>209.19999694824</ele>
        <time>2021-08-25T03:31:59.000Z</time>
      </trkpt>
      <trkpt lat="45.20099" lon="5.7341">
        <ele>209.39999389648</ele>
        <time>2021-08-25T03:32:04.000Z</time>
      </trkpt>
      <trkpt lat="45.20097" lon="5.73408">
        <ele>209.39999389648</ele>
        <time>2021-08-25T03:32:05.000Z</time>
      </trkpt>
      <trkpt lat="45.20094" lon="5.73406">
        <ele>209.80000305176</ele>
        <time>2021-08-25T03:32:06.000Z</time>
      </trkpt>
      <trkpt lat="45.20082" lon="5.73395">
        <ele>209.80000305176</ele>
        <time>2021-08-25T03:32:11.000Z</time>
      </trkpt>
      <trkpt lat="45.20068" lon="5.73388">
        <ele>210.19999694824</ele>
        <time>2021-08-25T03:32:17.000Z</time>
      </trkpt>
      <trkpt lat="45.20056" lon="5.73381">
        <ele>210.39999389648</ele>
        <time>2021-08-25T03:32:23.000Z</time>
      </trkpt>
      <trkpt lat="45.2005" lon="5.73379">
        <ele>210.39999389648</ele>
        <time>2021-08-25T03:32:25.000Z</time>
      </trkpt>
      <trkpt lat="45.20031" lon="5.73375">
        <ele>210.60000610352</ele>
        <time>2021-08-25T03:32:30.000Z</time>
      </trkpt>
      <trkpt lat="45.20028" lon="5.73374">
        <ele>210.80000305176</ele>
        <time>2021-08-25T03:32:31.000Z</time>
      </trkpt>
      <trkpt lat="45.20019" lon="5.73368">
        <ele>210.80000305176</ele>
        <time>2021-08-25T03:32:34.000Z</time>
      </trkpt>
      <trkpt lat="45.20015" lon="5.73365">
        <ele>210.80000305176</ele>
        <time>2021-08-25T03:32:36.000Z</time>
      </trkpt>
      <trkpt lat="45.20008" lon="5.73362">
        <ele>210.80000305176</ele>
        <time>2021-08-25T03:32:39.000Z</time>
      </trkpt>
      <trkpt lat="45.2" lon="5.73359">
        <ele>210.80000305176</ele>
        <time>2021-08-25T03:32:42.000Z</time>
      </trkpt>
      <trkpt lat="45.19997" lon="5.73357">
        <ele>210.80000305176</ele>
        <time>2021-08-25T03:32:43.000Z</time>
      </trkpt>
      <trkpt lat="45.19979" lon="5.73351">
        <ele>210.80000305176</ele>
        <time>2021-08-25T03:32:49.000Z</time>
      </trkpt>
      <trkpt lat="45.19963" lon="5.73342">
        <ele>211</ele>
        <time>2021-08-25T03:32:55.000Z</time>
      </trkpt>
      <trkpt lat="45.19956" lon="5.73338">
        <ele>211.39999389648</ele>
        <time>2021-08-25T03:32:57.000Z</time>
      </trkpt>
      <trkpt lat="45.19938" lon="5.73329">
        <ele>211.60000610352</ele>
        <time>2021-08-25T03:33:04.000Z</time>
      </trkpt>
      <trkpt lat="45.19928" lon="5.73323">
        <ele>211.60000610352</ele>
        <time>2021-08-25T03:33:08.000Z</time>
      </trkpt>
      <trkpt lat="45.19922" lon="5.7332">
        <ele>211.60000610352</ele>
        <time>2021-08-25T03:33:10.000Z</time>
      </trkpt>
      <trkpt lat="45.19914" lon="5.73316">
        <ele>211.80000305176</ele>
        <time>2021-08-25T03:33:13.000Z</time>
      </trkpt>
      <trkpt lat="45.19901" lon="5.7331">
        <ele>211.80000305176</ele>
        <time>2021-08-25T03:33:18.000Z</time>
      </trkpt>
      <trkpt lat="45.19888" lon="5.73301">
        <ele>211.80000305176</ele>
        <time>2021-08-25T03:33:24.000Z</time>
      </trkpt>
      <trkpt lat="45.19885" lon="5.73299">
        <ele>211.80000305176</ele>
        <time>2021-08-25T03:33:25.000Z</time>
      </trkpt>
      <trkpt lat="45.19873" lon="5.73291">
        <ele>211.39999389648</ele>
        <time>2021-08-25T03:33:32.000Z</time>
      </trkpt>
      <trkpt lat="45.19872" lon="5.73291">
        <ele>211.39999389648</ele>
        <time>2021-08-25T03:33:33.000Z</time>
      </trkpt>
      <trkpt lat="45.19869" lon="5.73289">
        <ele>211.39999389648</ele>
        <time>2021-08-25T03:33:35.000Z</time>
      </trkpt>
      <trkpt lat="45.19857" lon="5.73285">
        <ele>211.39999389648</ele>
        <time>2021-08-25T03:33:38.000Z</time>
      </trkpt>
      <trkpt lat="45.19854" lon="5.73284">
        <ele>211</ele>
        <time>2021-08-25T03:33:39.000Z</time>
      </trkpt>
      <trkpt lat="45.1984" lon="5.73281">
        <ele>211.39999389648</ele>
        <time>2021-08-25T03:33:43.000Z</time>
      </trkpt>
      <trkpt lat="45.19829" lon="5.73278">
        <ele>211.39999389648</ele>
        <time>2021-08-25T03:33:46.000Z</time>
      </trkpt>
      <trkpt lat="45.19826" lon="5.73278">
        <ele>211.39999389648</ele>
        <time>2021-08-25T03:33:47.000Z</time>
      </trkpt>
      <trkpt lat="45.19807" lon="5.73274">
        <ele>211.19999694824</ele>
        <time>2021-08-25T03:33:52.000Z</time>
      </trkpt>
      <trkpt lat="45.198" lon="5.73271">
        <ele>211.19999694824</ele>
        <time>2021-08-25T03:33:54.000Z</time>
      </trkpt>
      <trkpt lat="45.19781" lon="5.73263">
        <ele>211.39999389648</ele>
        <time>2021-08-25T03:34:00.000Z</time>
      </trkpt>
      <trkpt lat="45.19763" lon="5.73256">
        <ele>212</ele>
        <time>2021-08-25T03:34:06.000Z</time>
      </trkpt>
      <trkpt lat="45.19758" lon="5.73254">
        <ele>212</ele>
        <time>2021-08-25T03:34:08.000Z</time>
      </trkpt>
      <trkpt lat="45.19751" lon="5.73252">
        <ele>212</ele>
        <time>2021-08-25T03:34:10.000Z</time>
      </trkpt>
      <trkpt lat="45.19739" lon="5.73245">
        <ele>212</ele>
        <time>2021-08-25T03:34:14.000Z</time>
      </trkpt>
      <trkpt lat="45.19721" lon="5.73236">
        <ele>211.19999694824</ele>
        <time>2021-08-25T03:34:20.000Z</time>
      </trkpt>
      <trkpt lat="45.19718" lon="5.73234">
        <ele>211.19999694824</ele>
        <time>2021-08-25T03:34:21.000Z</time>
      </trkpt>
      <trkpt lat="45.19703" lon="5.73223">
        <ele>211</ele>
        <time>2021-08-25T03:34:27.000Z</time>
      </trkpt>
      <trkpt lat="45.19692" lon="5.73215">
        <ele>211</ele>
        <time>2021-08-25T03:34:32.000Z</time>
      </trkpt>
      <trkpt lat="45.1969" lon="5.73213">
        <ele>210.80000305176</ele>
        <time>2021-08-25T03:34:33.000Z</time>
      </trkpt>
      <trkpt lat="45.19685" lon="5.73209">
        <ele>211</ele>
        <time>2021-08-25T03:34:35.000Z</time>
      </trkpt>
      <trkpt lat="45.19679" lon="5.73202">
        <ele>211</ele>
        <time>2021-08-25T03:34:38.000Z</time>
      </trkpt>
      <trkpt lat="45.19676" lon="5.73199">
        <ele>211</ele>
        <time>2021-08-25T03:34:39.000Z</time>
      </trkpt>
      <trkpt lat="45.19672" lon="5.73192">
        <ele>211.39999389648</ele>
        <time>2021-08-25T03:34:41.000Z</time>
      </trkpt>
      <trkpt lat="45.19663" lon="5.73185">
        <ele>211.19999694824</ele>
        <time>2021-08-25T03:34:44.000Z</time>
      </trkpt>
      <trkpt lat="45.1965" lon="5.73174">
        <ele>211.60000610352</ele>
        <time>2021-08-25T03:34:49.000Z</time>
      </trkpt>
      <trkpt lat="45.19633" lon="5.7316">
        <ele>211.60000610352</ele>
        <time>2021-08-25T03:34:55.000Z</time>
      </trkpt>
      <trkpt lat="45.19631" lon="5.73158">
        <ele>211.80000305176</ele>
        <time>2021-08-25T03:34:56.000Z</time>
      </trkpt>
      <trkpt lat="45.19617" lon="5.73141">
        <ele>211.80000305176</ele>
        <time>2021-08-25T03:35:02.000Z</time>
      </trkpt>
      <trkpt lat="45.19615" lon="5.73138">
        <ele>211.80000305176</ele>
        <time>2021-08-25T03:35:03.000Z</time>
      </trkpt>
      <trkpt lat="45.19609" lon="5.73132">
        <ele>212</ele>
        <time>2021-08-25T03:35:05.000Z</time>
      </trkpt>
      <trkpt lat="45.19599" lon="5.73115">
        <ele>211.80000305176</ele>
        <time>2021-08-25T03:35:10.000Z</time>
      </trkpt>
      <trkpt lat="45.19593" lon="5.73105">
        <ele>211.80000305176</ele>
        <time>2021-08-25T03:35:13.000Z</time>
      </trkpt>
      <trkpt lat="45.19586" lon="5.73098">
        <ele>211.80000305176</ele>
        <time>2021-08-25T03:35:16.000Z</time>
      </trkpt>
      <trkpt lat="45.19584" lon="5.73094">
        <ele>211.60000610352</ele>
        <time>2021-08-25T03:35:17.000Z</time>
      </trkpt>
      <trkpt lat="45.19578" lon="5.73085">
        <ele>212.19999694824</ele>
        <time>2021-08-25T03:35:20.000Z</time>
      </trkpt>
      <trkpt lat="45.1957" lon="5.73067">
        <ele>212.60000610352</ele>
        <time>2021-08-25T03:35:25.000Z</time>
      </trkpt>
      <trkpt lat="45.1956" lon="5.73052">
        <ele>212.60000610352</ele>
        <time>2021-08-25T03:35:30.000Z</time>
      </trkpt>
      <trkpt lat="45.19549" lon="5.73034">
        <ele>212.60000610352</ele>
        <time>2021-08-25T03:35:36.000Z</time>
      </trkpt>
      <trkpt lat="45.19534" lon="5.73014">
        <ele>212.80000305176</ele>
        <time>2021-08-25T03:35:43.000Z</time>
      </trkpt>
      <trkpt lat="45.19532" lon="5.73011">
        <ele>212.80000305176</ele>
        <time>2021-08-25T03:35:44.000Z</time>
      </trkpt>
      <trkpt lat="45.19521" lon="5.72995">
        <ele>212.80000305176</ele>
        <time>2021-08-25T03:35:49.000Z</time>
      </trkpt>
      <trkpt lat="45.19519" lon="5.72993">
        <ele>212.80000305176</ele>
        <time>2021-08-25T03:35:50.000Z</time>
      </trkpt>
      <trkpt lat="45.19505" lon="5.72975">
        <ele>212.80000305176</ele>
        <time>2021-08-25T03:35:56.000Z</time>
      </trkpt>
      <trkpt lat="45.19501" lon="5.72969">
        <ele>212.80000305176</ele>
        <time>2021-08-25T03:35:58.000Z</time>
      </trkpt>
      <trkpt lat="45.19494" lon="5.72955">
        <ele>212</ele>
        <time>2021-08-25T03:36:02.000Z</time>
      </trkpt>
      <trkpt lat="45.19488" lon="5.72945">
        <ele>212</ele>
        <time>2021-08-25T03:36:05.000Z</time>
      </trkpt>
      <trkpt lat="45.19476" lon="5.72925">
        <ele>211.80000305176</ele>
        <time>2021-08-25T03:36:11.000Z</time>
      </trkpt>
      <trkpt lat="45.19474" lon="5.72922">
        <ele>211.80000305176</ele>
        <time>2021-08-25T03:36:12.000Z</time>
      </trkpt>
      <trkpt lat="45.19463" lon="5.72901">
        <ele>211.19999694824</ele>
        <time>2021-08-25T03:36:18.000Z</time>
      </trkpt>
      <trkpt lat="45.19461" lon="5.72897">
        <ele>211.19999694824</ele>
        <time>2021-08-25T03:36:19.000Z</time>
      </trkpt>
      <trkpt lat="45.19453" lon="5.72871">
        <ele>211.19999694824</ele>
        <time>2021-08-25T03:36:25.000Z</time>
      </trkpt>
      <trkpt lat="45.19451" lon="5.72861">
        <ele>211.19999694824</ele>
        <time>2021-08-25T03:36:27.000Z</time>
      </trkpt>
      <trkpt lat="45.19448" lon="5.72853">
        <ele>211.19999694824</ele>
        <time>2021-08-25T03:36:29.000Z</time>
      </trkpt>
      <trkpt lat="45.19445" lon="5.72845">
        <ele>211</ele>
        <time>2021-08-25T03:36:31.000Z</time>
      </trkpt>
      <trkpt lat="45.19441" lon="5.72838">
        <ele>211</ele>
        <time>2021-08-25T03:36:33.000Z</time>
      </trkpt>
      <trkpt lat="45.19434" lon="5.7282">
        <ele>211</ele>
        <time>2021-08-25T03:36:38.000Z</time>
      </trkpt>
      <trkpt lat="45.1943" lon="5.72803">
        <ele>210.80000305176</ele>
        <time>2021-08-25T03:36:42.000Z</time>
      </trkpt>
      <trkpt lat="45.19428" lon="5.72794">
        <ele>210.80000305176</ele>
        <time>2021-08-25T03:36:44.000Z</time>
      </trkpt>
      <trkpt lat="45.19422" lon="5.72769">
        <ele>210.39999389648</ele>
        <time>2021-08-25T03:36:50.000Z</time>
      </trkpt>
      <trkpt lat="45.1942" lon="5.72761">
        <ele>210</ele>
        <time>2021-08-25T03:36:52.000Z</time>
      </trkpt>
      <trkpt lat="45.19416" lon="5.72739">
        <ele>209.80000305176</ele>
        <time>2021-08-25T03:36:57.000Z</time>
      </trkpt>
      <trkpt lat="45.19411" lon="5.72712">
        <ele>209</ele>
        <time>2021-08-25T03:37:03.000Z</time>
      </trkpt>
      <trkpt lat="45.1941" lon="5.72703">
        <ele>208.60000610352</ele>
        <time>2021-08-25T03:37:05.000Z</time>
      </trkpt>
      <trkpt lat="45.19407" lon="5.7269">
        <ele>208</ele>
        <time>2021-08-25T03:37:08.000Z</time>
      </trkpt>
      <trkpt lat="45.19405" lon="5.72678">
        <ele>208</ele>
        <time>2021-08-25T03:37:11.000Z</time>
      </trkpt>
      <trkpt lat="45.19404" lon="5.72674">
        <ele>207.60000610352</ele>
        <time>2021-08-25T03:37:12.000Z</time>
      </trkpt>
      <trkpt lat="45.19398" lon="5.72663">
        <ele>207.80000305176</ele>
        <time>2021-08-25T03:37:16.000Z</time>
      </trkpt>
      <trkpt lat="45.19391" lon="5.72636">
        <ele>207.60000610352</ele>
        <time>2021-08-25T03:37:23.000Z</time>
      </trkpt>
      <trkpt lat="45.19387" lon="5.72608">
        <ele>207.80000305176</ele>
        <time>2021-08-25T03:37:30.000Z</time>
      </trkpt>
      <trkpt lat="45.1938" lon="5.72582">
        <ele>208</ele>
        <time>2021-08-25T03:37:37.000Z</time>
      </trkpt>
      <trkpt lat="45.19375" lon="5.72567">
        <ele>208</ele>
        <time>2021-08-25T03:37:41.000Z</time>
      </trkpt>
      <trkpt lat="45.19372" lon="5.7256">
        <ele>208</ele>
        <time>2021-08-25T03:37:43.000Z</time>
      </trkpt>
      <trkpt lat="45.19372" lon="5.72556">
        <ele>208.80000305176</ele>
        <time>2021-08-25T03:37:44.000Z</time>
      </trkpt>
      <trkpt lat="45.19371" lon="5.72536">
        <ele>209</ele>
        <time>2021-08-25T03:37:48.000Z</time>
      </trkpt>
      <trkpt lat="45.19369" lon="5.72524">
        <ele>210</ele>
        <time>2021-08-25T03:37:51.000Z</time>
      </trkpt>
      <trkpt lat="45.19368" lon="5.72518">
        <ele>210</ele>
        <time>2021-08-25T03:37:53.000Z</time>
      </trkpt>
      <trkpt lat="45.19363" lon="5.72494">
        <ele>210.80000305176</ele>
        <time>2021-08-25T03:37:59.000Z</time>
      </trkpt>
      <trkpt lat="45.19358" lon="5.72475">
        <ele>211</ele>
        <time>2021-08-25T03:38:04.000Z</time>
      </trkpt>
      <trkpt lat="45.19357" lon="5.72472">
        <ele>211</ele>
        <time>2021-08-25T03:38:05.000Z</time>
      </trkpt>
      <trkpt lat="45.19355" lon="5.72469">
        <ele>211</ele>
        <time>2021-08-25T03:38:06.000Z</time>
      </trkpt>
      <trkpt lat="45.19351" lon="5.72456">
        <ele>211.60000610352</ele>
        <time>2021-08-25T03:38:10.000Z</time>
      </trkpt>
      <trkpt lat="45.1935" lon="5.72452">
        <ele>212.19999694824</ele>
        <time>2021-08-25T03:38:11.000Z</time>
      </trkpt>
      <trkpt lat="45.1935" lon="5.72436">
        <ele>212.19999694824</ele>
        <time>2021-08-25T03:38:15.000Z</time>
      </trkpt>
      <trkpt lat="45.1935" lon="5.72424">
        <ele>212.39999389648</ele>
        <time>2021-08-25T03:38:18.000Z</time>
      </trkpt>
      <trkpt lat="45.19349" lon="5.72415">
        <ele>212.39999389648</ele>
        <time>2021-08-25T03:38:20.000Z</time>
      </trkpt>
      <trkpt lat="45.19348" lon="5.72401">
        <ele>212.60000610352</ele>
        <time>2021-08-25T03:38:23.000Z</time>
      </trkpt>
      <trkpt lat="45.19346" lon="5.72392">
        <ele>212.60000610352</ele>
        <time>2021-08-25T03:38:25.000Z</time>
      </trkpt>
      <trkpt lat="45.19343" lon="5.72378">
        <ele>212.60000610352</ele>
        <time>2021-08-25T03:38:28.000Z</time>
      </trkpt>
      <trkpt lat="45.19342" lon="5.72374">
        <ele>213.19999694824</ele>
        <time>2021-08-25T03:38:29.000Z</time>
      </trkpt>
      <trkpt lat="45.19342" lon="5.72346">
        <ele>213.39999389648</ele>
        <time>2021-08-25T03:38:35.000Z</time>
      </trkpt>
      <trkpt lat="45.1934" lon="5.7232">
        <ele>213.60000610352</ele>
        <time>2021-08-25T03:38:41.000Z</time>
      </trkpt>
      <trkpt lat="45.1934" lon="5.72316">
        <ele>213.60000610352</ele>
        <time>2021-08-25T03:38:42.000Z</time>
      </trkpt>
      <trkpt lat="45.19338" lon="5.72301">
        <ele>214.19999694824</ele>
        <time>2021-08-25T03:38:46.000Z</time>
      </trkpt>
      <trkpt lat="45.19338" lon="5.72294">
        <ele>214.19999694824</ele>
        <time>2021-08-25T03:38:49.000Z</time>
      </trkpt>
      <trkpt lat="45.19332" lon="5.72268">
        <ele>214.39999389648</ele>
        <time>2021-08-25T03:38:56.000Z</time>
      </trkpt>
      <trkpt lat="45.19331" lon="5.72242">
        <ele>214.19999694824</ele>
        <time>2021-08-25T03:39:01.000Z</time>
      </trkpt>
      <trkpt lat="45.19331" lon="5.72237">
        <ele>214.19999694824</ele>
        <time>2021-08-25T03:39:02.000Z</time>
      </trkpt>
      <trkpt lat="45.19328" lon="5.72215">
        <ele>214.19999694824</ele>
        <time>2021-08-25T03:39:08.000Z</time>
      </trkpt>
      <trkpt lat="45.19326" lon="5.72192">
        <ele>214</ele>
        <time>2021-08-25T03:39:14.000Z</time>
      </trkpt>
      <trkpt lat="45.19327" lon="5.72164">
        <ele>214</ele>
        <time>2021-08-25T03:39:20.000Z</time>
      </trkpt>
      <trkpt lat="45.19326" lon="5.72162">
        <ele>213.80000305176</ele>
        <time>2021-08-25T03:39:21.000Z</time>
      </trkpt>
      <trkpt lat="45.19324" lon="5.72158">
        <ele>213.80000305176</ele>
        <time>2021-08-25T03:39:23.000Z</time>
      </trkpt>
      <trkpt lat="45.19322" lon="5.72134">
        <ele>213.39999389648</ele>
        <time>2021-08-25T03:39:28.000Z</time>
      </trkpt>
      <trkpt lat="45.19323" lon="5.72111">
        <ele>213.39999389648</ele>
        <time>2021-08-25T03:39:32.000Z</time>
      </trkpt>
      <trkpt lat="45.19325" lon="5.72103">
        <ele>213.19999694824</ele>
        <time>2021-08-25T03:39:33.000Z</time>
      </trkpt>
      <trkpt lat="45.19326" lon="5.72097">
        <ele>213.19999694824</ele>
        <time>2021-08-25T03:39:34.000Z</time>
      </trkpt>
      <trkpt lat="45.19328" lon="5.72086">
        <ele>213.19999694824</ele>
        <time>2021-08-25T03:39:36.000Z</time>
      </trkpt>
      <trkpt lat="45.19328" lon="5.72082">
        <ele>213.19999694824</ele>
        <time>2021-08-25T03:39:37.000Z</time>
      </trkpt>
      <trkpt lat="45.19327" lon="5.72057">
        <ele>212.39999389648</ele>
        <time>2021-08-25T03:39:42.000Z</time>
      </trkpt>
      <trkpt lat="45.19327" lon="5.72028">
        <ele>212.39999389648</ele>
        <time>2021-08-25T03:39:48.000Z</time>
      </trkpt>
      <trkpt lat="45.19327" lon="5.72023">
        <ele>211.80000305176</ele>
        <time>2021-08-25T03:39:49.000Z</time>
      </trkpt>
      <trkpt lat="45.19331" lon="5.71997">
        <ele>212.19999694824</ele>
        <time>2021-08-25T03:39:54.000Z</time>
      </trkpt>
      <trkpt lat="45.19334" lon="5.71987">
        <ele>212.19999694824</ele>
        <time>2021-08-25T03:39:56.000Z</time>
      </trkpt>
      <trkpt lat="45.19337" lon="5.71982">
        <ele>212.19999694824</ele>
        <time>2021-08-25T03:39:57.000Z</time>
      </trkpt>
      <trkpt lat="45.19347" lon="5.71967">
        <ele>211.80000305176</ele>
        <time>2021-08-25T03:40:01.000Z</time>
      </trkpt>
      <trkpt lat="45.19361" lon="5.71949">
        <ele>211.80000305176</ele>
        <time>2021-08-25T03:40:06.000Z</time>
      </trkpt>
      <trkpt lat="45.19365" lon="5.71941">
        <ele>211.60000610352</ele>
        <time>2021-08-25T03:40:08.000Z</time>
      </trkpt>
      <trkpt lat="45.19376" lon="5.71922">
        <ele>211.60000610352</ele>
        <time>2021-08-25T03:40:13.000Z</time>
      </trkpt>
      <trkpt lat="45.19378" lon="5.71917">
        <ele>211.39999389648</ele>
        <time>2021-08-25T03:40:14.000Z</time>
      </trkpt>
      <trkpt lat="45.1938" lon="5.71913">
        <ele>211.39999389648</ele>
        <time>2021-08-25T03:40:15.000Z</time>
      </trkpt>
      <trkpt lat="45.19387" lon="5.71904">
        <ele>211.39999389648</ele>
        <time>2021-08-25T03:40:18.000Z</time>
      </trkpt>
      <trkpt lat="45.19396" lon="5.71898">
        <ele>210.80000305176</ele>
        <time>2021-08-25T03:40:21.000Z</time>
      </trkpt>
      <trkpt lat="45.19402" lon="5.71896">
        <ele>210.80000305176</ele>
        <time>2021-08-25T03:40:23.000Z</time>
      </trkpt>
      <trkpt lat="45.19404" lon="5.71896">
        <ele>210.80000305176</ele>
        <time>2021-08-25T03:40:24.000Z</time>
      </trkpt>
      <trkpt lat="45.19413" lon="5.71894">
        <ele>210.80000305176</ele>
        <time>2021-08-25T03:40:27.000Z</time>
      </trkpt>
      <trkpt lat="45.19419" lon="5.71894">
        <ele>210.80000305176</ele>
        <time>2021-08-25T03:40:29.000Z</time>
      </trkpt>
      <trkpt lat="45.19437" lon="5.71903">
        <ele>210.80000305176</ele>
        <time>2021-08-25T03:40:34.000Z</time>
      </trkpt>
      <trkpt lat="45.19444" lon="5.71905">
        <ele>210.80000305176</ele>
        <time>2021-08-25T03:40:36.000Z</time>
      </trkpt>
      <trkpt lat="45.19447" lon="5.71905">
        <ele>210.80000305176</ele>
        <time>2021-08-25T03:40:37.000Z</time>
      </trkpt>
      <trkpt lat="45.19453" lon="5.719">
        <ele>210.80000305176</ele>
        <time>2021-08-25T03:40:40.000Z</time>
      </trkpt>
      <trkpt lat="45.19469" lon="5.71902">
        <ele>211</ele>
        <time>2021-08-25T03:40:45.000Z</time>
      </trkpt>
      <trkpt lat="45.19472" lon="5.71903">
        <ele>211</ele>
        <time>2021-08-25T03:40:46.000Z</time>
      </trkpt>
      <trkpt lat="45.19478" lon="5.71903">
        <ele>211</ele>
        <time>2021-08-25T03:40:48.000Z</time>
      </trkpt>
      <trkpt lat="45.19484" lon="5.71903">
        <ele>211</ele>
        <time>2021-08-25T03:40:50.000Z</time>
      </trkpt>
      <trkpt lat="45.1949" lon="5.71903">
        <ele>211</ele>
        <time>2021-08-25T03:40:52.000Z</time>
      </trkpt>
      <trkpt lat="45.19494" lon="5.71903">
        <ele>211</ele>
        <time>2021-08-25T03:40:53.000Z</time>
      </trkpt>
      <trkpt lat="45.19515" lon="5.71903">
        <ele>211</ele>
        <time>2021-08-25T03:40:59.000Z</time>
      </trkpt>
      <trkpt lat="45.19535" lon="5.71902">
        <ele>210.80000305176</ele>
        <time>2021-08-25T03:41:05.000Z</time>
      </trkpt>
      <trkpt lat="45.1954" lon="5.71901">
        <ele>210.80000305176</ele>
        <time>2021-08-25T03:41:07.000Z</time>
      </trkpt>
      <trkpt lat="45.19544" lon="5.71899">
        <ele>210.80000305176</ele>
        <time>2021-08-25T03:41:09.000Z</time>
      </trkpt>
      <trkpt lat="45.19554" lon="5.71907">
        <ele>211</ele>
        <time>2021-08-25T03:41:13.000Z</time>
      </trkpt>
      <trkpt lat="45.19557" lon="5.71917">
        <ele>211.80000305176</ele>
        <time>2021-08-25T03:41:16.000Z</time>
      </trkpt>
      <trkpt lat="45.1956" lon="5.71921">
        <ele>212.19999694824</ele>
        <time>2021-08-25T03:41:18.000Z</time>
      </trkpt>
      <trkpt lat="45.19561" lon="5.71921">
        <ele>212.80000305176</ele>
        <time>2021-08-25T03:41:19.000Z</time>
      </trkpt>
      <trkpt lat="45.19564" lon="5.71923">
        <ele>213.80000305176</ele>
        <time>2021-08-25T03:41:21.000Z</time>
      </trkpt>
      <trkpt lat="45.19566" lon="5.71925">
        <ele>214.39999389648</ele>
        <time>2021-08-25T03:41:23.000Z</time>
      </trkpt>
      <trkpt lat="45.19567" lon="5.71928">
        <ele>214.80000305176</ele>
        <time>2021-08-25T03:41:25.000Z</time>
      </trkpt>
      <trkpt lat="45.19568" lon="5.7193">
        <ele>215.39999389648</ele>
        <time>2021-08-25T03:41:26.000Z</time>
      </trkpt>
      <trkpt lat="45.19569" lon="5.71933">
        <ele>215.80000305176</ele>
        <time>2021-08-25T03:41:28.000Z</time>
      </trkpt>
      <trkpt lat="45.19569" lon="5.71938">
        <ele>216.80000305176</ele>
        <time>2021-08-25T03:41:30.000Z</time>
      </trkpt>
      <trkpt lat="45.1957" lon="5.7195">
        <ele>218</ele>
        <time>2021-08-25T03:41:33.000Z</time>
      </trkpt>
      <trkpt lat="45.19573" lon="5.71955">
        <ele>219.60000610352</ele>
        <time>2021-08-25T03:41:37.000Z</time>
      </trkpt>
      <trkpt lat="45.19579" lon="5.71957">
        <ele>220.60000610352</ele>
        <time>2021-08-25T03:41:40.000Z</time>
      </trkpt>
      <trkpt lat="45.1958" lon="5.71957">
        <ele>221</ele>
        <time>2021-08-25T03:41:41.000Z</time>
      </trkpt>
      <trkpt lat="45.19581" lon="5.71957">
        <ele>221</ele>
        <time>2021-08-25T03:41:42.000Z</time>
      </trkpt>
      <trkpt lat="45.19583" lon="5.71958">
        <ele>222</ele>
        <time>2021-08-25T03:41:44.000Z</time>
      </trkpt>
      <trkpt lat="45.19585" lon="5.71959">
        <ele>222</ele>
        <time>2021-08-25T03:41:45.000Z</time>
      </trkpt>
      <trkpt lat="45.19589" lon="5.71963">
        <ele>223.39999389648</ele>
        <time>2021-08-25T03:41:48.000Z</time>
      </trkpt>
      <trkpt lat="45.19595" lon="5.71968">
        <ele>224</ele>
        <time>2021-08-25T03:41:51.000Z</time>
      </trkpt>
      <trkpt lat="45.19597" lon="5.71968">
        <ele>224.39999389648</ele>
        <time>2021-08-25T03:41:52.000Z</time>
      </trkpt>
      <trkpt lat="45.19602" lon="5.7197">
        <ele>225.39999389648</ele>
        <time>2021-08-25T03:41:55.000Z</time>
      </trkpt>
      <trkpt lat="45.19603" lon="5.71971">
        <ele>226.19999694824</ele>
        <time>2021-08-25T03:41:56.000Z</time>
      </trkpt>
      <trkpt lat="45.19605" lon="5.71974">
        <ele>227.39999389648</ele>
        <time>2021-08-25T03:41:59.000Z</time>
      </trkpt>
      <trkpt lat="45.19612" lon="5.71979">
        <ele>228</ele>
        <time>2021-08-25T03:42:02.000Z</time>
      </trkpt>
      <trkpt lat="45.19615" lon="5.7198">
        <ele>228.80000305176</ele>
        <time>2021-08-25T03:42:04.000Z</time>
      </trkpt>
      <trkpt lat="45.19618" lon="5.71982">
        <ele>229.80000305176</ele>
        <time>2021-08-25T03:42:06.000Z</time>
      </trkpt>
      <trkpt lat="45.19619" lon="5.71983">
        <ele>230</ele>
        <time>2021-08-25T03:42:07.000Z</time>
      </trkpt>
      <trkpt lat="45.19622" lon="5.71986">
        <ele>230.60000610352</ele>
        <time>2021-08-25T03:42:09.000Z</time>
      </trkpt>
      <trkpt lat="45.19623" lon="5.71987">
        <ele>231.19999694824</ele>
        <time>2021-08-25T03:42:10.000Z</time>
      </trkpt>
      <trkpt lat="45.19626" lon="5.7199">
        <ele>232</ele>
        <time>2021-08-25T03:42:13.000Z</time>
      </trkpt>
      <trkpt lat="45.19627" lon="5.71992">
        <ele>232.60000610352</ele>
        <time>2021-08-25T03:42:15.000Z</time>
      </trkpt>
      <trkpt lat="45.19627" lon="5.71993">
        <ele>233.39999389648</ele>
        <time>2021-08-25T03:42:16.000Z</time>
      </trkpt>
      <trkpt lat="45.19627" lon="5.71997">
        <ele>233.80000305176</ele>
        <time>2021-08-25T03:42:18.000Z</time>
      </trkpt>
      <trkpt lat="45.19628" lon="5.71998">
        <ele>233.80000305176</ele>
        <time>2021-08-25T03:42:19.000Z</time>
      </trkpt>
      <trkpt lat="45.19629" lon="5.72">
        <ele>235</ele>
        <time>2021-08-25T03:42:20.000Z</time>
      </trkpt>
      <trkpt lat="45.19632" lon="5.72004">
        <ele>235.80000305176</ele>
        <time>2021-08-25T03:42:22.000Z</time>
      </trkpt>
      <trkpt lat="45.19635" lon="5.72006">
        <ele>236.19999694824</ele>
        <time>2021-08-25T03:42:24.000Z</time>
      </trkpt>
      <trkpt lat="45.19636" lon="5.72007">
        <ele>237.19999694824</ele>
        <time>2021-08-25T03:42:25.000Z</time>
      </trkpt>
      <trkpt lat="45.19638" lon="5.72012">
        <ele>238</ele>
        <time>2021-08-25T03:42:28.000Z</time>
      </trkpt>
      <trkpt lat="45.19638" lon="5.72014">
        <ele>238.39999389648</ele>
        <time>2021-08-25T03:42:29.000Z</time>
      </trkpt>
      <trkpt lat="45.19638" lon="5.72015">
        <ele>239</ele>
        <time>2021-08-25T03:42:31.000Z</time>
      </trkpt>
      <trkpt lat="45.19639" lon="5.72016">
        <ele>240.39999389648</ele>
        <time>2021-08-25T03:42:32.000Z</time>
      </trkpt>
      <trkpt lat="45.19643" lon="5.72016">
        <ele>241.39999389648</ele>
        <time>2021-08-25T03:42:36.000Z</time>
      </trkpt>
      <trkpt lat="45.19645" lon="5.72024">
        <ele>242.39999389648</ele>
        <time>2021-08-25T03:42:39.000Z</time>
      </trkpt>
      <trkpt lat="45.19645" lon="5.72026">
        <ele>242.39999389648</ele>
        <time>2021-08-25T03:42:40.000Z</time>
      </trkpt>
      <trkpt lat="45.19649" lon="5.72034">
        <ele>243.39999389648</ele>
        <time>2021-08-25T03:42:43.000Z</time>
      </trkpt>
      <trkpt lat="45.19649" lon="5.72036">
        <ele>243.39999389648</ele>
        <time>2021-08-25T03:42:44.000Z</time>
      </trkpt>
      <trkpt lat="45.19652" lon="5.72041">
        <ele>245</ele>
        <time>2021-08-25T03:42:47.000Z</time>
      </trkpt>
      <trkpt lat="45.19652" lon="5.72045">
        <ele>245</ele>
        <time>2021-08-25T03:42:49.000Z</time>
      </trkpt>
      <trkpt lat="45.19651" lon="5.72052">
        <ele>246</ele>
        <time>2021-08-25T03:42:53.000Z</time>
      </trkpt>
      <trkpt lat="45.1965" lon="5.72054">
        <ele>246</ele>
        <time>2021-08-25T03:42:54.000Z</time>
      </trkpt>
      <trkpt lat="45.19649" lon="5.72055">
        <ele>246</ele>
        <time>2021-08-25T03:42:55.000Z</time>
      </trkpt>
      <trkpt lat="45.19644" lon="5.72062">
        <ele>247</ele>
        <time>2021-08-25T03:42:59.000Z</time>
      </trkpt>
      <trkpt lat="45.19638" lon="5.72066">
        <ele>248</ele>
        <time>2021-08-25T03:43:02.000Z</time>
      </trkpt>
      <trkpt lat="45.19637" lon="5.72067">
        <ele>248.19999694824</ele>
        <time>2021-08-25T03:43:03.000Z</time>
      </trkpt>
      <trkpt lat="45.19637" lon="5.72069">
        <ele>248.39999389648</ele>
        <time>2021-08-25T03:43:04.000Z</time>
      </trkpt>
      <trkpt lat="45.19639" lon="5.72072">
        <ele>249</ele>
        <time>2021-08-25T03:43:06.000Z</time>
      </trkpt>
      <trkpt lat="45.19641" lon="5.72073">
        <ele>249</ele>
        <time>2021-08-25T03:43:07.000Z</time>
      </trkpt>
      <trkpt lat="45.19643" lon="5.72073">
        <ele>250.19999694824</ele>
        <time>2021-08-25T03:43:09.000Z</time>
      </trkpt>
      <trkpt lat="45.19643" lon="5.72072">
        <ele>250.60000610352</ele>
        <time>2021-08-25T03:43:11.000Z</time>
      </trkpt>
      <trkpt lat="45.19645" lon="5.72072">
        <ele>251</ele>
        <time>2021-08-25T03:43:13.000Z</time>
      </trkpt>
      <trkpt lat="45.19646" lon="5.72071">
        <ele>251.80000305176</ele>
        <time>2021-08-25T03:43:14.000Z</time>
      </trkpt>
      <trkpt lat="45.19648" lon="5.72071">
        <ele>252</ele>
        <time>2021-08-25T03:43:16.000Z</time>
      </trkpt>
      <trkpt lat="45.19649" lon="5.72071">
        <ele>252.19999694824</ele>
        <time>2021-08-25T03:43:18.000Z</time>
      </trkpt>
      <trkpt lat="45.1965" lon="5.72071">
        <ele>253.19999694824</ele>
        <time>2021-08-25T03:43:19.000Z</time>
      </trkpt>
      <trkpt lat="45.19655" lon="5.72073">
        <ele>253.60000610352</ele>
        <time>2021-08-25T03:43:23.000Z</time>
      </trkpt>
      <trkpt lat="45.19655" lon="5.72074">
        <ele>254.39999389648</ele>
        <time>2021-08-25T03:43:24.000Z</time>
      </trkpt>
      <trkpt lat="45.19653" lon="5.72078">
        <ele>255.19999694824</ele>
        <time>2021-08-25T03:43:27.000Z</time>
      </trkpt>
      <trkpt lat="45.19652" lon="5.72079">
        <ele>255.19999694824</ele>
        <time>2021-08-25T03:43:28.000Z</time>
      </trkpt>
      <trkpt lat="45.19652" lon="5.72081">
        <ele>256.20001220703</ele>
        <time>2021-08-25T03:43:30.000Z</time>
      </trkpt>
      <trkpt lat="45.19651" lon="5.7208">
        <ele>256.39999389648</ele>
        <time>2021-08-25T03:43:32.000Z</time>
      </trkpt>
      <trkpt lat="45.19653" lon="5.72079">
        <ele>257.39999389648</ele>
        <time>2021-08-25T03:43:35.000Z</time>
      </trkpt>
      <trkpt lat="45.19654" lon="5.7208">
        <ele>257.79998779297</ele>
        <time>2021-08-25T03:43:36.000Z</time>
      </trkpt>
      <trkpt lat="45.19656" lon="5.7208">
        <ele>257.79998779297</ele>
        <time>2021-08-25T03:43:37.000Z</time>
      </trkpt>
      <trkpt lat="45.19657" lon="5.72081">
        <ele>258</ele>
        <time>2021-08-25T03:43:38.000Z</time>
      </trkpt>
      <trkpt lat="45.19658" lon="5.72081">
        <ele>258.39999389648</ele>
        <time>2021-08-25T03:43:39.000Z</time>
      </trkpt>
      <trkpt lat="45.19659" lon="5.72082">
        <ele>259.60000610352</ele>
        <time>2021-08-25T03:43:41.000Z</time>
      </trkpt>
      <trkpt lat="45.19662" lon="5.72084">
        <ele>260</ele>
        <time>2021-08-25T03:43:44.000Z</time>
      </trkpt>
      <trkpt lat="45.19663" lon="5.72085">
        <ele>260.20001220703</ele>
        <time>2021-08-25T03:43:45.000Z</time>
      </trkpt>
      <trkpt lat="45.19663" lon="5.72087">
        <ele>261</ele>
        <time>2021-08-25T03:43:46.000Z</time>
      </trkpt>
      <trkpt lat="45.19663" lon="5.72089">
        <ele>261.39999389648</ele>
        <time>2021-08-25T03:43:47.000Z</time>
      </trkpt>
      <trkpt lat="45.19663" lon="5.72093">
        <ele>262</ele>
        <time>2021-08-25T03:43:50.000Z</time>
      </trkpt>
      <trkpt lat="45.19662" lon="5.72095">
        <ele>262.39999389648</ele>
        <time>2021-08-25T03:43:51.000Z</time>
      </trkpt>
      <trkpt lat="45.19662" lon="5.72098">
        <ele>263.39999389648</ele>
        <time>2021-08-25T03:43:53.000Z</time>
      </trkpt>
      <trkpt lat="45.19662" lon="5.72101">
        <ele>264.39999389648</ele>
        <time>2021-08-25T03:43:55.000Z</time>
      </trkpt>
      <trkpt lat="45.19662" lon="5.72102">
        <ele>264.79998779297</ele>
        <time>2021-08-25T03:43:56.000Z</time>
      </trkpt>
      <trkpt lat="45.1966" lon="5.72107">
        <ele>265.79998779297</ele>
        <time>2021-08-25T03:43:59.000Z</time>
      </trkpt>
      <trkpt lat="45.19657" lon="5.7211">
        <ele>266.60000610352</ele>
        <time>2021-08-25T03:44:02.000Z</time>
      </trkpt>
      <trkpt lat="45.19657" lon="5.72112">
        <ele>266.79998779297</ele>
        <time>2021-08-25T03:44:04.000Z</time>
      </trkpt>
      <trkpt lat="45.19658" lon="5.72113">
        <ele>267.39999389648</ele>
        <time>2021-08-25T03:44:05.000Z</time>
      </trkpt>
      <trkpt lat="45.19657" lon="5.72115">
        <ele>268.20001220703</ele>
        <time>2021-08-25T03:44:06.000Z</time>
      </trkpt>
      <trkpt lat="45.19656" lon="5.72122">
        <ele>268.60000610352</ele>
        <time>2021-08-25T03:44:09.000Z</time>
      </trkpt>
      <trkpt lat="45.19657" lon="5.72126">
        <ele>268.60000610352</ele>
        <time>2021-08-25T03:44:10.000Z</time>
      </trkpt>
      <trkpt lat="45.19654" lon="5.72133">
        <ele>269.20001220703</ele>
        <time>2021-08-25T03:44:12.000Z</time>
      </trkpt>
      <trkpt lat="45.19649" lon="5.72137">
        <ele>269.39999389648</ele>
        <time>2021-08-25T03:44:14.000Z</time>
      </trkpt>
      <trkpt lat="45.19641" lon="5.72141">
        <ele>269.60000610352</ele>
        <time>2021-08-25T03:44:17.000Z</time>
      </trkpt>
      <trkpt lat="45.19634" lon="5.72146">
        <ele>269.39999389648</ele>
        <time>2021-08-25T03:44:20.000Z</time>
      </trkpt>
      <trkpt lat="45.19617" lon="5.72146">
        <ele>269</ele>
        <time>2021-08-25T03:44:26.000Z</time>
      </trkpt>
      <trkpt lat="45.19612" lon="5.72146">
        <ele>268.79998779297</ele>
        <time>2021-08-25T03:44:28.000Z</time>
      </trkpt>
      <trkpt lat="45.1961" lon="5.72147">
        <ele>268.20001220703</ele>
        <time>2021-08-25T03:44:29.000Z</time>
      </trkpt>
      <trkpt lat="45.19601" lon="5.72148">
        <ele>267.60000610352</ele>
        <time>2021-08-25T03:44:33.000Z</time>
      </trkpt>
      <trkpt lat="45.19588" lon="5.72155">
        <ele>267.60000610352</ele>
        <time>2021-08-25T03:44:39.000Z</time>
      </trkpt>
      <trkpt lat="45.19577" lon="5.72163">
        <ele>267.60000610352</ele>
        <time>2021-08-25T03:44:44.000Z</time>
      </trkpt>
      <trkpt lat="45.19574" lon="5.72164">
        <ele>267.60000610352</ele>
        <time>2021-08-25T03:44:45.000Z</time>
      </trkpt>
      <trkpt lat="45.19573" lon="5.72166">
        <ele>267</ele>
        <time>2021-08-25T03:44:46.000Z</time>
      </trkpt>
      <trkpt lat="45.19569" lon="5.72172">
        <ele>268</ele>
        <time>2021-08-25T03:44:49.000Z</time>
      </trkpt>
      <trkpt lat="45.19568" lon="5.72173">
        <ele>268.20001220703</ele>
        <time>2021-08-25T03:44:50.000Z</time>
      </trkpt>
      <trkpt lat="45.19568" lon="5.72175">
        <ele>268.39999389648</ele>
        <time>2021-08-25T03:44:51.000Z</time>
      </trkpt>
      <trkpt lat="45.19567" lon="5.72176">
        <ele>268.79998779297</ele>
        <time>2021-08-25T03:44:52.000Z</time>
      </trkpt>
      <trkpt lat="45.19565" lon="5.72178">
        <ele>269.60000610352</ele>
        <time>2021-08-25T03:44:53.000Z</time>
      </trkpt>
      <trkpt lat="45.19559" lon="5.72182">
        <ele>270.20001220703</ele>
        <time>2021-08-25T03:44:56.000Z</time>
      </trkpt>
      <trkpt lat="45.19556" lon="5.72182">
        <ele>270.79998779297</ele>
        <time>2021-08-25T03:44:57.000Z</time>
      </trkpt>
      <trkpt lat="45.19552" lon="5.7218">
        <ele>271.39999389648</ele>
        <time>2021-08-25T03:45:00.000Z</time>
      </trkpt>
      <trkpt lat="45.1955" lon="5.72179">
        <ele>271.79998779297</ele>
        <time>2021-08-25T03:45:01.000Z</time>
      </trkpt>
      <trkpt lat="45.19545" lon="5.72176">
        <ele>272.20001220703</ele>
        <time>2021-08-25T03:45:04.000Z</time>
      </trkpt>
      <trkpt lat="45.19533" lon="5.72176">
        <ele>271.60000610352</ele>
        <time>2021-08-25T03:45:10.000Z</time>
      </trkpt>
      <trkpt lat="45.19528" lon="5.72177">
        <ele>271.60000610352</ele>
        <time>2021-08-25T03:45:13.000Z</time>
      </trkpt>
      <trkpt lat="45.19522" lon="5.72175">
        <ele>272</ele>
        <time>2021-08-25T03:45:15.000Z</time>
      </trkpt>
      <trkpt lat="45.19508" lon="5.72171">
        <ele>273</ele>
        <time>2021-08-25T03:45:21.000Z</time>
      </trkpt>
      <trkpt lat="45.19506" lon="5.72169">
        <ele>273</ele>
        <time>2021-08-25T03:45:22.000Z</time>
      </trkpt>
      <trkpt lat="45.19491" lon="5.72164">
        <ele>274</ele>
        <time>2021-08-25T03:45:28.000Z</time>
      </trkpt>
      <trkpt lat="45.19487" lon="5.72164">
        <ele>274.79998779297</ele>
        <time>2021-08-25T03:45:30.000Z</time>
      </trkpt>
      <trkpt lat="45.19485" lon="5.72164">
        <ele>275.20001220703</ele>
        <time>2021-08-25T03:45:32.000Z</time>
      </trkpt>
      <trkpt lat="45.19482" lon="5.72165">
        <ele>276.20001220703</ele>
        <time>2021-08-25T03:45:35.000Z</time>
      </trkpt>
      <trkpt lat="45.1948" lon="5.72165">
        <ele>276.39999389648</ele>
        <time>2021-08-25T03:45:36.000Z</time>
      </trkpt>
      <trkpt lat="45.19479" lon="5.72165">
        <ele>276.79998779297</ele>
        <time>2021-08-25T03:45:37.000Z</time>
      </trkpt>
      <trkpt lat="45.19478" lon="5.72166">
        <ele>277.39999389648</ele>
        <time>2021-08-25T03:45:38.000Z</time>
      </trkpt>
      <trkpt lat="45.19477" lon="5.72167">
        <ele>277.60000610352</ele>
        <time>2021-08-25T03:45:39.000Z</time>
      </trkpt>
      <trkpt lat="45.19475" lon="5.72168">
        <ele>277.79998779297</ele>
        <time>2021-08-25T03:45:41.000Z</time>
      </trkpt>
      <trkpt lat="45.19475" lon="5.72169">
        <ele>278.79998779297</ele>
        <time>2021-08-25T03:45:42.000Z</time>
      </trkpt>
      <trkpt lat="45.19477" lon="5.72175">
        <ele>279.20001220703</ele>
        <time>2021-08-25T03:45:45.000Z</time>
      </trkpt>
      <trkpt lat="45.19479" lon="5.72177">
        <ele>279.60000610352</ele>
        <time>2021-08-25T03:45:46.000Z</time>
      </trkpt>
      <trkpt lat="45.19481" lon="5.72179">
        <ele>280</ele>
        <time>2021-08-25T03:45:47.000Z</time>
      </trkpt>
      <trkpt lat="45.19483" lon="5.72184">
        <ele>280.79998779297</ele>
        <time>2021-08-25T03:45:50.000Z</time>
      </trkpt>
      <trkpt lat="45.19483" lon="5.72187">
        <ele>281</ele>
        <time>2021-08-25T03:45:52.000Z</time>
      </trkpt>
      <trkpt lat="45.19484" lon="5.72191">
        <ele>282.39999389648</ele>
        <time>2021-08-25T03:45:54.000Z</time>
      </trkpt>
      <trkpt lat="45.19486" lon="5.72191">
        <ele>282.60000610352</ele>
        <time>2021-08-25T03:45:56.000Z</time>
      </trkpt>
      <trkpt lat="45.19488" lon="5.72194">
        <ele>283.60000610352</ele>
        <time>2021-08-25T03:45:58.000Z</time>
      </trkpt>
      <trkpt lat="45.19491" lon="5.72197">
        <ele>285</ele>
        <time>2021-08-25T03:46:02.000Z</time>
      </trkpt>
      <trkpt lat="45.19492" lon="5.72197">
        <ele>285.60000610352</ele>
        <time>2021-08-25T03:46:04.000Z</time>
      </trkpt>
      <trkpt lat="45.19492" lon="5.72197">
        <ele>285.79998779297</ele>
        <time>2021-08-25T03:46:06.000Z</time>
      </trkpt>
      <trkpt lat="45.19493" lon="5.72198">
        <ele>286.79998779297</ele>
        <time>2021-08-25T03:46:07.000Z</time>
      </trkpt>
      <trkpt lat="45.19494" lon="5.72198">
        <ele>287</ele>
        <time>2021-08-25T03:46:08.000Z</time>
      </trkpt>
      <trkpt lat="45.19501" lon="5.72204">
        <ele>287.79998779297</ele>
        <time>2021-08-25T03:46:13.000Z</time>
      </trkpt>
      <trkpt lat="45.19503" lon="5.72205">
        <ele>288.39999389648</ele>
        <time>2021-08-25T03:46:14.000Z</time>
      </trkpt>
      <trkpt lat="45.19507" lon="5.72208">
        <ele>289</ele>
        <time>2021-08-25T03:46:16.000Z</time>
      </trkpt>
      <trkpt lat="45.19514" lon="5.72215">
        <ele>290</ele>
        <time>2021-08-25T03:46:20.000Z</time>
      </trkpt>
      <trkpt lat="45.19515" lon="5.72216">
        <ele>290</ele>
        <time>2021-08-25T03:46:21.000Z</time>
      </trkpt>
      <trkpt lat="45.19523" lon="5.72224">
        <ele>291.20001220703</ele>
        <time>2021-08-25T03:46:26.000Z</time>
      </trkpt>
      <trkpt lat="45.19527" lon="5.72227">
        <ele>291.60000610352</ele>
        <time>2021-08-25T03:46:28.000Z</time>
      </trkpt>
      <trkpt lat="45.19531" lon="5.72227">
        <ele>292.39999389648</ele>
        <time>2021-08-25T03:46:32.000Z</time>
      </trkpt>
      <trkpt lat="45.19533" lon="5.72231">
        <ele>293.60000610352</ele>
        <time>2021-08-25T03:46:34.000Z</time>
      </trkpt>
      <trkpt lat="45.19534" lon="5.72231">
        <ele>294</ele>
        <time>2021-08-25T03:46:35.000Z</time>
      </trkpt>
      <trkpt lat="45.19534" lon="5.72232">
        <ele>294.79998779297</ele>
        <time>2021-08-25T03:46:37.000Z</time>
      </trkpt>
      <trkpt lat="45.19533" lon="5.72232">
        <ele>295.20001220703</ele>
        <time>2021-08-25T03:46:38.000Z</time>
      </trkpt>
      <trkpt lat="45.19534" lon="5.72232">
        <ele>296</ele>
        <time>2021-08-25T03:46:39.000Z</time>
      </trkpt>
      <trkpt lat="45.19535" lon="5.72232">
        <ele>296.79998779297</ele>
        <time>2021-08-25T03:46:41.000Z</time>
      </trkpt>
      <trkpt lat="45.19536" lon="5.72233">
        <ele>297.39999389648</ele>
        <time>2021-08-25T03:46:42.000Z</time>
      </trkpt>
      <trkpt lat="45.19537" lon="5.72233">
        <ele>297.39999389648</ele>
        <time>2021-08-25T03:46:43.000Z</time>
      </trkpt>
      <trkpt lat="45.1954" lon="5.72233">
        <ele>298</ele>
        <time>2021-08-25T03:46:45.000Z</time>
      </trkpt>
      <trkpt lat="45.19543" lon="5.72233">
        <ele>298.20001220703</ele>
        <time>2021-08-25T03:46:47.000Z</time>
      </trkpt>
      <trkpt lat="45.19545" lon="5.72232">
        <ele>298.20001220703</ele>
        <time>2021-08-25T03:46:48.000Z</time>
      </trkpt>
      <trkpt lat="45.19547" lon="5.72231">
        <ele>298.39999389648</ele>
        <time>2021-08-25T03:46:49.000Z</time>
      </trkpt>
      <trkpt lat="45.1955" lon="5.72232">
        <ele>298.60000610352</ele>
        <time>2021-08-25T03:46:51.000Z</time>
      </trkpt>
      <trkpt lat="45.19553" lon="5.72234">
        <ele>299.39999389648</ele>
        <time>2021-08-25T03:46:53.000Z</time>
      </trkpt>
      <trkpt lat="45.19555" lon="5.72238">
        <ele>299.60000610352</ele>
        <time>2021-08-25T03:46:55.000Z</time>
      </trkpt>
      <trkpt lat="45.19562" lon="5.72244">
        <ele>300.39999389648</ele>
        <time>2021-08-25T03:46:59.000Z</time>
      </trkpt>
      <trkpt lat="45.19564" lon="5.72246">
        <ele>300.79998779297</ele>
        <time>2021-08-25T03:47:00.000Z</time>
      </trkpt>
      <trkpt lat="45.19566" lon="5.72247">
        <ele>301</ele>
        <time>2021-08-25T03:47:02.000Z</time>
      </trkpt>
      <trkpt lat="45.19567" lon="5.72249">
        <ele>301.79998779297</ele>
        <time>2021-08-25T03:47:03.000Z</time>
      </trkpt>
      <trkpt lat="45.19569" lon="5.7225">
        <ele>302.20001220703</ele>
        <time>2021-08-25T03:47:05.000Z</time>
      </trkpt>
      <trkpt lat="45.19574" lon="5.72255">
        <ele>303</ele>
        <time>2021-08-25T03:47:09.000Z</time>
      </trkpt>
      <trkpt lat="45.1958" lon="5.72259">
        <ele>304</ele>
        <time>2021-08-25T03:47:13.000Z</time>
      </trkpt>
      <trkpt lat="45.19583" lon="5.72258">
        <ele>304.39999389648</ele>
        <time>2021-08-25T03:47:15.000Z</time>
      </trkpt>
      <trkpt lat="45.19585" lon="5.72259">
        <ele>305</ele>
        <time>2021-08-25T03:47:17.000Z</time>
      </trkpt>
      <trkpt lat="45.19587" lon="5.7226">
        <ele>305.20001220703</ele>
        <time>2021-08-25T03:47:18.000Z</time>
      </trkpt>
      <trkpt lat="45.19588" lon="5.7226">
        <ele>305.20001220703</ele>
        <time>2021-08-25T03:47:19.000Z</time>
      </trkpt>
      <trkpt lat="45.1959" lon="5.72261">
        <ele>305.39999389648</ele>
        <time>2021-08-25T03:47:20.000Z</time>
      </trkpt>
      <trkpt lat="45.19597" lon="5.72265">
        <ele>306.39999389648</ele>
        <time>2021-08-25T03:47:24.000Z</time>
      </trkpt>
      <trkpt lat="45.19605" lon="5.72262">
        <ele>307.60000610352</ele>
        <time>2021-08-25T03:47:30.000Z</time>
      </trkpt>
      <trkpt lat="45.19609" lon="5.72262">
        <ele>308</ele>
        <time>2021-08-25T03:47:32.000Z</time>
      </trkpt>
      <trkpt lat="45.19618" lon="5.72263">
        <ele>308.60000610352</ele>
        <time>2021-08-25T03:47:37.000Z</time>
      </trkpt>
      <trkpt lat="45.19625" lon="5.72265">
        <ele>309.20001220703</ele>
        <time>2021-08-25T03:47:41.000Z</time>
      </trkpt>
      <trkpt lat="45.19629" lon="5.72265">
        <ele>309.60000610352</ele>
        <time>2021-08-25T03:47:43.000Z</time>
      </trkpt>
      <trkpt lat="45.19633" lon="5.72264">
        <ele>310.20001220703</ele>
        <time>2021-08-25T03:47:46.000Z</time>
      </trkpt>
      <trkpt lat="45.19634" lon="5.72263">
        <ele>310.20001220703</ele>
        <time>2021-08-25T03:47:47.000Z</time>
      </trkpt>
      <trkpt lat="45.19639" lon="5.72262">
        <ele>310.60000610352</ele>
        <time>2021-08-25T03:47:50.000Z</time>
      </trkpt>
      <trkpt lat="45.19646" lon="5.72261">
        <ele>311.60000610352</ele>
        <time>2021-08-25T03:47:53.000Z</time>
      </trkpt>
      <trkpt lat="45.19648" lon="5.72261">
        <ele>311.79998779297</ele>
        <time>2021-08-25T03:47:54.000Z</time>
      </trkpt>
      <trkpt lat="45.19654" lon="5.7226">
        <ele>312.60000610352</ele>
        <time>2021-08-25T03:47:57.000Z</time>
      </trkpt>
      <trkpt lat="45.19656" lon="5.72258">
        <ele>313</ele>
        <time>2021-08-25T03:47:58.000Z</time>
      </trkpt>
      <trkpt lat="45.19663" lon="5.72255">
        <ele>313.60000610352</ele>
        <time>2021-08-25T03:48:02.000Z</time>
      </trkpt>
      <trkpt lat="45.19666" lon="5.72252">
        <ele>313.79998779297</ele>
        <time>2021-08-25T03:48:04.000Z</time>
      </trkpt>
      <trkpt lat="45.19667" lon="5.7225">
        <ele>314</ele>
        <time>2021-08-25T03:48:05.000Z</time>
      </trkpt>
      <trkpt lat="45.19669" lon="5.72249">
        <ele>314</ele>
        <time>2021-08-25T03:48:06.000Z</time>
      </trkpt>
      <trkpt lat="45.19671" lon="5.72248">
        <ele>314.20001220703</ele>
        <time>2021-08-25T03:48:07.000Z</time>
      </trkpt>
      <trkpt lat="45.19676" lon="5.72243">
        <ele>315.20001220703</ele>
        <time>2021-08-25T03:48:10.000Z</time>
      </trkpt>
      <trkpt lat="45.19678" lon="5.72239">
        <ele>315.39999389648</ele>
        <time>2021-08-25T03:48:12.000Z</time>
      </trkpt>
      <trkpt lat="45.19681" lon="5.72236">
        <ele>315.60000610352</ele>
        <time>2021-08-25T03:48:14.000Z</time>
      </trkpt>
      <trkpt lat="45.19683" lon="5.72236">
        <ele>315.79998779297</ele>
        <time>2021-08-25T03:48:15.000Z</time>
      </trkpt>
      <trkpt lat="45.19685" lon="5.72231">
        <ele>316.60000610352</ele>
        <time>2021-08-25T03:48:17.000Z</time>
      </trkpt>
      <trkpt lat="45.19686" lon="5.72229">
        <ele>316.60000610352</ele>
        <time>2021-08-25T03:48:18.000Z</time>
      </trkpt>
      <trkpt lat="45.19689" lon="5.72225">
        <ele>316.60000610352</ele>
        <time>2021-08-25T03:48:20.000Z</time>
      </trkpt>
      <trkpt lat="45.19691" lon="5.72217">
        <ele>317.39999389648</ele>
        <time>2021-08-25T03:48:23.000Z</time>
      </trkpt>
      <trkpt lat="45.19691" lon="5.72213">
        <ele>317.60000610352</ele>
        <time>2021-08-25T03:48:24.000Z</time>
      </trkpt>
      <trkpt lat="45.19692" lon="5.7221">
        <ele>317.79998779297</ele>
        <time>2021-08-25T03:48:25.000Z</time>
      </trkpt>
      <trkpt lat="45.197" lon="5.722">
        <ele>318.60000610352</ele>
        <time>2021-08-25T03:48:30.000Z</time>
      </trkpt>
      <trkpt lat="45.19701" lon="5.72199">
        <ele>319.39999389648</ele>
        <time>2021-08-25T03:48:31.000Z</time>
      </trkpt>
      <trkpt lat="45.19705" lon="5.72197">
        <ele>319.60000610352</ele>
        <time>2021-08-25T03:48:33.000Z</time>
      </trkpt>
      <trkpt lat="45.19708" lon="5.72195">
        <ele>320</ele>
        <time>2021-08-25T03:48:35.000Z</time>
      </trkpt>
      <trkpt lat="45.19711" lon="5.72193">
        <ele>320.20001220703</ele>
        <time>2021-08-25T03:48:37.000Z</time>
      </trkpt>
      <trkpt lat="45.19717" lon="5.72193">
        <ele>321</ele>
        <time>2021-08-25T03:48:41.000Z</time>
      </trkpt>
      <trkpt lat="45.19719" lon="5.72194">
        <ele>321.20001220703</ele>
        <time>2021-08-25T03:48:42.000Z</time>
      </trkpt>
      <trkpt lat="45.19721" lon="5.72197">
        <ele>321.79998779297</ele>
        <time>2021-08-25T03:48:44.000Z</time>
      </trkpt>
      <trkpt lat="45.19721" lon="5.72198">
        <ele>322.39999389648</ele>
        <time>2021-08-25T03:48:45.000Z</time>
      </trkpt>
      <trkpt lat="45.1972" lon="5.72203">
        <ele>322.79998779297</ele>
        <time>2021-08-25T03:48:47.000Z</time>
      </trkpt>
      <trkpt lat="45.19719" lon="5.72204">
        <ele>322.79998779297</ele>
        <time>2021-08-25T03:48:48.000Z</time>
      </trkpt>
      <trkpt lat="45.19715" lon="5.72208">
        <ele>323.79998779297</ele>
        <time>2021-08-25T03:48:51.000Z</time>
      </trkpt>
      <trkpt lat="45.19713" lon="5.72212">
        <ele>324</ele>
        <time>2021-08-25T03:48:54.000Z</time>
      </trkpt>
      <trkpt lat="45.1971" lon="5.72214">
        <ele>325</ele>
        <time>2021-08-25T03:48:56.000Z</time>
      </trkpt>
      <trkpt lat="45.19709" lon="5.72216">
        <ele>325</ele>
        <time>2021-08-25T03:48:58.000Z</time>
      </trkpt>
      <trkpt lat="45.19708" lon="5.72218">
        <ele>325.20001220703</ele>
        <time>2021-08-25T03:48:59.000Z</time>
      </trkpt>
      <trkpt lat="45.19707" lon="5.72219">
        <ele>326</ele>
        <time>2021-08-25T03:49:00.000Z</time>
      </trkpt>
      <trkpt lat="45.19702" lon="5.72225">
        <ele>327</ele>
        <time>2021-08-25T03:49:05.000Z</time>
      </trkpt>
      <trkpt lat="45.19701" lon="5.72226">
        <ele>327</ele>
        <time>2021-08-25T03:49:06.000Z</time>
      </trkpt>
      <trkpt lat="45.197" lon="5.72227">
        <ele>327.39999389648</ele>
        <time>2021-08-25T03:49:07.000Z</time>
      </trkpt>
      <trkpt lat="45.19695" lon="5.72232">
        <ele>328</ele>
        <time>2021-08-25T03:49:11.000Z</time>
      </trkpt>
      <trkpt lat="45.19695" lon="5.72234">
        <ele>328.20001220703</ele>
        <time>2021-08-25T03:49:12.000Z</time>
      </trkpt>
      <trkpt lat="45.19694" lon="5.72238">
        <ele>328.60000610352</ele>
        <time>2021-08-25T03:49:14.000Z</time>
      </trkpt>
      <trkpt lat="45.19696" lon="5.7224">
        <ele>328.79998779297</ele>
        <time>2021-08-25T03:49:16.000Z</time>
      </trkpt>
      <trkpt lat="45.19698" lon="5.72238">
        <ele>329</ele>
        <time>2021-08-25T03:49:18.000Z</time>
      </trkpt>
      <trkpt lat="45.19699" lon="5.72239">
        <ele>329.60000610352</ele>
        <time>2021-08-25T03:49:19.000Z</time>
      </trkpt>
      <trkpt lat="45.19706" lon="5.72238">
        <ele>330.60000610352</ele>
        <time>2021-08-25T03:49:24.000Z</time>
      </trkpt>
      <trkpt lat="45.1971" lon="5.72239">
        <ele>331</ele>
        <time>2021-08-25T03:49:27.000Z</time>
      </trkpt>
      <trkpt lat="45.19714" lon="5.72238">
        <ele>332.20001220703</ele>
        <time>2021-08-25T03:49:30.000Z</time>
      </trkpt>
      <trkpt lat="45.19715" lon="5.72238">
        <ele>332.60000610352</ele>
        <time>2021-08-25T03:49:32.000Z</time>
      </trkpt>
      <trkpt lat="45.19716" lon="5.72239">
        <ele>333</ele>
        <time>2021-08-25T03:49:33.000Z</time>
      </trkpt>
      <trkpt lat="45.19717" lon="5.72239">
        <ele>333.20001220703</ele>
        <time>2021-08-25T03:49:34.000Z</time>
      </trkpt>
      <trkpt lat="45.19725" lon="5.72239">
        <ele>334.39999389648</ele>
        <time>2021-08-25T03:49:39.000Z</time>
      </trkpt>
      <trkpt lat="45.19726" lon="5.72237">
        <ele>334.60000610352</ele>
        <time>2021-08-25T03:49:40.000Z</time>
      </trkpt>
      <trkpt lat="45.19728" lon="5.72237">
        <ele>334.79998779297</ele>
        <time>2021-08-25T03:49:41.000Z</time>
      </trkpt>
      <trkpt lat="45.19731" lon="5.72238">
        <ele>335.39999389648</ele>
        <time>2021-08-25T03:49:44.000Z</time>
      </trkpt>
      <trkpt lat="45.19737" lon="5.72236">
        <ele>336.20001220703</ele>
        <time>2021-08-25T03:49:47.000Z</time>
      </trkpt>
      <trkpt lat="45.19743" lon="5.72235">
        <ele>336.39999389648</ele>
        <time>2021-08-25T03:49:50.000Z</time>
      </trkpt>
      <trkpt lat="45.19746" lon="5.72235">
        <ele>337</ele>
        <time>2021-08-25T03:49:51.000Z</time>
      </trkpt>
      <trkpt lat="45.19752" lon="5.72234">
        <ele>337.39999389648</ele>
        <time>2021-08-25T03:49:55.000Z</time>
      </trkpt>
      <trkpt lat="45.19754" lon="5.72234">
        <ele>338</ele>
        <time>2021-08-25T03:49:56.000Z</time>
      </trkpt>
      <trkpt lat="45.19757" lon="5.72234">
        <ele>338.20001220703</ele>
        <time>2021-08-25T03:49:58.000Z</time>
      </trkpt>
      <trkpt lat="45.19766" lon="5.72234">
        <ele>339.20001220703</ele>
        <time>2021-08-25T03:50:03.000Z</time>
      </trkpt>
      <trkpt lat="45.19767" lon="5.72235">
        <ele>339.79998779297</ele>
        <time>2021-08-25T03:50:04.000Z</time>
      </trkpt>
      <trkpt lat="45.19768" lon="5.72237">
        <ele>340.20001220703</ele>
        <time>2021-08-25T03:50:05.000Z</time>
      </trkpt>
      <trkpt lat="45.19769" lon="5.72239">
        <ele>340.60000610352</ele>
        <time>2021-08-25T03:50:06.000Z</time>
      </trkpt>
      <trkpt lat="45.19768" lon="5.72248">
        <ele>341.20001220703</ele>
        <time>2021-08-25T03:50:09.000Z</time>
      </trkpt>
      <trkpt lat="45.19768" lon="5.72248">
        <ele>341.60000610352</ele>
        <time>2021-08-25T03:50:10.000Z</time>
      </trkpt>
      <trkpt lat="45.19768" lon="5.72251">
        <ele>341.79998779297</ele>
        <time>2021-08-25T03:50:12.000Z</time>
      </trkpt>
      <trkpt lat="45.19768" lon="5.72252">
        <ele>342.20001220703</ele>
        <time>2021-08-25T03:50:13.000Z</time>
      </trkpt>
      <trkpt lat="45.19768" lon="5.7225">
        <ele>342.60000610352</ele>
        <time>2021-08-25T03:50:15.000Z</time>
      </trkpt>
      <trkpt lat="45.19769" lon="5.72248">
        <ele>342.60000610352</ele>
        <time>2021-08-25T03:50:16.000Z</time>
      </trkpt>
      <trkpt lat="45.19769" lon="5.72247">
        <ele>342.79998779297</ele>
        <time>2021-08-25T03:50:17.000Z</time>
      </trkpt>
      <trkpt lat="45.1977" lon="5.72245">
        <ele>343.39999389648</ele>
        <time>2021-08-25T03:50:18.000Z</time>
      </trkpt>
      <trkpt lat="45.19773" lon="5.72241">
        <ele>344.20001220703</ele>
        <time>2021-08-25T03:50:21.000Z</time>
      </trkpt>
      <trkpt lat="45.19775" lon="5.72239">
        <ele>344.39999389648</ele>
        <time>2021-08-25T03:50:23.000Z</time>
      </trkpt>
      <trkpt lat="45.19775" lon="5.72237">
        <ele>344.60000610352</ele>
        <time>2021-08-25T03:50:24.000Z</time>
      </trkpt>
      <trkpt lat="45.19778" lon="5.72234">
        <ele>344.79998779297</ele>
        <time>2021-08-25T03:50:26.000Z</time>
      </trkpt>
      <trkpt lat="45.19781" lon="5.72234">
        <ele>345</ele>
        <time>2021-08-25T03:50:28.000Z</time>
      </trkpt>
      <trkpt lat="45.1978" lon="5.72237">
        <ele>345.60000610352</ele>
        <time>2021-08-25T03:50:31.000Z</time>
      </trkpt>
      <trkpt lat="45.1978" lon="5.72235">
        <ele>346.39999389648</ele>
        <time>2021-08-25T03:50:34.000Z</time>
      </trkpt>
      <trkpt lat="45.19781" lon="5.72231">
        <ele>346.79998779297</ele>
        <time>2021-08-25T03:50:37.000Z</time>
      </trkpt>
      <trkpt lat="45.19782" lon="5.72233">
        <ele>347.60000610352</ele>
        <time>2021-08-25T03:50:41.000Z</time>
      </trkpt>
      <trkpt lat="45.19781" lon="5.72235">
        <ele>347.79998779297</ele>
        <time>2021-08-25T03:50:42.000Z</time>
      </trkpt>
      <trkpt lat="45.19781" lon="5.72236">
        <ele>348.20001220703</ele>
        <time>2021-08-25T03:50:43.000Z</time>
      </trkpt>
      <trkpt lat="45.19779" lon="5.72239">
        <ele>349.39999389648</ele>
        <time>2021-08-25T03:50:46.000Z</time>
      </trkpt>
      <trkpt lat="45.19779" lon="5.72239">
        <ele>349.39999389648</ele>
        <time>2021-08-25T03:50:47.000Z</time>
      </trkpt>
      <trkpt lat="45.19779" lon="5.72239">
        <ele>349.60000610352</ele>
        <time>2021-08-25T03:50:49.000Z</time>
      </trkpt>
      <trkpt lat="45.1978" lon="5.72237">
        <ele>349.60000610352</ele>
        <time>2021-08-25T03:50:51.000Z</time>
      </trkpt>
      <trkpt lat="45.19781" lon="5.72236">
        <ele>349.79998779297</ele>
        <time>2021-08-25T03:50:52.000Z</time>
      </trkpt>
      <trkpt lat="45.19784" lon="5.72236">
        <ele>350.79998779297</ele>
        <time>2021-08-25T03:50:54.000Z</time>
      </trkpt>
      <trkpt lat="45.19784" lon="5.72238">
        <ele>351</ele>
        <time>2021-08-25T03:50:56.000Z</time>
      </trkpt>
      <trkpt lat="45.19783" lon="5.72244">
        <ele>351.60000610352</ele>
        <time>2021-08-25T03:51:00.000Z</time>
      </trkpt>
      <trkpt lat="45.19783" lon="5.72245">
        <ele>352.39999389648</ele>
        <time>2021-08-25T03:51:02.000Z</time>
      </trkpt>
      <trkpt lat="45.19786" lon="5.72242">
        <ele>353.20001220703</ele>
        <time>2021-08-25T03:51:06.000Z</time>
      </trkpt>
      <trkpt lat="45.19786" lon="5.72241">
        <ele>353.20001220703</ele>
        <time>2021-08-25T03:51:07.000Z</time>
      </trkpt>
      <trkpt lat="45.19787" lon="5.7224">
        <ele>353.60000610352</ele>
        <time>2021-08-25T03:51:08.000Z</time>
      </trkpt>
      <trkpt lat="45.19788" lon="5.72243">
        <ele>354.20001220703</ele>
        <time>2021-08-25T03:51:12.000Z</time>
      </trkpt>
      <trkpt lat="45.19787" lon="5.72246">
        <ele>354.60000610352</ele>
        <time>2021-08-25T03:51:14.000Z</time>
      </trkpt>
      <trkpt lat="45.19788" lon="5.72249">
        <ele>355.39999389648</ele>
        <time>2021-08-25T03:51:18.000Z</time>
      </trkpt>
      <trkpt lat="45.19789" lon="5.72248">
        <ele>356.20001220703</ele>
        <time>2021-08-25T03:51:19.000Z</time>
      </trkpt>
      <trkpt lat="45.19789" lon="5.72247">
        <ele>356.20001220703</ele>
        <time>2021-08-25T03:51:20.000Z</time>
      </trkpt>
      <trkpt lat="45.1979" lon="5.72244">
        <ele>356.39999389648</ele>
        <time>2021-08-25T03:51:23.000Z</time>
      </trkpt>
      <trkpt lat="45.1979" lon="5.72248">
        <ele>357.20001220703</ele>
        <time>2021-08-25T03:51:25.000Z</time>
      </trkpt>
      <trkpt lat="45.19788" lon="5.72252">
        <ele>357.79998779297</ele>
        <time>2021-08-25T03:51:29.000Z</time>
      </trkpt>
      <trkpt lat="45.19789" lon="5.72252">
        <ele>358.60000610352</ele>
        <time>2021-08-25T03:51:30.000Z</time>
      </trkpt>
      <trkpt lat="45.19791" lon="5.72251">
        <ele>358.79998779297</ele>
        <time>2021-08-25T03:51:32.000Z</time>
      </trkpt>
      <trkpt lat="45.19793" lon="5.72251">
        <ele>359.39999389648</ele>
        <time>2021-08-25T03:51:34.000Z</time>
      </trkpt>
      <trkpt lat="45.19793" lon="5.72251">
        <ele>360</ele>
        <time>2021-08-25T03:51:35.000Z</time>
      </trkpt>
      <trkpt lat="45.19792" lon="5.72253">
        <ele>360.39999389648</ele>
        <time>2021-08-25T03:51:37.000Z</time>
      </trkpt>
      <trkpt lat="45.19792" lon="5.72253">
        <ele>360.79998779297</ele>
        <time>2021-08-25T03:51:38.000Z</time>
      </trkpt>
      <trkpt lat="45.1979" lon="5.72252">
        <ele>361.79998779297</ele>
        <time>2021-08-25T03:51:40.000Z</time>
      </trkpt>
      <trkpt lat="45.1979" lon="5.72251">
        <ele>362</ele>
        <time>2021-08-25T03:51:42.000Z</time>
      </trkpt>
      <trkpt lat="45.19792" lon="5.7225">
        <ele>363</ele>
        <time>2021-08-25T03:51:45.000Z</time>
      </trkpt>
      <trkpt lat="45.19792" lon="5.72252">
        <ele>364</ele>
        <time>2021-08-25T03:51:47.000Z</time>
      </trkpt>
      <trkpt lat="45.19792" lon="5.72253">
        <ele>364.20001220703</ele>
        <time>2021-08-25T03:51:48.000Z</time>
      </trkpt>
      <trkpt lat="45.19792" lon="5.72252">
        <ele>364.79998779297</ele>
        <time>2021-08-25T03:51:50.000Z</time>
      </trkpt>
      <trkpt lat="45.19791" lon="5.72251">
        <ele>365.20001220703</ele>
        <time>2021-08-25T03:51:54.000Z</time>
      </trkpt>
      <trkpt lat="45.19792" lon="5.72251">
        <ele>365.79998779297</ele>
        <time>2021-08-25T03:51:55.000Z</time>
      </trkpt>
      <trkpt lat="45.19791" lon="5.72252">
        <ele>366.60000610352</ele>
        <time>2021-08-25T03:51:56.000Z</time>
      </trkpt>
      <trkpt lat="45.19791" lon="5.72253">
        <ele>367</ele>
        <time>2021-08-25T03:51:58.000Z</time>
      </trkpt>
      <trkpt lat="45.1979" lon="5.7225">
        <ele>367.39999389648</ele>
        <time>2021-08-25T03:52:00.000Z</time>
      </trkpt>
      <trkpt lat="45.1979" lon="5.72249">
        <ele>367.60000610352</ele>
        <time>2021-08-25T03:52:02.000Z</time>
      </trkpt>
      <trkpt lat="45.19791" lon="5.72248">
        <ele>367.79998779297</ele>
        <time>2021-08-25T03:52:03.000Z</time>
      </trkpt>
      <trkpt lat="45.19793" lon="5.72249">
        <ele>369</ele>
        <time>2021-08-25T03:52:05.000Z</time>
      </trkpt>
      <trkpt lat="45.19794" lon="5.72252">
        <ele>370</ele>
        <time>2021-08-25T03:52:07.000Z</time>
      </trkpt>
      <trkpt lat="45.19794" lon="5.72252">
        <ele>370.20001220703</ele>
        <time>2021-08-25T03:52:08.000Z</time>
      </trkpt>
      <trkpt lat="45.19796" lon="5.72249">
        <ele>371.39999389648</ele>
        <time>2021-08-25T03:52:11.000Z</time>
      </trkpt>
      <trkpt lat="45.19797" lon="5.72241">
        <ele>372.60000610352</ele>
        <time>2021-08-25T03:52:15.000Z</time>
      </trkpt>
      <trkpt lat="45.19798" lon="5.72236">
        <ele>372.79998779297</ele>
        <time>2021-08-25T03:52:17.000Z</time>
      </trkpt>
      <trkpt lat="45.198" lon="5.72223">
        <ele>373.79998779297</ele>
        <time>2021-08-25T03:52:21.000Z</time>
      </trkpt>
      <trkpt lat="45.19803" lon="5.72219">
        <ele>374</ele>
        <time>2021-08-25T03:52:23.000Z</time>
      </trkpt>
      <trkpt lat="45.19807" lon="5.72209">
        <ele>374.79998779297</ele>
        <time>2021-08-25T03:52:27.000Z</time>
      </trkpt>
      <trkpt lat="45.19808" lon="5.72211">
        <ele>375.39999389648</ele>
        <time>2021-08-25T03:52:29.000Z</time>
      </trkpt>
      <trkpt lat="45.19809" lon="5.72214">
        <ele>375.79998779297</ele>
        <time>2021-08-25T03:52:31.000Z</time>
      </trkpt>
      <trkpt lat="45.19811" lon="5.72222">
        <ele>376.60000610352</ele>
        <time>2021-08-25T03:52:34.000Z</time>
      </trkpt>
      <trkpt lat="45.19812" lon="5.72223">
        <ele>377.39999389648</ele>
        <time>2021-08-25T03:52:35.000Z</time>
      </trkpt>
      <trkpt lat="45.19813" lon="5.72225">
        <ele>377.79998779297</ele>
        <time>2021-08-25T03:52:36.000Z</time>
      </trkpt>
      <trkpt lat="45.19814" lon="5.72226">
        <ele>378</ele>
        <time>2021-08-25T03:52:37.000Z</time>
      </trkpt>
      <trkpt lat="45.19814" lon="5.72228">
        <ele>378.39999389648</ele>
        <time>2021-08-25T03:52:38.000Z</time>
      </trkpt>
      <trkpt lat="45.19815" lon="5.72229">
        <ele>379.20001220703</ele>
        <time>2021-08-25T03:52:39.000Z</time>
      </trkpt>
      <trkpt lat="45.19815" lon="5.72235">
        <ele>380</ele>
        <time>2021-08-25T03:52:44.000Z</time>
      </trkpt>
      <trkpt lat="45.19815" lon="5.72236">
        <ele>380.39999389648</ele>
        <time>2021-08-25T03:52:45.000Z</time>
      </trkpt>
      <trkpt lat="45.19814" lon="5.7224">
        <ele>381.39999389648</ele>
        <time>2021-08-25T03:52:49.000Z</time>
      </trkpt>
      <trkpt lat="45.19814" lon="5.72241">
        <ele>381.79998779297</ele>
        <time>2021-08-25T03:52:50.000Z</time>
      </trkpt>
      <trkpt lat="45.19814" lon="5.72243">
        <ele>381.79998779297</ele>
        <time>2021-08-25T03:52:51.000Z</time>
      </trkpt>
      <trkpt lat="45.19814" lon="5.72247">
        <ele>382</ele>
        <time>2021-08-25T03:52:54.000Z</time>
      </trkpt>
      <trkpt lat="45.19814" lon="5.72248">
        <ele>382.39999389648</ele>
        <time>2021-08-25T03:52:55.000Z</time>
      </trkpt>
      <trkpt lat="45.19813" lon="5.72247">
        <ele>383</ele>
        <time>2021-08-25T03:52:57.000Z</time>
      </trkpt>
      <trkpt lat="45.19828" lon="5.72256">
        <ele>393.39999389648</ele>
        <time>2021-08-25T03:53:26.000Z</time>
      </trkpt>
      <trkpt lat="45.1983" lon="5.72254">
        <ele>394</ele>
        <time>2021-08-25T03:53:28.000Z</time>
      </trkpt>
      <trkpt lat="45.19832" lon="5.72251">
        <ele>394.79998779297</ele>
        <time>2021-08-25T03:53:30.000Z</time>
      </trkpt>
      <trkpt lat="45.19833" lon="5.72252">
        <ele>396.39999389648</ele>
        <time>2021-08-25T03:53:32.000Z</time>
      </trkpt>
      <trkpt lat="45.19834" lon="5.72251">
        <ele>397.20001220703</ele>
        <time>2021-08-25T03:53:35.000Z</time>
      </trkpt>
      <trkpt lat="45.19831" lon="5.72251">
        <ele>397.39999389648</ele>
        <time>2021-08-25T03:53:37.000Z</time>
      </trkpt>
      <trkpt lat="45.19829" lon="5.72252">
        <ele>397.39999389648</ele>
        <time>2021-08-25T03:53:39.000Z</time>
      </trkpt>
      <trkpt lat="45.19829" lon="5.72257">
        <ele>397.60000610352</ele>
        <time>2021-08-25T03:53:41.000Z</time>
      </trkpt>
      <trkpt lat="45.19825" lon="5.72268">
        <ele>397.60000610352</ele>
        <time>2021-08-25T03:53:45.000Z</time>
      </trkpt>
      <trkpt lat="45.19822" lon="5.72275">
        <ele>398</ele>
        <time>2021-08-25T03:53:48.000Z</time>
      </trkpt>
      <trkpt lat="45.1982" lon="5.72282">
        <ele>398.60000610352</ele>
        <time>2021-08-25T03:53:51.000Z</time>
      </trkpt>
      <trkpt lat="45.19814" lon="5.72294">
        <ele>399.60000610352</ele>
        <time>2021-08-25T03:53:56.000Z</time>
      </trkpt>
      <trkpt lat="45.19807" lon="5.72313">
        <ele>400.60000610352</ele>
        <time>2021-08-25T03:54:03.000Z</time>
      </trkpt>
      <trkpt lat="45.19806" lon="5.7232">
        <ele>400.60000610352</ele>
        <time>2021-08-25T03:54:05.000Z</time>
      </trkpt>
      <trkpt lat="45.19805" lon="5.72325">
        <ele>401</ele>
        <time>2021-08-25T03:54:07.000Z</time>
      </trkpt>
      <trkpt lat="45.19805" lon="5.72329">
        <ele>401.20001220703</ele>
        <time>2021-08-25T03:54:09.000Z</time>
      </trkpt>
      <trkpt lat="45.19805" lon="5.7233">
        <ele>401.20001220703</ele>
        <time>2021-08-25T03:54:11.000Z</time>
      </trkpt>
      <trkpt lat="45.19803" lon="5.72346">
        <ele>410.60000610352</ele>
        <time>2021-08-25T03:54:33.000Z</time>
      </trkpt>
      <trkpt lat="45.19806" lon="5.72353">
        <ele>410.60000610352</ele>
        <time>2021-08-25T03:54:34.000Z</time>
      </trkpt>
      <trkpt lat="45.19807" lon="5.72356">
        <ele>411.20001220703</ele>
        <time>2021-08-25T03:54:35.000Z</time>
      </trkpt>
      <trkpt lat="45.19804" lon="5.72364">
        <ele>411.20001220703</ele>
        <time>2021-08-25T03:54:39.000Z</time>
      </trkpt>
      <trkpt lat="45.19797" lon="5.72384">
        <ele>411.20001220703</ele>
        <time>2021-08-25T03:54:46.000Z</time>
      </trkpt>
      <trkpt lat="45.19796" lon="5.72402">
        <ele>411.20001220703</ele>
        <time>2021-08-25T03:54:51.000Z</time>
      </trkpt>
      <trkpt lat="45.19793" lon="5.72428">
        <ele>410.39999389648</ele>
        <time>2021-08-25T03:54:58.000Z</time>
      </trkpt>
      <trkpt lat="45.19793" lon="5.72431">
        <ele>410.20001220703</ele>
        <time>2021-08-25T03:54:59.000Z</time>
      </trkpt>
      <trkpt lat="45.19792" lon="5.72447">
        <ele>410.20001220703</ele>
        <time>2021-08-25T03:55:04.000Z</time>
      </trkpt>
      <trkpt lat="45.19788" lon="5.72463">
        <ele>411.39999389648</ele>
        <time>2021-08-25T03:55:09.000Z</time>
      </trkpt>
      <trkpt lat="45.19782" lon="5.72487">
        <ele>412</ele>
        <time>2021-08-25T03:55:16.000Z</time>
      </trkpt>
      <trkpt lat="45.19778" lon="5.72498">
        <ele>412.20001220703</ele>
        <time>2021-08-25T03:55:20.000Z</time>
      </trkpt>
      <trkpt lat="45.19776" lon="5.72505">
        <ele>413</ele>
        <time>2021-08-25T03:55:22.000Z</time>
      </trkpt>
      <trkpt lat="45.19771" lon="5.72514">
        <ele>413.60000610352</ele>
        <time>2021-08-25T03:55:25.000Z</time>
      </trkpt>
      <trkpt lat="45.19768" lon="5.72521">
        <ele>413.79998779297</ele>
        <time>2021-08-25T03:55:28.000Z</time>
      </trkpt>
      <trkpt lat="45.19767" lon="5.72524">
        <ele>414.20001220703</ele>
        <time>2021-08-25T03:55:29.000Z</time>
      </trkpt>
      <trkpt lat="45.19768" lon="5.72535">
        <ele>414.60000610352</ele>
        <time>2021-08-25T03:55:33.000Z</time>
      </trkpt>
      <trkpt lat="45.19768" lon="5.72538">
        <ele>414.79998779297</ele>
        <time>2021-08-25T03:55:34.000Z</time>
      </trkpt>
      <trkpt lat="45.19768" lon="5.72543">
        <ele>415.60000610352</ele>
        <time>2021-08-25T03:55:36.000Z</time>
      </trkpt>
      <trkpt lat="45.19768" lon="5.72551">
        <ele>416</ele>
        <time>2021-08-25T03:55:39.000Z</time>
      </trkpt>
      <trkpt lat="45.19769" lon="5.72554">
        <ele>416</ele>
        <time>2021-08-25T03:55:40.000Z</time>
      </trkpt>
      <trkpt lat="45.1977" lon="5.7256">
        <ele>416.60000610352</ele>
        <time>2021-08-25T03:55:42.000Z</time>
      </trkpt>
      <trkpt lat="45.19771" lon="5.72567">
        <ele>417.39999389648</ele>
        <time>2021-08-25T03:55:45.000Z</time>
      </trkpt>
      <trkpt lat="45.19772" lon="5.72573">
        <ele>417.60000610352</ele>
        <time>2021-08-25T03:55:47.000Z</time>
      </trkpt>
      <trkpt lat="45.19775" lon="5.72583">
        <ele>418.39999389648</ele>
        <time>2021-08-25T03:55:51.000Z</time>
      </trkpt>
      <trkpt lat="45.19776" lon="5.72584">
        <ele>419</ele>
        <time>2021-08-25T03:55:52.000Z</time>
      </trkpt>
      <trkpt lat="45.19777" lon="5.72584">
        <ele>419</ele>
        <time>2021-08-25T03:55:53.000Z</time>
      </trkpt>
      <trkpt lat="45.19778" lon="5.72581">
        <ele>419.39999389648</ele>
        <time>2021-08-25T03:55:55.000Z</time>
      </trkpt>
      <trkpt lat="45.1978" lon="5.72574">
        <ele>420</ele>
        <time>2021-08-25T03:55:58.000Z</time>
      </trkpt>
      <trkpt lat="45.19781" lon="5.72569">
        <ele>420.60000610352</ele>
        <time>2021-08-25T03:56:00.000Z</time>
      </trkpt>
      <trkpt lat="45.19781" lon="5.72562">
        <ele>420.79998779297</ele>
        <time>2021-08-25T03:56:02.000Z</time>
      </trkpt>
      <trkpt lat="45.1978" lon="5.72555">
        <ele>421</ele>
        <time>2021-08-25T03:56:04.000Z</time>
      </trkpt>
      <trkpt lat="45.1978" lon="5.72543">
        <ele>422.20001220703</ele>
        <time>2021-08-25T03:56:08.000Z</time>
      </trkpt>
      <trkpt lat="45.19781" lon="5.72541">
        <ele>422.39999389648</ele>
        <time>2021-08-25T03:56:09.000Z</time>
      </trkpt>
      <trkpt lat="45.19785" lon="5.72529">
        <ele>423.60000610352</ele>
        <time>2021-08-25T03:56:14.000Z</time>
      </trkpt>
      <trkpt lat="45.1979" lon="5.72504">
        <ele>424.20001220703</ele>
        <time>2021-08-25T03:56:21.000Z</time>
      </trkpt>
      <trkpt lat="45.19793" lon="5.72495">
        <ele>424.39999389648</ele>
        <time>2021-08-25T03:56:24.000Z</time>
      </trkpt>
      <trkpt lat="45.19793" lon="5.72485">
        <ele>424</ele>
        <time>2021-08-25T03:56:26.000Z</time>
      </trkpt>
      <trkpt lat="45.19795" lon="5.72464">
        <ele>424.20001220703</ele>
        <time>2021-08-25T03:56:32.000Z</time>
      </trkpt>
      <trkpt lat="45.19798" lon="5.72449">
        <ele>424.39999389648</ele>
        <time>2021-08-25T03:56:36.000Z</time>
      </trkpt>
      <trkpt lat="45.19799" lon="5.72437">
        <ele>423.79998779297</ele>
        <time>2021-08-25T03:56:39.000Z</time>
      </trkpt>
      <trkpt lat="45.19797" lon="5.72413">
        <ele>423.79998779297</ele>
        <time>2021-08-25T03:56:46.000Z</time>
      </trkpt>
      <trkpt lat="45.19798" lon="5.72385">
        <ele>423.20001220703</ele>
        <time>2021-08-25T03:56:53.000Z</time>
      </trkpt>
      <trkpt lat="45.19804" lon="5.72367">
        <ele>423.20001220703</ele>
        <time>2021-08-25T03:56:57.000Z</time>
      </trkpt>
      <trkpt lat="45.1981" lon="5.72361">
        <ele>423.20001220703</ele>
        <time>2021-08-25T03:57:00.000Z</time>
      </trkpt>
      <trkpt lat="45.19814" lon="5.72364">
        <ele>423.20001220703</ele>
        <time>2021-08-25T03:57:01.000Z</time>
      </trkpt>
      <trkpt lat="45.19819" lon="5.7237">
        <ele>423.60000610352</ele>
        <time>2021-08-25T03:57:04.000Z</time>
      </trkpt>
      <trkpt lat="45.19819" lon="5.72369">
        <ele>423.60000610352</ele>
        <time>2021-08-25T03:57:05.000Z</time>
      </trkpt>
      <trkpt lat="45.19818" lon="5.72369">
        <ele>424.60000610352</ele>
        <time>2021-08-25T03:57:06.000Z</time>
      </trkpt>
      <trkpt lat="45.19818" lon="5.72369">
        <ele>424.79998779297</ele>
        <time>2021-08-25T03:57:07.000Z</time>
      </trkpt>
      <trkpt lat="45.19819" lon="5.72368">
        <ele>425</ele>
        <time>2021-08-25T03:57:08.000Z</time>
      </trkpt>
      <trkpt lat="45.19819" lon="5.72369">
        <ele>425.20001220703</ele>
        <time>2021-08-25T03:57:09.000Z</time>
      </trkpt>
      <trkpt lat="45.19819" lon="5.72369">
        <ele>426.39999389648</ele>
        <time>2021-08-25T03:57:10.000Z</time>
      </trkpt>
      <trkpt lat="45.19819" lon="5.72369">
        <ele>426.79998779297</ele>
        <time>2021-08-25T03:57:12.000Z</time>
      </trkpt>
      <trkpt lat="45.1982" lon="5.72371">
        <ele>427.79998779297</ele>
        <time>2021-08-25T03:57:14.000Z</time>
      </trkpt>
      <trkpt lat="45.1982" lon="5.72372">
        <ele>428.60000610352</ele>
        <time>2021-08-25T03:57:15.000Z</time>
      </trkpt>
      <trkpt lat="45.1982" lon="5.72375">
        <ele>428.79998779297</ele>
        <time>2021-08-25T03:57:17.000Z</time>
      </trkpt>
      <trkpt lat="45.19819" lon="5.72377">
        <ele>429.39999389648</ele>
        <time>2021-08-25T03:57:18.000Z</time>
      </trkpt>
      <trkpt lat="45.19823" lon="5.72385">
        <ele>430.20001220703</ele>
        <time>2021-08-25T03:57:21.000Z</time>
      </trkpt>
      <trkpt lat="45.19827" lon="5.7239">
        <ele>430.39999389648</ele>
        <time>2021-08-25T03:57:23.000Z</time>
      </trkpt>
      <trkpt lat="45.19829" lon="5.72393">
        <ele>431.39999389648</ele>
        <time>2021-08-25T03:57:26.000Z</time>
      </trkpt>
      <trkpt lat="45.1983" lon="5.72394">
        <ele>431.39999389648</ele>
        <time>2021-08-25T03:57:27.000Z</time>
      </trkpt>
      <trkpt lat="45.19834" lon="5.72394">
        <ele>432.60000610352</ele>
        <time>2021-08-25T03:57:31.000Z</time>
      </trkpt>
      <trkpt lat="45.19835" lon="5.72394">
        <ele>432.79998779297</ele>
        <time>2021-08-25T03:57:32.000Z</time>
      </trkpt>
      <trkpt lat="45.19835" lon="5.72393">
        <ele>433.39999389648</ele>
        <time>2021-08-25T03:57:33.000Z</time>
      </trkpt>
      <trkpt lat="45.19835" lon="5.72392">
        <ele>434.20001220703</ele>
        <time>2021-08-25T03:57:34.000Z</time>
      </trkpt>
      <trkpt lat="45.19841" lon="5.72391">
        <ele>434.60000610352</ele>
        <time>2021-08-25T03:57:38.000Z</time>
      </trkpt>
      <trkpt lat="45.19842" lon="5.72392">
        <ele>434.60000610352</ele>
        <time>2021-08-25T03:57:39.000Z</time>
      </trkpt>
      <trkpt lat="45.19842" lon="5.72395">
        <ele>435.20001220703</ele>
        <time>2021-08-25T03:57:42.000Z</time>
      </trkpt>
      <trkpt lat="45.19843" lon="5.72396">
        <ele>436.39999389648</ele>
        <time>2021-08-25T03:57:43.000Z</time>
      </trkpt>
      <trkpt lat="45.19843" lon="5.72396">
        <ele>436.79998779297</ele>
        <time>2021-08-25T03:57:45.000Z</time>
      </trkpt>
      <trkpt lat="45.19843" lon="5.72396">
        <ele>437.39999389648</ele>
        <time>2021-08-25T03:57:47.000Z</time>
      </trkpt>
      <trkpt lat="45.19844" lon="5.72395">
        <ele>438</ele>
        <time>2021-08-25T03:57:49.000Z</time>
      </trkpt>
      <trkpt lat="45.19844" lon="5.72395">
        <ele>438.39999389648</ele>
        <time>2021-08-25T03:57:50.000Z</time>
      </trkpt>
      <trkpt lat="45.19843" lon="5.72392">
        <ele>439.39999389648</ele>
        <time>2021-08-25T03:57:52.000Z</time>
      </trkpt>
      <trkpt lat="45.19842" lon="5.7239">
        <ele>440.60000610352</ele>
        <time>2021-08-25T03:57:55.000Z</time>
      </trkpt>
      <trkpt lat="45.19841" lon="5.72389">
        <ele>440.79998779297</ele>
        <time>2021-08-25T03:57:56.000Z</time>
      </trkpt>
      <trkpt lat="45.19841" lon="5.7239">
        <ele>441.20001220703</ele>
        <time>2021-08-25T03:57:57.000Z</time>
      </trkpt>
      <trkpt lat="45.19842" lon="5.72394">
        <ele>441.60000610352</ele>
        <time>2021-08-25T03:57:59.000Z</time>
      </trkpt>
      <trkpt lat="45.19843" lon="5.72395">
        <ele>441.79998779297</ele>
        <time>2021-08-25T03:58:00.000Z</time>
      </trkpt>
      <trkpt lat="45.19843" lon="5.72397">
        <ele>443.20001220703</ele>
        <time>2021-08-25T03:58:02.000Z</time>
      </trkpt>
      <trkpt lat="45.19843" lon="5.72398">
        <ele>444</ele>
        <time>2021-08-25T03:58:03.000Z</time>
      </trkpt>
      <trkpt lat="45.19844" lon="5.72399">
        <ele>444.60000610352</ele>
        <time>2021-08-25T03:58:04.000Z</time>
      </trkpt>
      <trkpt lat="45.19844" lon="5.724">
        <ele>444.79998779297</ele>
        <time>2021-08-25T03:58:05.000Z</time>
      </trkpt>
      <trkpt lat="45.19844" lon="5.72402">
        <ele>445.39999389648</ele>
        <time>2021-08-25T03:58:07.000Z</time>
      </trkpt>
      <trkpt lat="45.19845" lon="5.72402">
        <ele>445.60000610352</ele>
        <time>2021-08-25T03:58:08.000Z</time>
      </trkpt>
      <trkpt lat="45.19844" lon="5.724">
        <ele>446.20001220703</ele>
        <time>2021-08-25T03:58:10.000Z</time>
      </trkpt>
      <trkpt lat="45.19844" lon="5.724">
        <ele>447</ele>
        <time>2021-08-25T03:58:11.000Z</time>
      </trkpt>
      <trkpt lat="45.19844" lon="5.724">
        <ele>447.39999389648</ele>
        <time>2021-08-25T03:58:12.000Z</time>
      </trkpt>
      <trkpt lat="45.19845" lon="5.72399">
        <ele>448</ele>
        <time>2021-08-25T03:58:13.000Z</time>
      </trkpt>
      <trkpt lat="45.19845" lon="5.72399">
        <ele>448</ele>
        <time>2021-08-25T03:58:14.000Z</time>
      </trkpt>
      <trkpt lat="45.19846" lon="5.72404">
        <ele>449.20001220703</ele>
        <time>2021-08-25T03:58:19.000Z</time>
      </trkpt>
      <trkpt lat="45.19846" lon="5.72405">
        <ele>449.79998779297</ele>
        <time>2021-08-25T03:58:20.000Z</time>
      </trkpt>
      <trkpt lat="45.19846" lon="5.72406">
        <ele>450.39999389648</ele>
        <time>2021-08-25T03:58:21.000Z</time>
      </trkpt>
      <trkpt lat="45.19846" lon="5.72409">
        <ele>450.60000610352</ele>
        <time>2021-08-25T03:58:23.000Z</time>
      </trkpt>
      <trkpt lat="45.19847" lon="5.72409">
        <ele>451.79998779297</ele>
        <time>2021-08-25T03:58:25.000Z</time>
      </trkpt>
      <trkpt lat="45.19847" lon="5.7241">
        <ele>452.39999389648</ele>
        <time>2021-08-25T03:58:26.000Z</time>
      </trkpt>
      <trkpt lat="45.19847" lon="5.7241">
        <ele>453</ele>
        <time>2021-08-25T03:58:27.000Z</time>
      </trkpt>
      <trkpt lat="45.19847" lon="5.72413">
        <ele>453.60000610352</ele>
        <time>2021-08-25T03:58:30.000Z</time>
      </trkpt>
      <trkpt lat="45.19848" lon="5.72414">
        <ele>455</ele>
        <time>2021-08-25T03:58:32.000Z</time>
      </trkpt>
      <trkpt lat="45.19849" lon="5.72419">
        <ele>456</ele>
        <time>2021-08-25T03:58:36.000Z</time>
      </trkpt>
      <trkpt lat="45.1985" lon="5.72422">
        <ele>456.60000610352</ele>
        <time>2021-08-25T03:58:39.000Z</time>
      </trkpt>
      <trkpt lat="45.1985" lon="5.72423">
        <ele>457.60000610352</ele>
        <time>2021-08-25T03:58:40.000Z</time>
      </trkpt>
      <trkpt lat="45.19849" lon="5.72425">
        <ele>458</ele>
        <time>2021-08-25T03:58:41.000Z</time>
      </trkpt>
      <trkpt lat="45.19851" lon="5.72437">
        <ele>458.39999389648</ele>
        <time>2021-08-25T03:58:45.000Z</time>
      </trkpt>
      <trkpt lat="45.19851" lon="5.7244">
        <ele>458.39999389648</ele>
        <time>2021-08-25T03:58:46.000Z</time>
      </trkpt>
      <trkpt lat="45.19851" lon="5.72442">
        <ele>458.60000610352</ele>
        <time>2021-08-25T03:58:47.000Z</time>
      </trkpt>
      <trkpt lat="45.1985" lon="5.72447">
        <ele>459</ele>
        <time>2021-08-25T03:58:49.000Z</time>
      </trkpt>
      <trkpt lat="45.19849" lon="5.72452">
        <ele>459</ele>
        <time>2021-08-25T03:58:51.000Z</time>
      </trkpt>
      <trkpt lat="45.19848" lon="5.72455">
        <ele>459.20001220703</ele>
        <time>2021-08-25T03:58:52.000Z</time>
      </trkpt>
      <trkpt lat="45.19848" lon="5.72458">
        <ele>459.79998779297</ele>
        <time>2021-08-25T03:58:54.000Z</time>
      </trkpt>
      <trkpt lat="45.19848" lon="5.72461">
        <ele>459.79998779297</ele>
        <time>2021-08-25T03:58:55.000Z</time>
      </trkpt>
      <trkpt lat="45.19849" lon="5.72469">
        <ele>460.39999389648</ele>
        <time>2021-08-25T03:58:58.000Z</time>
      </trkpt>
      <trkpt lat="45.1985" lon="5.72479">
        <ele>461.20001220703</ele>
        <time>2021-08-25T03:59:02.000Z</time>
      </trkpt>
      <trkpt lat="45.1985" lon="5.72481">
        <ele>461.20001220703</ele>
        <time>2021-08-25T03:59:03.000Z</time>
      </trkpt>
      <trkpt lat="45.1985" lon="5.72488">
        <ele>461.79998779297</ele>
        <time>2021-08-25T03:59:06.000Z</time>
      </trkpt>
      <trkpt lat="45.1985" lon="5.72494">
        <ele>462.39999389648</ele>
        <time>2021-08-25T03:59:08.000Z</time>
      </trkpt>
      <trkpt lat="45.19851" lon="5.72498">
        <ele>462.60000610352</ele>
        <time>2021-08-25T03:59:10.000Z</time>
      </trkpt>
      <trkpt lat="45.19852" lon="5.72506">
        <ele>463.39999389648</ele>
        <time>2021-08-25T03:59:13.000Z</time>
      </trkpt>
      <trkpt lat="45.19853" lon="5.72514">
        <ele>463.79998779297</ele>
        <time>2021-08-25T03:59:16.000Z</time>
      </trkpt>
      <trkpt lat="45.19854" lon="5.72522">
        <ele>464.20001220703</ele>
        <time>2021-08-25T03:59:19.000Z</time>
      </trkpt>
      <trkpt lat="45.19854" lon="5.72527">
        <ele>464.79998779297</ele>
        <time>2021-08-25T03:59:21.000Z</time>
      </trkpt>
      <trkpt lat="45.19856" lon="5.72532">
        <ele>465</ele>
        <time>2021-08-25T03:59:23.000Z</time>
      </trkpt>
      <trkpt lat="45.19857" lon="5.72543">
        <ele>465.79998779297</ele>
        <time>2021-08-25T03:59:27.000Z</time>
      </trkpt>
      <trkpt lat="45.19859" lon="5.72547">
        <ele>466</ele>
        <time>2021-08-25T03:59:29.000Z</time>
      </trkpt>
      <trkpt lat="45.19861" lon="5.72553">
        <ele>466.60000610352</ele>
        <time>2021-08-25T03:59:34.000Z</time>
      </trkpt>
      <trkpt lat="45.1986" lon="5.72551">
        <ele>467.60000610352</ele>
        <time>2021-08-25T03:59:35.000Z</time>
      </trkpt>
      <trkpt lat="45.19859" lon="5.72549">
        <ele>467.60000610352</ele>
        <time>2021-08-25T03:59:36.000Z</time>
      </trkpt>
      <trkpt lat="45.19859" lon="5.72547">
        <ele>467.60000610352</ele>
        <time>2021-08-25T03:59:37.000Z</time>
      </trkpt>
      <trkpt lat="45.19858" lon="5.72544">
        <ele>467.79998779297</ele>
        <time>2021-08-25T03:59:38.000Z</time>
      </trkpt>
      <trkpt lat="45.19857" lon="5.7254">
        <ele>468.20001220703</ele>
        <time>2021-08-25T03:59:40.000Z</time>
      </trkpt>
      <trkpt lat="45.19856" lon="5.72535">
        <ele>468.60000610352</ele>
        <time>2021-08-25T03:59:42.000Z</time>
      </trkpt>
      <trkpt lat="45.19855" lon="5.72521">
        <ele>469.60000610352</ele>
        <time>2021-08-25T03:59:47.000Z</time>
      </trkpt>
      <trkpt lat="45.19853" lon="5.72511">
        <ele>470.20001220703</ele>
        <time>2021-08-25T03:59:50.000Z</time>
      </trkpt>
      <trkpt lat="45.19856" lon="5.72496">
        <ele>470.39999389648</ele>
        <time>2021-08-25T03:59:55.000Z</time>
      </trkpt>
      <trkpt lat="45.19858" lon="5.72494">
        <ele>470.60000610352</ele>
        <time>2021-08-25T03:59:56.000Z</time>
      </trkpt>
      <trkpt lat="45.19861" lon="5.72491">
        <ele>471.79998779297</ele>
        <time>2021-08-25T04:00:00.000Z</time>
      </trkpt>
      <trkpt lat="45.19861" lon="5.7249">
        <ele>472</ele>
        <time>2021-08-25T04:00:01.000Z</time>
      </trkpt>
      <trkpt lat="45.19861" lon="5.72489">
        <ele>472.39999389648</ele>
        <time>2021-08-25T04:00:02.000Z</time>
      </trkpt>
      <trkpt lat="45.19862" lon="5.72487">
        <ele>473.60000610352</ele>
        <time>2021-08-25T04:00:04.000Z</time>
      </trkpt>
      <trkpt lat="45.19862" lon="5.72486">
        <ele>475</ele>
        <time>2021-08-25T04:00:05.000Z</time>
      </trkpt>
      <trkpt lat="45.19862" lon="5.72481">
        <ele>475.60000610352</ele>
        <time>2021-08-25T04:00:08.000Z</time>
      </trkpt>
      <trkpt lat="45.19863" lon="5.72481">
        <ele>476</ele>
        <time>2021-08-25T04:00:09.000Z</time>
      </trkpt>
      <trkpt lat="45.19863" lon="5.72479">
        <ele>476</ele>
        <time>2021-08-25T04:00:10.000Z</time>
      </trkpt>
      <trkpt lat="45.19866" lon="5.72476">
        <ele>477.20001220703</ele>
        <time>2021-08-25T04:00:14.000Z</time>
      </trkpt>
      <trkpt lat="45.19867" lon="5.72475">
        <ele>477.39999389648</ele>
        <time>2021-08-25T04:00:15.000Z</time>
      </trkpt>
      <trkpt lat="45.19869" lon="5.72474">
        <ele>478.20001220703</ele>
        <time>2021-08-25T04:00:18.000Z</time>
      </trkpt>
      <trkpt lat="45.19869" lon="5.72474">
        <ele>479.39999389648</ele>
        <time>2021-08-25T04:00:19.000Z</time>
      </trkpt>
      <trkpt lat="45.19871" lon="5.72475">
        <ele>480</ele>
        <time>2021-08-25T04:00:21.000Z</time>
      </trkpt>
      <trkpt lat="45.19873" lon="5.72478">
        <ele>480.20001220703</ele>
        <time>2021-08-25T04:00:22.000Z</time>
      </trkpt>
      <trkpt lat="45.19875" lon="5.72482">
        <ele>480.39999389648</ele>
        <time>2021-08-25T04:00:23.000Z</time>
      </trkpt>
      <trkpt lat="45.19877" lon="5.72495">
        <ele>480.39999389648</ele>
        <time>2021-08-25T04:00:26.000Z</time>
      </trkpt>
      <trkpt lat="45.19878" lon="5.72498">
        <ele>480.39999389648</ele>
        <time>2021-08-25T04:00:27.000Z</time>
      </trkpt>
      <trkpt lat="45.1988" lon="5.72513">
        <ele>480.20001220703</ele>
        <time>2021-08-25T04:00:32.000Z</time>
      </trkpt>
      <trkpt lat="45.19886" lon="5.72529">
        <ele>480.60000610352</ele>
        <time>2021-08-25T04:00:37.000Z</time>
      </trkpt>
      <trkpt lat="45.19887" lon="5.7253">
        <ele>480.60000610352</ele>
        <time>2021-08-25T04:00:38.000Z</time>
      </trkpt>
      <trkpt lat="45.19889" lon="5.72533">
        <ele>482</ele>
        <time>2021-08-25T04:00:41.000Z</time>
      </trkpt>
      <trkpt lat="45.19889" lon="5.72538">
        <ele>482.79998779297</ele>
        <time>2021-08-25T04:00:44.000Z</time>
      </trkpt>
      <trkpt lat="45.19889" lon="5.72539">
        <ele>483.39999389648</ele>
        <time>2021-08-25T04:00:45.000Z</time>
      </trkpt>
      <trkpt lat="45.19887" lon="5.72543">
        <ele>484.20001220703</ele>
        <time>2021-08-25T04:00:48.000Z</time>
      </trkpt>
      <trkpt lat="45.19887" lon="5.72544">
        <ele>485</ele>
        <time>2021-08-25T04:00:49.000Z</time>
      </trkpt>
      <trkpt lat="45.19886" lon="5.72546">
        <ele>485</ele>
        <time>2021-08-25T04:00:50.000Z</time>
      </trkpt>
      <trkpt lat="45.19884" lon="5.72549">
        <ele>485.60000610352</ele>
        <time>2021-08-25T04:00:52.000Z</time>
      </trkpt>
      <trkpt lat="45.19884" lon="5.7256">
        <ele>485.79998779297</ele>
        <time>2021-08-25T04:00:56.000Z</time>
      </trkpt>
      <trkpt lat="45.19882" lon="5.72565">
        <ele>486</ele>
        <time>2021-08-25T04:00:58.000Z</time>
      </trkpt>
      <trkpt lat="45.19878" lon="5.72565">
        <ele>485.79998779297</ele>
        <time>2021-08-25T04:01:00.000Z</time>
      </trkpt>
      <trkpt lat="45.19876" lon="5.72555">
        <ele>485.79998779297</ele>
        <time>2021-08-25T04:01:04.000Z</time>
      </trkpt>
      <trkpt lat="45.19872" lon="5.72528">
        <ele>485.60000610352</ele>
        <time>2021-08-25T04:01:12.000Z</time>
      </trkpt>
      <trkpt lat="45.19871" lon="5.72518">
        <ele>485.60000610352</ele>
        <time>2021-08-25T04:01:15.000Z</time>
      </trkpt>
      <trkpt lat="45.19869" lon="5.72504">
        <ele>486.20001220703</ele>
        <time>2021-08-25T04:01:19.000Z</time>
      </trkpt>
      <trkpt lat="45.1987" lon="5.72502">
        <ele>486.20001220703</ele>
        <time>2021-08-25T04:01:20.000Z</time>
      </trkpt>
      <trkpt lat="45.19873" lon="5.72501">
        <ele>486.20001220703</ele>
        <time>2021-08-25T04:01:22.000Z</time>
      </trkpt>
      <trkpt lat="45.19875" lon="5.72503">
        <ele>485.79998779297</ele>
        <time>2021-08-25T04:01:23.000Z</time>
      </trkpt>
      <trkpt lat="45.19877" lon="5.72511">
        <ele>485.39999389648</ele>
        <time>2021-08-25T04:01:26.000Z</time>
      </trkpt>
      <trkpt lat="45.19881" lon="5.72539">
        <ele>486</ele>
        <time>2021-08-25T04:01:33.000Z</time>
      </trkpt>
      <trkpt lat="45.19882" lon="5.72547">
        <ele>485.60000610352</ele>
        <time>2021-08-25T04:01:36.000Z</time>
      </trkpt>
      <trkpt lat="45.19883" lon="5.72547">
        <ele>485.39999389648</ele>
        <time>2021-08-25T04:01:37.000Z</time>
      </trkpt>
      <trkpt lat="45.19882" lon="5.72544">
        <ele>484.60000610352</ele>
        <time>2021-08-25T04:01:40.000Z</time>
      </trkpt>
      <trkpt lat="45.19882" lon="5.72543">
        <ele>484.20001220703</ele>
        <time>2021-08-25T04:01:41.000Z</time>
      </trkpt>
      <trkpt lat="45.19882" lon="5.7254">
        <ele>483.39999389648</ele>
        <time>2021-08-25T04:01:43.000Z</time>
      </trkpt>
      <trkpt lat="45.19882" lon="5.72537">
        <ele>482.20001220703</ele>
        <time>2021-08-25T04:01:46.000Z</time>
      </trkpt>
      <trkpt lat="45.19882" lon="5.72534">
        <ele>480.60000610352</ele>
        <time>2021-08-25T04:01:49.000Z</time>
      </trkpt>
      <trkpt lat="45.19883" lon="5.72531">
        <ele>480.39999389648</ele>
        <time>2021-08-25T04:01:50.000Z</time>
      </trkpt>
      <trkpt lat="45.19883" lon="5.72528">
        <ele>480.39999389648</ele>
        <time>2021-08-25T04:01:51.000Z</time>
      </trkpt>
      <trkpt lat="45.19883" lon="5.72511">
        <ele>480.20001220703</ele>
        <time>2021-08-25T04:01:56.000Z</time>
      </trkpt>
      <trkpt lat="45.19882" lon="5.72507">
        <ele>480.20001220703</ele>
        <time>2021-08-25T04:01:57.000Z</time>
      </trkpt>
      <trkpt lat="45.19881" lon="5.72492">
        <ele>480.60000610352</ele>
        <time>2021-08-25T04:02:02.000Z</time>
      </trkpt>
      <trkpt lat="45.19877" lon="5.72489">
        <ele>480</ele>
        <time>2021-08-25T04:02:06.000Z</time>
      </trkpt>
      <trkpt lat="45.19877" lon="5.72489">
        <ele>479.39999389648</ele>
        <time>2021-08-25T04:02:07.000Z</time>
      </trkpt>
      <trkpt lat="45.19876" lon="5.72489">
        <ele>479</ele>
        <time>2021-08-25T04:02:08.000Z</time>
      </trkpt>
      <trkpt lat="45.19874" lon="5.72488">
        <ele>478.20001220703</ele>
        <time>2021-08-25T04:02:09.000Z</time>
      </trkpt>
      <trkpt lat="45.19869" lon="5.72486">
        <ele>477.20001220703</ele>
        <time>2021-08-25T04:02:12.000Z</time>
      </trkpt>
      <trkpt lat="45.19866" lon="5.72485">
        <ele>476.79998779297</ele>
        <time>2021-08-25T04:02:15.000Z</time>
      </trkpt>
      <trkpt lat="45.19865" lon="5.72484">
        <ele>476</ele>
        <time>2021-08-25T04:02:16.000Z</time>
      </trkpt>
      <trkpt lat="45.19864" lon="5.72484">
        <ele>475.39999389648</ele>
        <time>2021-08-25T04:02:17.000Z</time>
      </trkpt>
      <trkpt lat="45.19862" lon="5.72484">
        <ele>474.60000610352</ele>
        <time>2021-08-25T04:02:18.000Z</time>
      </trkpt>
      <trkpt lat="45.19861" lon="5.72484">
        <ele>473.39999389648</ele>
        <time>2021-08-25T04:02:19.000Z</time>
      </trkpt>
      <trkpt lat="45.19858" lon="5.72482">
        <ele>472.39999389648</ele>
        <time>2021-08-25T04:02:21.000Z</time>
      </trkpt>
      <trkpt lat="45.19856" lon="5.7248">
        <ele>472.20001220703</ele>
        <time>2021-08-25T04:02:22.000Z</time>
      </trkpt>
      <trkpt lat="45.19854" lon="5.72481">
        <ele>471.39999389648</ele>
        <time>2021-08-25T04:02:24.000Z</time>
      </trkpt>
      <trkpt lat="45.19855" lon="5.7248">
        <ele>471</ele>
        <time>2021-08-25T04:02:25.000Z</time>
      </trkpt>
      <trkpt lat="45.1986" lon="5.72477">
        <ele>471</ele>
        <time>2021-08-25T04:02:27.000Z</time>
      </trkpt>
      <trkpt lat="45.19868" lon="5.72473">
        <ele>471</ele>
        <time>2021-08-25T04:02:30.000Z</time>
      </trkpt>
      <trkpt lat="45.1987" lon="5.72473">
        <ele>471</ele>
        <time>2021-08-25T04:02:31.000Z</time>
      </trkpt>
      <trkpt lat="45.1988" lon="5.72473">
        <ele>471.60000610352</ele>
        <time>2021-08-25T04:02:35.000Z</time>
      </trkpt>
      <trkpt lat="45.19883" lon="5.72473">
        <ele>471.60000610352</ele>
        <time>2021-08-25T04:02:37.000Z</time>
      </trkpt>
      <trkpt lat="45.19883" lon="5.7247">
        <ele>471.60000610352</ele>
        <time>2021-08-25T04:02:38.000Z</time>
      </trkpt>
      <trkpt lat="45.19882" lon="5.72464">
        <ele>472</ele>
        <time>2021-08-25T04:02:40.000Z</time>
      </trkpt>
      <trkpt lat="45.19883" lon="5.72463">
        <ele>472.20001220703</ele>
        <time>2021-08-25T04:02:41.000Z</time>
      </trkpt>
      <trkpt lat="45.19883" lon="5.72462">
        <ele>472.20001220703</ele>
        <time>2021-08-25T04:02:42.000Z</time>
      </trkpt>
      <trkpt lat="45.19884" lon="5.72458">
        <ele>472</ele>
        <time>2021-08-25T04:02:44.000Z</time>
      </trkpt>
      <trkpt lat="45.19887" lon="5.72454">
        <ele>471.60000610352</ele>
        <time>2021-08-25T04:02:46.000Z</time>
      </trkpt>
      <trkpt lat="45.1989" lon="5.72445">
        <ele>471.20001220703</ele>
        <time>2021-08-25T04:02:48.000Z</time>
      </trkpt>
      <trkpt lat="45.19892" lon="5.72441">
        <ele>470.79998779297</ele>
        <time>2021-08-25T04:02:49.000Z</time>
      </trkpt>
      <trkpt lat="45.19898" lon="5.72438">
        <ele>470.39999389648</ele>
        <time>2021-08-25T04:02:51.000Z</time>
      </trkpt>
      <trkpt lat="45.1991" lon="5.72433">
        <ele>469</ele>
        <time>2021-08-25T04:02:55.000Z</time>
      </trkpt>
      <trkpt lat="45.19914" lon="5.72431">
        <ele>468.60000610352</ele>
        <time>2021-08-25T04:02:57.000Z</time>
      </trkpt>
      <trkpt lat="45.19932" lon="5.72424">
        <ele>468.39999389648</ele>
        <time>2021-08-25T04:03:03.000Z</time>
      </trkpt>
      <trkpt lat="45.19935" lon="5.72423">
        <ele>468</ele>
        <time>2021-08-25T04:03:04.000Z</time>
      </trkpt>
      <trkpt lat="45.19953" lon="5.72419">
        <ele>468.39999389648</ele>
        <time>2021-08-25T04:03:11.000Z</time>
      </trkpt>
      <trkpt lat="45.19966" lon="5.72419">
        <ele>469.20001220703</ele>
        <time>2021-08-25T04:03:16.000Z</time>
      </trkpt>
      <trkpt lat="45.19971" lon="5.72419">
        <ele>469.39999389648</ele>
        <time>2021-08-25T04:03:18.000Z</time>
      </trkpt>
      <trkpt lat="45.19978" lon="5.7242">
        <ele>470.39999389648</ele>
        <time>2021-08-25T04:03:21.000Z</time>
      </trkpt>
      <trkpt lat="45.19987" lon="5.7242">
        <ele>471.20001220703</ele>
        <time>2021-08-25T04:03:25.000Z</time>
      </trkpt>
      <trkpt lat="45.19989" lon="5.7242">
        <ele>471.60000610352</ele>
        <time>2021-08-25T04:03:26.000Z</time>
      </trkpt>
      <trkpt lat="45.19998" lon="5.72421">
        <ele>472.60000610352</ele>
        <time>2021-08-25T04:03:30.000Z</time>
      </trkpt>
      <trkpt lat="45.20006" lon="5.72422">
        <ele>473.20001220703</ele>
        <time>2021-08-25T04:03:34.000Z</time>
      </trkpt>
      <trkpt lat="45.20013" lon="5.72422">
        <ele>473.79998779297</ele>
        <time>2021-08-25T04:03:38.000Z</time>
      </trkpt>
      <trkpt lat="45.20015" lon="5.72422">
        <ele>474</ele>
        <time>2021-08-25T04:03:39.000Z</time>
      </trkpt>
      <trkpt lat="45.20021" lon="5.72423">
        <ele>474.79998779297</ele>
        <time>2021-08-25T04:03:42.000Z</time>
      </trkpt>
      <trkpt lat="45.20033" lon="5.72425">
        <ele>475.79998779297</ele>
        <time>2021-08-25T04:03:47.000Z</time>
      </trkpt>
      <trkpt lat="45.20035" lon="5.72426">
        <ele>476.20001220703</ele>
        <time>2021-08-25T04:03:48.000Z</time>
      </trkpt>
      <trkpt lat="45.20038" lon="5.72426">
        <ele>477</ele>
        <time>2021-08-25T04:03:50.000Z</time>
      </trkpt>
      <trkpt lat="45.2005" lon="5.72427">
        <ele>477.79998779297</ele>
        <time>2021-08-25T04:03:56.000Z</time>
      </trkpt>
      <trkpt lat="45.20052" lon="5.72427">
        <ele>478</ele>
        <time>2021-08-25T04:03:57.000Z</time>
      </trkpt>
      <trkpt lat="45.2006" lon="5.7243">
        <ele>479.39999389648</ele>
        <time>2021-08-25T04:04:01.000Z</time>
      </trkpt>
      <trkpt lat="45.20063" lon="5.72433">
        <ele>479.79998779297</ele>
        <time>2021-08-25T04:04:03.000Z</time>
      </trkpt>
      <trkpt lat="45.20065" lon="5.72436">
        <ele>480.39999389648</ele>
        <time>2021-08-25T04:04:05.000Z</time>
      </trkpt>
      <trkpt lat="45.20074" lon="5.7245">
        <ele>481.79998779297</ele>
        <time>2021-08-25T04:04:10.000Z</time>
      </trkpt>
      <trkpt lat="45.20077" lon="5.72456">
        <ele>482</ele>
        <time>2021-08-25T04:04:12.000Z</time>
      </trkpt>
      <trkpt lat="45.20077" lon="5.72464">
        <ele>482.60000610352</ele>
        <time>2021-08-25T04:04:15.000Z</time>
      </trkpt>
      <trkpt lat="45.20078" lon="5.7247">
        <ele>482.79998779297</ele>
        <time>2021-08-25T04:04:17.000Z</time>
      </trkpt>
      <trkpt lat="45.2008" lon="5.72473">
        <ele>483</ele>
        <time>2021-08-25T04:04:18.000Z</time>
      </trkpt>
      <trkpt lat="45.20081" lon="5.72476">
        <ele>483</ele>
        <time>2021-08-25T04:04:19.000Z</time>
      </trkpt>
      <trkpt lat="45.20083" lon="5.72494">
        <ele>483.79998779297</ele>
        <time>2021-08-25T04:04:24.000Z</time>
      </trkpt>
      <trkpt lat="45.20082" lon="5.72498">
        <ele>484</ele>
        <time>2021-08-25T04:04:25.000Z</time>
      </trkpt>
      <trkpt lat="45.20078" lon="5.72511">
        <ele>484.60000610352</ele>
        <time>2021-08-25T04:04:29.000Z</time>
      </trkpt>
      <trkpt lat="45.20076" lon="5.72518">
        <ele>484.60000610352</ele>
        <time>2021-08-25T04:04:31.000Z</time>
      </trkpt>
      <trkpt lat="45.20076" lon="5.72526">
        <ele>485.20001220703</ele>
        <time>2021-08-25T04:04:33.000Z</time>
      </trkpt>
      <trkpt lat="45.2008" lon="5.72535">
        <ele>485.20001220703</ele>
        <time>2021-08-25T04:04:36.000Z</time>
      </trkpt>
      <trkpt lat="45.20088" lon="5.72544">
        <ele>486</ele>
        <time>2021-08-25T04:04:42.000Z</time>
      </trkpt>
      <trkpt lat="45.2009" lon="5.72544">
        <ele>486.39999389648</ele>
        <time>2021-08-25T04:04:43.000Z</time>
      </trkpt>
      <trkpt lat="45.20097" lon="5.72544">
        <ele>487.60000610352</ele>
        <time>2021-08-25T04:04:48.000Z</time>
      </trkpt>
      <trkpt lat="45.20098" lon="5.72544">
        <ele>488</ele>
        <time>2021-08-25T04:04:49.000Z</time>
      </trkpt>
      <trkpt lat="45.20101" lon="5.72543">
        <ele>489</ele>
        <time>2021-08-25T04:04:51.000Z</time>
      </trkpt>
      <trkpt lat="45.20105" lon="5.72543">
        <ele>490.20001220703</ele>
        <time>2021-08-25T04:04:54.000Z</time>
      </trkpt>
      <trkpt lat="45.20107" lon="5.72542">
        <ele>490.39999389648</ele>
        <time>2021-08-25T04:04:56.000Z</time>
      </trkpt>
      <trkpt lat="45.20109" lon="5.7254">
        <ele>491.20001220703</ele>
        <time>2021-08-25T04:04:58.000Z</time>
      </trkpt>
      <trkpt lat="45.20111" lon="5.72539">
        <ele>491.60000610352</ele>
        <time>2021-08-25T04:05:00.000Z</time>
      </trkpt>
      <trkpt lat="45.20113" lon="5.72541">
        <ele>492.20001220703</ele>
        <time>2021-08-25T04:05:02.000Z</time>
      </trkpt>
      <trkpt lat="45.20115" lon="5.72542">
        <ele>492.20001220703</ele>
        <time>2021-08-25T04:05:03.000Z</time>
      </trkpt>
      <trkpt lat="45.20117" lon="5.72543">
        <ele>492.20001220703</ele>
        <time>2021-08-25T04:05:04.000Z</time>
      </trkpt>
      <trkpt lat="45.20117" lon="5.72542">
        <ele>493.20001220703</ele>
        <time>2021-08-25T04:05:06.000Z</time>
      </trkpt>
      <trkpt lat="45.20115" lon="5.7254">
        <ele>493.60000610352</ele>
        <time>2021-08-25T04:05:08.000Z</time>
      </trkpt>
      <trkpt lat="45.20112" lon="5.72537">
        <ele>494.79998779297</ele>
        <time>2021-08-25T04:05:11.000Z</time>
      </trkpt>
      <trkpt lat="45.20108" lon="5.72528">
        <ele>495.39999389648</ele>
        <time>2021-08-25T04:05:16.000Z</time>
      </trkpt>
      <trkpt lat="45.20108" lon="5.72524">
        <ele>495.79998779297</ele>
        <time>2021-08-25T04:05:18.000Z</time>
      </trkpt>
      <trkpt lat="45.20108" lon="5.72523">
        <ele>496</ele>
        <time>2021-08-25T04:05:19.000Z</time>
      </trkpt>
      <trkpt lat="45.20109" lon="5.7252">
        <ele>496.79998779297</ele>
        <time>2021-08-25T04:05:21.000Z</time>
      </trkpt>
      <trkpt lat="45.2011" lon="5.72517">
        <ele>497</ele>
        <time>2021-08-25T04:05:22.000Z</time>
      </trkpt>
      <trkpt lat="45.20111" lon="5.72514">
        <ele>497.20001220703</ele>
        <time>2021-08-25T04:05:24.000Z</time>
      </trkpt>
      <trkpt lat="45.20111" lon="5.72512">
        <ele>498</ele>
        <time>2021-08-25T04:05:25.000Z</time>
      </trkpt>
      <trkpt lat="45.20112" lon="5.72511">
        <ele>498.39999389648</ele>
        <time>2021-08-25T04:05:26.000Z</time>
      </trkpt>
      <trkpt lat="45.20117" lon="5.72507">
        <ele>499.39999389648</ele>
        <time>2021-08-25T04:05:30.000Z</time>
      </trkpt>
      <trkpt lat="45.20118" lon="5.72505">
        <ele>499.79998779297</ele>
        <time>2021-08-25T04:05:31.000Z</time>
      </trkpt>
      <trkpt lat="45.20121" lon="5.72499">
        <ele>500.60000610352</ele>
        <time>2021-08-25T04:05:35.000Z</time>
      </trkpt>
      <trkpt lat="45.20124" lon="5.72496">
        <ele>501.20001220703</ele>
        <time>2021-08-25T04:05:38.000Z</time>
      </trkpt>
      <trkpt lat="45.20126" lon="5.72494">
        <ele>502.20001220703</ele>
        <time>2021-08-25T04:05:40.000Z</time>
      </trkpt>
      <trkpt lat="45.20129" lon="5.72487">
        <ele>503.39999389648</ele>
        <time>2021-08-25T04:05:45.000Z</time>
      </trkpt>
      <trkpt lat="45.20129" lon="5.72484">
        <ele>503.79998779297</ele>
        <time>2021-08-25T04:05:47.000Z</time>
      </trkpt>
      <trkpt lat="45.2013" lon="5.7248">
        <ele>505.20001220703</ele>
        <time>2021-08-25T04:05:50.000Z</time>
      </trkpt>
      <trkpt lat="45.20132" lon="5.72473">
        <ele>505.60000610352</ele>
        <time>2021-08-25T04:05:54.000Z</time>
      </trkpt>
      <trkpt lat="45.20132" lon="5.7247">
        <ele>507</ele>
        <time>2021-08-25T04:05:56.000Z</time>
      </trkpt>
      <trkpt lat="45.20132" lon="5.72468">
        <ele>507.20001220703</ele>
        <time>2021-08-25T04:05:57.000Z</time>
      </trkpt>
      <trkpt lat="45.20133" lon="5.72467">
        <ele>507.39999389648</ele>
        <time>2021-08-25T04:05:58.000Z</time>
      </trkpt>
      <trkpt lat="45.20135" lon="5.72466">
        <ele>507.60000610352</ele>
        <time>2021-08-25T04:06:00.000Z</time>
      </trkpt>
      <trkpt lat="45.20136" lon="5.72466">
        <ele>507.79998779297</ele>
        <time>2021-08-25T04:06:01.000Z</time>
      </trkpt>
      <trkpt lat="45.20136" lon="5.72465">
        <ele>508.20001220703</ele>
        <time>2021-08-25T04:06:02.000Z</time>
      </trkpt>
      <trkpt lat="45.20137" lon="5.72463">
        <ele>509</ele>
        <time>2021-08-25T04:06:04.000Z</time>
      </trkpt>
      <trkpt lat="45.20137" lon="5.72463">
        <ele>509.20001220703</ele>
        <time>2021-08-25T04:06:05.000Z</time>
      </trkpt>
      <trkpt lat="45.20138" lon="5.72463">
        <ele>509.60000610352</ele>
        <time>2021-08-25T04:06:06.000Z</time>
      </trkpt>
      <trkpt lat="45.2014" lon="5.72462">
        <ele>510.20001220703</ele>
        <time>2021-08-25T04:06:09.000Z</time>
      </trkpt>
      <trkpt lat="45.2014" lon="5.72461">
        <ele>510.39999389648</ele>
        <time>2021-08-25T04:06:10.000Z</time>
      </trkpt>
      <trkpt lat="45.20141" lon="5.72459">
        <ele>511</ele>
        <time>2021-08-25T04:06:12.000Z</time>
      </trkpt>
      <trkpt lat="45.20143" lon="5.72457">
        <ele>512.20001220703</ele>
        <time>2021-08-25T04:06:15.000Z</time>
      </trkpt>
      <trkpt lat="45.20144" lon="5.72457">
        <ele>512.40002441406</ele>
        <time>2021-08-25T04:06:16.000Z</time>
      </trkpt>
      <trkpt lat="45.20147" lon="5.7246">
        <ele>514</ele>
        <time>2021-08-25T04:06:20.000Z</time>
      </trkpt>
      <trkpt lat="45.20151" lon="5.72463">
        <ele>514.79998779297</ele>
        <time>2021-08-25T04:06:25.000Z</time>
      </trkpt>
      <trkpt lat="45.20152" lon="5.72463">
        <ele>515.59997558594</ele>
        <time>2021-08-25T04:06:26.000Z</time>
      </trkpt>
      <trkpt lat="45.20154" lon="5.72465">
        <ele>516.59997558594</ele>
        <time>2021-08-25T04:06:29.000Z</time>
      </trkpt>
      <trkpt lat="45.20154" lon="5.72465">
        <ele>517</ele>
        <time>2021-08-25T04:06:31.000Z</time>
      </trkpt>
      <trkpt lat="45.20156" lon="5.72467">
        <ele>517.59997558594</ele>
        <time>2021-08-25T04:06:33.000Z</time>
      </trkpt>
      <trkpt lat="45.20158" lon="5.72469">
        <ele>518.79998779297</ele>
        <time>2021-08-25T04:06:36.000Z</time>
      </trkpt>
      <trkpt lat="45.2016" lon="5.72472">
        <ele>519.59997558594</ele>
        <time>2021-08-25T04:06:39.000Z</time>
      </trkpt>
      <trkpt lat="45.20161" lon="5.72472">
        <ele>519.79998779297</ele>
        <time>2021-08-25T04:06:40.000Z</time>
      </trkpt>
      <trkpt lat="45.20164" lon="5.72475">
        <ele>521</ele>
        <time>2021-08-25T04:06:44.000Z</time>
      </trkpt>
      <trkpt lat="45.20166" lon="5.72476">
        <ele>521.79998779297</ele>
        <time>2021-08-25T04:06:46.000Z</time>
      </trkpt>
      <trkpt lat="45.20167" lon="5.72476">
        <ele>522.20001220703</ele>
        <time>2021-08-25T04:06:47.000Z</time>
      </trkpt>
      <trkpt lat="45.20168" lon="5.72476">
        <ele>522.59997558594</ele>
        <time>2021-08-25T04:06:49.000Z</time>
      </trkpt>
      <trkpt lat="45.20169" lon="5.72478">
        <ele>523</ele>
        <time>2021-08-25T04:06:51.000Z</time>
      </trkpt>
      <trkpt lat="45.20169" lon="5.7248">
        <ele>523.40002441406</ele>
        <time>2021-08-25T04:06:52.000Z</time>
      </trkpt>
      <trkpt lat="45.2017" lon="5.72481">
        <ele>523.59997558594</ele>
        <time>2021-08-25T04:06:53.000Z</time>
      </trkpt>
      <trkpt lat="45.20171" lon="5.72482">
        <ele>524.59997558594</ele>
        <time>2021-08-25T04:06:55.000Z</time>
      </trkpt>
      <trkpt lat="45.20172" lon="5.72483">
        <ele>525.40002441406</ele>
        <time>2021-08-25T04:06:58.000Z</time>
      </trkpt>
      <trkpt lat="45.20173" lon="5.72483">
        <ele>525.59997558594</ele>
        <time>2021-08-25T04:06:59.000Z</time>
      </trkpt>
      <trkpt lat="45.20174" lon="5.72484">
        <ele>526</ele>
        <time>2021-08-25T04:07:00.000Z</time>
      </trkpt>
      <trkpt lat="45.20177" lon="5.72487">
        <ele>526.59997558594</ele>
        <time>2021-08-25T04:07:03.000Z</time>
      </trkpt>
      <trkpt lat="45.20179" lon="5.72489">
        <ele>527</ele>
        <time>2021-08-25T04:07:06.000Z</time>
      </trkpt>
      <trkpt lat="45.20181" lon="5.7249">
        <ele>528</ele>
        <time>2021-08-25T04:07:09.000Z</time>
      </trkpt>
      <trkpt lat="45.20182" lon="5.7249">
        <ele>528.40002441406</ele>
        <time>2021-08-25T04:07:11.000Z</time>
      </trkpt>
      <trkpt lat="45.20183" lon="5.72492">
        <ele>528.59997558594</ele>
        <time>2021-08-25T04:07:12.000Z</time>
      </trkpt>
      <trkpt lat="45.20185" lon="5.72493">
        <ele>528.59997558594</ele>
        <time>2021-08-25T04:07:13.000Z</time>
      </trkpt>
      <trkpt lat="45.20188" lon="5.72497">
        <ele>529.40002441406</ele>
        <time>2021-08-25T04:07:16.000Z</time>
      </trkpt>
      <trkpt lat="45.20188" lon="5.72498">
        <ele>529.40002441406</ele>
        <time>2021-08-25T04:07:17.000Z</time>
      </trkpt>
      <trkpt lat="45.20192" lon="5.72501">
        <ele>530.59997558594</ele>
        <time>2021-08-25T04:07:22.000Z</time>
      </trkpt>
      <trkpt lat="45.20192" lon="5.72502">
        <ele>530.59997558594</ele>
        <time>2021-08-25T04:07:23.000Z</time>
      </trkpt>
      <trkpt lat="45.20192" lon="5.72504">
        <ele>530.59997558594</ele>
        <time>2021-08-25T04:07:24.000Z</time>
      </trkpt>
      <trkpt lat="45.20194" lon="5.72507">
        <ele>531.59997558594</ele>
        <time>2021-08-25T04:07:27.000Z</time>
      </trkpt>
      <trkpt lat="45.20197" lon="5.7251">
        <ele>532</ele>
        <time>2021-08-25T04:07:31.000Z</time>
      </trkpt>
      <trkpt lat="45.20199" lon="5.72512">
        <ele>532.79998779297</ele>
        <time>2021-08-25T04:07:33.000Z</time>
      </trkpt>
      <trkpt lat="45.20203" lon="5.72517">
        <ele>533</ele>
        <time>2021-08-25T04:07:37.000Z</time>
      </trkpt>
      <trkpt lat="45.20205" lon="5.72517">
        <ele>534</ele>
        <time>2021-08-25T04:07:39.000Z</time>
      </trkpt>
      <trkpt lat="45.20207" lon="5.72517">
        <ele>534.59997558594</ele>
        <time>2021-08-25T04:07:41.000Z</time>
      </trkpt>
      <trkpt lat="45.20211" lon="5.72518">
        <ele>535.20001220703</ele>
        <time>2021-08-25T04:07:44.000Z</time>
      </trkpt>
      <trkpt lat="45.20212" lon="5.72518">
        <ele>535.59997558594</ele>
        <time>2021-08-25T04:07:45.000Z</time>
      </trkpt>
      <trkpt lat="45.20213" lon="5.72518">
        <ele>535.79998779297</ele>
        <time>2021-08-25T04:07:47.000Z</time>
      </trkpt>
      <trkpt lat="45.20214" lon="5.72519">
        <ele>536.40002441406</ele>
        <time>2021-08-25T04:07:49.000Z</time>
      </trkpt>
      <trkpt lat="45.20215" lon="5.7252">
        <ele>537.40002441406</ele>
        <time>2021-08-25T04:07:52.000Z</time>
      </trkpt>
      <trkpt lat="45.20218" lon="5.7252">
        <ele>537.79998779297</ele>
        <time>2021-08-25T04:07:55.000Z</time>
      </trkpt>
      <trkpt lat="45.20219" lon="5.7252">
        <ele>538.40002441406</ele>
        <time>2021-08-25T04:07:56.000Z</time>
      </trkpt>
      <trkpt lat="45.20221" lon="5.72521">
        <ele>538.59997558594</ele>
        <time>2021-08-25T04:07:57.000Z</time>
      </trkpt>
      <trkpt lat="45.20226" lon="5.72521">
        <ele>539.59997558594</ele>
        <time>2021-08-25T04:08:02.000Z</time>
      </trkpt>
      <trkpt lat="45.20227" lon="5.7252">
        <ele>540.79998779297</ele>
        <time>2021-08-25T04:08:04.000Z</time>
      </trkpt>
      <trkpt lat="45.20228" lon="5.72518">
        <ele>541</ele>
        <time>2021-08-25T04:08:06.000Z</time>
      </trkpt>
      <trkpt lat="45.20231" lon="5.72517">
        <ele>542</ele>
        <time>2021-08-25T04:08:08.000Z</time>
      </trkpt>
      <trkpt lat="45.20232" lon="5.72517">
        <ele>542.20001220703</ele>
        <time>2021-08-25T04:08:09.000Z</time>
      </trkpt>
      <trkpt lat="45.20236" lon="5.72518">
        <ele>542.79998779297</ele>
        <time>2021-08-25T04:08:13.000Z</time>
      </trkpt>
      <trkpt lat="45.20238" lon="5.72518">
        <ele>543.59997558594</ele>
        <time>2021-08-25T04:08:14.000Z</time>
      </trkpt>
      <trkpt lat="45.20241" lon="5.72516">
        <ele>544.20001220703</ele>
        <time>2021-08-25T04:08:18.000Z</time>
      </trkpt>
      <trkpt lat="45.20242" lon="5.72516">
        <ele>544.79998779297</ele>
        <time>2021-08-25T04:08:19.000Z</time>
      </trkpt>
      <trkpt lat="45.20246" lon="5.72516">
        <ele>546</ele>
        <time>2021-08-25T04:08:23.000Z</time>
      </trkpt>
      <trkpt lat="45.20248" lon="5.72514">
        <ele>547</ele>
        <time>2021-08-25T04:08:27.000Z</time>
      </trkpt>
      <trkpt lat="45.20248" lon="5.72514">
        <ele>547.79998779297</ele>
        <time>2021-08-25T04:08:28.000Z</time>
      </trkpt>
      <trkpt lat="45.20249" lon="5.72513">
        <ele>548</ele>
        <time>2021-08-25T04:08:29.000Z</time>
      </trkpt>
      <trkpt lat="45.20254" lon="5.72514">
        <ele>548.59997558594</ele>
        <time>2021-08-25T04:08:33.000Z</time>
      </trkpt>
      <trkpt lat="45.20255" lon="5.72514">
        <ele>549.40002441406</ele>
        <time>2021-08-25T04:08:34.000Z</time>
      </trkpt>
      <trkpt lat="45.20257" lon="5.72514">
        <ele>549.59997558594</ele>
        <time>2021-08-25T04:08:36.000Z</time>
      </trkpt>
      <trkpt lat="45.2026" lon="5.72515">
        <ele>550</ele>
        <time>2021-08-25T04:08:40.000Z</time>
      </trkpt>
      <trkpt lat="45.20261" lon="5.72515">
        <ele>550.79998779297</ele>
        <time>2021-08-25T04:08:41.000Z</time>
      </trkpt>
      <trkpt lat="45.20265" lon="5.72514">
        <ele>551.40002441406</ele>
        <time>2021-08-25T04:08:45.000Z</time>
      </trkpt>
      <trkpt lat="45.20266" lon="5.72514">
        <ele>551.79998779297</ele>
        <time>2021-08-25T04:08:46.000Z</time>
      </trkpt>
      <trkpt lat="45.20269" lon="5.72514">
        <ele>553</ele>
        <time>2021-08-25T04:08:48.000Z</time>
      </trkpt>
      <trkpt lat="45.20271" lon="5.72516">
        <ele>553.40002441406</ele>
        <time>2021-08-25T04:08:50.000Z</time>
      </trkpt>
      <trkpt lat="45.20272" lon="5.72516">
        <ele>553.40002441406</ele>
        <time>2021-08-25T04:08:51.000Z</time>
      </trkpt>
      <trkpt lat="45.20273" lon="5.72516">
        <ele>553.59997558594</ele>
        <time>2021-08-25T04:08:52.000Z</time>
      </trkpt>
      <trkpt lat="45.20274" lon="5.72516">
        <ele>554</ele>
        <time>2021-08-25T04:08:53.000Z</time>
      </trkpt>
      <trkpt lat="45.20278" lon="5.72517">
        <ele>555</ele>
        <time>2021-08-25T04:08:56.000Z</time>
      </trkpt>
      <trkpt lat="45.20283" lon="5.72517">
        <ele>555.79998779297</ele>
        <time>2021-08-25T04:09:00.000Z</time>
      </trkpt>
      <trkpt lat="45.20284" lon="5.72517">
        <ele>556</ele>
        <time>2021-08-25T04:09:01.000Z</time>
      </trkpt>
      <trkpt lat="45.20287" lon="5.72516">
        <ele>556</ele>
        <time>2021-08-25T04:09:03.000Z</time>
      </trkpt>
      <trkpt lat="45.2029" lon="5.72514">
        <ele>557</ele>
        <time>2021-08-25T04:09:06.000Z</time>
      </trkpt>
      <trkpt lat="45.20291" lon="5.72514">
        <ele>557</ele>
        <time>2021-08-25T04:09:07.000Z</time>
      </trkpt>
      <trkpt lat="45.20295" lon="5.72514">
        <ele>558</ele>
        <time>2021-08-25T04:09:10.000Z</time>
      </trkpt>
      <trkpt lat="45.203" lon="5.72514">
        <ele>558.79998779297</ele>
        <time>2021-08-25T04:09:13.000Z</time>
      </trkpt>
      <trkpt lat="45.20302" lon="5.72513">
        <ele>559.20001220703</ele>
        <time>2021-08-25T04:09:15.000Z</time>
      </trkpt>
      <trkpt lat="45.20305" lon="5.72514">
        <ele>560.20001220703</ele>
        <time>2021-08-25T04:09:18.000Z</time>
      </trkpt>
      <trkpt lat="45.2031" lon="5.72514">
        <ele>561.40002441406</ele>
        <time>2021-08-25T04:09:21.000Z</time>
      </trkpt>
      <trkpt lat="45.20312" lon="5.72512">
        <ele>562.40002441406</ele>
        <time>2021-08-25T04:09:24.000Z</time>
      </trkpt>
      <trkpt lat="45.20316" lon="5.72514">
        <ele>563.40002441406</ele>
        <time>2021-08-25T04:09:27.000Z</time>
      </trkpt>
      <trkpt lat="45.20317" lon="5.72514">
        <ele>563.59997558594</ele>
        <time>2021-08-25T04:09:28.000Z</time>
      </trkpt>
      <trkpt lat="45.20323" lon="5.72514">
        <ele>564.79998779297</ele>
        <time>2021-08-25T04:09:32.000Z</time>
      </trkpt>
      <trkpt lat="45.20327" lon="5.72513">
        <ele>565.59997558594</ele>
        <time>2021-08-25T04:09:35.000Z</time>
      </trkpt>
      <trkpt lat="45.20329" lon="5.72512">
        <ele>566.40002441406</ele>
        <time>2021-08-25T04:09:36.000Z</time>
      </trkpt>
      <trkpt lat="45.20331" lon="5.72513">
        <ele>566.79998779297</ele>
        <time>2021-08-25T04:09:39.000Z</time>
      </trkpt>
      <trkpt lat="45.20332" lon="5.72514">
        <ele>567.40002441406</ele>
        <time>2021-08-25T04:09:41.000Z</time>
      </trkpt>
      <trkpt lat="45.20333" lon="5.72513">
        <ele>568.40002441406</ele>
        <time>2021-08-25T04:09:43.000Z</time>
      </trkpt>
      <trkpt lat="45.20333" lon="5.72513">
        <ele>568.59997558594</ele>
        <time>2021-08-25T04:09:44.000Z</time>
      </trkpt>
      <trkpt lat="45.20333" lon="5.72514">
        <ele>570</ele>
        <time>2021-08-25T04:09:47.000Z</time>
      </trkpt>
      <trkpt lat="45.20333" lon="5.72514">
        <ele>570.40002441406</ele>
        <time>2021-08-25T04:09:48.000Z</time>
      </trkpt>
      <trkpt lat="45.20333" lon="5.72514">
        <ele>570.40002441406</ele>
        <time>2021-08-25T04:09:49.000Z</time>
      </trkpt>
      <trkpt lat="45.20333" lon="5.72514">
        <ele>570.59997558594</ele>
        <time>2021-08-25T04:09:50.000Z</time>
      </trkpt>
      <trkpt lat="45.20334" lon="5.72514">
        <ele>571</ele>
        <time>2021-08-25T04:09:51.000Z</time>
      </trkpt>
      <trkpt lat="45.20335" lon="5.72516">
        <ele>572.20001220703</ele>
        <time>2021-08-25T04:09:54.000Z</time>
      </trkpt>
      <trkpt lat="45.20336" lon="5.72516">
        <ele>572.20001220703</ele>
        <time>2021-08-25T04:09:55.000Z</time>
      </trkpt>
      <trkpt lat="45.20336" lon="5.72516">
        <ele>573</ele>
        <time>2021-08-25T04:10:00.000Z</time>
      </trkpt>
      <trkpt lat="45.20336" lon="5.72516">
        <ele>573.59997558594</ele>
        <time>2021-08-25T04:10:01.000Z</time>
      </trkpt>
      <trkpt lat="45.20336" lon="5.72516">
        <ele>574.40002441406</ele>
        <time>2021-08-25T04:10:04.000Z</time>
      </trkpt>
      <trkpt lat="45.20336" lon="5.72516">
        <ele>574.40002441406</ele>
        <time>2021-08-25T04:10:05.000Z</time>
      </trkpt>
      <trkpt lat="45.20336" lon="5.72516">
        <ele>574.59997558594</ele>
        <time>2021-08-25T04:10:07.000Z</time>
      </trkpt>
      <trkpt lat="45.20338" lon="5.72515">
        <ele>575.59997558594</ele>
        <time>2021-08-25T04:10:10.000Z</time>
      </trkpt>
      <trkpt lat="45.20341" lon="5.72514">
        <ele>576.79998779297</ele>
        <time>2021-08-25T04:10:12.000Z</time>
      </trkpt>
      <trkpt lat="45.20342" lon="5.72514">
        <ele>576.79998779297</ele>
        <time>2021-08-25T04:10:13.000Z</time>
      </trkpt>
      <trkpt lat="45.2035" lon="5.72513">
        <ele>578</ele>
        <time>2021-08-25T04:10:17.000Z</time>
      </trkpt>
      <trkpt lat="45.20353" lon="5.72515">
        <ele>579</ele>
        <time>2021-08-25T04:10:20.000Z</time>
      </trkpt>
      <trkpt lat="45.20355" lon="5.72515">
        <ele>579</ele>
        <time>2021-08-25T04:10:21.000Z</time>
      </trkpt>
      <trkpt lat="45.20356" lon="5.72515">
        <ele>579.79998779297</ele>
        <time>2021-08-25T04:10:23.000Z</time>
      </trkpt>
      <trkpt lat="45.20358" lon="5.72515">
        <ele>580.20001220703</ele>
        <time>2021-08-25T04:10:25.000Z</time>
      </trkpt>
      <trkpt lat="45.20359" lon="5.72516">
        <ele>580.20001220703</ele>
        <time>2021-08-25T04:10:26.000Z</time>
      </trkpt>
      <trkpt lat="45.20361" lon="5.72515">
        <ele>580.40002441406</ele>
        <time>2021-08-25T04:10:28.000Z</time>
      </trkpt>
      <trkpt lat="45.20365" lon="5.72518">
        <ele>581.20001220703</ele>
        <time>2021-08-25T04:10:31.000Z</time>
      </trkpt>
      <trkpt lat="45.20366" lon="5.72519">
        <ele>581.59997558594</ele>
        <time>2021-08-25T04:10:32.000Z</time>
      </trkpt>
      <trkpt lat="45.20369" lon="5.72521">
        <ele>581.79998779297</ele>
        <time>2021-08-25T04:10:34.000Z</time>
      </trkpt>
      <trkpt lat="45.20373" lon="5.72526">
        <ele>582.59997558594</ele>
        <time>2021-08-25T04:10:37.000Z</time>
      </trkpt>
      <trkpt lat="45.20373" lon="5.72527">
        <ele>583</ele>
        <time>2021-08-25T04:10:38.000Z</time>
      </trkpt>
      <trkpt lat="45.20374" lon="5.72528">
        <ele>583</ele>
        <time>2021-08-25T04:10:39.000Z</time>
      </trkpt>
      <trkpt lat="45.20377" lon="5.72528">
        <ele>584</ele>
        <time>2021-08-25T04:10:42.000Z</time>
      </trkpt>
      <trkpt lat="45.20378" lon="5.72528">
        <ele>584.20001220703</ele>
        <time>2021-08-25T04:10:43.000Z</time>
      </trkpt>
      <trkpt lat="45.20378" lon="5.72529">
        <ele>585.20001220703</ele>
        <time>2021-08-25T04:10:44.000Z</time>
      </trkpt>
      <trkpt lat="45.20379" lon="5.72529">
        <ele>585.40002441406</ele>
        <time>2021-08-25T04:10:45.000Z</time>
      </trkpt>
      <trkpt lat="45.2038" lon="5.72532">
        <ele>586.40002441406</ele>
        <time>2021-08-25T04:10:48.000Z</time>
      </trkpt>
      <trkpt lat="45.2038" lon="5.72533">
        <ele>586.59997558594</ele>
        <time>2021-08-25T04:10:50.000Z</time>
      </trkpt>
      <trkpt lat="45.20382" lon="5.72535">
        <ele>587.40002441406</ele>
        <time>2021-08-25T04:10:53.000Z</time>
      </trkpt>
      <trkpt lat="45.20383" lon="5.72536">
        <ele>588.20001220703</ele>
        <time>2021-08-25T04:10:55.000Z</time>
      </trkpt>
      <trkpt lat="45.20384" lon="5.72536">
        <ele>588.20001220703</ele>
        <time>2021-08-25T04:10:56.000Z</time>
      </trkpt>
      <trkpt lat="45.20385" lon="5.72535">
        <ele>588.40002441406</ele>
        <time>2021-08-25T04:10:57.000Z</time>
      </trkpt>
      <trkpt lat="45.20387" lon="5.72535">
        <ele>590</ele>
        <time>2021-08-25T04:11:01.000Z</time>
      </trkpt>
      <trkpt lat="45.20388" lon="5.72534">
        <ele>591</ele>
        <time>2021-08-25T04:11:03.000Z</time>
      </trkpt>
      <trkpt lat="45.20389" lon="5.72534">
        <ele>591.59997558594</ele>
        <time>2021-08-25T04:11:05.000Z</time>
      </trkpt>
      <trkpt lat="45.20391" lon="5.72533">
        <ele>591.79998779297</ele>
        <time>2021-08-25T04:11:07.000Z</time>
      </trkpt>
      <trkpt lat="45.20392" lon="5.72533">
        <ele>592.40002441406</ele>
        <time>2021-08-25T04:11:08.000Z</time>
      </trkpt>
      <trkpt lat="45.20395" lon="5.72535">
        <ele>593.40002441406</ele>
        <time>2021-08-25T04:11:12.000Z</time>
      </trkpt>
      <trkpt lat="45.20398" lon="5.72536">
        <ele>594.20001220703</ele>
        <time>2021-08-25T04:11:16.000Z</time>
      </trkpt>
      <trkpt lat="45.20398" lon="5.72535">
        <ele>594.20001220703</ele>
        <time>2021-08-25T04:11:17.000Z</time>
      </trkpt>
      <trkpt lat="45.20399" lon="5.72535">
        <ele>594.59997558594</ele>
        <time>2021-08-25T04:11:18.000Z</time>
      </trkpt>
      <trkpt lat="45.20402" lon="5.72534">
        <ele>595.40002441406</ele>
        <time>2021-08-25T04:11:21.000Z</time>
      </trkpt>
      <trkpt lat="45.20403" lon="5.72533">
        <ele>595.40002441406</ele>
        <time>2021-08-25T04:11:22.000Z</time>
      </trkpt>
      <trkpt lat="45.20406" lon="5.72532">
        <ele>596.40002441406</ele>
        <time>2021-08-25T04:11:24.000Z</time>
      </trkpt>
      <trkpt lat="45.20408" lon="5.72531">
        <ele>596.40002441406</ele>
        <time>2021-08-25T04:11:26.000Z</time>
      </trkpt>
      <trkpt lat="45.20411" lon="5.72528">
        <ele>597.59997558594</ele>
        <time>2021-08-25T04:11:29.000Z</time>
      </trkpt>
      <trkpt lat="45.20412" lon="5.72528">
        <ele>598</ele>
        <time>2021-08-25T04:11:30.000Z</time>
      </trkpt>
      <trkpt lat="45.20415" lon="5.72527">
        <ele>598.40002441406</ele>
        <time>2021-08-25T04:11:33.000Z</time>
      </trkpt>
      <trkpt lat="45.20417" lon="5.72525">
        <ele>599.40002441406</ele>
        <time>2021-08-25T04:11:35.000Z</time>
      </trkpt>
      <trkpt lat="45.20418" lon="5.72525">
        <ele>599.59997558594</ele>
        <time>2021-08-25T04:11:36.000Z</time>
      </trkpt>
      <trkpt lat="45.20417" lon="5.72525">
        <ele>599.79998779297</ele>
        <time>2021-08-25T04:11:37.000Z</time>
      </trkpt>
      <trkpt lat="45.20417" lon="5.72522">
        <ele>600.79998779297</ele>
        <time>2021-08-25T04:11:40.000Z</time>
      </trkpt>
      <trkpt lat="45.20417" lon="5.72521">
        <ele>601.20001220703</ele>
        <time>2021-08-25T04:11:41.000Z</time>
      </trkpt>
      <trkpt lat="45.20419" lon="5.72518">
        <ele>601.40002441406</ele>
        <time>2021-08-25T04:11:43.000Z</time>
      </trkpt>
      <trkpt lat="45.20421" lon="5.72515">
        <ele>602.79998779297</ele>
        <time>2021-08-25T04:11:46.000Z</time>
      </trkpt>
      <trkpt lat="45.20421" lon="5.72514">
        <ele>603</ele>
        <time>2021-08-25T04:11:47.000Z</time>
      </trkpt>
      <trkpt lat="45.20422" lon="5.72513">
        <ele>603</ele>
        <time>2021-08-25T04:11:48.000Z</time>
      </trkpt>
      <trkpt lat="45.20423" lon="5.72511">
        <ele>604.20001220703</ele>
        <time>2021-08-25T04:11:51.000Z</time>
      </trkpt>
      <trkpt lat="45.20424" lon="5.72512">
        <ele>605.20001220703</ele>
        <time>2021-08-25T04:11:53.000Z</time>
      </trkpt>
      <trkpt lat="45.20424" lon="5.72513">
        <ele>605.20001220703</ele>
        <time>2021-08-25T04:11:54.000Z</time>
      </trkpt>
      <trkpt lat="45.20424" lon="5.72514">
        <ele>605.40002441406</ele>
        <time>2021-08-25T04:11:55.000Z</time>
      </trkpt>
      <trkpt lat="45.20426" lon="5.72514">
        <ele>605.79998779297</ele>
        <time>2021-08-25T04:11:56.000Z</time>
      </trkpt>
      <trkpt lat="45.20428" lon="5.72514">
        <ele>606.59997558594</ele>
        <time>2021-08-25T04:11:58.000Z</time>
      </trkpt>
      <trkpt lat="45.2043" lon="5.72512">
        <ele>607.59997558594</ele>
        <time>2021-08-25T04:12:01.000Z</time>
      </trkpt>
      <trkpt lat="45.20431" lon="5.72511">
        <ele>608.40002441406</ele>
        <time>2021-08-25T04:12:03.000Z</time>
      </trkpt>
      <trkpt lat="45.20432" lon="5.72509">
        <ele>608.40002441406</ele>
        <time>2021-08-25T04:12:05.000Z</time>
      </trkpt>
      <trkpt lat="45.20434" lon="5.72508">
        <ele>609.59997558594</ele>
        <time>2021-08-25T04:12:07.000Z</time>
      </trkpt>
      <trkpt lat="45.20436" lon="5.72507">
        <ele>610</ele>
        <time>2021-08-25T04:12:09.000Z</time>
      </trkpt>
      <trkpt lat="45.20437" lon="5.72507">
        <ele>610</ele>
        <time>2021-08-25T04:12:10.000Z</time>
      </trkpt>
      <trkpt lat="45.20442" lon="5.72507">
        <ele>611</ele>
        <time>2021-08-25T04:12:13.000Z</time>
      </trkpt>
      <trkpt lat="45.20452" lon="5.72513">
        <ele>612</ele>
        <time>2021-08-25T04:12:18.000Z</time>
      </trkpt>
      <trkpt lat="45.20456" lon="5.72519">
        <ele>612.40002441406</ele>
        <time>2021-08-25T04:12:20.000Z</time>
      </trkpt>
      <trkpt lat="45.2046" lon="5.72526">
        <ele>612.79998779297</ele>
        <time>2021-08-25T04:12:24.000Z</time>
      </trkpt>
      <trkpt lat="45.20461" lon="5.72527">
        <ele>613.20001220703</ele>
        <time>2021-08-25T04:12:25.000Z</time>
      </trkpt>
      <trkpt lat="45.20467" lon="5.72537">
        <ele>614.20001220703</ele>
        <time>2021-08-25T04:12:31.000Z</time>
      </trkpt>
      <trkpt lat="45.20469" lon="5.72539">
        <ele>614.59997558594</ele>
        <time>2021-08-25T04:12:32.000Z</time>
      </trkpt>
      <trkpt lat="45.20471" lon="5.72541">
        <ele>614.59997558594</ele>
        <time>2021-08-25T04:12:33.000Z</time>
      </trkpt>
      <trkpt lat="45.20473" lon="5.72544">
        <ele>615.40002441406</ele>
        <time>2021-08-25T04:12:35.000Z</time>
      </trkpt>
      <trkpt lat="45.20476" lon="5.72547">
        <ele>615.79998779297</ele>
        <time>2021-08-25T04:12:37.000Z</time>
      </trkpt>
      <trkpt lat="45.2048" lon="5.72551">
        <ele>616.40002441406</ele>
        <time>2021-08-25T04:12:40.000Z</time>
      </trkpt>
      <trkpt lat="45.20482" lon="5.72553">
        <ele>616.40002441406</ele>
        <time>2021-08-25T04:12:41.000Z</time>
      </trkpt>
      <trkpt lat="45.2049" lon="5.72556">
        <ele>617.20001220703</ele>
        <time>2021-08-25T04:12:46.000Z</time>
      </trkpt>
      <trkpt lat="45.20491" lon="5.72553">
        <ele>617.79998779297</ele>
        <time>2021-08-25T04:12:48.000Z</time>
      </trkpt>
      <trkpt lat="45.20491" lon="5.72551">
        <ele>618</ele>
        <time>2021-08-25T04:12:50.000Z</time>
      </trkpt>
      <trkpt lat="45.2049" lon="5.72547">
        <ele>618.79998779297</ele>
        <time>2021-08-25T04:12:52.000Z</time>
      </trkpt>
      <trkpt lat="45.20489" lon="5.72545">
        <ele>619</ele>
        <time>2021-08-25T04:12:53.000Z</time>
      </trkpt>
      <trkpt lat="45.20488" lon="5.72543">
        <ele>619.20001220703</ele>
        <time>2021-08-25T04:12:55.000Z</time>
      </trkpt>
      <trkpt lat="45.20487" lon="5.72541">
        <ele>620.20001220703</ele>
        <time>2021-08-25T04:12:57.000Z</time>
      </trkpt>
      <trkpt lat="45.20487" lon="5.7254">
        <ele>620.59997558594</ele>
        <time>2021-08-25T04:12:58.000Z</time>
      </trkpt>
      <trkpt lat="45.20485" lon="5.72535">
        <ele>620.79998779297</ele>
        <time>2021-08-25T04:13:01.000Z</time>
      </trkpt>
      <trkpt lat="45.20484" lon="5.72534">
        <ele>621.20001220703</ele>
        <time>2021-08-25T04:13:02.000Z</time>
      </trkpt>
      <trkpt lat="45.20482" lon="5.72526">
        <ele>621.79998779297</ele>
        <time>2021-08-25T04:13:06.000Z</time>
      </trkpt>
      <trkpt lat="45.20482" lon="5.72523">
        <ele>622.59997558594</ele>
        <time>2021-08-25T04:13:07.000Z</time>
      </trkpt>
      <trkpt lat="45.20484" lon="5.72518">
        <ele>622.79998779297</ele>
        <time>2021-08-25T04:13:09.000Z</time>
      </trkpt>
      <trkpt lat="45.20484" lon="5.72511">
        <ele>622.79998779297</ele>
        <time>2021-08-25T04:13:11.000Z</time>
      </trkpt>
      <trkpt lat="45.20481" lon="5.72498">
        <ele>622.40002441406</ele>
        <time>2021-08-25T04:13:17.000Z</time>
      </trkpt>
      <trkpt lat="45.2048" lon="5.72497">
        <ele>622.40002441406</ele>
        <time>2021-08-25T04:13:18.000Z</time>
      </trkpt>
      <trkpt lat="45.20477" lon="5.7249">
        <ele>622.40002441406</ele>
        <time>2021-08-25T04:13:20.000Z</time>
      </trkpt>
      <trkpt lat="45.20476" lon="5.72476">
        <ele>623.40002441406</ele>
        <time>2021-08-25T04:13:24.000Z</time>
      </trkpt>
      <trkpt lat="45.20476" lon="5.72474">
        <ele>623.79998779297</ele>
        <time>2021-08-25T04:13:25.000Z</time>
      </trkpt>
      <trkpt lat="45.20475" lon="5.7247">
        <ele>624.40002441406</ele>
        <time>2021-08-25T04:13:27.000Z</time>
      </trkpt>
      <trkpt lat="45.20475" lon="5.72468">
        <ele>625.20001220703</ele>
        <time>2021-08-25T04:13:28.000Z</time>
      </trkpt>
      <trkpt lat="45.20474" lon="5.72461">
        <ele>625.79998779297</ele>
        <time>2021-08-25T04:13:31.000Z</time>
      </trkpt>
      <trkpt lat="45.20473" lon="5.72459">
        <ele>626.40002441406</ele>
        <time>2021-08-25T04:13:32.000Z</time>
      </trkpt>
      <trkpt lat="45.20472" lon="5.72452">
        <ele>627.59997558594</ele>
        <time>2021-08-25T04:13:35.000Z</time>
      </trkpt>
      <trkpt lat="45.2047" lon="5.72443">
        <ele>628</ele>
        <time>2021-08-25T04:13:39.000Z</time>
      </trkpt>
      <trkpt lat="45.20466" lon="5.72437">
        <ele>628.40002441406</ele>
        <time>2021-08-25T04:13:42.000Z</time>
      </trkpt>
      <trkpt lat="45.20459" lon="5.72433">
        <ele>628.40002441406</ele>
        <time>2021-08-25T04:13:45.000Z</time>
      </trkpt>
      <trkpt lat="45.20458" lon="5.72433">
        <ele>628.40002441406</ele>
        <time>2021-08-25T04:13:46.000Z</time>
      </trkpt>
      <trkpt lat="45.20453" lon="5.72431">
        <ele>628.20001220703</ele>
        <time>2021-08-25T04:13:49.000Z</time>
      </trkpt>
      <trkpt lat="45.20449" lon="5.72429">
        <ele>628.20001220703</ele>
        <time>2021-08-25T04:13:52.000Z</time>
      </trkpt>
      <trkpt lat="45.20439" lon="5.72423">
        <ele>627.79998779297</ele>
        <time>2021-08-25T04:13:58.000Z</time>
      </trkpt>
      <trkpt lat="45.20435" lon="5.72423">
        <ele>627.79998779297</ele>
        <time>2021-08-25T04:14:00.000Z</time>
      </trkpt>
      <trkpt lat="45.20427" lon="5.72422">
        <ele>628.40002441406</ele>
        <time>2021-08-25T04:14:05.000Z</time>
      </trkpt>
      <trkpt lat="45.20426" lon="5.72424">
        <ele>628.40002441406</ele>
        <time>2021-08-25T04:14:06.000Z</time>
      </trkpt>
      <trkpt lat="45.20423" lon="5.72425">
        <ele>628.59997558594</ele>
        <time>2021-08-25T04:14:08.000Z</time>
      </trkpt>
      <trkpt lat="45.20421" lon="5.72426">
        <ele>629</ele>
        <time>2021-08-25T04:14:09.000Z</time>
      </trkpt>
      <trkpt lat="45.20415" lon="5.72428">
        <ele>629.20001220703</ele>
        <time>2021-08-25T04:14:12.000Z</time>
      </trkpt>
      <trkpt lat="45.20402" lon="5.72426">
        <ele>629.20001220703</ele>
        <time>2021-08-25T04:14:18.000Z</time>
      </trkpt>
      <trkpt lat="45.204" lon="5.72421">
        <ele>629.40002441406</ele>
        <time>2021-08-25T04:14:21.000Z</time>
      </trkpt>
      <trkpt lat="45.204" lon="5.72422">
        <ele>629.40002441406</ele>
        <time>2021-08-25T04:14:22.000Z</time>
      </trkpt>
      <trkpt lat="45.204" lon="5.72428">
        <ele>629.40002441406</ele>
        <time>2021-08-25T04:14:25.000Z</time>
      </trkpt>
      <trkpt lat="45.20398" lon="5.72431">
        <ele>629.20001220703</ele>
        <time>2021-08-25T04:14:26.000Z</time>
      </trkpt>
      <trkpt lat="45.20396" lon="5.72432">
        <ele>629.20001220703</ele>
        <time>2021-08-25T04:14:27.000Z</time>
      </trkpt>
      <trkpt lat="45.20388" lon="5.72434">
        <ele>627.79998779297</ele>
        <time>2021-08-25T04:14:31.000Z</time>
      </trkpt>
      <trkpt lat="45.20387" lon="5.72435">
        <ele>627.20001220703</ele>
        <time>2021-08-25T04:14:32.000Z</time>
      </trkpt>
      <trkpt lat="45.20385" lon="5.72439">
        <ele>627</ele>
        <time>2021-08-25T04:14:34.000Z</time>
      </trkpt>
      <trkpt lat="45.20381" lon="5.7244">
        <ele>626.59997558594</ele>
        <time>2021-08-25T04:14:36.000Z</time>
      </trkpt>
      <trkpt lat="45.2038" lon="5.72439">
        <ele>626.59997558594</ele>
        <time>2021-08-25T04:14:37.000Z</time>
      </trkpt>
      <trkpt lat="45.20375" lon="5.72434">
        <ele>626.40002441406</ele>
        <time>2021-08-25T04:14:41.000Z</time>
      </trkpt>
      <trkpt lat="45.20375" lon="5.72434">
        <ele>626</ele>
        <time>2021-08-25T04:14:42.000Z</time>
      </trkpt>
      <trkpt lat="45.20373" lon="5.72432">
        <ele>625</ele>
        <time>2021-08-25T04:14:46.000Z</time>
      </trkpt>
      <trkpt lat="45.20372" lon="5.72431">
        <ele>625</ele>
        <time>2021-08-25T04:14:47.000Z</time>
      </trkpt>
      <trkpt lat="45.20371" lon="5.7243">
        <ele>624.40002441406</ele>
        <time>2021-08-25T04:14:49.000Z</time>
      </trkpt>
      <trkpt lat="45.20369" lon="5.72429">
        <ele>623.79998779297</ele>
        <time>2021-08-25T04:14:51.000Z</time>
      </trkpt>
      <trkpt lat="45.20369" lon="5.72431">
        <ele>623.59997558594</ele>
        <time>2021-08-25T04:14:54.000Z</time>
      </trkpt>
      <trkpt lat="45.20368" lon="5.7243">
        <ele>623.40002441406</ele>
        <time>2021-08-25T04:14:56.000Z</time>
      </trkpt>
      <trkpt lat="45.20368" lon="5.72426">
        <ele>623.40002441406</ele>
        <time>2021-08-25T04:14:58.000Z</time>
      </trkpt>
      <trkpt lat="45.20367" lon="5.72423">
        <ele>623.40002441406</ele>
        <time>2021-08-25T04:14:59.000Z</time>
      </trkpt>
      <trkpt lat="45.20369" lon="5.72409">
        <ele>623.40002441406</ele>
        <time>2021-08-25T04:15:03.000Z</time>
      </trkpt>
      <trkpt lat="45.2037" lon="5.72406">
        <ele>623.40002441406</ele>
        <time>2021-08-25T04:15:04.000Z</time>
      </trkpt>
      <trkpt lat="45.20384" lon="5.72385">
        <ele>623.40002441406</ele>
        <time>2021-08-25T04:15:11.000Z</time>
      </trkpt>
      <trkpt lat="45.20387" lon="5.72383">
        <ele>623.59997558594</ele>
        <time>2021-08-25T04:15:12.000Z</time>
      </trkpt>
      <trkpt lat="45.20401" lon="5.7238">
        <ele>623.20001220703</ele>
        <time>2021-08-25T04:15:17.000Z</time>
      </trkpt>
      <trkpt lat="45.20407" lon="5.72381">
        <ele>623.20001220703</ele>
        <time>2021-08-25T04:15:19.000Z</time>
      </trkpt>
      <trkpt lat="45.20421" lon="5.72386">
        <ele>623.40002441406</ele>
        <time>2021-08-25T04:15:24.000Z</time>
      </trkpt>
      <trkpt lat="45.20423" lon="5.72387">
        <ele>623</ele>
        <time>2021-08-25T04:15:25.000Z</time>
      </trkpt>
      <trkpt lat="45.20435" lon="5.72393">
        <ele>623.40002441406</ele>
        <time>2021-08-25T04:15:29.000Z</time>
      </trkpt>
      <trkpt lat="45.20443" lon="5.72399">
        <ele>623.79998779297</ele>
        <time>2021-08-25T04:15:33.000Z</time>
      </trkpt>
      <trkpt lat="45.2045" lon="5.72402">
        <ele>624.79998779297</ele>
        <time>2021-08-25T04:15:36.000Z</time>
      </trkpt>
      <trkpt lat="45.20455" lon="5.72406">
        <ele>626</ele>
        <time>2021-08-25T04:15:39.000Z</time>
      </trkpt>
      <trkpt lat="45.20462" lon="5.72411">
        <ele>626.59997558594</ele>
        <time>2021-08-25T04:15:43.000Z</time>
      </trkpt>
      <trkpt lat="45.20464" lon="5.72413">
        <ele>626.79998779297</ele>
        <time>2021-08-25T04:15:44.000Z</time>
      </trkpt>
      <trkpt lat="45.20467" lon="5.72417">
        <ele>627.20001220703</ele>
        <time>2021-08-25T04:15:46.000Z</time>
      </trkpt>
      <trkpt lat="45.20473" lon="5.72426">
        <ele>627.59997558594</ele>
        <time>2021-08-25T04:15:49.000Z</time>
      </trkpt>
      <trkpt lat="45.20476" lon="5.72431">
        <ele>628.40002441406</ele>
        <time>2021-08-25T04:15:51.000Z</time>
      </trkpt>
      <trkpt lat="45.20478" lon="5.72432">
        <ele>628.40002441406</ele>
        <time>2021-08-25T04:15:52.000Z</time>
      </trkpt>
      <trkpt lat="45.20479" lon="5.72432">
        <ele>628.40002441406</ele>
        <time>2021-08-25T04:15:53.000Z</time>
      </trkpt>
      <trkpt lat="45.20485" lon="5.7243">
        <ele>628.59997558594</ele>
        <time>2021-08-25T04:15:56.000Z</time>
      </trkpt>
      <trkpt lat="45.20492" lon="5.72427">
        <ele>628.79998779297</ele>
        <time>2021-08-25T04:16:01.000Z</time>
      </trkpt>
      <trkpt lat="45.20502" lon="5.72435">
        <ele>629.40002441406</ele>
        <time>2021-08-25T04:16:07.000Z</time>
      </trkpt>
      <trkpt lat="45.20507" lon="5.72438">
        <ele>629.59997558594</ele>
        <time>2021-08-25T04:16:10.000Z</time>
      </trkpt>
      <trkpt lat="45.20516" lon="5.72441">
        <ele>630.20001220703</ele>
        <time>2021-08-25T04:16:15.000Z</time>
      </trkpt>
      <trkpt lat="45.20521" lon="5.72443">
        <ele>629.59997558594</ele>
        <time>2021-08-25T04:16:20.000Z</time>
      </trkpt>
      <trkpt lat="45.20529" lon="5.72446">
        <ele>629.59997558594</ele>
        <time>2021-08-25T04:16:27.000Z</time>
      </trkpt>
      <trkpt lat="45.20537" lon="5.72451">
        <ele>629</ele>
        <time>2021-08-25T04:16:34.000Z</time>
      </trkpt>
      <trkpt lat="45.20538" lon="5.72451">
        <ele>628.79998779297</ele>
        <time>2021-08-25T04:16:35.000Z</time>
      </trkpt>
      <trkpt lat="45.20539" lon="5.72452">
        <ele>628.20001220703</ele>
        <time>2021-08-25T04:16:36.000Z</time>
      </trkpt>
      <trkpt lat="45.20544" lon="5.72461">
        <ele>627.59997558594</ele>
        <time>2021-08-25T04:16:41.000Z</time>
      </trkpt>
      <trkpt lat="45.20546" lon="5.72463">
        <ele>627</ele>
        <time>2021-08-25T04:16:43.000Z</time>
      </trkpt>
      <trkpt lat="45.20547" lon="5.72464">
        <ele>627</ele>
        <time>2021-08-25T04:16:44.000Z</time>
      </trkpt>
      <trkpt lat="45.20552" lon="5.72466">
        <ele>626.79998779297</ele>
        <time>2021-08-25T04:16:47.000Z</time>
      </trkpt>
      <trkpt lat="45.20567" lon="5.72475">
        <ele>627.40002441406</ele>
        <time>2021-08-25T04:16:54.000Z</time>
      </trkpt>
      <trkpt lat="45.20571" lon="5.72479">
        <ele>627.79998779297</ele>
        <time>2021-08-25T04:16:57.000Z</time>
      </trkpt>
      <trkpt lat="45.20573" lon="5.72482">
        <ele>627.79998779297</ele>
        <time>2021-08-25T04:16:59.000Z</time>
      </trkpt>
      <trkpt lat="45.20575" lon="5.72485">
        <ele>627.79998779297</ele>
        <time>2021-08-25T04:17:00.000Z</time>
      </trkpt>
      <trkpt lat="45.20577" lon="5.72492">
        <ele>628</ele>
        <time>2021-08-25T04:17:02.000Z</time>
      </trkpt>
      <trkpt lat="45.20579" lon="5.72495">
        <ele>628</ele>
        <time>2021-08-25T04:17:03.000Z</time>
      </trkpt>
      <trkpt lat="45.2058" lon="5.72498">
        <ele>628</ele>
        <time>2021-08-25T04:17:04.000Z</time>
      </trkpt>
      <trkpt lat="45.20588" lon="5.7251">
        <ele>628</ele>
        <time>2021-08-25T04:17:09.000Z</time>
      </trkpt>
      <trkpt lat="45.20589" lon="5.72516">
        <ele>628.20001220703</ele>
        <time>2021-08-25T04:17:11.000Z</time>
      </trkpt>
      <trkpt lat="45.2059" lon="5.72521">
        <ele>628.20001220703</ele>
        <time>2021-08-25T04:17:13.000Z</time>
      </trkpt>
      <trkpt lat="45.20592" lon="5.72535">
        <ele>627.40002441406</ele>
        <time>2021-08-25T04:17:19.000Z</time>
      </trkpt>
      <trkpt lat="45.20591" lon="5.72543">
        <ele>626.79998779297</ele>
        <time>2021-08-25T04:17:22.000Z</time>
      </trkpt>
      <trkpt lat="45.20589" lon="5.72556">
        <ele>626.20001220703</ele>
        <time>2021-08-25T04:17:27.000Z</time>
      </trkpt>
      <trkpt lat="45.20589" lon="5.72565">
        <ele>626.20001220703</ele>
        <time>2021-08-25T04:17:30.000Z</time>
      </trkpt>
      <trkpt lat="45.20591" lon="5.72569">
        <ele>626.40002441406</ele>
        <time>2021-08-25T04:17:32.000Z</time>
      </trkpt>
      <trkpt lat="45.206" lon="5.72578">
        <ele>627.20001220703</ele>
        <time>2021-08-25T04:17:37.000Z</time>
      </trkpt>
      <trkpt lat="45.20607" lon="5.72585">
        <ele>627.20001220703</ele>
        <time>2021-08-25T04:17:40.000Z</time>
      </trkpt>
      <trkpt lat="45.2061" lon="5.72589">
        <ele>628</ele>
        <time>2021-08-25T04:17:42.000Z</time>
      </trkpt>
      <trkpt lat="45.20612" lon="5.72591">
        <ele>628.40002441406</ele>
        <time>2021-08-25T04:17:44.000Z</time>
      </trkpt>
      <trkpt lat="45.20618" lon="5.72596">
        <ele>629.20001220703</ele>
        <time>2021-08-25T04:17:48.000Z</time>
      </trkpt>
      <trkpt lat="45.20621" lon="5.72597">
        <ele>630</ele>
        <time>2021-08-25T04:17:50.000Z</time>
      </trkpt>
      <trkpt lat="45.20623" lon="5.72598">
        <ele>630.40002441406</ele>
        <time>2021-08-25T04:17:51.000Z</time>
      </trkpt>
      <trkpt lat="45.2063" lon="5.72601">
        <ele>631.20001220703</ele>
        <time>2021-08-25T04:17:56.000Z</time>
      </trkpt>
      <trkpt lat="45.20632" lon="5.726">
        <ele>631.40002441406</ele>
        <time>2021-08-25T04:17:57.000Z</time>
      </trkpt>
      <trkpt lat="45.20644" lon="5.726">
        <ele>631.79998779297</ele>
        <time>2021-08-25T04:18:02.000Z</time>
      </trkpt>
      <trkpt lat="45.20647" lon="5.72599">
        <ele>632</ele>
        <time>2021-08-25T04:18:03.000Z</time>
      </trkpt>
      <trkpt lat="45.20653" lon="5.72595">
        <ele>632.59997558594</ele>
        <time>2021-08-25T04:18:06.000Z</time>
      </trkpt>
      <trkpt lat="45.20657" lon="5.72592">
        <ele>632.59997558594</ele>
        <time>2021-08-25T04:18:08.000Z</time>
      </trkpt>
      <trkpt lat="45.20663" lon="5.72589">
        <ele>633.59997558594</ele>
        <time>2021-08-25T04:18:12.000Z</time>
      </trkpt>
      <trkpt lat="45.20667" lon="5.72587">
        <ele>634</ele>
        <time>2021-08-25T04:18:14.000Z</time>
      </trkpt>
      <trkpt lat="45.20671" lon="5.72584">
        <ele>635</ele>
        <time>2021-08-25T04:18:17.000Z</time>
      </trkpt>
      <trkpt lat="45.20674" lon="5.72581">
        <ele>635.20001220703</ele>
        <time>2021-08-25T04:18:19.000Z</time>
      </trkpt>
      <trkpt lat="45.20677" lon="5.7258">
        <ele>635.59997558594</ele>
        <time>2021-08-25T04:18:21.000Z</time>
      </trkpt>
      <trkpt lat="45.20679" lon="5.72579">
        <ele>636</ele>
        <time>2021-08-25T04:18:22.000Z</time>
      </trkpt>
      <trkpt lat="45.20682" lon="5.72578">
        <ele>636.40002441406</ele>
        <time>2021-08-25T04:18:24.000Z</time>
      </trkpt>
      <trkpt lat="45.20686" lon="5.72576">
        <ele>637.20001220703</ele>
        <time>2021-08-25T04:18:27.000Z</time>
      </trkpt>
      <trkpt lat="45.20691" lon="5.72574">
        <ele>638.20001220703</ele>
        <time>2021-08-25T04:18:31.000Z</time>
      </trkpt>
      <trkpt lat="45.20693" lon="5.72573">
        <ele>638.40002441406</ele>
        <time>2021-08-25T04:18:32.000Z</time>
      </trkpt>
      <trkpt lat="45.20696" lon="5.7257">
        <ele>639.40002441406</ele>
        <time>2021-08-25T04:18:35.000Z</time>
      </trkpt>
      <trkpt lat="45.20699" lon="5.7257">
        <ele>640</ele>
        <time>2021-08-25T04:18:38.000Z</time>
      </trkpt>
      <trkpt lat="45.20699" lon="5.72571">
        <ele>640.59997558594</ele>
        <time>2021-08-25T04:18:39.000Z</time>
      </trkpt>
      <trkpt lat="45.207" lon="5.72573">
        <ele>640.79998779297</ele>
        <time>2021-08-25T04:18:40.000Z</time>
      </trkpt>
      <trkpt lat="45.20705" lon="5.72576">
        <ele>641.59997558594</ele>
        <time>2021-08-25T04:18:43.000Z</time>
      </trkpt>
      <trkpt lat="45.20707" lon="5.72576">
        <ele>642.20001220703</ele>
        <time>2021-08-25T04:18:45.000Z</time>
      </trkpt>
      <trkpt lat="45.2071" lon="5.72577">
        <ele>643.20001220703</ele>
        <time>2021-08-25T04:18:47.000Z</time>
      </trkpt>
      <trkpt lat="45.20715" lon="5.72578">
        <ele>644.59997558594</ele>
        <time>2021-08-25T04:18:51.000Z</time>
      </trkpt>
      <trkpt lat="45.20716" lon="5.72577">
        <ele>644.79998779297</ele>
        <time>2021-08-25T04:18:52.000Z</time>
      </trkpt>
      <trkpt lat="45.20717" lon="5.72577">
        <ele>645</ele>
        <time>2021-08-25T04:18:53.000Z</time>
      </trkpt>
      <trkpt lat="45.20721" lon="5.72577">
        <ele>646.20001220703</ele>
        <time>2021-08-25T04:18:56.000Z</time>
      </trkpt>
      <trkpt lat="45.20724" lon="5.7258">
        <ele>647.20001220703</ele>
        <time>2021-08-25T04:18:59.000Z</time>
      </trkpt>
      <trkpt lat="45.20727" lon="5.72582">
        <ele>647.59997558594</ele>
        <time>2021-08-25T04:19:02.000Z</time>
      </trkpt>
      <trkpt lat="45.2073" lon="5.72585">
        <ele>648.40002441406</ele>
        <time>2021-08-25T04:19:05.000Z</time>
      </trkpt>
      <trkpt lat="45.20731" lon="5.72585">
        <ele>648.79998779297</ele>
        <time>2021-08-25T04:19:07.000Z</time>
      </trkpt>
      <trkpt lat="45.20735" lon="5.72585">
        <ele>650</ele>
        <time>2021-08-25T04:19:10.000Z</time>
      </trkpt>
      <trkpt lat="45.20736" lon="5.72587">
        <ele>650.40002441406</ele>
        <time>2021-08-25T04:19:12.000Z</time>
      </trkpt>
      <trkpt lat="45.20737" lon="5.72588">
        <ele>650.59997558594</ele>
        <time>2021-08-25T04:19:13.000Z</time>
      </trkpt>
      <trkpt lat="45.20738" lon="5.72592">
        <ele>651.40002441406</ele>
        <time>2021-08-25T04:19:15.000Z</time>
      </trkpt>
      <trkpt lat="45.2074" lon="5.72596">
        <ele>651.59997558594</ele>
        <time>2021-08-25T04:19:17.000Z</time>
      </trkpt>
      <trkpt lat="45.2074" lon="5.72598">
        <ele>651.79998779297</ele>
        <time>2021-08-25T04:19:18.000Z</time>
      </trkpt>
      <trkpt lat="45.20741" lon="5.726">
        <ele>653</ele>
        <time>2021-08-25T04:19:20.000Z</time>
      </trkpt>
      <trkpt lat="45.20742" lon="5.72605">
        <ele>653.20001220703</ele>
        <time>2021-08-25T04:19:22.000Z</time>
      </trkpt>
      <trkpt lat="45.20743" lon="5.72607">
        <ele>653.59997558594</ele>
        <time>2021-08-25T04:19:23.000Z</time>
      </trkpt>
      <trkpt lat="45.20744" lon="5.72609">
        <ele>654</ele>
        <time>2021-08-25T04:19:24.000Z</time>
      </trkpt>
      <trkpt lat="45.20747" lon="5.72617">
        <ele>655.20001220703</ele>
        <time>2021-08-25T04:19:28.000Z</time>
      </trkpt>
      <trkpt lat="45.20747" lon="5.72616">
        <ele>655.59997558594</ele>
        <time>2021-08-25T04:19:30.000Z</time>
      </trkpt>
      <trkpt lat="45.20747" lon="5.72615">
        <ele>655.79998779297</ele>
        <time>2021-08-25T04:19:31.000Z</time>
      </trkpt>
      <trkpt lat="45.20749" lon="5.72613">
        <ele>656.40002441406</ele>
        <time>2021-08-25T04:19:34.000Z</time>
      </trkpt>
      <trkpt lat="45.20753" lon="5.72613">
        <ele>657.20001220703</ele>
        <time>2021-08-25T04:19:38.000Z</time>
      </trkpt>
      <trkpt lat="45.20754" lon="5.72613">
        <ele>657.79998779297</ele>
        <time>2021-08-25T04:19:39.000Z</time>
      </trkpt>
      <trkpt lat="45.20756" lon="5.72613">
        <ele>657.79998779297</ele>
        <time>2021-08-25T04:19:40.000Z</time>
      </trkpt>
      <trkpt lat="45.2076" lon="5.72612">
        <ele>659</ele>
        <time>2021-08-25T04:19:44.000Z</time>
      </trkpt>
      <trkpt lat="45.20765" lon="5.72611">
        <ele>660</ele>
        <time>2021-08-25T04:19:47.000Z</time>
      </trkpt>
      <trkpt lat="45.20765" lon="5.7261">
        <ele>660.40002441406</ele>
        <time>2021-08-25T04:19:48.000Z</time>
      </trkpt>
      <trkpt lat="45.20768" lon="5.72608">
        <ele>660.79998779297</ele>
        <time>2021-08-25T04:19:51.000Z</time>
      </trkpt>
      <trkpt lat="45.20769" lon="5.72608">
        <ele>661.79998779297</ele>
        <time>2021-08-25T04:19:52.000Z</time>
      </trkpt>
      <trkpt lat="45.2077" lon="5.72609">
        <ele>662</ele>
        <time>2021-08-25T04:19:53.000Z</time>
      </trkpt>
      <trkpt lat="45.20774" lon="5.72613">
        <ele>663.20001220703</ele>
        <time>2021-08-25T04:19:56.000Z</time>
      </trkpt>
      <trkpt lat="45.20775" lon="5.72614">
        <ele>663.40002441406</ele>
        <time>2021-08-25T04:19:57.000Z</time>
      </trkpt>
      <trkpt lat="45.20776" lon="5.7262">
        <ele>664.40002441406</ele>
        <time>2021-08-25T04:20:00.000Z</time>
      </trkpt>
      <trkpt lat="45.20775" lon="5.72631">
        <ele>665.79998779297</ele>
        <time>2021-08-25T04:20:05.000Z</time>
      </trkpt>
      <trkpt lat="45.20775" lon="5.72633">
        <ele>666.40002441406</ele>
        <time>2021-08-25T04:20:06.000Z</time>
      </trkpt>
      <trkpt lat="45.20774" lon="5.72637">
        <ele>667</ele>
        <time>2021-08-25T04:20:09.000Z</time>
      </trkpt>
      <trkpt lat="45.20774" lon="5.72641">
        <ele>668.20001220703</ele>
        <time>2021-08-25T04:20:11.000Z</time>
      </trkpt>
      <trkpt lat="45.20774" lon="5.72642">
        <ele>668.20001220703</ele>
        <time>2021-08-25T04:20:12.000Z</time>
      </trkpt>
      <trkpt lat="45.20776" lon="5.72643">
        <ele>669.40002441406</ele>
        <time>2021-08-25T04:20:15.000Z</time>
      </trkpt>
      <trkpt lat="45.20777" lon="5.72643">
        <ele>669.59997558594</ele>
        <time>2021-08-25T04:20:16.000Z</time>
      </trkpt>
      <trkpt lat="45.2078" lon="5.72642">
        <ele>670.79998779297</ele>
        <time>2021-08-25T04:20:20.000Z</time>
      </trkpt>
      <trkpt lat="45.2078" lon="5.72641">
        <ele>670.79998779297</ele>
        <time>2021-08-25T04:20:21.000Z</time>
      </trkpt>
      <trkpt lat="45.20781" lon="5.7264">
        <ele>671</ele>
        <time>2021-08-25T04:20:22.000Z</time>
      </trkpt>
      <trkpt lat="45.20783" lon="5.72638">
        <ele>672</ele>
        <time>2021-08-25T04:20:25.000Z</time>
      </trkpt>
      <trkpt lat="45.20785" lon="5.72638">
        <ele>672.40002441406</ele>
        <time>2021-08-25T04:20:27.000Z</time>
      </trkpt>
      <trkpt lat="45.20788" lon="5.72635">
        <ele>673.59997558594</ele>
        <time>2021-08-25T04:20:30.000Z</time>
      </trkpt>
      <trkpt lat="45.20791" lon="5.7263">
        <ele>674</ele>
        <time>2021-08-25T04:20:34.000Z</time>
      </trkpt>
      <trkpt lat="45.20791" lon="5.72628">
        <ele>674.59997558594</ele>
        <time>2021-08-25T04:20:35.000Z</time>
      </trkpt>
      <trkpt lat="45.20791" lon="5.72626">
        <ele>675.20001220703</ele>
        <time>2021-08-25T04:20:37.000Z</time>
      </trkpt>
      <trkpt lat="45.20791" lon="5.72623">
        <ele>675.40002441406</ele>
        <time>2021-08-25T04:20:40.000Z</time>
      </trkpt>
      <trkpt lat="45.20792" lon="5.72622">
        <ele>675.59997558594</ele>
        <time>2021-08-25T04:20:41.000Z</time>
      </trkpt>
      <trkpt lat="45.20793" lon="5.72621">
        <ele>676.20001220703</ele>
        <time>2021-08-25T04:20:42.000Z</time>
      </trkpt>
      <trkpt lat="45.20797" lon="5.72624">
        <ele>678</ele>
        <time>2021-08-25T04:20:46.000Z</time>
      </trkpt>
      <trkpt lat="45.20798" lon="5.72629">
        <ele>678.59997558594</ele>
        <time>2021-08-25T04:20:50.000Z</time>
      </trkpt>
      <trkpt lat="45.208" lon="5.72631">
        <ele>679.40002441406</ele>
        <time>2021-08-25T04:20:52.000Z</time>
      </trkpt>
      <trkpt lat="45.20802" lon="5.72634">
        <ele>679.79998779297</ele>
        <time>2021-08-25T04:20:54.000Z</time>
      </trkpt>
      <trkpt lat="45.20803" lon="5.72635">
        <ele>680.40002441406</ele>
        <time>2021-08-25T04:20:55.000Z</time>
      </trkpt>
      <trkpt lat="45.20803" lon="5.72637">
        <ele>680.59997558594</ele>
        <time>2021-08-25T04:20:56.000Z</time>
      </trkpt>
      <trkpt lat="45.20804" lon="5.72639">
        <ele>681.40002441406</ele>
        <time>2021-08-25T04:20:58.000Z</time>
      </trkpt>
      <trkpt lat="45.20805" lon="5.72643">
        <ele>681.79998779297</ele>
        <time>2021-08-25T04:21:00.000Z</time>
      </trkpt>
      <trkpt lat="45.20804" lon="5.72647">
        <ele>682.79998779297</ele>
        <time>2021-08-25T04:21:03.000Z</time>
      </trkpt>
      <trkpt lat="45.20804" lon="5.72649">
        <ele>683.40002441406</ele>
        <time>2021-08-25T04:21:04.000Z</time>
      </trkpt>
      <trkpt lat="45.20806" lon="5.72654">
        <ele>683.59997558594</ele>
        <time>2021-08-25T04:21:07.000Z</time>
      </trkpt>
      <trkpt lat="45.20807" lon="5.72655">
        <ele>684</ele>
        <time>2021-08-25T04:21:08.000Z</time>
      </trkpt>
      <trkpt lat="45.20808" lon="5.72662">
        <ele>685.20001220703</ele>
        <time>2021-08-25T04:21:11.000Z</time>
      </trkpt>
      <trkpt lat="45.20808" lon="5.72663">
        <ele>685.20001220703</ele>
        <time>2021-08-25T04:21:12.000Z</time>
      </trkpt>
      <trkpt lat="45.2081" lon="5.72666">
        <ele>686.20001220703</ele>
        <time>2021-08-25T04:21:14.000Z</time>
      </trkpt>
      <trkpt lat="45.20812" lon="5.72666">
        <ele>686.40002441406</ele>
        <time>2021-08-25T04:21:16.000Z</time>
      </trkpt>
      <trkpt lat="45.20813" lon="5.72665">
        <ele>686.79998779297</ele>
        <time>2021-08-25T04:21:17.000Z</time>
      </trkpt>
      <trkpt lat="45.20815" lon="5.72664">
        <ele>687.40002441406</ele>
        <time>2021-08-25T04:21:19.000Z</time>
      </trkpt>
      <trkpt lat="45.20819" lon="5.72662">
        <ele>688.59997558594</ele>
        <time>2021-08-25T04:21:23.000Z</time>
      </trkpt>
      <trkpt lat="45.20821" lon="5.7266">
        <ele>689</ele>
        <time>2021-08-25T04:21:24.000Z</time>
      </trkpt>
      <trkpt lat="45.20822" lon="5.72658">
        <ele>689.59997558594</ele>
        <time>2021-08-25T04:21:26.000Z</time>
      </trkpt>
      <trkpt lat="45.20822" lon="5.72657">
        <ele>689.79998779297</ele>
        <time>2021-08-25T04:21:27.000Z</time>
      </trkpt>
      <trkpt lat="45.20824" lon="5.72655">
        <ele>690.40002441406</ele>
        <time>2021-08-25T04:21:29.000Z</time>
      </trkpt>
      <trkpt lat="45.20825" lon="5.72654">
        <ele>690.59997558594</ele>
        <time>2021-08-25T04:21:30.000Z</time>
      </trkpt>
      <trkpt lat="45.20827" lon="5.72652">
        <ele>691.20001220703</ele>
        <time>2021-08-25T04:21:31.000Z</time>
      </trkpt>
      <trkpt lat="45.20829" lon="5.72652">
        <ele>691.59997558594</ele>
        <time>2021-08-25T04:21:33.000Z</time>
      </trkpt>
      <trkpt lat="45.20833" lon="5.72656">
        <ele>693</ele>
        <time>2021-08-25T04:21:36.000Z</time>
      </trkpt>
      <trkpt lat="45.20834" lon="5.72658">
        <ele>693.40002441406</ele>
        <time>2021-08-25T04:21:38.000Z</time>
      </trkpt>
      <trkpt lat="45.20835" lon="5.72662">
        <ele>694.40002441406</ele>
        <time>2021-08-25T04:21:40.000Z</time>
      </trkpt>
      <trkpt lat="45.20835" lon="5.72665">
        <ele>694.79998779297</ele>
        <time>2021-08-25T04:21:42.000Z</time>
      </trkpt>
      <trkpt lat="45.20835" lon="5.72666">
        <ele>695.20001220703</ele>
        <time>2021-08-25T04:21:43.000Z</time>
      </trkpt>
      <trkpt lat="45.20835" lon="5.72667">
        <ele>695.59997558594</ele>
        <time>2021-08-25T04:21:44.000Z</time>
      </trkpt>
      <trkpt lat="45.20836" lon="5.72671">
        <ele>696.40002441406</ele>
        <time>2021-08-25T04:21:46.000Z</time>
      </trkpt>
      <trkpt lat="45.20836" lon="5.72673">
        <ele>696.59997558594</ele>
        <time>2021-08-25T04:21:47.000Z</time>
      </trkpt>
      <trkpt lat="45.20835" lon="5.72675">
        <ele>696.79998779297</ele>
        <time>2021-08-25T04:21:48.000Z</time>
      </trkpt>
      <trkpt lat="45.20836" lon="5.72677">
        <ele>697.59997558594</ele>
        <time>2021-08-25T04:21:50.000Z</time>
      </trkpt>
      <trkpt lat="45.20836" lon="5.72679">
        <ele>697.59997558594</ele>
        <time>2021-08-25T04:21:51.000Z</time>
      </trkpt>
      <trkpt lat="45.20836" lon="5.7268">
        <ele>698.20001220703</ele>
        <time>2021-08-25T04:21:52.000Z</time>
      </trkpt>
      <trkpt lat="45.20836" lon="5.72683">
        <ele>699</ele>
        <time>2021-08-25T04:21:54.000Z</time>
      </trkpt>
      <trkpt lat="45.20835" lon="5.7269">
        <ele>700.40002441406</ele>
        <time>2021-08-25T04:21:58.000Z</time>
      </trkpt>
      <trkpt lat="45.20834" lon="5.72692">
        <ele>701</ele>
        <time>2021-08-25T04:22:00.000Z</time>
      </trkpt>
      <trkpt lat="45.20834" lon="5.72697">
        <ele>701.59997558594</ele>
        <time>2021-08-25T04:22:04.000Z</time>
      </trkpt>
      <trkpt lat="45.20834" lon="5.72698">
        <ele>702.40002441406</ele>
        <time>2021-08-25T04:22:05.000Z</time>
      </trkpt>
      <trkpt lat="45.20834" lon="5.72699">
        <ele>702.79998779297</ele>
        <time>2021-08-25T04:22:06.000Z</time>
      </trkpt>
      <trkpt lat="45.20833" lon="5.72702">
        <ele>703.59997558594</ele>
        <time>2021-08-25T04:22:08.000Z</time>
      </trkpt>
      <trkpt lat="45.20832" lon="5.72704">
        <ele>703.79998779297</ele>
        <time>2021-08-25T04:22:11.000Z</time>
      </trkpt>
      <trkpt lat="45.20832" lon="5.72705">
        <ele>705.20001220703</ele>
        <time>2021-08-25T04:22:12.000Z</time>
      </trkpt>
      <trkpt lat="45.20833" lon="5.72708">
        <ele>705.59997558594</ele>
        <time>2021-08-25T04:22:14.000Z</time>
      </trkpt>
      <trkpt lat="45.20833" lon="5.7271">
        <ele>705.79998779297</ele>
        <time>2021-08-25T04:22:15.000Z</time>
      </trkpt>
      <trkpt lat="45.20832" lon="5.72711">
        <ele>706.40002441406</ele>
        <time>2021-08-25T04:22:16.000Z</time>
      </trkpt>
      <trkpt lat="45.2083" lon="5.72715">
        <ele>707</ele>
        <time>2021-08-25T04:22:18.000Z</time>
      </trkpt>
      <trkpt lat="45.2083" lon="5.72717">
        <ele>707.79998779297</ele>
        <time>2021-08-25T04:22:20.000Z</time>
      </trkpt>
      <trkpt lat="45.20829" lon="5.72718">
        <ele>708.20001220703</ele>
        <time>2021-08-25T04:22:21.000Z</time>
      </trkpt>
      <trkpt lat="45.20826" lon="5.7272">
        <ele>708.40002441406</ele>
        <time>2021-08-25T04:22:26.000Z</time>
      </trkpt>
      <trkpt lat="45.20825" lon="5.72723">
        <ele>708.59997558594</ele>
        <time>2021-08-25T04:22:29.000Z</time>
      </trkpt>
      <trkpt lat="45.20823" lon="5.72725">
        <ele>708.40002441406</ele>
        <time>2021-08-25T04:22:31.000Z</time>
      </trkpt>
      <trkpt lat="45.20822" lon="5.72726">
        <ele>707.59997558594</ele>
        <time>2021-08-25T04:22:33.000Z</time>
      </trkpt>
      <trkpt lat="45.20821" lon="5.72726">
        <ele>707.40002441406</ele>
        <time>2021-08-25T04:22:34.000Z</time>
      </trkpt>
      <trkpt lat="45.20818" lon="5.72729">
        <ele>706.20001220703</ele>
        <time>2021-08-25T04:22:37.000Z</time>
      </trkpt>
      <trkpt lat="45.20816" lon="5.72729">
        <ele>706</ele>
        <time>2021-08-25T04:22:39.000Z</time>
      </trkpt>
      <trkpt lat="45.20814" lon="5.72729">
        <ele>705.59997558594</ele>
        <time>2021-08-25T04:22:43.000Z</time>
      </trkpt>
      <trkpt lat="45.2081" lon="5.7273">
        <ele>705.20001220703</ele>
        <time>2021-08-25T04:22:46.000Z</time>
      </trkpt>
      <trkpt lat="45.20808" lon="5.7273">
        <ele>705.20001220703</ele>
        <time>2021-08-25T04:22:47.000Z</time>
      </trkpt>
      <trkpt lat="45.20804" lon="5.72729">
        <ele>705.40002441406</ele>
        <time>2021-08-25T04:22:50.000Z</time>
      </trkpt>
      <trkpt lat="45.20804" lon="5.72728">
        <ele>705.40002441406</ele>
        <time>2021-08-25T04:22:51.000Z</time>
      </trkpt>
      <trkpt lat="45.20804" lon="5.72728">
        <ele>705.40002441406</ele>
        <time>2021-08-25T04:22:52.000Z</time>
      </trkpt>
      <trkpt lat="45.20802" lon="5.72727">
        <ele>706.59997558594</ele>
        <time>2021-08-25T04:22:54.000Z</time>
      </trkpt>
      <trkpt lat="45.20801" lon="5.72727">
        <ele>706.79998779297</ele>
        <time>2021-08-25T04:22:55.000Z</time>
      </trkpt>
      <trkpt lat="45.208" lon="5.72727">
        <ele>707.20001220703</ele>
        <time>2021-08-25T04:22:57.000Z</time>
      </trkpt>
      <trkpt lat="45.208" lon="5.72727">
        <ele>707.40002441406</ele>
        <time>2021-08-25T04:22:58.000Z</time>
      </trkpt>
      <trkpt lat="45.20801" lon="5.72732">
        <ele>707.79998779297</ele>
        <time>2021-08-25T04:23:03.000Z</time>
      </trkpt>
      <trkpt lat="45.208" lon="5.72732">
        <ele>708</ele>
        <time>2021-08-25T04:23:06.000Z</time>
      </trkpt>
      <trkpt lat="45.20799" lon="5.72731">
        <ele>708</ele>
        <time>2021-08-25T04:23:07.000Z</time>
      </trkpt>
      <trkpt lat="45.20799" lon="5.72731">
        <ele>707.20001220703</ele>
        <time>2021-08-25T04:23:10.000Z</time>
      </trkpt>
      <trkpt lat="45.20799" lon="5.72731">
        <ele>706.20001220703</ele>
        <time>2021-08-25T04:23:17.000Z</time>
      </trkpt>
      <trkpt lat="45.208" lon="5.72731">
        <ele>705</ele>
        <time>2021-08-25T04:23:21.000Z</time>
      </trkpt>
      <trkpt lat="45.20804" lon="5.72731">
        <ele>704.79998779297</ele>
        <time>2021-08-25T04:23:27.000Z</time>
      </trkpt>
      <trkpt lat="45.2081" lon="5.72729">
        <ele>705.59997558594</ele>
        <time>2021-08-25T04:23:31.000Z</time>
      </trkpt>
      <trkpt lat="45.20812" lon="5.72728">
        <ele>706</ele>
        <time>2021-08-25T04:23:33.000Z</time>
      </trkpt>
      <trkpt lat="45.20814" lon="5.72728">
        <ele>706.20001220703</ele>
        <time>2021-08-25T04:23:34.000Z</time>
      </trkpt>
      <trkpt lat="45.20814" lon="5.72727">
        <ele>707.20001220703</ele>
        <time>2021-08-25T04:23:37.000Z</time>
      </trkpt>
      <trkpt lat="45.20816" lon="5.72726">
        <ele>707.59997558594</ele>
        <time>2021-08-25T04:23:39.000Z</time>
      </trkpt>
      <trkpt lat="45.20817" lon="5.72726">
        <ele>708.40002441406</ele>
        <time>2021-08-25T04:23:40.000Z</time>
      </trkpt>
      <trkpt lat="45.20819" lon="5.72724">
        <ele>708.40002441406</ele>
        <time>2021-08-25T04:23:42.000Z</time>
      </trkpt>
      <trkpt lat="45.20819" lon="5.72723">
        <ele>708.40002441406</ele>
        <time>2021-08-25T04:23:43.000Z</time>
      </trkpt>
      <trkpt lat="45.2082" lon="5.72722">
        <ele>708.20001220703</ele>
        <time>2021-08-25T04:23:46.000Z</time>
      </trkpt>
      <trkpt lat="45.20821" lon="5.72722">
        <ele>708.20001220703</ele>
        <time>2021-08-25T04:23:47.000Z</time>
      </trkpt>
      <trkpt lat="45.20823" lon="5.7272">
        <ele>708.20001220703</ele>
        <time>2021-08-25T04:23:49.000Z</time>
      </trkpt>
      <trkpt lat="45.20825" lon="5.72718">
        <ele>707.79998779297</ele>
        <time>2021-08-25T04:23:52.000Z</time>
      </trkpt>
      <trkpt lat="45.20826" lon="5.72716">
        <ele>706.40002441406</ele>
        <time>2021-08-25T04:23:54.000Z</time>
      </trkpt>
      <trkpt lat="45.20827" lon="5.72714">
        <ele>705.20001220703</ele>
        <time>2021-08-25T04:23:58.000Z</time>
      </trkpt>
      <trkpt lat="45.20828" lon="5.72714">
        <ele>704.79998779297</ele>
        <time>2021-08-25T04:23:59.000Z</time>
      </trkpt>
      <trkpt lat="45.2083" lon="5.72712">
        <ele>704.40002441406</ele>
        <time>2021-08-25T04:24:01.000Z</time>
      </trkpt>
      <trkpt lat="45.2083" lon="5.72711">
        <ele>703.59997558594</ele>
        <time>2021-08-25T04:24:02.000Z</time>
      </trkpt>
      <trkpt lat="45.2083" lon="5.7271">
        <ele>703.40002441406</ele>
        <time>2021-08-25T04:24:03.000Z</time>
      </trkpt>
      <trkpt lat="45.2083" lon="5.72709">
        <ele>703</ele>
        <time>2021-08-25T04:24:04.000Z</time>
      </trkpt>
      <trkpt lat="45.20831" lon="5.72708">
        <ele>702.20001220703</ele>
        <time>2021-08-25T04:24:06.000Z</time>
      </trkpt>
      <trkpt lat="45.2083" lon="5.72705">
        <ele>701.20001220703</ele>
        <time>2021-08-25T04:24:09.000Z</time>
      </trkpt>
      <trkpt lat="45.20831" lon="5.72703">
        <ele>700.59997558594</ele>
        <time>2021-08-25T04:24:10.000Z</time>
      </trkpt>
      <trkpt lat="45.20831" lon="5.72702">
        <ele>700.59997558594</ele>
        <time>2021-08-25T04:24:11.000Z</time>
      </trkpt>
      <trkpt lat="45.20832" lon="5.72699">
        <ele>700.20001220703</ele>
        <time>2021-08-25T04:24:12.000Z</time>
      </trkpt>
      <trkpt lat="45.20833" lon="5.72696">
        <ele>699</ele>
        <time>2021-08-25T04:24:14.000Z</time>
      </trkpt>
      <trkpt lat="45.20833" lon="5.72694">
        <ele>698.79998779297</ele>
        <time>2021-08-25T04:24:15.000Z</time>
      </trkpt>
      <trkpt lat="45.20834" lon="5.72686">
        <ele>698</ele>
        <time>2021-08-25T04:24:18.000Z</time>
      </trkpt>
      <trkpt lat="45.20834" lon="5.72684">
        <ele>697.79998779297</ele>
        <time>2021-08-25T04:24:19.000Z</time>
      </trkpt>
      <trkpt lat="45.20834" lon="5.72679">
        <ele>696.79998779297</ele>
        <time>2021-08-25T04:24:21.000Z</time>
      </trkpt>
      <trkpt lat="45.20832" lon="5.72673">
        <ele>695.79998779297</ele>
        <time>2021-08-25T04:24:24.000Z</time>
      </trkpt>
      <trkpt lat="45.20832" lon="5.72672">
        <ele>695.20001220703</ele>
        <time>2021-08-25T04:24:25.000Z</time>
      </trkpt>
      <trkpt lat="45.20831" lon="5.72668">
        <ele>694.79998779297</ele>
        <time>2021-08-25T04:24:27.000Z</time>
      </trkpt>
      <trkpt lat="45.2083" lon="5.72665">
        <ele>693.79998779297</ele>
        <time>2021-08-25T04:24:29.000Z</time>
      </trkpt>
      <trkpt lat="45.2083" lon="5.72663">
        <ele>693.40002441406</ele>
        <time>2021-08-25T04:24:30.000Z</time>
      </trkpt>
      <trkpt lat="45.20827" lon="5.72662">
        <ele>692.40002441406</ele>
        <time>2021-08-25T04:24:32.000Z</time>
      </trkpt>
      <trkpt lat="45.20825" lon="5.72669">
        <ele>690.40002441406</ele>
        <time>2021-08-25T04:24:37.000Z</time>
      </trkpt>
      <trkpt lat="45.20824" lon="5.72669">
        <ele>690.40002441406</ele>
        <time>2021-08-25T04:24:38.000Z</time>
      </trkpt>
      <trkpt lat="45.20819" lon="5.72671">
        <ele>689.20001220703</ele>
        <time>2021-08-25T04:24:42.000Z</time>
      </trkpt>
      <trkpt lat="45.20814" lon="5.72673">
        <ele>688.20001220703</ele>
        <time>2021-08-25T04:24:45.000Z</time>
      </trkpt>
      <trkpt lat="45.20811" lon="5.72672">
        <ele>687.59997558594</ele>
        <time>2021-08-25T04:24:47.000Z</time>
      </trkpt>
      <trkpt lat="45.20809" lon="5.72671">
        <ele>687</ele>
        <time>2021-08-25T04:24:48.000Z</time>
      </trkpt>
      <trkpt lat="45.20809" lon="5.72669">
        <ele>686.40002441406</ele>
        <time>2021-08-25T04:24:49.000Z</time>
      </trkpt>
      <trkpt lat="45.20808" lon="5.72668">
        <ele>686.40002441406</ele>
        <time>2021-08-25T04:24:50.000Z</time>
      </trkpt>
      <trkpt lat="45.20807" lon="5.72664">
        <ele>685.79998779297</ele>
        <time>2021-08-25T04:24:52.000Z</time>
      </trkpt>
      <trkpt lat="45.20807" lon="5.72661">
        <ele>685.20001220703</ele>
        <time>2021-08-25T04:24:54.000Z</time>
      </trkpt>
      <trkpt lat="45.20806" lon="5.72657">
        <ele>684.59997558594</ele>
        <time>2021-08-25T04:24:56.000Z</time>
      </trkpt>
      <trkpt lat="45.20806" lon="5.72656">
        <ele>683.79998779297</ele>
        <time>2021-08-25T04:24:57.000Z</time>
      </trkpt>
      <trkpt lat="45.20806" lon="5.72655">
        <ele>683.79998779297</ele>
        <time>2021-08-25T04:24:58.000Z</time>
      </trkpt>
      <trkpt lat="45.20806" lon="5.72652">
        <ele>682.59997558594</ele>
        <time>2021-08-25T04:25:01.000Z</time>
      </trkpt>
      <trkpt lat="45.20805" lon="5.7265">
        <ele>682.40002441406</ele>
        <time>2021-08-25T04:25:03.000Z</time>
      </trkpt>
      <trkpt lat="45.20805" lon="5.72648">
        <ele>681.59997558594</ele>
        <time>2021-08-25T04:25:04.000Z</time>
      </trkpt>
      <trkpt lat="45.20803" lon="5.72646">
        <ele>680.79998779297</ele>
        <time>2021-08-25T04:25:06.000Z</time>
      </trkpt>
      <trkpt lat="45.20802" lon="5.72641">
        <ele>679.79998779297</ele>
        <time>2021-08-25T04:25:09.000Z</time>
      </trkpt>
      <trkpt lat="45.20802" lon="5.72637">
        <ele>679.40002441406</ele>
        <time>2021-08-25T04:25:11.000Z</time>
      </trkpt>
      <trkpt lat="45.208" lon="5.72635">
        <ele>679</ele>
        <time>2021-08-25T04:25:13.000Z</time>
      </trkpt>
      <trkpt lat="45.208" lon="5.72634">
        <ele>678.40002441406</ele>
        <time>2021-08-25T04:25:14.000Z</time>
      </trkpt>
      <trkpt lat="45.20799" lon="5.72634">
        <ele>678</ele>
        <time>2021-08-25T04:25:16.000Z</time>
      </trkpt>
      <trkpt lat="45.20799" lon="5.72635">
        <ele>677.40002441406</ele>
        <time>2021-08-25T04:25:17.000Z</time>
      </trkpt>
      <trkpt lat="45.20798" lon="5.72639">
        <ele>676.20001220703</ele>
        <time>2021-08-25T04:25:21.000Z</time>
      </trkpt>
      <trkpt lat="45.20797" lon="5.7264">
        <ele>675.40002441406</ele>
        <time>2021-08-25T04:25:22.000Z</time>
      </trkpt>
      <trkpt lat="45.20794" lon="5.72643">
        <ele>674.79998779297</ele>
        <time>2021-08-25T04:25:24.000Z</time>
      </trkpt>
      <trkpt lat="45.20792" lon="5.72643">
        <ele>674.40002441406</ele>
        <time>2021-08-25T04:25:26.000Z</time>
      </trkpt>
      <trkpt lat="45.20791" lon="5.72644">
        <ele>673.79998779297</ele>
        <time>2021-08-25T04:25:27.000Z</time>
      </trkpt>
      <trkpt lat="45.20787" lon="5.72647">
        <ele>672.40002441406</ele>
        <time>2021-08-25T04:25:31.000Z</time>
      </trkpt>
      <trkpt lat="45.20784" lon="5.72647">
        <ele>672</ele>
        <time>2021-08-25T04:25:33.000Z</time>
      </trkpt>
      <trkpt lat="45.2078" lon="5.72647">
        <ele>671.20001220703</ele>
        <time>2021-08-25T04:25:36.000Z</time>
      </trkpt>
      <trkpt lat="45.20778" lon="5.72644">
        <ele>670.20001220703</ele>
        <time>2021-08-25T04:25:38.000Z</time>
      </trkpt>
      <trkpt lat="45.20778" lon="5.72642">
        <ele>670.20001220703</ele>
        <time>2021-08-25T04:25:39.000Z</time>
      </trkpt>
      <trkpt lat="45.20778" lon="5.72641">
        <ele>669</ele>
        <time>2021-08-25T04:25:42.000Z</time>
      </trkpt>
      <trkpt lat="45.20778" lon="5.72639">
        <ele>668.79998779297</ele>
        <time>2021-08-25T04:25:43.000Z</time>
      </trkpt>
      <trkpt lat="45.20778" lon="5.72636">
        <ele>668</ele>
        <time>2021-08-25T04:25:45.000Z</time>
      </trkpt>
      <trkpt lat="45.20778" lon="5.72634">
        <ele>667.79998779297</ele>
        <time>2021-08-25T04:25:46.000Z</time>
      </trkpt>
      <trkpt lat="45.20778" lon="5.72628">
        <ele>666.59997558594</ele>
        <time>2021-08-25T04:25:49.000Z</time>
      </trkpt>
      <trkpt lat="45.20776" lon="5.72622">
        <ele>665.40002441406</ele>
        <time>2021-08-25T04:25:52.000Z</time>
      </trkpt>
      <trkpt lat="45.20774" lon="5.72619">
        <ele>664.59997558594</ele>
        <time>2021-08-25T04:25:54.000Z</time>
      </trkpt>
      <trkpt lat="45.20774" lon="5.72619">
        <ele>664.40002441406</ele>
        <time>2021-08-25T04:25:55.000Z</time>
      </trkpt>
      <trkpt lat="45.20773" lon="5.72619">
        <ele>663.59997558594</ele>
        <time>2021-08-25T04:25:57.000Z</time>
      </trkpt>
      <trkpt lat="45.20772" lon="5.7262">
        <ele>663.59997558594</ele>
        <time>2021-08-25T04:25:58.000Z</time>
      </trkpt>
      <trkpt lat="45.20771" lon="5.7262">
        <ele>662.79998779297</ele>
        <time>2021-08-25T04:25:59.000Z</time>
      </trkpt>
      <trkpt lat="45.20768" lon="5.72621">
        <ele>661.79998779297</ele>
        <time>2021-08-25T04:26:02.000Z</time>
      </trkpt>
      <trkpt lat="45.20766" lon="5.72621">
        <ele>661.40002441406</ele>
        <time>2021-08-25T04:26:03.000Z</time>
      </trkpt>
      <trkpt lat="45.20765" lon="5.72621">
        <ele>661.40002441406</ele>
        <time>2021-08-25T04:26:04.000Z</time>
      </trkpt>
      <trkpt lat="45.20762" lon="5.72621">
        <ele>660.40002441406</ele>
        <time>2021-08-25T04:26:06.000Z</time>
      </trkpt>
      <trkpt lat="45.20755" lon="5.72621">
        <ele>658.59997558594</ele>
        <time>2021-08-25T04:26:10.000Z</time>
      </trkpt>
      <trkpt lat="45.20751" lon="5.72621">
        <ele>657.79998779297</ele>
        <time>2021-08-25T04:26:12.000Z</time>
      </trkpt>
      <trkpt lat="45.20749" lon="5.72619">
        <ele>657.59997558594</ele>
        <time>2021-08-25T04:26:14.000Z</time>
      </trkpt>
      <trkpt lat="45.20749" lon="5.72618">
        <ele>657.20001220703</ele>
        <time>2021-08-25T04:26:15.000Z</time>
      </trkpt>
      <trkpt lat="45.20748" lon="5.72616">
        <ele>655.79998779297</ele>
        <time>2021-08-25T04:26:17.000Z</time>
      </trkpt>
      <trkpt lat="45.20746" lon="5.72611">
        <ele>654.79998779297</ele>
        <time>2021-08-25T04:26:20.000Z</time>
      </trkpt>
      <trkpt lat="45.20745" lon="5.72608">
        <ele>654.79998779297</ele>
        <time>2021-08-25T04:26:21.000Z</time>
      </trkpt>
      <trkpt lat="45.20745" lon="5.72603">
        <ele>653.40002441406</ele>
        <time>2021-08-25T04:26:23.000Z</time>
      </trkpt>
      <trkpt lat="45.20744" lon="5.72599">
        <ele>653.20001220703</ele>
        <time>2021-08-25T04:26:24.000Z</time>
      </trkpt>
      <trkpt lat="45.20742" lon="5.72599">
        <ele>653</ele>
        <time>2021-08-25T04:26:25.000Z</time>
      </trkpt>
      <trkpt lat="45.20741" lon="5.72598">
        <ele>652.40002441406</ele>
        <time>2021-08-25T04:26:26.000Z</time>
      </trkpt>
      <trkpt lat="45.2074" lon="5.72598">
        <ele>652.40002441406</ele>
        <time>2021-08-25T04:26:27.000Z</time>
      </trkpt>
      <trkpt lat="45.20736" lon="5.72597">
        <ele>651.79998779297</ele>
        <time>2021-08-25T04:26:29.000Z</time>
      </trkpt>
      <trkpt lat="45.20735" lon="5.72596">
        <ele>651.40002441406</ele>
        <time>2021-08-25T04:26:30.000Z</time>
      </trkpt>
      <trkpt lat="45.20732" lon="5.72592">
        <ele>650.40002441406</ele>
        <time>2021-08-25T04:26:32.000Z</time>
      </trkpt>
      <trkpt lat="45.20731" lon="5.72591">
        <ele>650.20001220703</ele>
        <time>2021-08-25T04:26:33.000Z</time>
      </trkpt>
      <trkpt lat="45.20727" lon="5.72587">
        <ele>648.40002441406</ele>
        <time>2021-08-25T04:26:36.000Z</time>
      </trkpt>
      <trkpt lat="45.20725" lon="5.72586">
        <ele>648.40002441406</ele>
        <time>2021-08-25T04:26:37.000Z</time>
      </trkpt>
      <trkpt lat="45.2072" lon="5.72586">
        <ele>647.40002441406</ele>
        <time>2021-08-25T04:26:40.000Z</time>
      </trkpt>
      <trkpt lat="45.20718" lon="5.72586">
        <ele>647.40002441406</ele>
        <time>2021-08-25T04:26:41.000Z</time>
      </trkpt>
      <trkpt lat="45.20715" lon="5.72585">
        <ele>646</ele>
        <time>2021-08-25T04:26:44.000Z</time>
      </trkpt>
      <trkpt lat="45.20712" lon="5.72584">
        <ele>645.79998779297</ele>
        <time>2021-08-25T04:26:46.000Z</time>
      </trkpt>
      <trkpt lat="45.2071" lon="5.72583">
        <ele>644.59997558594</ele>
        <time>2021-08-25T04:26:48.000Z</time>
      </trkpt>
      <trkpt lat="45.20708" lon="5.72581">
        <ele>644</ele>
        <time>2021-08-25T04:26:50.000Z</time>
      </trkpt>
      <trkpt lat="45.20704" lon="5.72579">
        <ele>643.59997558594</ele>
        <time>2021-08-25T04:26:52.000Z</time>
      </trkpt>
      <trkpt lat="45.20696" lon="5.72576">
        <ele>643</ele>
        <time>2021-08-25T04:26:57.000Z</time>
      </trkpt>
      <trkpt lat="45.20695" lon="5.72576">
        <ele>643</ele>
        <time>2021-08-25T04:26:58.000Z</time>
      </trkpt>
      <trkpt lat="45.20694" lon="5.72576">
        <ele>642</ele>
        <time>2021-08-25T04:26:59.000Z</time>
      </trkpt>
      <trkpt lat="45.20691" lon="5.72577">
        <ele>641.40002441406</ele>
        <time>2021-08-25T04:27:00.000Z</time>
      </trkpt>
      <trkpt lat="45.20687" lon="5.72578">
        <ele>640.79998779297</ele>
        <time>2021-08-25T04:27:02.000Z</time>
      </trkpt>
      <trkpt lat="45.20685" lon="5.72578">
        <ele>640.59997558594</ele>
        <time>2021-08-25T04:27:03.000Z</time>
      </trkpt>
      <trkpt lat="45.20683" lon="5.72579">
        <ele>639.59997558594</ele>
        <time>2021-08-25T04:27:04.000Z</time>
      </trkpt>
      <trkpt lat="45.20675" lon="5.72585">
        <ele>638.20001220703</ele>
        <time>2021-08-25T04:27:09.000Z</time>
      </trkpt>
      <trkpt lat="45.20672" lon="5.72591">
        <ele>637.59997558594</ele>
        <time>2021-08-25T04:27:11.000Z</time>
      </trkpt>
      <trkpt lat="45.20668" lon="5.72595">
        <ele>636.79998779297</ele>
        <time>2021-08-25T04:27:13.000Z</time>
      </trkpt>
      <trkpt lat="45.20655" lon="5.72606">
        <ele>635.79998779297</ele>
        <time>2021-08-25T04:27:19.000Z</time>
      </trkpt>
      <trkpt lat="45.20652" lon="5.72607">
        <ele>635.59997558594</ele>
        <time>2021-08-25T04:27:20.000Z</time>
      </trkpt>
      <trkpt lat="45.20639" lon="5.72611">
        <ele>634.59997558594</ele>
        <time>2021-08-25T04:27:25.000Z</time>
      </trkpt>
      <trkpt lat="45.20629" lon="5.72604">
        <ele>634</ele>
        <time>2021-08-25T04:27:30.000Z</time>
      </trkpt>
      <trkpt lat="45.20626" lon="5.72602">
        <ele>633</ele>
        <time>2021-08-25T04:27:32.000Z</time>
      </trkpt>
      <trkpt lat="45.20621" lon="5.72599">
        <ele>632.40002441406</ele>
        <time>2021-08-25T04:27:35.000Z</time>
      </trkpt>
      <trkpt lat="45.20617" lon="5.72596">
        <ele>631.79998779297</ele>
        <time>2021-08-25T04:27:37.000Z</time>
      </trkpt>
      <trkpt lat="45.20612" lon="5.72593">
        <ele>631.40002441406</ele>
        <time>2021-08-25T04:27:39.000Z</time>
      </trkpt>
      <trkpt lat="45.2061" lon="5.72592">
        <ele>631.20001220703</ele>
        <time>2021-08-25T04:27:40.000Z</time>
      </trkpt>
      <trkpt lat="45.20604" lon="5.72586">
        <ele>630.79998779297</ele>
        <time>2021-08-25T04:27:43.000Z</time>
      </trkpt>
      <trkpt lat="45.20589" lon="5.72575">
        <ele>630.20001220703</ele>
        <time>2021-08-25T04:27:50.000Z</time>
      </trkpt>
      <trkpt lat="45.20588" lon="5.72575">
        <ele>629.59997558594</ele>
        <time>2021-08-25T04:27:51.000Z</time>
      </trkpt>
      <trkpt lat="45.20579" lon="5.72572">
        <ele>629</ele>
        <time>2021-08-25T04:27:55.000Z</time>
      </trkpt>
      <trkpt lat="45.20574" lon="5.7257">
        <ele>629</ele>
        <time>2021-08-25T04:27:57.000Z</time>
      </trkpt>
      <trkpt lat="45.2057" lon="5.7257">
        <ele>628.20001220703</ele>
        <time>2021-08-25T04:27:58.000Z</time>
      </trkpt>
      <trkpt lat="45.20562" lon="5.72567">
        <ele>627.79998779297</ele>
        <time>2021-08-25T04:28:01.000Z</time>
      </trkpt>
      <trkpt lat="45.20549" lon="5.72566">
        <ele>626.79998779297</ele>
        <time>2021-08-25T04:28:07.000Z</time>
      </trkpt>
      <trkpt lat="45.2053" lon="5.72564">
        <ele>627.40002441406</ele>
        <time>2021-08-25T04:28:15.000Z</time>
      </trkpt>
      <trkpt lat="45.20527" lon="5.72565">
        <ele>627.79998779297</ele>
        <time>2021-08-25T04:28:16.000Z</time>
      </trkpt>
      <trkpt lat="45.20515" lon="5.72562">
        <ele>629</ele>
        <time>2021-08-25T04:28:20.000Z</time>
      </trkpt>
      <trkpt lat="45.20513" lon="5.7256">
        <ele>629</ele>
        <time>2021-08-25T04:28:21.000Z</time>
      </trkpt>
      <trkpt lat="45.20502" lon="5.72546">
        <ele>628.79998779297</ele>
        <time>2021-08-25T04:28:27.000Z</time>
      </trkpt>
      <trkpt lat="45.20497" lon="5.72541">
        <ele>628.79998779297</ele>
        <time>2021-08-25T04:28:29.000Z</time>
      </trkpt>
      <trkpt lat="45.20491" lon="5.72531">
        <ele>628.40002441406</ele>
        <time>2021-08-25T04:28:32.000Z</time>
      </trkpt>
      <trkpt lat="45.20489" lon="5.72527">
        <ele>627.79998779297</ele>
        <time>2021-08-25T04:28:33.000Z</time>
      </trkpt>
      <trkpt lat="45.20485" lon="5.72516">
        <ele>627.40002441406</ele>
        <time>2021-08-25T04:28:36.000Z</time>
      </trkpt>
      <trkpt lat="45.20484" lon="5.72513">
        <ele>627.40002441406</ele>
        <time>2021-08-25T04:28:37.000Z</time>
      </trkpt>
      <trkpt lat="45.20476" lon="5.72489">
        <ele>627.40002441406</ele>
        <time>2021-08-25T04:28:43.000Z</time>
      </trkpt>
      <trkpt lat="45.20471" lon="5.72472">
        <ele>628.79998779297</ele>
        <time>2021-08-25T04:28:48.000Z</time>
      </trkpt>
      <trkpt lat="45.2047" lon="5.72462">
        <ele>629.79998779297</ele>
        <time>2021-08-25T04:28:51.000Z</time>
      </trkpt>
      <trkpt lat="45.2047" lon="5.72457">
        <ele>630.59997558594</ele>
        <time>2021-08-25T04:28:53.000Z</time>
      </trkpt>
      <trkpt lat="45.2047" lon="5.72455">
        <ele>631.20001220703</ele>
        <time>2021-08-25T04:28:54.000Z</time>
      </trkpt>
      <trkpt lat="45.20467" lon="5.72448">
        <ele>632.20001220703</ele>
        <time>2021-08-25T04:28:57.000Z</time>
      </trkpt>
      <trkpt lat="45.20465" lon="5.72435">
        <ele>632.79998779297</ele>
        <time>2021-08-25T04:29:01.000Z</time>
      </trkpt>
      <trkpt lat="45.20454" lon="5.72426">
        <ele>632.79998779297</ele>
        <time>2021-08-25T04:29:07.000Z</time>
      </trkpt>
      <trkpt lat="45.20447" lon="5.72423">
        <ele>632.40002441406</ele>
        <time>2021-08-25T04:29:12.000Z</time>
      </trkpt>
      <trkpt lat="45.20443" lon="5.72421">
        <ele>632.40002441406</ele>
        <time>2021-08-25T04:29:14.000Z</time>
      </trkpt>
      <trkpt lat="45.20434" lon="5.7242">
        <ele>632.40002441406</ele>
        <time>2021-08-25T04:29:19.000Z</time>
      </trkpt>
      <trkpt lat="45.20424" lon="5.72422">
        <ele>632.40002441406</ele>
        <time>2021-08-25T04:29:25.000Z</time>
      </trkpt>
      <trkpt lat="45.20413" lon="5.72428">
        <ele>633</ele>
        <time>2021-08-25T04:29:31.000Z</time>
      </trkpt>
      <trkpt lat="45.20411" lon="5.72429">
        <ele>633.40002441406</ele>
        <time>2021-08-25T04:29:32.000Z</time>
      </trkpt>
      <trkpt lat="45.20399" lon="5.72432">
        <ele>633.59997558594</ele>
        <time>2021-08-25T04:29:37.000Z</time>
      </trkpt>
      <trkpt lat="45.20388" lon="5.72434">
        <ele>632</ele>
        <time>2021-08-25T04:29:43.000Z</time>
      </trkpt>
      <trkpt lat="45.20385" lon="5.72437">
        <ele>631.59997558594</ele>
        <time>2021-08-25T04:29:45.000Z</time>
      </trkpt>
      <trkpt lat="45.20385" lon="5.72438">
        <ele>631.59997558594</ele>
        <time>2021-08-25T04:29:46.000Z</time>
      </trkpt>
      <trkpt lat="45.20385" lon="5.7244">
        <ele>631.59997558594</ele>
        <time>2021-08-25T04:29:48.000Z</time>
      </trkpt>
      <trkpt lat="45.20388" lon="5.72442">
        <ele>631.59997558594</ele>
        <time>2021-08-25T04:29:50.000Z</time>
      </trkpt>
      <trkpt lat="45.20392" lon="5.72442">
        <ele>631.20001220703</ele>
        <time>2021-08-25T04:29:53.000Z</time>
      </trkpt>
      <trkpt lat="45.20396" lon="5.7244">
        <ele>630.79998779297</ele>
        <time>2021-08-25T04:29:55.000Z</time>
      </trkpt>
      <trkpt lat="45.20397" lon="5.72439">
        <ele>628.79998779297</ele>
        <time>2021-08-25T04:29:56.000Z</time>
      </trkpt>
      <trkpt lat="45.20402" lon="5.72439">
        <ele>628.79998779297</ele>
        <time>2021-08-25T04:30:00.000Z</time>
      </trkpt>
      <trkpt lat="45.20402" lon="5.72441">
        <ele>627.40002441406</ele>
        <time>2021-08-25T04:30:03.000Z</time>
      </trkpt>
      <trkpt lat="45.20404" lon="5.72443">
        <ele>626.79998779297</ele>
        <time>2021-08-25T04:30:05.000Z</time>
      </trkpt>
      <trkpt lat="45.20406" lon="5.72443">
        <ele>626.40002441406</ele>
        <time>2021-08-25T04:30:06.000Z</time>
      </trkpt>
      <trkpt lat="45.20413" lon="5.72448">
        <ele>626</ele>
        <time>2021-08-25T04:30:09.000Z</time>
      </trkpt>
      <trkpt lat="45.20421" lon="5.72457">
        <ele>625.20001220703</ele>
        <time>2021-08-25T04:30:13.000Z</time>
      </trkpt>
      <trkpt lat="45.20425" lon="5.72461">
        <ele>625.20001220703</ele>
        <time>2021-08-25T04:30:15.000Z</time>
      </trkpt>
      <trkpt lat="45.20429" lon="5.72463">
        <ele>625.20001220703</ele>
        <time>2021-08-25T04:30:19.000Z</time>
      </trkpt>
      <trkpt lat="45.20429" lon="5.72464">
        <ele>625.20001220703</ele>
        <time>2021-08-25T04:30:20.000Z</time>
      </trkpt>
      <trkpt lat="45.2043" lon="5.72464">
        <ele>625.20001220703</ele>
        <time>2021-08-25T04:30:22.000Z</time>
      </trkpt>
      <trkpt lat="45.20432" lon="5.72464">
        <ele>625.20001220703</ele>
        <time>2021-08-25T04:30:26.000Z</time>
      </trkpt>
      <trkpt lat="45.20431" lon="5.72465">
        <ele>625.20001220703</ele>
        <time>2021-08-25T04:30:29.000Z</time>
      </trkpt>
      <trkpt lat="45.20431" lon="5.72464">
        <ele>625.20001220703</ele>
        <time>2021-08-25T04:30:31.000Z</time>
      </trkpt>
      <trkpt lat="45.20432" lon="5.72466">
        <ele>625.20001220703</ele>
        <time>2021-08-25T04:30:32.000Z</time>
      </trkpt>
      <trkpt lat="45.20433" lon="5.72467">
        <ele>625.40002441406</ele>
        <time>2021-08-25T04:30:36.000Z</time>
      </trkpt>
      <trkpt lat="45.20438" lon="5.72469">
        <ele>625.20001220703</ele>
        <time>2021-08-25T04:30:48.000Z</time>
      </trkpt>
      <trkpt lat="45.2044" lon="5.72469">
        <ele>625.20001220703</ele>
        <time>2021-08-25T04:30:50.000Z</time>
      </trkpt>
      <trkpt lat="45.20445" lon="5.72472">
        <ele>625.40002441406</ele>
        <time>2021-08-25T04:30:53.000Z</time>
      </trkpt>
      <trkpt lat="45.20459" lon="5.72476">
        <ele>625.40002441406</ele>
        <time>2021-08-25T04:30:58.000Z</time>
      </trkpt>
      <trkpt lat="45.2047" lon="5.7248">
        <ele>625.20001220703</ele>
        <time>2021-08-25T04:31:03.000Z</time>
      </trkpt>
      <trkpt lat="45.20472" lon="5.72482">
        <ele>625.20001220703</ele>
        <time>2021-08-25T04:31:04.000Z</time>
      </trkpt>
      <trkpt lat="45.20474" lon="5.72484">
        <ele>625.59997558594</ele>
        <time>2021-08-25T04:31:05.000Z</time>
      </trkpt>
      <trkpt lat="45.20478" lon="5.72496">
        <ele>625.79998779297</ele>
        <time>2021-08-25T04:31:08.000Z</time>
      </trkpt>
      <trkpt lat="45.20483" lon="5.72521">
        <ele>625.79998779297</ele>
        <time>2021-08-25T04:31:13.000Z</time>
      </trkpt>
      <trkpt lat="45.20486" lon="5.72536">
        <ele>624.79998779297</ele>
        <time>2021-08-25T04:31:18.000Z</time>
      </trkpt>
      <trkpt lat="45.20487" lon="5.72542">
        <ele>623.79998779297</ele>
        <time>2021-08-25T04:31:20.000Z</time>
      </trkpt>
      <trkpt lat="45.2049" lon="5.72551">
        <ele>623.20001220703</ele>
        <time>2021-08-25T04:31:24.000Z</time>
      </trkpt>
      <trkpt lat="45.2049" lon="5.72553">
        <ele>621.79998779297</ele>
        <time>2021-08-25T04:31:25.000Z</time>
      </trkpt>
      <trkpt lat="45.20491" lon="5.7256">
        <ele>621.40002441406</ele>
        <time>2021-08-25T04:31:27.000Z</time>
      </trkpt>
      <trkpt lat="45.20489" lon="5.72562">
        <ele>621.20001220703</ele>
        <time>2021-08-25T04:31:29.000Z</time>
      </trkpt>
      <trkpt lat="45.20486" lon="5.72562">
        <ele>620.40002441406</ele>
        <time>2021-08-25T04:31:30.000Z</time>
      </trkpt>
      <trkpt lat="45.20484" lon="5.72562">
        <ele>620</ele>
        <time>2021-08-25T04:31:31.000Z</time>
      </trkpt>
      <trkpt lat="45.20476" lon="5.72556">
        <ele>619.79998779297</ele>
        <time>2021-08-25T04:31:34.000Z</time>
      </trkpt>
      <trkpt lat="45.20474" lon="5.72553">
        <ele>619</ele>
        <time>2021-08-25T04:31:35.000Z</time>
      </trkpt>
      <trkpt lat="45.20466" lon="5.72543">
        <ele>618.40002441406</ele>
        <time>2021-08-25T04:31:39.000Z</time>
      </trkpt>
      <trkpt lat="45.20464" lon="5.72542">
        <ele>617.79998779297</ele>
        <time>2021-08-25T04:31:40.000Z</time>
      </trkpt>
      <trkpt lat="45.20455" lon="5.72532">
        <ele>616.79998779297</ele>
        <time>2021-08-25T04:31:44.000Z</time>
      </trkpt>
      <trkpt lat="45.20454" lon="5.72529">
        <ele>616.59997558594</ele>
        <time>2021-08-25T04:31:45.000Z</time>
      </trkpt>
      <trkpt lat="45.20448" lon="5.72521">
        <ele>615.59997558594</ele>
        <time>2021-08-25T04:31:48.000Z</time>
      </trkpt>
      <trkpt lat="45.20443" lon="5.72516">
        <ele>612.20001220703</ele>
        <time>2021-08-25T04:31:51.000Z</time>
      </trkpt>
      <trkpt lat="45.2044" lon="5.72515">
        <ele>612.20001220703</ele>
        <time>2021-08-25T04:31:53.000Z</time>
      </trkpt>
      <trkpt lat="45.20439" lon="5.72516">
        <ele>612.79998779297</ele>
        <time>2021-08-25T04:31:54.000Z</time>
      </trkpt>
      <trkpt lat="45.20438" lon="5.72518">
        <ele>612.79998779297</ele>
        <time>2021-08-25T04:31:55.000Z</time>
      </trkpt>
      <trkpt lat="45.20439" lon="5.72533">
        <ele>612.40002441406</ele>
        <time>2021-08-25T04:31:59.000Z</time>
      </trkpt>
      <trkpt lat="45.20444" lon="5.72545">
        <ele>611.20001220703</ele>
        <time>2021-08-25T04:32:03.000Z</time>
      </trkpt>
      <trkpt lat="45.20452" lon="5.7256">
        <ele>609.79998779297</ele>
        <time>2021-08-25T04:32:08.000Z</time>
      </trkpt>
      <trkpt lat="45.20455" lon="5.72564">
        <ele>609.59997558594</ele>
        <time>2021-08-25T04:32:10.000Z</time>
      </trkpt>
      <trkpt lat="45.20458" lon="5.72571">
        <ele>609</ele>
        <time>2021-08-25T04:32:13.000Z</time>
      </trkpt>
      <trkpt lat="45.2046" lon="5.72575">
        <ele>608.59997558594</ele>
        <time>2021-08-25T04:32:14.000Z</time>
      </trkpt>
      <trkpt lat="45.20468" lon="5.72585">
        <ele>607.79998779297</ele>
        <time>2021-08-25T04:32:17.000Z</time>
      </trkpt>
      <trkpt lat="45.20471" lon="5.72587">
        <ele>607.40002441406</ele>
        <time>2021-08-25T04:32:18.000Z</time>
      </trkpt>
      <trkpt lat="45.20476" lon="5.72596">
        <ele>606.79998779297</ele>
        <time>2021-08-25T04:32:21.000Z</time>
      </trkpt>
      <trkpt lat="45.20478" lon="5.72598">
        <ele>606.40002441406</ele>
        <time>2021-08-25T04:32:22.000Z</time>
      </trkpt>
      <trkpt lat="45.20479" lon="5.726">
        <ele>606.20001220703</ele>
        <time>2021-08-25T04:32:23.000Z</time>
      </trkpt>
      <trkpt lat="45.20481" lon="5.72603">
        <ele>605.40002441406</ele>
        <time>2021-08-25T04:32:24.000Z</time>
      </trkpt>
      <trkpt lat="45.20482" lon="5.72606">
        <ele>605.20001220703</ele>
        <time>2021-08-25T04:32:25.000Z</time>
      </trkpt>
      <trkpt lat="45.20483" lon="5.72609">
        <ele>604.59997558594</ele>
        <time>2021-08-25T04:32:26.000Z</time>
      </trkpt>
      <trkpt lat="45.20485" lon="5.72611">
        <ele>604.20001220703</ele>
        <time>2021-08-25T04:32:27.000Z</time>
      </trkpt>
      <trkpt lat="45.2049" lon="5.72615">
        <ele>604</ele>
        <time>2021-08-25T04:32:29.000Z</time>
      </trkpt>
      <trkpt lat="45.20494" lon="5.72618">
        <ele>603</ele>
        <time>2021-08-25T04:32:31.000Z</time>
      </trkpt>
      <trkpt lat="45.20502" lon="5.72622">
        <ele>602</ele>
        <time>2021-08-25T04:32:35.000Z</time>
      </trkpt>
      <trkpt lat="45.20511" lon="5.72629">
        <ele>600.59997558594</ele>
        <time>2021-08-25T04:32:39.000Z</time>
      </trkpt>
      <trkpt lat="45.20515" lon="5.72633">
        <ele>600.20001220703</ele>
        <time>2021-08-25T04:32:41.000Z</time>
      </trkpt>
      <trkpt lat="45.20523" lon="5.72643">
        <ele>599</ele>
        <time>2021-08-25T04:32:45.000Z</time>
      </trkpt>
      <trkpt lat="45.20529" lon="5.7265">
        <ele>598.20001220703</ele>
        <time>2021-08-25T04:32:48.000Z</time>
      </trkpt>
      <trkpt lat="45.20532" lon="5.72655">
        <ele>597.79998779297</ele>
        <time>2021-08-25T04:32:50.000Z</time>
      </trkpt>
      <trkpt lat="45.20541" lon="5.72664">
        <ele>596.20001220703</ele>
        <time>2021-08-25T04:32:54.000Z</time>
      </trkpt>
      <trkpt lat="45.20558" lon="5.72678">
        <ele>595.40002441406</ele>
        <time>2021-08-25T04:33:00.000Z</time>
      </trkpt>
      <trkpt lat="45.20566" lon="5.72686">
        <ele>595</ele>
        <time>2021-08-25T04:33:03.000Z</time>
      </trkpt>
      <trkpt lat="45.20579" lon="5.72694">
        <ele>594.40002441406</ele>
        <time>2021-08-25T04:33:08.000Z</time>
      </trkpt>
      <trkpt lat="45.2058" lon="5.72696">
        <ele>594</ele>
        <time>2021-08-25T04:33:09.000Z</time>
      </trkpt>
      <trkpt lat="45.2058" lon="5.72698">
        <ele>593.59997558594</ele>
        <time>2021-08-25T04:33:10.000Z</time>
      </trkpt>
      <trkpt lat="45.20579" lon="5.72701">
        <ele>593.59997558594</ele>
        <time>2021-08-25T04:33:11.000Z</time>
      </trkpt>
      <trkpt lat="45.20577" lon="5.72703">
        <ele>593.40002441406</ele>
        <time>2021-08-25T04:33:12.000Z</time>
      </trkpt>
      <trkpt lat="45.2057" lon="5.72708">
        <ele>592.40002441406</ele>
        <time>2021-08-25T04:33:15.000Z</time>
      </trkpt>
      <trkpt lat="45.20565" lon="5.72708">
        <ele>591.79998779297</ele>
        <time>2021-08-25T04:33:17.000Z</time>
      </trkpt>
      <trkpt lat="45.20558" lon="5.72704">
        <ele>590.79998779297</ele>
        <time>2021-08-25T04:33:20.000Z</time>
      </trkpt>
      <trkpt lat="45.20556" lon="5.72702">
        <ele>590.59997558594</ele>
        <time>2021-08-25T04:33:21.000Z</time>
      </trkpt>
      <trkpt lat="45.20547" lon="5.72698">
        <ele>589.59997558594</ele>
        <time>2021-08-25T04:33:25.000Z</time>
      </trkpt>
      <trkpt lat="45.20537" lon="5.72695">
        <ele>588.20001220703</ele>
        <time>2021-08-25T04:33:29.000Z</time>
      </trkpt>
      <trkpt lat="45.20529" lon="5.72689">
        <ele>587.20001220703</ele>
        <time>2021-08-25T04:33:33.000Z</time>
      </trkpt>
      <trkpt lat="45.20527" lon="5.72688">
        <ele>586.59997558594</ele>
        <time>2021-08-25T04:33:34.000Z</time>
      </trkpt>
      <trkpt lat="45.2052" lon="5.72686">
        <ele>586</ele>
        <time>2021-08-25T04:33:37.000Z</time>
      </trkpt>
      <trkpt lat="45.20513" lon="5.7268">
        <ele>585</ele>
        <time>2021-08-25T04:33:40.000Z</time>
      </trkpt>
      <trkpt lat="45.20503" lon="5.72676">
        <ele>583.40002441406</ele>
        <time>2021-08-25T04:33:45.000Z</time>
      </trkpt>
      <trkpt lat="45.20499" lon="5.72674">
        <ele>582.79998779297</ele>
        <time>2021-08-25T04:33:47.000Z</time>
      </trkpt>
      <trkpt lat="45.20494" lon="5.72672">
        <ele>582.20001220703</ele>
        <time>2021-08-25T04:33:50.000Z</time>
      </trkpt>
      <trkpt lat="45.20485" lon="5.72669">
        <ele>581.20001220703</ele>
        <time>2021-08-25T04:33:54.000Z</time>
      </trkpt>
      <trkpt lat="45.20483" lon="5.72669">
        <ele>581</ele>
        <time>2021-08-25T04:33:55.000Z</time>
      </trkpt>
      <trkpt lat="45.20475" lon="5.72665">
        <ele>579.20001220703</ele>
        <time>2021-08-25T04:33:59.000Z</time>
      </trkpt>
      <trkpt lat="45.20472" lon="5.72663">
        <ele>578.79998779297</ele>
        <time>2021-08-25T04:34:01.000Z</time>
      </trkpt>
      <trkpt lat="45.20463" lon="5.7266">
        <ele>578</ele>
        <time>2021-08-25T04:34:05.000Z</time>
      </trkpt>
      <trkpt lat="45.20459" lon="5.72658">
        <ele>577.40002441406</ele>
        <time>2021-08-25T04:34:07.000Z</time>
      </trkpt>
      <trkpt lat="45.20454" lon="5.72657">
        <ele>576.59997558594</ele>
        <time>2021-08-25T04:34:09.000Z</time>
      </trkpt>
      <trkpt lat="45.20444" lon="5.72655">
        <ele>575.79998779297</ele>
        <time>2021-08-25T04:34:13.000Z</time>
      </trkpt>
      <trkpt lat="45.20442" lon="5.72653">
        <ele>575.79998779297</ele>
        <time>2021-08-25T04:34:14.000Z</time>
      </trkpt>
      <trkpt lat="45.2044" lon="5.72651">
        <ele>575.40002441406</ele>
        <time>2021-08-25T04:34:15.000Z</time>
      </trkpt>
      <trkpt lat="45.20434" lon="5.72646">
        <ele>575.20001220703</ele>
        <time>2021-08-25T04:34:17.000Z</time>
      </trkpt>
      <trkpt lat="45.20427" lon="5.72637">
        <ele>574.20001220703</ele>
        <time>2021-08-25T04:34:20.000Z</time>
      </trkpt>
      <trkpt lat="45.20422" lon="5.72633">
        <ele>573.79998779297</ele>
        <time>2021-08-25T04:34:22.000Z</time>
      </trkpt>
      <trkpt lat="45.20415" lon="5.7263">
        <ele>573.20001220703</ele>
        <time>2021-08-25T04:34:26.000Z</time>
      </trkpt>
      <trkpt lat="45.20415" lon="5.72632">
        <ele>572.59997558594</ele>
        <time>2021-08-25T04:34:27.000Z</time>
      </trkpt>
      <trkpt lat="45.20415" lon="5.72633">
        <ele>572.20001220703</ele>
        <time>2021-08-25T04:34:28.000Z</time>
      </trkpt>
      <trkpt lat="45.20416" lon="5.72635">
        <ele>572</ele>
        <time>2021-08-25T04:34:29.000Z</time>
      </trkpt>
      <trkpt lat="45.2042" lon="5.7264">
        <ele>571.40002441406</ele>
        <time>2021-08-25T04:34:31.000Z</time>
      </trkpt>
      <trkpt lat="45.20424" lon="5.72647">
        <ele>570.59997558594</ele>
        <time>2021-08-25T04:34:34.000Z</time>
      </trkpt>
      <trkpt lat="45.20426" lon="5.72649">
        <ele>570.40002441406</ele>
        <time>2021-08-25T04:34:35.000Z</time>
      </trkpt>
      <trkpt lat="45.2043" lon="5.72653">
        <ele>569.20001220703</ele>
        <time>2021-08-25T04:34:38.000Z</time>
      </trkpt>
      <trkpt lat="45.20435" lon="5.7266">
        <ele>568.79998779297</ele>
        <time>2021-08-25T04:34:41.000Z</time>
      </trkpt>
      <trkpt lat="45.20441" lon="5.72666">
        <ele>567.40002441406</ele>
        <time>2021-08-25T04:34:44.000Z</time>
      </trkpt>
      <trkpt lat="45.20446" lon="5.72671">
        <ele>567</ele>
        <time>2021-08-25T04:34:47.000Z</time>
      </trkpt>
      <trkpt lat="45.2045" lon="5.72675">
        <ele>566.40002441406</ele>
        <time>2021-08-25T04:34:49.000Z</time>
      </trkpt>
      <trkpt lat="45.20451" lon="5.72675">
        <ele>565.79998779297</ele>
        <time>2021-08-25T04:34:50.000Z</time>
      </trkpt>
      <trkpt lat="45.20458" lon="5.72679">
        <ele>565</ele>
        <time>2021-08-25T04:34:54.000Z</time>
      </trkpt>
      <trkpt lat="45.2046" lon="5.7268">
        <ele>564.59997558594</ele>
        <time>2021-08-25T04:34:55.000Z</time>
      </trkpt>
      <trkpt lat="45.20465" lon="5.72685">
        <ele>563.40002441406</ele>
        <time>2021-08-25T04:34:59.000Z</time>
      </trkpt>
      <trkpt lat="45.20469" lon="5.72689">
        <ele>563.20001220703</ele>
        <time>2021-08-25T04:35:01.000Z</time>
      </trkpt>
      <trkpt lat="45.20471" lon="5.72691">
        <ele>562.79998779297</ele>
        <time>2021-08-25T04:35:02.000Z</time>
      </trkpt>
      <trkpt lat="45.20474" lon="5.72694">
        <ele>562.40002441406</ele>
        <time>2021-08-25T04:35:04.000Z</time>
      </trkpt>
      <trkpt lat="45.20476" lon="5.72696">
        <ele>562.20001220703</ele>
        <time>2021-08-25T04:35:05.000Z</time>
      </trkpt>
      <trkpt lat="45.20478" lon="5.72697">
        <ele>562.20001220703</ele>
        <time>2021-08-25T04:35:06.000Z</time>
      </trkpt>
      <trkpt lat="45.20484" lon="5.72701">
        <ele>561</ele>
        <time>2021-08-25T04:35:08.000Z</time>
      </trkpt>
      <trkpt lat="45.20493" lon="5.72711">
        <ele>560.40002441406</ele>
        <time>2021-08-25T04:35:12.000Z</time>
      </trkpt>
      <trkpt lat="45.20496" lon="5.72715">
        <ele>559.79998779297</ele>
        <time>2021-08-25T04:35:14.000Z</time>
      </trkpt>
      <trkpt lat="45.205" lon="5.7272">
        <ele>559.40002441406</ele>
        <time>2021-08-25T04:35:16.000Z</time>
      </trkpt>
      <trkpt lat="45.20506" lon="5.72725">
        <ele>558.59997558594</ele>
        <time>2021-08-25T04:35:19.000Z</time>
      </trkpt>
      <trkpt lat="45.20512" lon="5.7273">
        <ele>557.59997558594</ele>
        <time>2021-08-25T04:35:22.000Z</time>
      </trkpt>
      <trkpt lat="45.20516" lon="5.72733">
        <ele>557.59997558594</ele>
        <time>2021-08-25T04:35:23.000Z</time>
      </trkpt>
      <trkpt lat="45.2053" lon="5.72751">
        <ele>556.79998779297</ele>
        <time>2021-08-25T04:35:29.000Z</time>
      </trkpt>
      <trkpt lat="45.20533" lon="5.72757">
        <ele>556.59997558594</ele>
        <time>2021-08-25T04:35:31.000Z</time>
      </trkpt>
      <trkpt lat="45.20542" lon="5.72771">
        <ele>556.20001220703</ele>
        <time>2021-08-25T04:35:36.000Z</time>
      </trkpt>
      <trkpt lat="45.2055" lon="5.72783">
        <ele>555.59997558594</ele>
        <time>2021-08-25T04:35:40.000Z</time>
      </trkpt>
      <trkpt lat="45.20552" lon="5.72785">
        <ele>555.59997558594</ele>
        <time>2021-08-25T04:35:41.000Z</time>
      </trkpt>
      <trkpt lat="45.20556" lon="5.7279">
        <ele>555.79998779297</ele>
        <time>2021-08-25T04:35:43.000Z</time>
      </trkpt>
      <trkpt lat="45.20568" lon="5.72809">
        <ele>556.20001220703</ele>
        <time>2021-08-25T04:35:50.000Z</time>
      </trkpt>
      <trkpt lat="45.20573" lon="5.72815">
        <ele>556.59997558594</ele>
        <time>2021-08-25T04:35:52.000Z</time>
      </trkpt>
      <trkpt lat="45.20585" lon="5.7283">
        <ele>556.59997558594</ele>
        <time>2021-08-25T04:35:58.000Z</time>
      </trkpt>
      <trkpt lat="45.206" lon="5.72846">
        <ele>556</ele>
        <time>2021-08-25T04:36:05.000Z</time>
      </trkpt>
      <trkpt lat="45.20602" lon="5.72849">
        <ele>555.59997558594</ele>
        <time>2021-08-25T04:36:06.000Z</time>
      </trkpt>
      <trkpt lat="45.20607" lon="5.72854">
        <ele>555.40002441406</ele>
        <time>2021-08-25T04:36:08.000Z</time>
      </trkpt>
      <trkpt lat="45.20615" lon="5.72861">
        <ele>555.20001220703</ele>
        <time>2021-08-25T04:36:11.000Z</time>
      </trkpt>
      <trkpt lat="45.20625" lon="5.72868">
        <ele>555.20001220703</ele>
        <time>2021-08-25T04:36:15.000Z</time>
      </trkpt>
      <trkpt lat="45.20627" lon="5.72871">
        <ele>555.20001220703</ele>
        <time>2021-08-25T04:36:16.000Z</time>
      </trkpt>
      <trkpt lat="45.20632" lon="5.72878">
        <ele>556</ele>
        <time>2021-08-25T04:36:19.000Z</time>
      </trkpt>
      <trkpt lat="45.20634" lon="5.72881">
        <ele>555.79998779297</ele>
        <time>2021-08-25T04:36:20.000Z</time>
      </trkpt>
      <trkpt lat="45.20635" lon="5.72883">
        <ele>556.20001220703</ele>
        <time>2021-08-25T04:36:21.000Z</time>
      </trkpt>
      <trkpt lat="45.20638" lon="5.72894">
        <ele>556.40002441406</ele>
        <time>2021-08-25T04:36:24.000Z</time>
      </trkpt>
      <trkpt lat="45.20645" lon="5.72903">
        <ele>555.59997558594</ele>
        <time>2021-08-25T04:36:28.000Z</time>
      </trkpt>
      <trkpt lat="45.20651" lon="5.72911">
        <ele>555</ele>
        <time>2021-08-25T04:36:32.000Z</time>
      </trkpt>
      <trkpt lat="45.20652" lon="5.72913">
        <ele>554.20001220703</ele>
        <time>2021-08-25T04:36:33.000Z</time>
      </trkpt>
      <trkpt lat="45.20654" lon="5.72916">
        <ele>553.79998779297</ele>
        <time>2021-08-25T04:36:34.000Z</time>
      </trkpt>
      <trkpt lat="45.20659" lon="5.72924">
        <ele>552.79998779297</ele>
        <time>2021-08-25T04:36:37.000Z</time>
      </trkpt>
      <trkpt lat="45.20666" lon="5.72934">
        <ele>552.40002441406</ele>
        <time>2021-08-25T04:36:41.000Z</time>
      </trkpt>
      <trkpt lat="45.20669" lon="5.7294">
        <ele>551.40002441406</ele>
        <time>2021-08-25T04:36:43.000Z</time>
      </trkpt>
      <trkpt lat="45.20678" lon="5.72955">
        <ele>550.40002441406</ele>
        <time>2021-08-25T04:36:48.000Z</time>
      </trkpt>
      <trkpt lat="45.20681" lon="5.72959">
        <ele>549.79998779297</ele>
        <time>2021-08-25T04:36:50.000Z</time>
      </trkpt>
      <trkpt lat="45.20684" lon="5.7296">
        <ele>549.79998779297</ele>
        <time>2021-08-25T04:36:51.000Z</time>
      </trkpt>
      <trkpt lat="45.2069" lon="5.72965">
        <ele>549.40002441406</ele>
        <time>2021-08-25T04:36:54.000Z</time>
      </trkpt>
      <trkpt lat="45.20694" lon="5.72968">
        <ele>549</ele>
        <time>2021-08-25T04:36:56.000Z</time>
      </trkpt>
      <trkpt lat="45.20704" lon="5.72974">
        <ele>548.59997558594</ele>
        <time>2021-08-25T04:36:59.000Z</time>
      </trkpt>
      <trkpt lat="45.20706" lon="5.72978">
        <ele>548</ele>
        <time>2021-08-25T04:37:01.000Z</time>
      </trkpt>
      <trkpt lat="45.20711" lon="5.72983">
        <ele>547.20001220703</ele>
        <time>2021-08-25T04:37:04.000Z</time>
      </trkpt>
      <trkpt lat="45.20712" lon="5.72985">
        <ele>546.79998779297</ele>
        <time>2021-08-25T04:37:05.000Z</time>
      </trkpt>
      <trkpt lat="45.20715" lon="5.7299">
        <ele>546.20001220703</ele>
        <time>2021-08-25T04:37:08.000Z</time>
      </trkpt>
      <trkpt lat="45.20716" lon="5.72993">
        <ele>545.59997558594</ele>
        <time>2021-08-25T04:37:09.000Z</time>
      </trkpt>
      <trkpt lat="45.20717" lon="5.72996">
        <ele>545.20001220703</ele>
        <time>2021-08-25T04:37:10.000Z</time>
      </trkpt>
      <trkpt lat="45.20719" lon="5.72998">
        <ele>545</ele>
        <time>2021-08-25T04:37:11.000Z</time>
      </trkpt>
      <trkpt lat="45.20723" lon="5.73004">
        <ele>544.40002441406</ele>
        <time>2021-08-25T04:37:14.000Z</time>
      </trkpt>
      <trkpt lat="45.20725" lon="5.73009">
        <ele>543.40002441406</ele>
        <time>2021-08-25T04:37:17.000Z</time>
      </trkpt>
      <trkpt lat="45.20729" lon="5.73015">
        <ele>543</ele>
        <time>2021-08-25T04:37:20.000Z</time>
      </trkpt>
      <trkpt lat="45.2073" lon="5.73016">
        <ele>542.79998779297</ele>
        <time>2021-08-25T04:37:21.000Z</time>
      </trkpt>
      <trkpt lat="45.20736" lon="5.73021">
        <ele>542.20001220703</ele>
        <time>2021-08-25T04:37:24.000Z</time>
      </trkpt>
      <trkpt lat="45.20744" lon="5.73029">
        <ele>541.79998779297</ele>
        <time>2021-08-25T04:37:28.000Z</time>
      </trkpt>
      <trkpt lat="45.20747" lon="5.73032">
        <ele>541.59997558594</ele>
        <time>2021-08-25T04:37:30.000Z</time>
      </trkpt>
      <trkpt lat="45.20749" lon="5.73039">
        <ele>541.20001220703</ele>
        <time>2021-08-25T04:37:32.000Z</time>
      </trkpt>
      <trkpt lat="45.20751" lon="5.73041">
        <ele>541.20001220703</ele>
        <time>2021-08-25T04:37:33.000Z</time>
      </trkpt>
      <trkpt lat="45.20756" lon="5.73046">
        <ele>540.59997558594</ele>
        <time>2021-08-25T04:37:36.000Z</time>
      </trkpt>
      <trkpt lat="45.20758" lon="5.73048">
        <ele>540.40002441406</ele>
        <time>2021-08-25T04:37:37.000Z</time>
      </trkpt>
      <trkpt lat="45.20759" lon="5.7305">
        <ele>540.20001220703</ele>
        <time>2021-08-25T04:37:38.000Z</time>
      </trkpt>
      <trkpt lat="45.20761" lon="5.73053">
        <ele>540</ele>
        <time>2021-08-25T04:37:40.000Z</time>
      </trkpt>
      <trkpt lat="45.20763" lon="5.73054">
        <ele>540</ele>
        <time>2021-08-25T04:37:41.000Z</time>
      </trkpt>
      <trkpt lat="45.20766" lon="5.73057">
        <ele>539.20001220703</ele>
        <time>2021-08-25T04:37:43.000Z</time>
      </trkpt>
      <trkpt lat="45.2077" lon="5.7306">
        <ele>537.79998779297</ele>
        <time>2021-08-25T04:37:47.000Z</time>
      </trkpt>
      <trkpt lat="45.20772" lon="5.73062">
        <ele>537.40002441406</ele>
        <time>2021-08-25T04:37:49.000Z</time>
      </trkpt>
      <trkpt lat="45.20772" lon="5.73065">
        <ele>537.40002441406</ele>
        <time>2021-08-25T04:37:50.000Z</time>
      </trkpt>
      <trkpt lat="45.20774" lon="5.73067">
        <ele>537</ele>
        <time>2021-08-25T04:37:52.000Z</time>
      </trkpt>
      <trkpt lat="45.20775" lon="5.73069">
        <ele>536.79998779297</ele>
        <time>2021-08-25T04:37:53.000Z</time>
      </trkpt>
      <trkpt lat="45.20777" lon="5.73074">
        <ele>536</ele>
        <time>2021-08-25T04:37:55.000Z</time>
      </trkpt>
      <trkpt lat="45.20778" lon="5.73075">
        <ele>536</ele>
        <time>2021-08-25T04:37:56.000Z</time>
      </trkpt>
      <trkpt lat="45.2078" lon="5.73077">
        <ele>535.40002441406</ele>
        <time>2021-08-25T04:37:57.000Z</time>
      </trkpt>
      <trkpt lat="45.20784" lon="5.73084">
        <ele>534.20001220703</ele>
        <time>2021-08-25T04:38:01.000Z</time>
      </trkpt>
      <trkpt lat="45.20785" lon="5.73086">
        <ele>534.20001220703</ele>
        <time>2021-08-25T04:38:02.000Z</time>
      </trkpt>
      <trkpt lat="45.20786" lon="5.73087">
        <ele>533.79998779297</ele>
        <time>2021-08-25T04:38:03.000Z</time>
      </trkpt>
      <trkpt lat="45.20789" lon="5.73092">
        <ele>533.20001220703</ele>
        <time>2021-08-25T04:38:06.000Z</time>
      </trkpt>
      <trkpt lat="45.2079" lon="5.73093">
        <ele>532.40002441406</ele>
        <time>2021-08-25T04:38:07.000Z</time>
      </trkpt>
      <trkpt lat="45.2079" lon="5.73095">
        <ele>532.40002441406</ele>
        <time>2021-08-25T04:38:08.000Z</time>
      </trkpt>
      <trkpt lat="45.20791" lon="5.731">
        <ele>531.59997558594</ele>
        <time>2021-08-25T04:38:10.000Z</time>
      </trkpt>
      <trkpt lat="45.20794" lon="5.73104">
        <ele>531.59997558594</ele>
        <time>2021-08-25T04:38:13.000Z</time>
      </trkpt>
      <trkpt lat="45.20795" lon="5.73106">
        <ele>531</ele>
        <time>2021-08-25T04:38:14.000Z</time>
      </trkpt>
      <trkpt lat="45.20796" lon="5.7311">
        <ele>530.40002441406</ele>
        <time>2021-08-25T04:38:16.000Z</time>
      </trkpt>
      <trkpt lat="45.20797" lon="5.73115">
        <ele>529.79998779297</ele>
        <time>2021-08-25T04:38:18.000Z</time>
      </trkpt>
      <trkpt lat="45.20797" lon="5.73123">
        <ele>528.79998779297</ele>
        <time>2021-08-25T04:38:21.000Z</time>
      </trkpt>
      <trkpt lat="45.20798" lon="5.73126">
        <ele>528.59997558594</ele>
        <time>2021-08-25T04:38:22.000Z</time>
      </trkpt>
      <trkpt lat="45.20801" lon="5.73129">
        <ele>527.59997558594</ele>
        <time>2021-08-25T04:38:25.000Z</time>
      </trkpt>
      <trkpt lat="45.20805" lon="5.73133">
        <ele>526.79998779297</ele>
        <time>2021-08-25T04:38:28.000Z</time>
      </trkpt>
      <trkpt lat="45.20806" lon="5.73135">
        <ele>526.59997558594</ele>
        <time>2021-08-25T04:38:29.000Z</time>
      </trkpt>
      <trkpt lat="45.2081" lon="5.73141">
        <ele>525.79998779297</ele>
        <time>2021-08-25T04:38:32.000Z</time>
      </trkpt>
      <trkpt lat="45.20812" lon="5.73144">
        <ele>525.20001220703</ele>
        <time>2021-08-25T04:38:34.000Z</time>
      </trkpt>
      <trkpt lat="45.20813" lon="5.73145">
        <ele>525.20001220703</ele>
        <time>2021-08-25T04:38:35.000Z</time>
      </trkpt>
      <trkpt lat="45.20817" lon="5.73149">
        <ele>524.40002441406</ele>
        <time>2021-08-25T04:38:38.000Z</time>
      </trkpt>
      <trkpt lat="45.20817" lon="5.73151">
        <ele>523.79998779297</ele>
        <time>2021-08-25T04:38:39.000Z</time>
      </trkpt>
      <trkpt lat="45.20819" lon="5.73155">
        <ele>523.40002441406</ele>
        <time>2021-08-25T04:38:41.000Z</time>
      </trkpt>
      <trkpt lat="45.20822" lon="5.73157">
        <ele>523.20001220703</ele>
        <time>2021-08-25T04:38:42.000Z</time>
      </trkpt>
      <trkpt lat="45.20826" lon="5.73162">
        <ele>522.40002441406</ele>
        <time>2021-08-25T04:38:44.000Z</time>
      </trkpt>
      <trkpt lat="45.20827" lon="5.73167">
        <ele>522</ele>
        <time>2021-08-25T04:38:46.000Z</time>
      </trkpt>
      <trkpt lat="45.2083" lon="5.73172">
        <ele>521.40002441406</ele>
        <time>2021-08-25T04:38:49.000Z</time>
      </trkpt>
      <trkpt lat="45.20834" lon="5.7318">
        <ele>520.20001220703</ele>
        <time>2021-08-25T04:38:53.000Z</time>
      </trkpt>
      <trkpt lat="45.20838" lon="5.73186">
        <ele>519.20001220703</ele>
        <time>2021-08-25T04:38:56.000Z</time>
      </trkpt>
      <trkpt lat="45.2084" lon="5.73192">
        <ele>518.20001220703</ele>
        <time>2021-08-25T04:38:58.000Z</time>
      </trkpt>
      <trkpt lat="45.20841" lon="5.73194">
        <ele>517.79998779297</ele>
        <time>2021-08-25T04:38:59.000Z</time>
      </trkpt>
      <trkpt lat="45.20844" lon="5.73201">
        <ele>517.20001220703</ele>
        <time>2021-08-25T04:39:02.000Z</time>
      </trkpt>
      <trkpt lat="45.20846" lon="5.73206">
        <ele>517</ele>
        <time>2021-08-25T04:39:04.000Z</time>
      </trkpt>
      <trkpt lat="45.20846" lon="5.73208">
        <ele>516.59997558594</ele>
        <time>2021-08-25T04:39:05.000Z</time>
      </trkpt>
      <trkpt lat="45.20849" lon="5.73214">
        <ele>516.40002441406</ele>
        <time>2021-08-25T04:39:07.000Z</time>
      </trkpt>
      <trkpt lat="45.20851" lon="5.73216">
        <ele>516.40002441406</ele>
        <time>2021-08-25T04:39:08.000Z</time>
      </trkpt>
      <trkpt lat="45.20854" lon="5.73223">
        <ele>515.59997558594</ele>
        <time>2021-08-25T04:39:11.000Z</time>
      </trkpt>
      <trkpt lat="45.20859" lon="5.73235">
        <ele>514.59997558594</ele>
        <time>2021-08-25T04:39:16.000Z</time>
      </trkpt>
      <trkpt lat="45.20864" lon="5.73246">
        <ele>514.59997558594</ele>
        <time>2021-08-25T04:39:19.000Z</time>
      </trkpt>
      <trkpt lat="45.20867" lon="5.73256">
        <ele>514.79998779297</ele>
        <time>2021-08-25T04:39:23.000Z</time>
      </trkpt>
      <trkpt lat="45.20873" lon="5.73265">
        <ele>514.79998779297</ele>
        <time>2021-08-25T04:39:29.000Z</time>
      </trkpt>
      <trkpt lat="45.20875" lon="5.73266">
        <ele>515.40002441406</ele>
        <time>2021-08-25T04:39:31.000Z</time>
      </trkpt>
      <trkpt lat="45.20876" lon="5.73267">
        <ele>515.79998779297</ele>
        <time>2021-08-25T04:39:33.000Z</time>
      </trkpt>
      <trkpt lat="45.20877" lon="5.73269">
        <ele>516</ele>
        <time>2021-08-25T04:39:34.000Z</time>
      </trkpt>
      <trkpt lat="45.20878" lon="5.73271">
        <ele>516</ele>
        <time>2021-08-25T04:39:36.000Z</time>
      </trkpt>
      <trkpt lat="45.20881" lon="5.73272">
        <ele>516.79998779297</ele>
        <time>2021-08-25T04:39:39.000Z</time>
      </trkpt>
      <trkpt lat="45.20882" lon="5.73273">
        <ele>516.79998779297</ele>
        <time>2021-08-25T04:39:40.000Z</time>
      </trkpt>
      <trkpt lat="45.20882" lon="5.73274">
        <ele>517.40002441406</ele>
        <time>2021-08-25T04:39:41.000Z</time>
      </trkpt>
      <trkpt lat="45.20887" lon="5.73274">
        <ele>518</ele>
        <time>2021-08-25T04:39:43.000Z</time>
      </trkpt>
      <trkpt lat="45.20891" lon="5.73275">
        <ele>518.59997558594</ele>
        <time>2021-08-25T04:39:45.000Z</time>
      </trkpt>
      <trkpt lat="45.20892" lon="5.73276">
        <ele>518.59997558594</ele>
        <time>2021-08-25T04:39:46.000Z</time>
      </trkpt>
      <trkpt lat="45.20893" lon="5.73276">
        <ele>519.40002441406</ele>
        <time>2021-08-25T04:39:47.000Z</time>
      </trkpt>
      <trkpt lat="45.20895" lon="5.73275">
        <ele>519.79998779297</ele>
        <time>2021-08-25T04:39:49.000Z</time>
      </trkpt>
      <trkpt lat="45.20895" lon="5.73274">
        <ele>520.59997558594</ele>
        <time>2021-08-25T04:39:51.000Z</time>
      </trkpt>
      <trkpt lat="45.20896" lon="5.73273">
        <ele>520.79998779297</ele>
        <time>2021-08-25T04:39:52.000Z</time>
      </trkpt>
      <trkpt lat="45.20897" lon="5.7327">
        <ele>522</ele>
        <time>2021-08-25T04:39:55.000Z</time>
      </trkpt>
      <trkpt lat="45.20896" lon="5.7327">
        <ele>522.79998779297</ele>
        <time>2021-08-25T04:39:57.000Z</time>
      </trkpt>
      <trkpt lat="45.20896" lon="5.7327">
        <ele>523</ele>
        <time>2021-08-25T04:39:59.000Z</time>
      </trkpt>
      <trkpt lat="45.20897" lon="5.73269">
        <ele>523.40002441406</ele>
        <time>2021-08-25T04:40:00.000Z</time>
      </trkpt>
      <trkpt lat="45.20898" lon="5.73269">
        <ele>524</ele>
        <time>2021-08-25T04:40:01.000Z</time>
      </trkpt>
      <trkpt lat="45.20898" lon="5.73269">
        <ele>524.79998779297</ele>
        <time>2021-08-25T04:40:02.000Z</time>
      </trkpt>
      <trkpt lat="45.20898" lon="5.73268">
        <ele>525.40002441406</ele>
        <time>2021-08-25T04:40:04.000Z</time>
      </trkpt>
      <trkpt lat="45.20898" lon="5.73267">
        <ele>525.40002441406</ele>
        <time>2021-08-25T04:40:05.000Z</time>
      </trkpt>
      <trkpt lat="45.20898" lon="5.73265">
        <ele>525.79998779297</ele>
        <time>2021-08-25T04:40:06.000Z</time>
      </trkpt>
      <trkpt lat="45.20899" lon="5.73264">
        <ele>526.40002441406</ele>
        <time>2021-08-25T04:40:07.000Z</time>
      </trkpt>
      <trkpt lat="45.20899" lon="5.73262">
        <ele>527.40002441406</ele>
        <time>2021-08-25T04:40:08.000Z</time>
      </trkpt>
      <trkpt lat="45.209" lon="5.73261">
        <ele>527.59997558594</ele>
        <time>2021-08-25T04:40:10.000Z</time>
      </trkpt>
      <trkpt lat="45.20901" lon="5.73259">
        <ele>528.20001220703</ele>
        <time>2021-08-25T04:40:12.000Z</time>
      </trkpt>
      <trkpt lat="45.20902" lon="5.73259">
        <ele>528.59997558594</ele>
        <time>2021-08-25T04:40:13.000Z</time>
      </trkpt>
      <trkpt lat="45.20904" lon="5.73257">
        <ele>530</ele>
        <time>2021-08-25T04:40:16.000Z</time>
      </trkpt>
      <trkpt lat="45.20905" lon="5.73256">
        <ele>530.59997558594</ele>
        <time>2021-08-25T04:40:18.000Z</time>
      </trkpt>
      <trkpt lat="45.20906" lon="5.73255">
        <ele>530.79998779297</ele>
        <time>2021-08-25T04:40:19.000Z</time>
      </trkpt>
      <trkpt lat="45.20908" lon="5.73256">
        <ele>531.59997558594</ele>
        <time>2021-08-25T04:40:21.000Z</time>
      </trkpt>
      <trkpt lat="45.20911" lon="5.73258">
        <ele>531.59997558594</ele>
        <time>2021-08-25T04:40:24.000Z</time>
      </trkpt>
      <trkpt lat="45.20914" lon="5.73261">
        <ele>530.40002441406</ele>
        <time>2021-08-25T04:40:27.000Z</time>
      </trkpt>
      <trkpt lat="45.20917" lon="5.73262">
        <ele>529.40002441406</ele>
        <time>2021-08-25T04:40:30.000Z</time>
      </trkpt>
      <trkpt lat="45.20919" lon="5.73264">
        <ele>529.20001220703</ele>
        <time>2021-08-25T04:40:32.000Z</time>
      </trkpt>
      <trkpt lat="45.20925" lon="5.73267">
        <ele>528</ele>
        <time>2021-08-25T04:40:35.000Z</time>
      </trkpt>
      <trkpt lat="45.20927" lon="5.73268">
        <ele>528</ele>
        <time>2021-08-25T04:40:36.000Z</time>
      </trkpt>
      <trkpt lat="45.20928" lon="5.73269">
        <ele>527.40002441406</ele>
        <time>2021-08-25T04:40:37.000Z</time>
      </trkpt>
      <trkpt lat="45.20932" lon="5.73272">
        <ele>526.79998779297</ele>
        <time>2021-08-25T04:40:39.000Z</time>
      </trkpt>
      <trkpt lat="45.20936" lon="5.73275">
        <ele>526.20001220703</ele>
        <time>2021-08-25T04:40:41.000Z</time>
      </trkpt>
      <trkpt lat="45.20938" lon="5.73278">
        <ele>525.59997558594</ele>
        <time>2021-08-25T04:40:43.000Z</time>
      </trkpt>
      <trkpt lat="45.20942" lon="5.73281">
        <ele>525</ele>
        <time>2021-08-25T04:40:46.000Z</time>
      </trkpt>
      <trkpt lat="45.20944" lon="5.73281">
        <ele>524.79998779297</ele>
        <time>2021-08-25T04:40:47.000Z</time>
      </trkpt>
      <trkpt lat="45.20947" lon="5.73281">
        <ele>524.20001220703</ele>
        <time>2021-08-25T04:40:48.000Z</time>
      </trkpt>
      <trkpt lat="45.20954" lon="5.73281">
        <ele>523</ele>
        <time>2021-08-25T04:40:52.000Z</time>
      </trkpt>
      <trkpt lat="45.20962" lon="5.73284">
        <ele>521.79998779297</ele>
        <time>2021-08-25T04:40:56.000Z</time>
      </trkpt>
      <trkpt lat="45.20965" lon="5.73285">
        <ele>521.20001220703</ele>
        <time>2021-08-25T04:40:58.000Z</time>
      </trkpt>
      <trkpt lat="45.20967" lon="5.73286">
        <ele>520.59997558594</ele>
        <time>2021-08-25T04:41:00.000Z</time>
      </trkpt>
      <trkpt lat="45.20968" lon="5.73289">
        <ele>519.59997558594</ele>
        <time>2021-08-25T04:41:02.000Z</time>
      </trkpt>
      <trkpt lat="45.2097" lon="5.73291">
        <ele>519.40002441406</ele>
        <time>2021-08-25T04:41:04.000Z</time>
      </trkpt>
      <trkpt lat="45.20973" lon="5.73292">
        <ele>519</ele>
        <time>2021-08-25T04:41:06.000Z</time>
      </trkpt>
      <trkpt lat="45.20975" lon="5.73293">
        <ele>518.59997558594</ele>
        <time>2021-08-25T04:41:08.000Z</time>
      </trkpt>
      <trkpt lat="45.20978" lon="5.73296">
        <ele>517.59997558594</ele>
        <time>2021-08-25T04:41:11.000Z</time>
      </trkpt>
      <trkpt lat="45.20981" lon="5.73296">
        <ele>516.79998779297</ele>
        <time>2021-08-25T04:41:13.000Z</time>
      </trkpt>
      <trkpt lat="45.20983" lon="5.73298">
        <ele>516.79998779297</ele>
        <time>2021-08-25T04:41:14.000Z</time>
      </trkpt>
      <trkpt lat="45.20983" lon="5.73299">
        <ele>516.40002441406</ele>
        <time>2021-08-25T04:41:16.000Z</time>
      </trkpt>
      <trkpt lat="45.2098" lon="5.733">
        <ele>515.40002441406</ele>
        <time>2021-08-25T04:41:18.000Z</time>
      </trkpt>
      <trkpt lat="45.20973" lon="5.73301">
        <ele>514.20001220703</ele>
        <time>2021-08-25T04:41:23.000Z</time>
      </trkpt>
      <trkpt lat="45.2097" lon="5.73302">
        <ele>513.20001220703</ele>
        <time>2021-08-25T04:41:26.000Z</time>
      </trkpt>
      <trkpt lat="45.20964" lon="5.73301">
        <ele>511.79998779297</ele>
        <time>2021-08-25T04:41:30.000Z</time>
      </trkpt>
      <trkpt lat="45.20963" lon="5.73302">
        <ele>511.79998779297</ele>
        <time>2021-08-25T04:41:31.000Z</time>
      </trkpt>
      <trkpt lat="45.20958" lon="5.73306">
        <ele>511</ele>
        <time>2021-08-25T04:41:34.000Z</time>
      </trkpt>
      <trkpt lat="45.20957" lon="5.73307">
        <ele>510.39999389648</ele>
        <time>2021-08-25T04:41:35.000Z</time>
      </trkpt>
      <trkpt lat="45.20955" lon="5.73308">
        <ele>510.20001220703</ele>
        <time>2021-08-25T04:41:36.000Z</time>
      </trkpt>
      <trkpt lat="45.20951" lon="5.73309">
        <ele>509.39999389648</ele>
        <time>2021-08-25T04:41:39.000Z</time>
      </trkpt>
      <trkpt lat="45.20949" lon="5.73309">
        <ele>509.20001220703</ele>
        <time>2021-08-25T04:41:40.000Z</time>
      </trkpt>
      <trkpt lat="45.20941" lon="5.73308">
        <ele>507.60000610352</ele>
        <time>2021-08-25T04:41:44.000Z</time>
      </trkpt>
      <trkpt lat="45.20936" lon="5.73307">
        <ele>506.79998779297</ele>
        <time>2021-08-25T04:41:46.000Z</time>
      </trkpt>
      <trkpt lat="45.20932" lon="5.73307">
        <ele>506</ele>
        <time>2021-08-25T04:41:48.000Z</time>
      </trkpt>
      <trkpt lat="45.20926" lon="5.73303">
        <ele>505</ele>
        <time>2021-08-25T04:41:51.000Z</time>
      </trkpt>
      <trkpt lat="45.20924" lon="5.73303">
        <ele>505</ele>
        <time>2021-08-25T04:41:52.000Z</time>
      </trkpt>
      <trkpt lat="45.20921" lon="5.73302">
        <ele>504.79998779297</ele>
        <time>2021-08-25T04:41:53.000Z</time>
      </trkpt>
      <trkpt lat="45.2092" lon="5.73301">
        <ele>503.79998779297</ele>
        <time>2021-08-25T04:41:54.000Z</time>
      </trkpt>
      <trkpt lat="45.20918" lon="5.73301">
        <ele>503.39999389648</ele>
        <time>2021-08-25T04:41:56.000Z</time>
      </trkpt>
      <trkpt lat="45.20909" lon="5.73303">
        <ele>502.20001220703</ele>
        <time>2021-08-25T04:42:00.000Z</time>
      </trkpt>
      <trkpt lat="45.20898" lon="5.73309">
        <ele>501</ele>
        <time>2021-08-25T04:42:04.000Z</time>
      </trkpt>
      <trkpt lat="45.20889" lon="5.73312">
        <ele>499.60000610352</ele>
        <time>2021-08-25T04:42:09.000Z</time>
      </trkpt>
      <trkpt lat="45.20885" lon="5.73313">
        <ele>499</ele>
        <time>2021-08-25T04:42:11.000Z</time>
      </trkpt>
      <trkpt lat="45.20883" lon="5.73313">
        <ele>498.60000610352</ele>
        <time>2021-08-25T04:42:12.000Z</time>
      </trkpt>
      <trkpt lat="45.20881" lon="5.73311">
        <ele>498.39999389648</ele>
        <time>2021-08-25T04:42:13.000Z</time>
      </trkpt>
      <trkpt lat="45.20875" lon="5.73311">
        <ele>497.60000610352</ele>
        <time>2021-08-25T04:42:16.000Z</time>
      </trkpt>
      <trkpt lat="45.20872" lon="5.73311">
        <ele>497</ele>
        <time>2021-08-25T04:42:18.000Z</time>
      </trkpt>
      <trkpt lat="45.20868" lon="5.73311">
        <ele>496.20001220703</ele>
        <time>2021-08-25T04:42:20.000Z</time>
      </trkpt>
      <trkpt lat="45.20866" lon="5.73311">
        <ele>495.79998779297</ele>
        <time>2021-08-25T04:42:21.000Z</time>
      </trkpt>
      <trkpt lat="45.20865" lon="5.73311">
        <ele>495.60000610352</ele>
        <time>2021-08-25T04:42:22.000Z</time>
      </trkpt>
      <trkpt lat="45.20863" lon="5.73309">
        <ele>494.79998779297</ele>
        <time>2021-08-25T04:42:24.000Z</time>
      </trkpt>
      <trkpt lat="45.20861" lon="5.73309">
        <ele>494.39999389648</ele>
        <time>2021-08-25T04:42:25.000Z</time>
      </trkpt>
      <trkpt lat="45.20859" lon="5.73308">
        <ele>493.79998779297</ele>
        <time>2021-08-25T04:42:27.000Z</time>
      </trkpt>
      <trkpt lat="45.20858" lon="5.73307">
        <ele>493</ele>
        <time>2021-08-25T04:42:29.000Z</time>
      </trkpt>
      <trkpt lat="45.20857" lon="5.73309">
        <ele>492.79998779297</ele>
        <time>2021-08-25T04:42:31.000Z</time>
      </trkpt>
      <trkpt lat="45.20858" lon="5.73312">
        <ele>492</ele>
        <time>2021-08-25T04:42:33.000Z</time>
      </trkpt>
      <trkpt lat="45.20858" lon="5.73315">
        <ele>491.79998779297</ele>
        <time>2021-08-25T04:42:35.000Z</time>
      </trkpt>
      <trkpt lat="45.20859" lon="5.73318">
        <ele>490.79998779297</ele>
        <time>2021-08-25T04:42:37.000Z</time>
      </trkpt>
      <trkpt lat="45.20859" lon="5.73321">
        <ele>490</ele>
        <time>2021-08-25T04:42:39.000Z</time>
      </trkpt>
      <trkpt lat="45.2086" lon="5.73323">
        <ele>489.39999389648</ele>
        <time>2021-08-25T04:42:41.000Z</time>
      </trkpt>
      <trkpt lat="45.2086" lon="5.73325">
        <ele>489.20001220703</ele>
        <time>2021-08-25T04:42:42.000Z</time>
      </trkpt>
      <trkpt lat="45.20861" lon="5.73328">
        <ele>488.20001220703</ele>
        <time>2021-08-25T04:42:44.000Z</time>
      </trkpt>
      <trkpt lat="45.20861" lon="5.7333">
        <ele>487.79998779297</ele>
        <time>2021-08-25T04:42:46.000Z</time>
      </trkpt>
      <trkpt lat="45.20862" lon="5.7333">
        <ele>487.60000610352</ele>
        <time>2021-08-25T04:42:47.000Z</time>
      </trkpt>
      <trkpt lat="45.20863" lon="5.7333">
        <ele>487.20001220703</ele>
        <time>2021-08-25T04:42:48.000Z</time>
      </trkpt>
      <trkpt lat="45.20865" lon="5.7333">
        <ele>486.39999389648</ele>
        <time>2021-08-25T04:42:50.000Z</time>
      </trkpt>
      <trkpt lat="45.20865" lon="5.73329">
        <ele>486.39999389648</ele>
        <time>2021-08-25T04:42:51.000Z</time>
      </trkpt>
      <trkpt lat="45.20867" lon="5.73329">
        <ele>485.20001220703</ele>
        <time>2021-08-25T04:42:53.000Z</time>
      </trkpt>
      <trkpt lat="45.20869" lon="5.7333">
        <ele>484</ele>
        <time>2021-08-25T04:42:56.000Z</time>
      </trkpt>
      <trkpt lat="45.20871" lon="5.73331">
        <ele>482.79998779297</ele>
        <time>2021-08-25T04:42:58.000Z</time>
      </trkpt>
      <trkpt lat="45.20873" lon="5.73331">
        <ele>482.20001220703</ele>
        <time>2021-08-25T04:43:01.000Z</time>
      </trkpt>
      <trkpt lat="45.20876" lon="5.73331">
        <ele>481.39999389648</ele>
        <time>2021-08-25T04:43:03.000Z</time>
      </trkpt>
      <trkpt lat="45.2088" lon="5.73332">
        <ele>479.60000610352</ele>
        <time>2021-08-25T04:43:08.000Z</time>
      </trkpt>
      <trkpt lat="45.20881" lon="5.73334">
        <ele>479.20001220703</ele>
        <time>2021-08-25T04:43:09.000Z</time>
      </trkpt>
      <trkpt lat="45.20883" lon="5.73334">
        <ele>478.20001220703</ele>
        <time>2021-08-25T04:43:12.000Z</time>
      </trkpt>
      <trkpt lat="45.20885" lon="5.73334">
        <ele>477.39999389648</ele>
        <time>2021-08-25T04:43:14.000Z</time>
      </trkpt>
      <trkpt lat="45.20886" lon="5.73335">
        <ele>476.79998779297</ele>
        <time>2021-08-25T04:43:15.000Z</time>
      </trkpt>
      <trkpt lat="45.20889" lon="5.73336">
        <ele>476.39999389648</ele>
        <time>2021-08-25T04:43:17.000Z</time>
      </trkpt>
      <trkpt lat="45.20892" lon="5.73337">
        <ele>475.60000610352</ele>
        <time>2021-08-25T04:43:19.000Z</time>
      </trkpt>
      <trkpt lat="45.20893" lon="5.73337">
        <ele>475.20001220703</ele>
        <time>2021-08-25T04:43:20.000Z</time>
      </trkpt>
      <trkpt lat="45.20896" lon="5.73338">
        <ele>474</ele>
        <time>2021-08-25T04:43:22.000Z</time>
      </trkpt>
      <trkpt lat="45.20899" lon="5.73341">
        <ele>472.60000610352</ele>
        <time>2021-08-25T04:43:25.000Z</time>
      </trkpt>
      <trkpt lat="45.20901" lon="5.73343">
        <ele>472.39999389648</ele>
        <time>2021-08-25T04:43:27.000Z</time>
      </trkpt>
      <trkpt lat="45.20904" lon="5.73344">
        <ele>471.39999389648</ele>
        <time>2021-08-25T04:43:30.000Z</time>
      </trkpt>
      <trkpt lat="45.20904" lon="5.73345">
        <ele>470.20001220703</ele>
        <time>2021-08-25T04:43:31.000Z</time>
      </trkpt>
      <trkpt lat="45.20905" lon="5.73346">
        <ele>470</ele>
        <time>2021-08-25T04:43:32.000Z</time>
      </trkpt>
      <trkpt lat="45.20907" lon="5.73348">
        <ele>468.79998779297</ele>
        <time>2021-08-25T04:43:34.000Z</time>
      </trkpt>
      <trkpt lat="45.20911" lon="5.73353">
        <ele>467.39999389648</ele>
        <time>2021-08-25T04:43:37.000Z</time>
      </trkpt>
      <trkpt lat="45.20914" lon="5.73359">
        <ele>466</ele>
        <time>2021-08-25T04:43:41.000Z</time>
      </trkpt>
      <trkpt lat="45.20915" lon="5.7336">
        <ele>465.60000610352</ele>
        <time>2021-08-25T04:43:42.000Z</time>
      </trkpt>
      <trkpt lat="45.20916" lon="5.73361">
        <ele>465</ele>
        <time>2021-08-25T04:43:43.000Z</time>
      </trkpt>
      <trkpt lat="45.20918" lon="5.73364">
        <ele>464.20001220703</ele>
        <time>2021-08-25T04:43:45.000Z</time>
      </trkpt>
      <trkpt lat="45.20919" lon="5.73366">
        <ele>463.20001220703</ele>
        <time>2021-08-25T04:43:46.000Z</time>
      </trkpt>
      <trkpt lat="45.2092" lon="5.73367">
        <ele>462.60000610352</ele>
        <time>2021-08-25T04:43:47.000Z</time>
      </trkpt>
      <trkpt lat="45.20921" lon="5.73369">
        <ele>462.60000610352</ele>
        <time>2021-08-25T04:43:48.000Z</time>
      </trkpt>
      <trkpt lat="45.20922" lon="5.73372">
        <ele>461.20001220703</ele>
        <time>2021-08-25T04:43:51.000Z</time>
      </trkpt>
      <trkpt lat="45.20923" lon="5.73374">
        <ele>461</ele>
        <time>2021-08-25T04:43:52.000Z</time>
      </trkpt>
      <trkpt lat="45.20925" lon="5.73375">
        <ele>460.20001220703</ele>
        <time>2021-08-25T04:43:53.000Z</time>
      </trkpt>
      <trkpt lat="45.2093" lon="5.73381">
        <ele>459</ele>
        <time>2021-08-25T04:43:56.000Z</time>
      </trkpt>
      <trkpt lat="45.2094" lon="5.73387">
        <ele>458.79998779297</ele>
        <time>2021-08-25T04:44:00.000Z</time>
      </trkpt>
      <trkpt lat="45.20948" lon="5.73389">
        <ele>459.79998779297</ele>
        <time>2021-08-25T04:44:05.000Z</time>
      </trkpt>
      <trkpt lat="45.20949" lon="5.73391">
        <ele>459.39999389648</ele>
        <time>2021-08-25T04:44:07.000Z</time>
      </trkpt>
      <trkpt lat="45.20953" lon="5.73396">
        <ele>457.60000610352</ele>
        <time>2021-08-25T04:44:11.000Z</time>
      </trkpt>
      <trkpt lat="45.20954" lon="5.73398">
        <ele>457.60000610352</ele>
        <time>2021-08-25T04:44:13.000Z</time>
      </trkpt>
      <trkpt lat="45.20954" lon="5.73399">
        <ele>456.60000610352</ele>
        <time>2021-08-25T04:44:14.000Z</time>
      </trkpt>
      <trkpt lat="45.20955" lon="5.734">
        <ele>456.39999389648</ele>
        <time>2021-08-25T04:44:15.000Z</time>
      </trkpt>
      <trkpt lat="45.20955" lon="5.73403">
        <ele>455.39999389648</ele>
        <time>2021-08-25T04:44:18.000Z</time>
      </trkpt>
      <trkpt lat="45.20957" lon="5.73405">
        <ele>454</ele>
        <time>2021-08-25T04:44:22.000Z</time>
      </trkpt>
      <trkpt lat="45.20957" lon="5.73408">
        <ele>453.39999389648</ele>
        <time>2021-08-25T04:44:24.000Z</time>
      </trkpt>
      <trkpt lat="45.20958" lon="5.7341">
        <ele>452.60000610352</ele>
        <time>2021-08-25T04:44:26.000Z</time>
      </trkpt>
      <trkpt lat="45.20959" lon="5.73412">
        <ele>452.20001220703</ele>
        <time>2021-08-25T04:44:28.000Z</time>
      </trkpt>
      <trkpt lat="45.2096" lon="5.73413">
        <ele>451.79998779297</ele>
        <time>2021-08-25T04:44:29.000Z</time>
      </trkpt>
      <trkpt lat="45.2096" lon="5.73413">
        <ele>451.60000610352</ele>
        <time>2021-08-25T04:44:30.000Z</time>
      </trkpt>
      <trkpt lat="45.2096" lon="5.73414">
        <ele>451.39999389648</ele>
        <time>2021-08-25T04:44:31.000Z</time>
      </trkpt>
      <trkpt lat="45.20961" lon="5.73414">
        <ele>450.39999389648</ele>
        <time>2021-08-25T04:44:32.000Z</time>
      </trkpt>
      <trkpt lat="45.20963" lon="5.73415">
        <ele>449.20001220703</ele>
        <time>2021-08-25T04:44:35.000Z</time>
      </trkpt>
      <trkpt lat="45.20964" lon="5.73417">
        <ele>449</ele>
        <time>2021-08-25T04:44:36.000Z</time>
      </trkpt>
      <trkpt lat="45.20966" lon="5.73422">
        <ele>448.20001220703</ele>
        <time>2021-08-25T04:44:38.000Z</time>
      </trkpt>
      <trkpt lat="45.20966" lon="5.73423">
        <ele>448.20001220703</ele>
        <time>2021-08-25T04:44:39.000Z</time>
      </trkpt>
      <trkpt lat="45.20967" lon="5.73425">
        <ele>446.60000610352</ele>
        <time>2021-08-25T04:44:41.000Z</time>
      </trkpt>
      <trkpt lat="45.20969" lon="5.73425">
        <ele>446.60000610352</ele>
        <time>2021-08-25T04:44:42.000Z</time>
      </trkpt>
      <trkpt lat="45.2097" lon="5.73424">
        <ele>446.20001220703</ele>
        <time>2021-08-25T04:44:43.000Z</time>
      </trkpt>
      <trkpt lat="45.20972" lon="5.73425">
        <ele>446</ele>
        <time>2021-08-25T04:44:45.000Z</time>
      </trkpt>
      <trkpt lat="45.20973" lon="5.73426">
        <ele>445.39999389648</ele>
        <time>2021-08-25T04:44:46.000Z</time>
      </trkpt>
      <trkpt lat="45.20975" lon="5.73428">
        <ele>444</ele>
        <time>2021-08-25T04:44:49.000Z</time>
      </trkpt>
      <trkpt lat="45.20976" lon="5.73429">
        <ele>443.39999389648</ele>
        <time>2021-08-25T04:44:50.000Z</time>
      </trkpt>
      <trkpt lat="45.20977" lon="5.7343">
        <ele>443.20001220703</ele>
        <time>2021-08-25T04:44:51.000Z</time>
      </trkpt>
      <trkpt lat="45.20978" lon="5.73433">
        <ele>442.39999389648</ele>
        <time>2021-08-25T04:44:53.000Z</time>
      </trkpt>
      <trkpt lat="45.20982" lon="5.73437">
        <ele>441.20001220703</ele>
        <time>2021-08-25T04:44:56.000Z</time>
      </trkpt>
      <trkpt lat="45.20983" lon="5.73438">
        <ele>440.60000610352</ele>
        <time>2021-08-25T04:44:57.000Z</time>
      </trkpt>
      <trkpt lat="45.20984" lon="5.73438">
        <ele>439.79998779297</ele>
        <time>2021-08-25T04:44:58.000Z</time>
      </trkpt>
      <trkpt lat="45.20988" lon="5.73443">
        <ele>438.60000610352</ele>
        <time>2021-08-25T04:45:02.000Z</time>
      </trkpt>
      <trkpt lat="45.20991" lon="5.73445">
        <ele>437.60000610352</ele>
        <time>2021-08-25T04:45:05.000Z</time>
      </trkpt>
      <trkpt lat="45.20993" lon="5.73447">
        <ele>436.60000610352</ele>
        <time>2021-08-25T04:45:06.000Z</time>
      </trkpt>
      <trkpt lat="45.20998" lon="5.73453">
        <ele>435.39999389648</ele>
        <time>2021-08-25T04:45:10.000Z</time>
      </trkpt>
      <trkpt lat="45.21002" lon="5.73455">
        <ele>434</ele>
        <time>2021-08-25T04:45:14.000Z</time>
      </trkpt>
      <trkpt lat="45.21002" lon="5.73455">
        <ele>433.79998779297</ele>
        <time>2021-08-25T04:45:15.000Z</time>
      </trkpt>
      <trkpt lat="45.21005" lon="5.73454">
        <ele>432.60000610352</ele>
        <time>2021-08-25T04:45:18.000Z</time>
      </trkpt>
      <trkpt lat="45.21007" lon="5.73457">
        <ele>431.60000610352</ele>
        <time>2021-08-25T04:45:22.000Z</time>
      </trkpt>
      <trkpt lat="45.21009" lon="5.7346">
        <ele>430.60000610352</ele>
        <time>2021-08-25T04:45:24.000Z</time>
      </trkpt>
      <trkpt lat="45.21009" lon="5.73461">
        <ele>429.20001220703</ele>
        <time>2021-08-25T04:45:28.000Z</time>
      </trkpt>
      <trkpt lat="45.21009" lon="5.73462">
        <ele>428.39999389648</ele>
        <time>2021-08-25T04:45:29.000Z</time>
      </trkpt>
      <trkpt lat="45.21009" lon="5.73463">
        <ele>428.20001220703</ele>
        <time>2021-08-25T04:45:30.000Z</time>
      </trkpt>
      <trkpt lat="45.2101" lon="5.73465">
        <ele>427.39999389648</ele>
        <time>2021-08-25T04:45:32.000Z</time>
      </trkpt>
      <trkpt lat="45.21012" lon="5.73468">
        <ele>426.79998779297</ele>
        <time>2021-08-25T04:45:35.000Z</time>
      </trkpt>
      <trkpt lat="45.21012" lon="5.73469">
        <ele>425.79998779297</ele>
        <time>2021-08-25T04:45:37.000Z</time>
      </trkpt>
      <trkpt lat="45.21012" lon="5.7347">
        <ele>425.20001220703</ele>
        <time>2021-08-25T04:45:38.000Z</time>
      </trkpt>
      <trkpt lat="45.21013" lon="5.73471">
        <ele>424.20001220703</ele>
        <time>2021-08-25T04:45:41.000Z</time>
      </trkpt>
      <trkpt lat="45.21014" lon="5.73472">
        <ele>424</ele>
        <time>2021-08-25T04:45:42.000Z</time>
      </trkpt>
      <trkpt lat="45.21014" lon="5.73474">
        <ele>423.60000610352</ele>
        <time>2021-08-25T04:45:43.000Z</time>
      </trkpt>
      <trkpt lat="45.21015" lon="5.73476">
        <ele>423.20001220703</ele>
        <time>2021-08-25T04:45:44.000Z</time>
      </trkpt>
      <trkpt lat="45.21018" lon="5.73481">
        <ele>422</ele>
        <time>2021-08-25T04:45:48.000Z</time>
      </trkpt>
      <trkpt lat="45.21019" lon="5.73485">
        <ele>421</ele>
        <time>2021-08-25T04:45:52.000Z</time>
      </trkpt>
      <trkpt lat="45.21019" lon="5.73486">
        <ele>421</ele>
        <time>2021-08-25T04:45:53.000Z</time>
      </trkpt>
      <trkpt lat="45.21018" lon="5.73487">
        <ele>420</ele>
        <time>2021-08-25T04:45:54.000Z</time>
      </trkpt>
      <trkpt lat="45.21018" lon="5.73487">
        <ele>420</ele>
        <time>2021-08-25T04:45:55.000Z</time>
      </trkpt>
      <trkpt lat="45.21019" lon="5.73491">
        <ele>419.20001220703</ele>
        <time>2021-08-25T04:45:58.000Z</time>
      </trkpt>
      <trkpt lat="45.21019" lon="5.73492">
        <ele>418.39999389648</ele>
        <time>2021-08-25T04:45:59.000Z</time>
      </trkpt>
      <trkpt lat="45.21019" lon="5.73499">
        <ele>417.60000610352</ele>
        <time>2021-08-25T04:46:03.000Z</time>
      </trkpt>
      <trkpt lat="45.2102" lon="5.73499">
        <ele>416.60000610352</ele>
        <time>2021-08-25T04:46:04.000Z</time>
      </trkpt>
      <trkpt lat="45.21021" lon="5.73501">
        <ele>416</ele>
        <time>2021-08-25T04:46:06.000Z</time>
      </trkpt>
      <trkpt lat="45.2102" lon="5.73502">
        <ele>415.39999389648</ele>
        <time>2021-08-25T04:46:08.000Z</time>
      </trkpt>
      <trkpt lat="45.21019" lon="5.73502">
        <ele>415.20001220703</ele>
        <time>2021-08-25T04:46:09.000Z</time>
      </trkpt>
      <trkpt lat="45.21018" lon="5.73504">
        <ele>414.39999389648</ele>
        <time>2021-08-25T04:46:11.000Z</time>
      </trkpt>
      <trkpt lat="45.21018" lon="5.73505">
        <ele>414</ele>
        <time>2021-08-25T04:46:12.000Z</time>
      </trkpt>
      <trkpt lat="45.21018" lon="5.73508">
        <ele>413.20001220703</ele>
        <time>2021-08-25T04:46:14.000Z</time>
      </trkpt>
      <trkpt lat="45.21018" lon="5.73511">
        <ele>412</ele>
        <time>2021-08-25T04:46:17.000Z</time>
      </trkpt>
      <trkpt lat="45.21017" lon="5.73514">
        <ele>412</ele>
        <time>2021-08-25T04:46:19.000Z</time>
      </trkpt>
      <trkpt lat="45.21017" lon="5.73516">
        <ele>412</ele>
        <time>2021-08-25T04:46:20.000Z</time>
      </trkpt>
      <trkpt lat="45.21018" lon="5.73517">
        <ele>410.60000610352</ele>
        <time>2021-08-25T04:46:21.000Z</time>
      </trkpt>
      <trkpt lat="45.21018" lon="5.73522">
        <ele>409.39999389648</ele>
        <time>2021-08-25T04:46:25.000Z</time>
      </trkpt>
      <trkpt lat="45.21018" lon="5.73524">
        <ele>409</ele>
        <time>2021-08-25T04:46:26.000Z</time>
      </trkpt>
      <trkpt lat="45.21018" lon="5.73525">
        <ele>408.20001220703</ele>
        <time>2021-08-25T04:46:27.000Z</time>
      </trkpt>
      <trkpt lat="45.21014" lon="5.73526">
        <ele>407.20001220703</ele>
        <time>2021-08-25T04:46:30.000Z</time>
      </trkpt>
      <trkpt lat="45.21013" lon="5.73527">
        <ele>407.20001220703</ele>
        <time>2021-08-25T04:46:31.000Z</time>
      </trkpt>
      <trkpt lat="45.21012" lon="5.73527">
        <ele>407</ele>
        <time>2021-08-25T04:46:32.000Z</time>
      </trkpt>
      <trkpt lat="45.2101" lon="5.73528">
        <ele>406</ele>
        <time>2021-08-25T04:46:34.000Z</time>
      </trkpt>
      <trkpt lat="45.21009" lon="5.73529">
        <ele>404.60000610352</ele>
        <time>2021-08-25T04:46:37.000Z</time>
      </trkpt>
      <trkpt lat="45.21008" lon="5.73533">
        <ele>403.39999389648</ele>
        <time>2021-08-25T04:46:40.000Z</time>
      </trkpt>
      <trkpt lat="45.21008" lon="5.73538">
        <ele>402.20001220703</ele>
        <time>2021-08-25T04:46:44.000Z</time>
      </trkpt>
      <trkpt lat="45.21008" lon="5.7354">
        <ele>402</ele>
        <time>2021-08-25T04:46:45.000Z</time>
      </trkpt>
      <trkpt lat="45.21009" lon="5.7354">
        <ele>402</ele>
        <time>2021-08-25T04:46:46.000Z</time>
      </trkpt>
      <trkpt lat="45.21008" lon="5.73542">
        <ele>401.20001220703</ele>
        <time>2021-08-25T04:46:48.000Z</time>
      </trkpt>
      <trkpt lat="45.21007" lon="5.73547">
        <ele>400.60000610352</ele>
        <time>2021-08-25T04:46:50.000Z</time>
      </trkpt>
      <trkpt lat="45.21007" lon="5.73549">
        <ele>399.60000610352</ele>
        <time>2021-08-25T04:46:52.000Z</time>
      </trkpt>
      <trkpt lat="45.21005" lon="5.73553">
        <ele>398.39999389648</ele>
        <time>2021-08-25T04:46:56.000Z</time>
      </trkpt>
      <trkpt lat="45.21004" lon="5.73558">
        <ele>397.79998779297</ele>
        <time>2021-08-25T04:46:59.000Z</time>
      </trkpt>
      <trkpt lat="45.21005" lon="5.73559">
        <ele>397.20001220703</ele>
        <time>2021-08-25T04:47:00.000Z</time>
      </trkpt>
      <trkpt lat="45.21003" lon="5.73564">
        <ele>396</ele>
        <time>2021-08-25T04:47:04.000Z</time>
      </trkpt>
      <trkpt lat="45.21003" lon="5.73565">
        <ele>395</ele>
        <time>2021-08-25T04:47:05.000Z</time>
      </trkpt>
      <trkpt lat="45.21003" lon="5.73566">
        <ele>394.79998779297</ele>
        <time>2021-08-25T04:47:06.000Z</time>
      </trkpt>
      <trkpt lat="45.21002" lon="5.7357">
        <ele>393.79998779297</ele>
        <time>2021-08-25T04:47:10.000Z</time>
      </trkpt>
      <trkpt lat="45.21001" lon="5.73572">
        <ele>392.79998779297</ele>
        <time>2021-08-25T04:47:13.000Z</time>
      </trkpt>
      <trkpt lat="45.21" lon="5.73575">
        <ele>391.60000610352</ele>
        <time>2021-08-25T04:47:16.000Z</time>
      </trkpt>
      <trkpt lat="45.20999" lon="5.73578">
        <ele>390.79998779297</ele>
        <time>2021-08-25T04:47:18.000Z</time>
      </trkpt>
      <trkpt lat="45.20998" lon="5.73581">
        <ele>390</ele>
        <time>2021-08-25T04:47:20.000Z</time>
      </trkpt>
      <trkpt lat="45.20997" lon="5.73583">
        <ele>389.79998779297</ele>
        <time>2021-08-25T04:47:22.000Z</time>
      </trkpt>
      <trkpt lat="45.20998" lon="5.73586">
        <ele>388.79998779297</ele>
        <time>2021-08-25T04:47:24.000Z</time>
      </trkpt>
      <trkpt lat="45.20997" lon="5.73588">
        <ele>387.60000610352</ele>
        <time>2021-08-25T04:47:26.000Z</time>
      </trkpt>
      <trkpt lat="45.20997" lon="5.7359">
        <ele>387.20001220703</ele>
        <time>2021-08-25T04:47:28.000Z</time>
      </trkpt>
      <trkpt lat="45.20996" lon="5.73593">
        <ele>386.20001220703</ele>
        <time>2021-08-25T04:47:30.000Z</time>
      </trkpt>
      <trkpt lat="45.20995" lon="5.73597">
        <ele>385.79998779297</ele>
        <time>2021-08-25T04:47:32.000Z</time>
      </trkpt>
      <trkpt lat="45.20995" lon="5.736">
        <ele>385</ele>
        <time>2021-08-25T04:47:34.000Z</time>
      </trkpt>
      <trkpt lat="45.20995" lon="5.736">
        <ele>385</ele>
        <time>2021-08-25T04:47:35.000Z</time>
      </trkpt>
      <trkpt lat="45.20996" lon="5.73601">
        <ele>385</ele>
        <time>2021-08-25T04:47:36.000Z</time>
      </trkpt>
      <trkpt lat="45.20995" lon="5.73604">
        <ele>384</ele>
        <time>2021-08-25T04:47:38.000Z</time>
      </trkpt>
      <trkpt lat="45.20995" lon="5.73606">
        <ele>383.20001220703</ele>
        <time>2021-08-25T04:47:39.000Z</time>
      </trkpt>
      <trkpt lat="45.20993" lon="5.73608">
        <ele>382.79998779297</ele>
        <time>2021-08-25T04:47:41.000Z</time>
      </trkpt>
      <trkpt lat="45.20993" lon="5.7361">
        <ele>381.60000610352</ele>
        <time>2021-08-25T04:47:43.000Z</time>
      </trkpt>
      <trkpt lat="45.20993" lon="5.7361">
        <ele>381.60000610352</ele>
        <time>2021-08-25T04:47:44.000Z</time>
      </trkpt>
      <trkpt lat="45.20993" lon="5.73612">
        <ele>381.20001220703</ele>
        <time>2021-08-25T04:47:45.000Z</time>
      </trkpt>
      <trkpt lat="45.20992" lon="5.73614">
        <ele>380.39999389648</ele>
        <time>2021-08-25T04:47:47.000Z</time>
      </trkpt>
      <trkpt lat="45.20992" lon="5.73618">
        <ele>379.20001220703</ele>
        <time>2021-08-25T04:47:50.000Z</time>
      </trkpt>
      <trkpt lat="45.20991" lon="5.73623">
        <ele>378.20001220703</ele>
        <time>2021-08-25T04:47:52.000Z</time>
      </trkpt>
      <trkpt lat="45.20991" lon="5.73625">
        <ele>377.79998779297</ele>
        <time>2021-08-25T04:47:53.000Z</time>
      </trkpt>
      <trkpt lat="45.20991" lon="5.73628">
        <ele>376.79998779297</ele>
        <time>2021-08-25T04:47:55.000Z</time>
      </trkpt>
      <trkpt lat="45.20991" lon="5.73629">
        <ele>376.39999389648</ele>
        <time>2021-08-25T04:47:56.000Z</time>
      </trkpt>
      <trkpt lat="45.2099" lon="5.73633">
        <ele>375.39999389648</ele>
        <time>2021-08-25T04:47:59.000Z</time>
      </trkpt>
      <trkpt lat="45.20989" lon="5.73635">
        <ele>375.20001220703</ele>
        <time>2021-08-25T04:48:00.000Z</time>
      </trkpt>
      <trkpt lat="45.20989" lon="5.73637">
        <ele>375</ele>
        <time>2021-08-25T04:48:01.000Z</time>
      </trkpt>
      <trkpt lat="45.20988" lon="5.73639">
        <ele>374</ele>
        <time>2021-08-25T04:48:02.000Z</time>
      </trkpt>
      <trkpt lat="45.20987" lon="5.73643">
        <ele>373.20001220703</ele>
        <time>2021-08-25T04:48:05.000Z</time>
      </trkpt>
      <trkpt lat="45.20987" lon="5.73646">
        <ele>372.20001220703</ele>
        <time>2021-08-25T04:48:07.000Z</time>
      </trkpt>
      <trkpt lat="45.20986" lon="5.73651">
        <ele>371</ele>
        <time>2021-08-25T04:48:11.000Z</time>
      </trkpt>
      <trkpt lat="45.20984" lon="5.73655">
        <ele>369.79998779297</ele>
        <time>2021-08-25T04:48:14.000Z</time>
      </trkpt>
      <trkpt lat="45.20982" lon="5.73659">
        <ele>368.60000610352</ele>
        <time>2021-08-25T04:48:16.000Z</time>
      </trkpt>
      <trkpt lat="45.2098" lon="5.73665">
        <ele>367.20001220703</ele>
        <time>2021-08-25T04:48:20.000Z</time>
      </trkpt>
      <trkpt lat="45.20976" lon="5.7367">
        <ele>366.20001220703</ele>
        <time>2021-08-25T04:48:23.000Z</time>
      </trkpt>
      <trkpt lat="45.20974" lon="5.73673">
        <ele>365</ele>
        <time>2021-08-25T04:48:25.000Z</time>
      </trkpt>
      <trkpt lat="45.20974" lon="5.73675">
        <ele>364.79998779297</ele>
        <time>2021-08-25T04:48:26.000Z</time>
      </trkpt>
      <trkpt lat="45.20974" lon="5.73676">
        <ele>364.39999389648</ele>
        <time>2021-08-25T04:48:27.000Z</time>
      </trkpt>
      <trkpt lat="45.20972" lon="5.73678">
        <ele>363.60000610352</ele>
        <time>2021-08-25T04:48:29.000Z</time>
      </trkpt>
      <trkpt lat="45.2097" lon="5.7368">
        <ele>362.60000610352</ele>
        <time>2021-08-25T04:48:32.000Z</time>
      </trkpt>
      <trkpt lat="45.2097" lon="5.73681">
        <ele>362.39999389648</ele>
        <time>2021-08-25T04:48:33.000Z</time>
      </trkpt>
      <trkpt lat="45.2097" lon="5.73682">
        <ele>362.39999389648</ele>
        <time>2021-08-25T04:48:34.000Z</time>
      </trkpt>
      <trkpt lat="45.20969" lon="5.73683">
        <ele>361.39999389648</ele>
        <time>2021-08-25T04:48:36.000Z</time>
      </trkpt>
      <trkpt lat="45.20969" lon="5.73684">
        <ele>361.20001220703</ele>
        <time>2021-08-25T04:48:37.000Z</time>
      </trkpt>
      <trkpt lat="45.20967" lon="5.73687">
        <ele>360.39999389648</ele>
        <time>2021-08-25T04:48:39.000Z</time>
      </trkpt>
      <trkpt lat="45.20966" lon="5.73688">
        <ele>360</ele>
        <time>2021-08-25T04:48:40.000Z</time>
      </trkpt>
      <trkpt lat="45.20964" lon="5.73691">
        <ele>359.60000610352</ele>
        <time>2021-08-25T04:48:42.000Z</time>
      </trkpt>
      <trkpt lat="45.20963" lon="5.73693">
        <ele>358.60000610352</ele>
        <time>2021-08-25T04:48:43.000Z</time>
      </trkpt>
      <trkpt lat="45.20959" lon="5.73694">
        <ele>358</ele>
        <time>2021-08-25T04:48:46.000Z</time>
      </trkpt>
      <trkpt lat="45.2096" lon="5.73694">
        <ele>357.79998779297</ele>
        <time>2021-08-25T04:48:48.000Z</time>
      </trkpt>
      <trkpt lat="45.2096" lon="5.73692">
        <ele>357.60000610352</ele>
        <time>2021-08-25T04:48:51.000Z</time>
      </trkpt>
      <trkpt lat="45.2096" lon="5.73693">
        <ele>357.60000610352</ele>
        <time>2021-08-25T04:48:54.000Z</time>
      </trkpt>
      <trkpt lat="45.20959" lon="5.73692">
        <ele>357.79998779297</ele>
        <time>2021-08-25T04:48:58.000Z</time>
      </trkpt>
      <trkpt lat="45.20959" lon="5.73693">
        <ele>357.79998779297</ele>
        <time>2021-08-25T04:49:00.000Z</time>
      </trkpt>
      <trkpt lat="45.20959" lon="5.73693">
        <ele>357.79998779297</ele>
        <time>2021-08-25T04:49:01.000Z</time>
      </trkpt>
      <trkpt lat="45.2096" lon="5.73692">
        <ele>357.20001220703</ele>
        <time>2021-08-25T04:49:11.000Z</time>
      </trkpt>
      <trkpt lat="45.20958" lon="5.73694">
        <ele>356.39999389648</ele>
        <time>2021-08-25T04:49:13.000Z</time>
      </trkpt>
      <trkpt lat="45.20953" lon="5.73697">
        <ele>355.39999389648</ele>
        <time>2021-08-25T04:49:16.000Z</time>
      </trkpt>
      <trkpt lat="45.20951" lon="5.73698">
        <ele>355.39999389648</ele>
        <time>2021-08-25T04:49:17.000Z</time>
      </trkpt>
      <trkpt lat="45.2095" lon="5.737">
        <ele>354.60000610352</ele>
        <time>2021-08-25T04:49:18.000Z</time>
      </trkpt>
      <trkpt lat="45.2095" lon="5.73702">
        <ele>354.39999389648</ele>
        <time>2021-08-25T04:49:21.000Z</time>
      </trkpt>
      <trkpt lat="45.20952" lon="5.73702">
        <ele>354.39999389648</ele>
        <time>2021-08-25T04:49:22.000Z</time>
      </trkpt>
      <trkpt lat="45.20954" lon="5.737">
        <ele>354.39999389648</ele>
        <time>2021-08-25T04:49:24.000Z</time>
      </trkpt>
      <trkpt lat="45.20955" lon="5.73697">
        <ele>355.60000610352</ele>
        <time>2021-08-25T04:49:27.000Z</time>
      </trkpt>
      <trkpt lat="45.20955" lon="5.73696">
        <ele>356</ele>
        <time>2021-08-25T04:49:28.000Z</time>
      </trkpt>
      <trkpt lat="45.20958" lon="5.73695">
        <ele>357.60000610352</ele>
        <time>2021-08-25T04:49:31.000Z</time>
      </trkpt>
      <trkpt lat="45.2096" lon="5.73692">
        <ele>358</ele>
        <time>2021-08-25T04:49:33.000Z</time>
      </trkpt>
      <trkpt lat="45.20961" lon="5.73691">
        <ele>358</ele>
        <time>2021-08-25T04:49:34.000Z</time>
      </trkpt>
      <trkpt lat="45.20962" lon="5.7369">
        <ele>359.20001220703</ele>
        <time>2021-08-25T04:49:37.000Z</time>
      </trkpt>
      <trkpt lat="45.20962" lon="5.73688">
        <ele>359.39999389648</ele>
        <time>2021-08-25T04:49:39.000Z</time>
      </trkpt>
      <trkpt lat="45.20962" lon="5.73688">
        <ele>360.60000610352</ele>
        <time>2021-08-25T04:49:40.000Z</time>
      </trkpt>
      <trkpt lat="45.20961" lon="5.73686">
        <ele>361.20001220703</ele>
        <time>2021-08-25T04:49:42.000Z</time>
      </trkpt>
      <trkpt lat="45.20962" lon="5.73684">
        <ele>362</ele>
        <time>2021-08-25T04:49:44.000Z</time>
      </trkpt>
      <trkpt lat="45.20963" lon="5.73682">
        <ele>362.39999389648</ele>
        <time>2021-08-25T04:49:46.000Z</time>
      </trkpt>
      <trkpt lat="45.20964" lon="5.73682">
        <ele>362.39999389648</ele>
        <time>2021-08-25T04:49:47.000Z</time>
      </trkpt>
      <trkpt lat="45.20965" lon="5.73679">
        <ele>363.39999389648</ele>
        <time>2021-08-25T04:49:49.000Z</time>
      </trkpt>
      <trkpt lat="45.20967" lon="5.73673">
        <ele>364.20001220703</ele>
        <time>2021-08-25T04:49:52.000Z</time>
      </trkpt>
      <trkpt lat="45.20968" lon="5.73671">
        <ele>364.60000610352</ele>
        <time>2021-08-25T04:49:54.000Z</time>
      </trkpt>
      <trkpt lat="45.20968" lon="5.7367">
        <ele>365.20001220703</ele>
        <time>2021-08-25T04:49:55.000Z</time>
      </trkpt>
      <trkpt lat="45.2097" lon="5.73668">
        <ele>365.79998779297</ele>
        <time>2021-08-25T04:49:58.000Z</time>
      </trkpt>
      <trkpt lat="45.20971" lon="5.73667">
        <ele>366</ele>
        <time>2021-08-25T04:49:59.000Z</time>
      </trkpt>
      <trkpt lat="45.20971" lon="5.73666">
        <ele>366.20001220703</ele>
        <time>2021-08-25T04:50:00.000Z</time>
      </trkpt>
      <trkpt lat="45.20972" lon="5.73666">
        <ele>366.79998779297</ele>
        <time>2021-08-25T04:50:01.000Z</time>
      </trkpt>
      <trkpt lat="45.20973" lon="5.73663">
        <ele>367.79998779297</ele>
        <time>2021-08-25T04:50:04.000Z</time>
      </trkpt>
      <trkpt lat="45.20974" lon="5.73662">
        <ele>367.79998779297</ele>
        <time>2021-08-25T04:50:05.000Z</time>
      </trkpt>
      <trkpt lat="45.20974" lon="5.7366">
        <ele>367.79998779297</ele>
        <time>2021-08-25T04:50:06.000Z</time>
      </trkpt>
      <trkpt lat="45.20975" lon="5.73659">
        <ele>368.39999389648</ele>
        <time>2021-08-25T04:50:07.000Z</time>
      </trkpt>
      <trkpt lat="45.20977" lon="5.73658">
        <ele>369.20001220703</ele>
        <time>2021-08-25T04:50:09.000Z</time>
      </trkpt>
      <trkpt lat="45.20978" lon="5.73655">
        <ele>369.60000610352</ele>
        <time>2021-08-25T04:50:10.000Z</time>
      </trkpt>
      <trkpt lat="45.20979" lon="5.7365">
        <ele>370</ele>
        <time>2021-08-25T04:50:13.000Z</time>
      </trkpt>
      <trkpt lat="45.2098" lon="5.73648">
        <ele>371.20001220703</ele>
        <time>2021-08-25T04:50:15.000Z</time>
      </trkpt>
      <trkpt lat="45.20982" lon="5.73643">
        <ele>372.20001220703</ele>
        <time>2021-08-25T04:50:20.000Z</time>
      </trkpt>
      <trkpt lat="45.20983" lon="5.73641">
        <ele>373.39999389648</ele>
        <time>2021-08-25T04:50:22.000Z</time>
      </trkpt>
      <trkpt lat="45.20983" lon="5.7364">
        <ele>373.60000610352</ele>
        <time>2021-08-25T04:50:23.000Z</time>
      </trkpt>
      <trkpt lat="45.20982" lon="5.73639">
        <ele>373.79998779297</ele>
        <time>2021-08-25T04:50:24.000Z</time>
      </trkpt>
      <trkpt lat="45.20983" lon="5.73635">
        <ele>374.39999389648</ele>
        <time>2021-08-25T04:50:27.000Z</time>
      </trkpt>
      <trkpt lat="45.20983" lon="5.73635">
        <ele>374.79998779297</ele>
        <time>2021-08-25T04:50:28.000Z</time>
      </trkpt>
      <trkpt lat="45.20983" lon="5.73633">
        <ele>375</ele>
        <time>2021-08-25T04:50:29.000Z</time>
      </trkpt>
      <trkpt lat="45.20983" lon="5.73632">
        <ele>375.60000610352</ele>
        <time>2021-08-25T04:50:30.000Z</time>
      </trkpt>
      <trkpt lat="45.20983" lon="5.73632">
        <ele>375.79998779297</ele>
        <time>2021-08-25T04:50:31.000Z</time>
      </trkpt>
      <trkpt lat="45.20982" lon="5.73629">
        <ele>376.20001220703</ele>
        <time>2021-08-25T04:50:34.000Z</time>
      </trkpt>
      <trkpt lat="45.20982" lon="5.73628">
        <ele>376.79998779297</ele>
        <time>2021-08-25T04:50:36.000Z</time>
      </trkpt>
      <trkpt lat="45.20982" lon="5.73627">
        <ele>377.79998779297</ele>
        <time>2021-08-25T04:50:38.000Z</time>
      </trkpt>
      <trkpt lat="45.20982" lon="5.73626">
        <ele>378</ele>
        <time>2021-08-25T04:50:39.000Z</time>
      </trkpt>
      <trkpt lat="45.20982" lon="5.73624">
        <ele>378.60000610352</ele>
        <time>2021-08-25T04:50:41.000Z</time>
      </trkpt>
      <trkpt lat="45.20983" lon="5.73623">
        <ele>378.79998779297</ele>
        <time>2021-08-25T04:50:42.000Z</time>
      </trkpt>
      <trkpt lat="45.20983" lon="5.7362">
        <ele>378.79998779297</ele>
        <time>2021-08-25T04:50:43.000Z</time>
      </trkpt>
      <trkpt lat="45.20984" lon="5.73619">
        <ele>379</ele>
        <time>2021-08-25T04:50:44.000Z</time>
      </trkpt>
      <trkpt lat="45.20983" lon="5.73617">
        <ele>379.39999389648</ele>
        <time>2021-08-25T04:50:45.000Z</time>
      </trkpt>
      <trkpt lat="45.20983" lon="5.73617">
        <ele>380</ele>
        <time>2021-08-25T04:50:46.000Z</time>
      </trkpt>
      <trkpt lat="45.20983" lon="5.73616">
        <ele>380.39999389648</ele>
        <time>2021-08-25T04:50:47.000Z</time>
      </trkpt>
      <trkpt lat="45.20984" lon="5.73615">
        <ele>380.60000610352</ele>
        <time>2021-08-25T04:50:49.000Z</time>
      </trkpt>
      <trkpt lat="45.20985" lon="5.73611">
        <ele>381.39999389648</ele>
        <time>2021-08-25T04:50:53.000Z</time>
      </trkpt>
      <trkpt lat="45.20986" lon="5.73608">
        <ele>382.60000610352</ele>
        <time>2021-08-25T04:50:56.000Z</time>
      </trkpt>
      <trkpt lat="45.20986" lon="5.73607">
        <ele>383</ele>
        <time>2021-08-25T04:50:57.000Z</time>
      </trkpt>
      <trkpt lat="45.20988" lon="5.73603">
        <ele>383.79998779297</ele>
        <time>2021-08-25T04:51:00.000Z</time>
      </trkpt>
      <trkpt lat="45.20989" lon="5.73601">
        <ele>384.20001220703</ele>
        <time>2021-08-25T04:51:03.000Z</time>
      </trkpt>
      <trkpt lat="45.20989" lon="5.736">
        <ele>385</ele>
        <time>2021-08-25T04:51:04.000Z</time>
      </trkpt>
      <trkpt lat="45.20991" lon="5.73592">
        <ele>386.20001220703</ele>
        <time>2021-08-25T04:51:09.000Z</time>
      </trkpt>
      <trkpt lat="45.20991" lon="5.73591">
        <ele>386.79998779297</ele>
        <time>2021-08-25T04:51:10.000Z</time>
      </trkpt>
      <trkpt lat="45.20991" lon="5.7359">
        <ele>387.20001220703</ele>
        <time>2021-08-25T04:51:11.000Z</time>
      </trkpt>
      <trkpt lat="45.20991" lon="5.73585">
        <ele>388.39999389648</ele>
        <time>2021-08-25T04:51:15.000Z</time>
      </trkpt>
      <trkpt lat="45.20992" lon="5.73582">
        <ele>389.60000610352</ele>
        <time>2021-08-25T04:51:18.000Z</time>
      </trkpt>
      <trkpt lat="45.20993" lon="5.73577">
        <ele>390.60000610352</ele>
        <time>2021-08-25T04:51:23.000Z</time>
      </trkpt>
      <trkpt lat="45.20993" lon="5.73576">
        <ele>391</ele>
        <time>2021-08-25T04:51:24.000Z</time>
      </trkpt>
      <trkpt lat="45.20993" lon="5.73575">
        <ele>392</ele>
        <time>2021-08-25T04:51:26.000Z</time>
      </trkpt>
      <trkpt lat="45.20993" lon="5.73574">
        <ele>392.20001220703</ele>
        <time>2021-08-25T04:51:27.000Z</time>
      </trkpt>
      <trkpt lat="45.20994" lon="5.73572">
        <ele>393</ele>
        <time>2021-08-25T04:51:30.000Z</time>
      </trkpt>
      <trkpt lat="45.20996" lon="5.73566">
        <ele>394.39999389648</ele>
        <time>2021-08-25T04:51:35.000Z</time>
      </trkpt>
      <trkpt lat="45.20996" lon="5.73564">
        <ele>395.39999389648</ele>
        <time>2021-08-25T04:51:38.000Z</time>
      </trkpt>
      <trkpt lat="45.20998" lon="5.73558">
        <ele>397</ele>
        <time>2021-08-25T04:51:43.000Z</time>
      </trkpt>
      <trkpt lat="45.21" lon="5.73556">
        <ele>398</ele>
        <time>2021-08-25T04:51:46.000Z</time>
      </trkpt>
      <trkpt lat="45.21" lon="5.7355">
        <ele>399.60000610352</ele>
        <time>2021-08-25T04:51:51.000Z</time>
      </trkpt>
      <trkpt lat="45.21" lon="5.73546">
        <ele>400.60000610352</ele>
        <time>2021-08-25T04:51:54.000Z</time>
      </trkpt>
      <trkpt lat="45.21" lon="5.73545">
        <ele>400.60000610352</ele>
        <time>2021-08-25T04:51:55.000Z</time>
      </trkpt>
      <trkpt lat="45.21001" lon="5.73541">
        <ele>401.60000610352</ele>
        <time>2021-08-25T04:51:59.000Z</time>
      </trkpt>
      <trkpt lat="45.21002" lon="5.73538">
        <ele>402.60000610352</ele>
        <time>2021-08-25T04:52:01.000Z</time>
      </trkpt>
      <trkpt lat="45.21002" lon="5.73537">
        <ele>403</ele>
        <time>2021-08-25T04:52:02.000Z</time>
      </trkpt>
      <trkpt lat="45.21004" lon="5.73532">
        <ele>404.39999389648</ele>
        <time>2021-08-25T04:52:08.000Z</time>
      </trkpt>
      <trkpt lat="45.21005" lon="5.73531">
        <ele>405</ele>
        <time>2021-08-25T04:52:09.000Z</time>
      </trkpt>
      <trkpt lat="45.21007" lon="5.73528">
        <ele>405.60000610352</ele>
        <time>2021-08-25T04:52:12.000Z</time>
      </trkpt>
      <trkpt lat="45.21008" lon="5.73528">
        <ele>405.79998779297</ele>
        <time>2021-08-25T04:52:13.000Z</time>
      </trkpt>
      <trkpt lat="45.2101" lon="5.73527">
        <ele>406.60000610352</ele>
        <time>2021-08-25T04:52:15.000Z</time>
      </trkpt>
      <trkpt lat="45.2101" lon="5.73526">
        <ele>407.39999389648</ele>
        <time>2021-08-25T04:52:17.000Z</time>
      </trkpt>
      <trkpt lat="45.2101" lon="5.73525">
        <ele>407.60000610352</ele>
        <time>2021-08-25T04:52:18.000Z</time>
      </trkpt>
      <trkpt lat="45.21011" lon="5.73524">
        <ele>408</ele>
        <time>2021-08-25T04:52:19.000Z</time>
      </trkpt>
      <trkpt lat="45.21011" lon="5.73523">
        <ele>408</ele>
        <time>2021-08-25T04:52:20.000Z</time>
      </trkpt>
      <trkpt lat="45.21012" lon="5.7352">
        <ele>408.60000610352</ele>
        <time>2021-08-25T04:52:22.000Z</time>
      </trkpt>
      <trkpt lat="45.21013" lon="5.73519">
        <ele>408.60000610352</ele>
        <time>2021-08-25T04:52:24.000Z</time>
      </trkpt>
      <trkpt lat="45.21013" lon="5.73517">
        <ele>409.20001220703</ele>
        <time>2021-08-25T04:52:25.000Z</time>
      </trkpt>
      <trkpt lat="45.21013" lon="5.73514">
        <ele>409.79998779297</ele>
        <time>2021-08-25T04:52:27.000Z</time>
      </trkpt>
      <trkpt lat="45.21012" lon="5.73514">
        <ele>410.60000610352</ele>
        <time>2021-08-25T04:52:29.000Z</time>
      </trkpt>
      <trkpt lat="45.21012" lon="5.73513">
        <ele>410.79998779297</ele>
        <time>2021-08-25T04:52:30.000Z</time>
      </trkpt>
      <trkpt lat="45.21013" lon="5.73511">
        <ele>411.20001220703</ele>
        <time>2021-08-25T04:52:32.000Z</time>
      </trkpt>
      <trkpt lat="45.21014" lon="5.73506">
        <ele>411.79998779297</ele>
        <time>2021-08-25T04:52:35.000Z</time>
      </trkpt>
      <trkpt lat="45.21014" lon="5.73505">
        <ele>412.60000610352</ele>
        <time>2021-08-25T04:52:37.000Z</time>
      </trkpt>
      <trkpt lat="45.21013" lon="5.73504">
        <ele>413.20001220703</ele>
        <time>2021-08-25T04:52:39.000Z</time>
      </trkpt>
      <trkpt lat="45.21013" lon="5.73503">
        <ele>413.39999389648</ele>
        <time>2021-08-25T04:52:40.000Z</time>
      </trkpt>
      <trkpt lat="45.21013" lon="5.735">
        <ele>414.20001220703</ele>
        <time>2021-08-25T04:52:43.000Z</time>
      </trkpt>
      <trkpt lat="45.21015" lon="5.73499">
        <ele>414.20001220703</ele>
        <time>2021-08-25T04:52:44.000Z</time>
      </trkpt>
      <trkpt lat="45.21015" lon="5.73498">
        <ele>414.20001220703</ele>
        <time>2021-08-25T04:52:45.000Z</time>
      </trkpt>
      <trkpt lat="45.21014" lon="5.73495">
        <ele>414.79998779297</ele>
        <time>2021-08-25T04:52:46.000Z</time>
      </trkpt>
      <trkpt lat="45.21013" lon="5.73493">
        <ele>415.60000610352</ele>
        <time>2021-08-25T04:52:49.000Z</time>
      </trkpt>
      <trkpt lat="45.21013" lon="5.73493">
        <ele>416.20001220703</ele>
        <time>2021-08-25T04:52:50.000Z</time>
      </trkpt>
      <trkpt lat="45.21014" lon="5.73492">
        <ele>416.39999389648</ele>
        <time>2021-08-25T04:52:51.000Z</time>
      </trkpt>
      <trkpt lat="45.21015" lon="5.7349">
        <ele>416.60000610352</ele>
        <time>2021-08-25T04:52:53.000Z</time>
      </trkpt>
      <trkpt lat="45.21015" lon="5.73489">
        <ele>416.79998779297</ele>
        <time>2021-08-25T04:52:54.000Z</time>
      </trkpt>
      <trkpt lat="45.21016" lon="5.73489">
        <ele>417.39999389648</ele>
        <time>2021-08-25T04:52:55.000Z</time>
      </trkpt>
      <trkpt lat="45.21016" lon="5.73488">
        <ele>417.79998779297</ele>
        <time>2021-08-25T04:52:56.000Z</time>
      </trkpt>
      <trkpt lat="45.21015" lon="5.73489">
        <ele>418</ele>
        <time>2021-08-25T04:52:57.000Z</time>
      </trkpt>
      <trkpt lat="45.21014" lon="5.73487">
        <ele>418.60000610352</ele>
        <time>2021-08-25T04:53:00.000Z</time>
      </trkpt>
      <trkpt lat="45.21014" lon="5.73486">
        <ele>418.60000610352</ele>
        <time>2021-08-25T04:53:01.000Z</time>
      </trkpt>
      <trkpt lat="45.21012" lon="5.73484">
        <ele>420</ele>
        <time>2021-08-25T04:53:04.000Z</time>
      </trkpt>
      <trkpt lat="45.21013" lon="5.73482">
        <ele>420.39999389648</ele>
        <time>2021-08-25T04:53:06.000Z</time>
      </trkpt>
      <trkpt lat="45.21014" lon="5.7348">
        <ele>421.79998779297</ele>
        <time>2021-08-25T04:53:09.000Z</time>
      </trkpt>
      <trkpt lat="45.21016" lon="5.73477">
        <ele>422.79998779297</ele>
        <time>2021-08-25T04:53:12.000Z</time>
      </trkpt>
      <trkpt lat="45.21017" lon="5.73476">
        <ele>423.20001220703</ele>
        <time>2021-08-25T04:53:13.000Z</time>
      </trkpt>
      <trkpt lat="45.21017" lon="5.73475">
        <ele>424.20001220703</ele>
        <time>2021-08-25T04:53:16.000Z</time>
      </trkpt>
      <trkpt lat="45.21017" lon="5.73474">
        <ele>424.60000610352</ele>
        <time>2021-08-25T04:53:18.000Z</time>
      </trkpt>
      <trkpt lat="45.21016" lon="5.73471">
        <ele>425.39999389648</ele>
        <time>2021-08-25T04:53:22.000Z</time>
      </trkpt>
      <trkpt lat="45.21016" lon="5.73471">
        <ele>426.20001220703</ele>
        <time>2021-08-25T04:53:23.000Z</time>
      </trkpt>
      <trkpt lat="45.21015" lon="5.73471">
        <ele>426.39999389648</ele>
        <time>2021-08-25T04:53:24.000Z</time>
      </trkpt>
      <trkpt lat="45.21012" lon="5.73468">
        <ele>428</ele>
        <time>2021-08-25T04:53:29.000Z</time>
      </trkpt>
      <trkpt lat="45.2101" lon="5.73468">
        <ele>429.20001220703</ele>
        <time>2021-08-25T04:53:32.000Z</time>
      </trkpt>
      <trkpt lat="45.21008" lon="5.73466">
        <ele>430</ele>
        <time>2021-08-25T04:53:35.000Z</time>
      </trkpt>
      <trkpt lat="45.21007" lon="5.73465">
        <ele>430.39999389648</ele>
        <time>2021-08-25T04:53:36.000Z</time>
      </trkpt>
      <trkpt lat="45.21007" lon="5.73464">
        <ele>430.60000610352</ele>
        <time>2021-08-25T04:53:37.000Z</time>
      </trkpt>
      <trkpt lat="45.21007" lon="5.73462">
        <ele>431.79998779297</ele>
        <time>2021-08-25T04:53:39.000Z</time>
      </trkpt>
      <trkpt lat="45.21006" lon="5.7346">
        <ele>432.79998779297</ele>
        <time>2021-08-25T04:53:42.000Z</time>
      </trkpt>
      <trkpt lat="45.21005" lon="5.73461">
        <ele>433</ele>
        <time>2021-08-25T04:53:44.000Z</time>
      </trkpt>
      <trkpt lat="45.21003" lon="5.7346">
        <ele>434.20001220703</ele>
        <time>2021-08-25T04:53:48.000Z</time>
      </trkpt>
      <trkpt lat="45.21003" lon="5.73459">
        <ele>434.60000610352</ele>
        <time>2021-08-25T04:53:50.000Z</time>
      </trkpt>
      <trkpt lat="45.21002" lon="5.73458">
        <ele>435.39999389648</ele>
        <time>2021-08-25T04:53:51.000Z</time>
      </trkpt>
      <trkpt lat="45.20997" lon="5.73456">
        <ele>436.39999389648</ele>
        <time>2021-08-25T04:53:56.000Z</time>
      </trkpt>
      <trkpt lat="45.20996" lon="5.73454">
        <ele>436.79998779297</ele>
        <time>2021-08-25T04:53:58.000Z</time>
      </trkpt>
      <trkpt lat="45.20996" lon="5.73453">
        <ele>437.60000610352</ele>
        <time>2021-08-25T04:54:00.000Z</time>
      </trkpt>
      <trkpt lat="45.20993" lon="5.73453">
        <ele>438.60000610352</ele>
        <time>2021-08-25T04:54:04.000Z</time>
      </trkpt>
      <trkpt lat="45.20988" lon="5.73449">
        <ele>439.79998779297</ele>
        <time>2021-08-25T04:54:09.000Z</time>
      </trkpt>
      <trkpt lat="45.20983" lon="5.73446">
        <ele>440.79998779297</ele>
        <time>2021-08-25T04:54:13.000Z</time>
      </trkpt>
      <trkpt lat="45.20982" lon="5.73445">
        <ele>441</ele>
        <time>2021-08-25T04:54:14.000Z</time>
      </trkpt>
      <trkpt lat="45.20979" lon="5.73444">
        <ele>442.20001220703</ele>
        <time>2021-08-25T04:54:17.000Z</time>
      </trkpt>
      <trkpt lat="45.20976" lon="5.73442">
        <ele>443.39999389648</ele>
        <time>2021-08-25T04:54:20.000Z</time>
      </trkpt>
      <trkpt lat="45.20975" lon="5.73442">
        <ele>443.60000610352</ele>
        <time>2021-08-25T04:54:21.000Z</time>
      </trkpt>
      <trkpt lat="45.20973" lon="5.73441">
        <ele>444</ele>
        <time>2021-08-25T04:54:23.000Z</time>
      </trkpt>
      <trkpt lat="45.20972" lon="5.7344">
        <ele>444.60000610352</ele>
        <time>2021-08-25T04:54:25.000Z</time>
      </trkpt>
      <trkpt lat="45.20972" lon="5.73438">
        <ele>445.20001220703</ele>
        <time>2021-08-25T04:54:26.000Z</time>
      </trkpt>
      <trkpt lat="45.20971" lon="5.73437">
        <ele>445.79998779297</ele>
        <time>2021-08-25T04:54:28.000Z</time>
      </trkpt>
      <trkpt lat="45.20969" lon="5.73435">
        <ele>447</ele>
        <time>2021-08-25T04:54:32.000Z</time>
      </trkpt>
      <trkpt lat="45.20967" lon="5.73436">
        <ele>447</ele>
        <time>2021-08-25T04:54:33.000Z</time>
      </trkpt>
      <trkpt lat="45.20966" lon="5.73434">
        <ele>447.79998779297</ele>
        <time>2021-08-25T04:54:35.000Z</time>
      </trkpt>
      <trkpt lat="45.20965" lon="5.73431">
        <ele>448.20001220703</ele>
        <time>2021-08-25T04:54:37.000Z</time>
      </trkpt>
      <trkpt lat="45.20965" lon="5.7343">
        <ele>448.39999389648</ele>
        <time>2021-08-25T04:54:38.000Z</time>
      </trkpt>
      <trkpt lat="45.20964" lon="5.73428">
        <ele>449.60000610352</ele>
        <time>2021-08-25T04:54:40.000Z</time>
      </trkpt>
      <trkpt lat="45.20964" lon="5.73425">
        <ele>450.20001220703</ele>
        <time>2021-08-25T04:54:43.000Z</time>
      </trkpt>
      <trkpt lat="45.20963" lon="5.73423">
        <ele>450.60000610352</ele>
        <time>2021-08-25T04:54:45.000Z</time>
      </trkpt>
      <trkpt lat="45.20961" lon="5.7342">
        <ele>451.79998779297</ele>
        <time>2021-08-25T04:54:48.000Z</time>
      </trkpt>
      <trkpt lat="45.20958" lon="5.73417">
        <ele>452.79998779297</ele>
        <time>2021-08-25T04:54:52.000Z</time>
      </trkpt>
      <trkpt lat="45.20957" lon="5.73416">
        <ele>452.79998779297</ele>
        <time>2021-08-25T04:54:53.000Z</time>
      </trkpt>
      <trkpt lat="45.20957" lon="5.73415">
        <ele>453.79998779297</ele>
        <time>2021-08-25T04:54:54.000Z</time>
      </trkpt>
      <trkpt lat="45.20956" lon="5.73414">
        <ele>453.79998779297</ele>
        <time>2021-08-25T04:54:55.000Z</time>
      </trkpt>
      <trkpt lat="45.20955" lon="5.73412">
        <ele>454.79998779297</ele>
        <time>2021-08-25T04:54:58.000Z</time>
      </trkpt>
      <trkpt lat="45.20954" lon="5.73411">
        <ele>455.20001220703</ele>
        <time>2021-08-25T04:54:59.000Z</time>
      </trkpt>
      <trkpt lat="45.20954" lon="5.73409">
        <ele>456</ele>
        <time>2021-08-25T04:55:01.000Z</time>
      </trkpt>
      <trkpt lat="45.20954" lon="5.73409">
        <ele>456.20001220703</ele>
        <time>2021-08-25T04:55:02.000Z</time>
      </trkpt>
      <trkpt lat="45.20955" lon="5.73407">
        <ele>456.79998779297</ele>
        <time>2021-08-25T04:55:05.000Z</time>
      </trkpt>
      <trkpt lat="45.20955" lon="5.73407">
        <ele>457.20001220703</ele>
        <time>2021-08-25T04:55:07.000Z</time>
      </trkpt>
      <trkpt lat="45.20954" lon="5.73406">
        <ele>457.60000610352</ele>
        <time>2021-08-25T04:55:08.000Z</time>
      </trkpt>
      <trkpt lat="45.20953" lon="5.73406">
        <ele>458.20001220703</ele>
        <time>2021-08-25T04:55:09.000Z</time>
      </trkpt>
      <trkpt lat="45.20951" lon="5.73404">
        <ele>459.20001220703</ele>
        <time>2021-08-25T04:55:11.000Z</time>
      </trkpt>
      <trkpt lat="45.20949" lon="5.73403">
        <ele>459.39999389648</ele>
        <time>2021-08-25T04:55:12.000Z</time>
      </trkpt>
      <trkpt lat="45.20947" lon="5.73399">
        <ele>460.60000610352</ele>
        <time>2021-08-25T04:55:16.000Z</time>
      </trkpt>
      <trkpt lat="45.20946" lon="5.73398">
        <ele>460.79998779297</ele>
        <time>2021-08-25T04:55:17.000Z</time>
      </trkpt>
      <trkpt lat="45.20943" lon="5.73398">
        <ele>460.79998779297</ele>
        <time>2021-08-25T04:55:19.000Z</time>
      </trkpt>
      <trkpt lat="45.20936" lon="5.73396">
        <ele>460</ele>
        <time>2021-08-25T04:55:24.000Z</time>
      </trkpt>
      <trkpt lat="45.20932" lon="5.73395">
        <ele>459.60000610352</ele>
        <time>2021-08-25T04:55:26.000Z</time>
      </trkpt>
      <trkpt lat="45.2093" lon="5.73394">
        <ele>459.39999389648</ele>
        <time>2021-08-25T04:55:27.000Z</time>
      </trkpt>
      <trkpt lat="45.20927" lon="5.73392">
        <ele>459.60000610352</ele>
        <time>2021-08-25T04:55:29.000Z</time>
      </trkpt>
      <trkpt lat="45.20923" lon="5.73391">
        <ele>460.60000610352</ele>
        <time>2021-08-25T04:55:32.000Z</time>
      </trkpt>
      <trkpt lat="45.20919" lon="5.73388">
        <ele>462</ele>
        <time>2021-08-25T04:55:36.000Z</time>
      </trkpt>
      <trkpt lat="45.20917" lon="5.73387">
        <ele>462.39999389648</ele>
        <time>2021-08-25T04:55:38.000Z</time>
      </trkpt>
      <trkpt lat="45.20915" lon="5.73382">
        <ele>463.39999389648</ele>
        <time>2021-08-25T04:55:41.000Z</time>
      </trkpt>
      <trkpt lat="45.20914" lon="5.73377">
        <ele>464.20001220703</ele>
        <time>2021-08-25T04:55:45.000Z</time>
      </trkpt>
      <trkpt lat="45.20913" lon="5.73376">
        <ele>464.39999389648</ele>
        <time>2021-08-25T04:55:46.000Z</time>
      </trkpt>
      <trkpt lat="45.20913" lon="5.73374">
        <ele>465.20001220703</ele>
        <time>2021-08-25T04:55:47.000Z</time>
      </trkpt>
      <trkpt lat="45.20913" lon="5.73374">
        <ele>465.60000610352</ele>
        <time>2021-08-25T04:55:48.000Z</time>
      </trkpt>
      <trkpt lat="45.20912" lon="5.73374">
        <ele>466</ele>
        <time>2021-08-25T04:55:49.000Z</time>
      </trkpt>
      <trkpt lat="45.2091" lon="5.73373">
        <ele>466</ele>
        <time>2021-08-25T04:55:51.000Z</time>
      </trkpt>
      <trkpt lat="45.2091" lon="5.73372">
        <ele>466</ele>
        <time>2021-08-25T04:55:52.000Z</time>
      </trkpt>
      <trkpt lat="45.2091" lon="5.7337">
        <ele>467</ele>
        <time>2021-08-25T04:55:53.000Z</time>
      </trkpt>
      <trkpt lat="45.20908" lon="5.73365">
        <ele>467.79998779297</ele>
        <time>2021-08-25T04:55:56.000Z</time>
      </trkpt>
      <trkpt lat="45.20907" lon="5.73366">
        <ele>468.60000610352</ele>
        <time>2021-08-25T04:55:58.000Z</time>
      </trkpt>
      <trkpt lat="45.20906" lon="5.73366">
        <ele>469.20001220703</ele>
        <time>2021-08-25T04:56:00.000Z</time>
      </trkpt>
      <trkpt lat="45.20906" lon="5.73364">
        <ele>469.79998779297</ele>
        <time>2021-08-25T04:56:01.000Z</time>
      </trkpt>
      <trkpt lat="45.20906" lon="5.73364">
        <ele>469.79998779297</ele>
        <time>2021-08-25T04:56:02.000Z</time>
      </trkpt>
      <trkpt lat="45.20904" lon="5.73361">
        <ele>470.79998779297</ele>
        <time>2021-08-25T04:56:05.000Z</time>
      </trkpt>
      <trkpt lat="45.20902" lon="5.73361">
        <ele>471</ele>
        <time>2021-08-25T04:56:08.000Z</time>
      </trkpt>
      <trkpt lat="45.20901" lon="5.73361">
        <ele>472</ele>
        <time>2021-08-25T04:56:09.000Z</time>
      </trkpt>
      <trkpt lat="45.20899" lon="5.73359">
        <ele>473</ele>
        <time>2021-08-25T04:56:12.000Z</time>
      </trkpt>
      <trkpt lat="45.20898" lon="5.73356">
        <ele>474.20001220703</ele>
        <time>2021-08-25T04:56:15.000Z</time>
      </trkpt>
      <trkpt lat="45.20895" lon="5.73356">
        <ele>475</ele>
        <time>2021-08-25T04:56:17.000Z</time>
      </trkpt>
      <trkpt lat="45.20892" lon="5.73356">
        <ele>475.20001220703</ele>
        <time>2021-08-25T04:56:19.000Z</time>
      </trkpt>
      <trkpt lat="45.2089" lon="5.73354">
        <ele>476.60000610352</ele>
        <time>2021-08-25T04:56:23.000Z</time>
      </trkpt>
      <trkpt lat="45.20889" lon="5.73353">
        <ele>477</ele>
        <time>2021-08-25T04:56:24.000Z</time>
      </trkpt>
      <trkpt lat="45.20886" lon="5.73352">
        <ele>477.39999389648</ele>
        <time>2021-08-25T04:56:26.000Z</time>
      </trkpt>
      <trkpt lat="45.20885" lon="5.73351">
        <ele>477.60000610352</ele>
        <time>2021-08-25T04:56:27.000Z</time>
      </trkpt>
      <trkpt lat="45.20884" lon="5.73347">
        <ele>478.79998779297</ele>
        <time>2021-08-25T04:56:30.000Z</time>
      </trkpt>
      <trkpt lat="45.20882" lon="5.73344">
        <ele>479.79998779297</ele>
        <time>2021-08-25T04:56:35.000Z</time>
      </trkpt>
      <trkpt lat="45.20881" lon="5.73343">
        <ele>480.60000610352</ele>
        <time>2021-08-25T04:56:37.000Z</time>
      </trkpt>
      <trkpt lat="45.2088" lon="5.73343">
        <ele>481</ele>
        <time>2021-08-25T04:56:38.000Z</time>
      </trkpt>
      <trkpt lat="45.20879" lon="5.73342">
        <ele>481.20001220703</ele>
        <time>2021-08-25T04:56:39.000Z</time>
      </trkpt>
      <trkpt lat="45.20877" lon="5.73344">
        <ele>482</ele>
        <time>2021-08-25T04:56:41.000Z</time>
      </trkpt>
      <trkpt lat="45.20874" lon="5.73344">
        <ele>482</ele>
        <time>2021-08-25T04:56:43.000Z</time>
      </trkpt>
      <trkpt lat="45.20871" lon="5.73344">
        <ele>483.39999389648</ele>
        <time>2021-08-25T04:56:46.000Z</time>
      </trkpt>
      <trkpt lat="45.20869" lon="5.73345">
        <ele>483.79998779297</ele>
        <time>2021-08-25T04:56:49.000Z</time>
      </trkpt>
      <trkpt lat="45.20868" lon="5.73345">
        <ele>483.79998779297</ele>
        <time>2021-08-25T04:56:50.000Z</time>
      </trkpt>
      <trkpt lat="45.20865" lon="5.73343">
        <ele>484.79998779297</ele>
        <time>2021-08-25T04:56:53.000Z</time>
      </trkpt>
      <trkpt lat="45.20863" lon="5.73343">
        <ele>486.20001220703</ele>
        <time>2021-08-25T04:56:57.000Z</time>
      </trkpt>
      <trkpt lat="45.20858" lon="5.7334">
        <ele>487.39999389648</ele>
        <time>2021-08-25T04:57:02.000Z</time>
      </trkpt>
      <trkpt lat="45.20857" lon="5.73339">
        <ele>487.79998779297</ele>
        <time>2021-08-25T04:57:04.000Z</time>
      </trkpt>
      <trkpt lat="45.20856" lon="5.73338">
        <ele>489</ele>
        <time>2021-08-25T04:57:05.000Z</time>
      </trkpt>
      <trkpt lat="45.20855" lon="5.73333">
        <ele>489.39999389648</ele>
        <time>2021-08-25T04:57:08.000Z</time>
      </trkpt>
      <trkpt lat="45.20854" lon="5.7333">
        <ele>489.79998779297</ele>
        <time>2021-08-25T04:57:10.000Z</time>
      </trkpt>
      <trkpt lat="45.20854" lon="5.73328">
        <ele>490</ele>
        <time>2021-08-25T04:57:11.000Z</time>
      </trkpt>
      <trkpt lat="45.20854" lon="5.73324">
        <ele>491.60000610352</ele>
        <time>2021-08-25T04:57:14.000Z</time>
      </trkpt>
      <trkpt lat="45.20854" lon="5.73323">
        <ele>492.20001220703</ele>
        <time>2021-08-25T04:57:15.000Z</time>
      </trkpt>
      <trkpt lat="45.20853" lon="5.73317">
        <ele>492.20001220703</ele>
        <time>2021-08-25T04:57:18.000Z</time>
      </trkpt>
      <trkpt lat="45.2085" lon="5.73314">
        <ele>493.20001220703</ele>
        <time>2021-08-25T04:57:21.000Z</time>
      </trkpt>
      <trkpt lat="45.20849" lon="5.7331">
        <ele>493.79998779297</ele>
        <time>2021-08-25T04:57:23.000Z</time>
      </trkpt>
      <trkpt lat="45.20848" lon="5.73303">
        <ele>494</ele>
        <time>2021-08-25T04:57:26.000Z</time>
      </trkpt>
      <trkpt lat="45.20848" lon="5.73301">
        <ele>494.60000610352</ele>
        <time>2021-08-25T04:57:27.000Z</time>
      </trkpt>
      <trkpt lat="45.20845" lon="5.73292">
        <ele>495</ele>
        <time>2021-08-25T04:57:31.000Z</time>
      </trkpt>
      <trkpt lat="45.20844" lon="5.7329">
        <ele>495</ele>
        <time>2021-08-25T04:57:32.000Z</time>
      </trkpt>
      <trkpt lat="45.20841" lon="5.73286">
        <ele>495</ele>
        <time>2021-08-25T04:57:34.000Z</time>
      </trkpt>
      <trkpt lat="45.20839" lon="5.73278">
        <ele>494.79998779297</ele>
        <time>2021-08-25T04:57:38.000Z</time>
      </trkpt>
      <trkpt lat="45.20836" lon="5.73276">
        <ele>495</ele>
        <time>2021-08-25T04:57:40.000Z</time>
      </trkpt>
      <trkpt lat="45.20835" lon="5.73274">
        <ele>494.79998779297</ele>
        <time>2021-08-25T04:57:41.000Z</time>
      </trkpt>
      <trkpt lat="45.20834" lon="5.73269">
        <ele>495.20001220703</ele>
        <time>2021-08-25T04:57:43.000Z</time>
      </trkpt>
      <trkpt lat="45.20833" lon="5.73267">
        <ele>495.20001220703</ele>
        <time>2021-08-25T04:57:44.000Z</time>
      </trkpt>
      <trkpt lat="45.20827" lon="5.73254">
        <ele>495.60000610352</ele>
        <time>2021-08-25T04:57:51.000Z</time>
      </trkpt>
      <trkpt lat="45.20827" lon="5.73251">
        <ele>495.79998779297</ele>
        <time>2021-08-25T04:57:52.000Z</time>
      </trkpt>
      <trkpt lat="45.20826" lon="5.73246">
        <ele>495.79998779297</ele>
        <time>2021-08-25T04:57:54.000Z</time>
      </trkpt>
      <trkpt lat="45.20825" lon="5.7324">
        <ele>496.39999389648</ele>
        <time>2021-08-25T04:57:57.000Z</time>
      </trkpt>
      <trkpt lat="45.20825" lon="5.73235">
        <ele>497.20001220703</ele>
        <time>2021-08-25T04:58:00.000Z</time>
      </trkpt>
      <trkpt lat="45.20824" lon="5.73231">
        <ele>497.20001220703</ele>
        <time>2021-08-25T04:58:02.000Z</time>
      </trkpt>
      <trkpt lat="45.20824" lon="5.7323">
        <ele>497.79998779297</ele>
        <time>2021-08-25T04:58:03.000Z</time>
      </trkpt>
      <trkpt lat="45.20821" lon="5.73229">
        <ele>498.20001220703</ele>
        <time>2021-08-25T04:58:05.000Z</time>
      </trkpt>
      <trkpt lat="45.2082" lon="5.73228">
        <ele>498.39999389648</ele>
        <time>2021-08-25T04:58:06.000Z</time>
      </trkpt>
      <trkpt lat="45.20819" lon="5.73226">
        <ele>498.60000610352</ele>
        <time>2021-08-25T04:58:07.000Z</time>
      </trkpt>
      <trkpt lat="45.20817" lon="5.73219">
        <ele>499.39999389648</ele>
        <time>2021-08-25T04:58:10.000Z</time>
      </trkpt>
      <trkpt lat="45.20813" lon="5.73213">
        <ele>499.39999389648</ele>
        <time>2021-08-25T04:58:13.000Z</time>
      </trkpt>
      <trkpt lat="45.20807" lon="5.73204">
        <ele>500.39999389648</ele>
        <time>2021-08-25T04:58:18.000Z</time>
      </trkpt>
      <trkpt lat="45.20806" lon="5.73202">
        <ele>500.60000610352</ele>
        <time>2021-08-25T04:58:19.000Z</time>
      </trkpt>
      <trkpt lat="45.20799" lon="5.73189">
        <ele>501.39999389648</ele>
        <time>2021-08-25T04:58:24.000Z</time>
      </trkpt>
      <trkpt lat="45.20797" lon="5.73185">
        <ele>501.79998779297</ele>
        <time>2021-08-25T04:58:26.000Z</time>
      </trkpt>
      <trkpt lat="45.20794" lon="5.7318">
        <ele>502.79998779297</ele>
        <time>2021-08-25T04:58:29.000Z</time>
      </trkpt>
      <trkpt lat="45.20793" lon="5.73179">
        <ele>502.79998779297</ele>
        <time>2021-08-25T04:58:30.000Z</time>
      </trkpt>
      <trkpt lat="45.20792" lon="5.73176">
        <ele>503.39999389648</ele>
        <time>2021-08-25T04:58:32.000Z</time>
      </trkpt>
      <trkpt lat="45.2079" lon="5.73173">
        <ele>504.20001220703</ele>
        <time>2021-08-25T04:58:34.000Z</time>
      </trkpt>
      <trkpt lat="45.2079" lon="5.73171">
        <ele>504.39999389648</ele>
        <time>2021-08-25T04:58:35.000Z</time>
      </trkpt>
      <trkpt lat="45.20789" lon="5.73168">
        <ele>504.79998779297</ele>
        <time>2021-08-25T04:58:37.000Z</time>
      </trkpt>
      <trkpt lat="45.20789" lon="5.73166">
        <ele>505.60000610352</ele>
        <time>2021-08-25T04:58:38.000Z</time>
      </trkpt>
      <trkpt lat="45.20789" lon="5.73161">
        <ele>507</ele>
        <time>2021-08-25T04:58:42.000Z</time>
      </trkpt>
      <trkpt lat="45.20788" lon="5.73158">
        <ele>507.79998779297</ele>
        <time>2021-08-25T04:58:44.000Z</time>
      </trkpt>
      <trkpt lat="45.20788" lon="5.73157">
        <ele>508.60000610352</ele>
        <time>2021-08-25T04:58:45.000Z</time>
      </trkpt>
      <trkpt lat="45.20786" lon="5.73153">
        <ele>509.60000610352</ele>
        <time>2021-08-25T04:58:48.000Z</time>
      </trkpt>
      <trkpt lat="45.20785" lon="5.7315">
        <ele>509.79998779297</ele>
        <time>2021-08-25T04:58:49.000Z</time>
      </trkpt>
      <trkpt lat="45.20784" lon="5.73147">
        <ele>510.39999389648</ele>
        <time>2021-08-25T04:58:50.000Z</time>
      </trkpt>
      <trkpt lat="45.20781" lon="5.73141">
        <ele>510.39999389648</ele>
        <time>2021-08-25T04:58:52.000Z</time>
      </trkpt>
      <trkpt lat="45.20779" lon="5.73137">
        <ele>510.60000610352</ele>
        <time>2021-08-25T04:58:54.000Z</time>
      </trkpt>
      <trkpt lat="45.20777" lon="5.73137">
        <ele>510.79998779297</ele>
        <time>2021-08-25T04:58:55.000Z</time>
      </trkpt>
      <trkpt lat="45.20774" lon="5.73136">
        <ele>511</ele>
        <time>2021-08-25T04:58:57.000Z</time>
      </trkpt>
      <trkpt lat="45.20771" lon="5.73134">
        <ele>511.39999389648</ele>
        <time>2021-08-25T04:58:59.000Z</time>
      </trkpt>
      <trkpt lat="45.2077" lon="5.73133">
        <ele>512</ele>
        <time>2021-08-25T04:59:00.000Z</time>
      </trkpt>
      <trkpt lat="45.20767" lon="5.73132">
        <ele>512.40002441406</ele>
        <time>2021-08-25T04:59:02.000Z</time>
      </trkpt>
      <trkpt lat="45.20764" lon="5.73131">
        <ele>512.40002441406</ele>
        <time>2021-08-25T04:59:04.000Z</time>
      </trkpt>
      <trkpt lat="45.20763" lon="5.73129">
        <ele>512.40002441406</ele>
        <time>2021-08-25T04:59:05.000Z</time>
      </trkpt>
      <trkpt lat="45.2076" lon="5.7312">
        <ele>512.79998779297</ele>
        <time>2021-08-25T04:59:09.000Z</time>
      </trkpt>
      <trkpt lat="45.20758" lon="5.73117">
        <ele>513</ele>
        <time>2021-08-25T04:59:11.000Z</time>
      </trkpt>
      <trkpt lat="45.20757" lon="5.73115">
        <ele>513</ele>
        <time>2021-08-25T04:59:12.000Z</time>
      </trkpt>
      <trkpt lat="45.20755" lon="5.73113">
        <ele>513.20001220703</ele>
        <time>2021-08-25T04:59:13.000Z</time>
      </trkpt>
      <trkpt lat="45.2075" lon="5.73109">
        <ele>513.40002441406</ele>
        <time>2021-08-25T04:59:16.000Z</time>
      </trkpt>
      <trkpt lat="45.20746" lon="5.73103">
        <ele>513.40002441406</ele>
        <time>2021-08-25T04:59:19.000Z</time>
      </trkpt>
      <trkpt lat="45.20743" lon="5.731">
        <ele>513</ele>
        <time>2021-08-25T04:59:21.000Z</time>
      </trkpt>
      <trkpt lat="45.20739" lon="5.73094">
        <ele>512.59997558594</ele>
        <time>2021-08-25T04:59:24.000Z</time>
      </trkpt>
      <trkpt lat="45.2073" lon="5.73087">
        <ele>513</ele>
        <time>2021-08-25T04:59:29.000Z</time>
      </trkpt>
      <trkpt lat="45.20728" lon="5.73085">
        <ele>513</ele>
        <time>2021-08-25T04:59:30.000Z</time>
      </trkpt>
      <trkpt lat="45.20724" lon="5.73079">
        <ele>513.20001220703</ele>
        <time>2021-08-25T04:59:33.000Z</time>
      </trkpt>
      <trkpt lat="45.20711" lon="5.73071">
        <ele>513.20001220703</ele>
        <time>2021-08-25T04:59:39.000Z</time>
      </trkpt>
      <trkpt lat="45.20701" lon="5.73064">
        <ele>512.79998779297</ele>
        <time>2021-08-25T04:59:45.000Z</time>
      </trkpt>
      <trkpt lat="45.20696" lon="5.73059">
        <ele>512.20001220703</ele>
        <time>2021-08-25T04:59:48.000Z</time>
      </trkpt>
      <trkpt lat="45.20693" lon="5.73054">
        <ele>512</ele>
        <time>2021-08-25T04:59:50.000Z</time>
      </trkpt>
      <trkpt lat="45.20686" lon="5.73047">
        <ele>511.79998779297</ele>
        <time>2021-08-25T04:59:54.000Z</time>
      </trkpt>
      <trkpt lat="45.20684" lon="5.73045">
        <ele>511.20001220703</ele>
        <time>2021-08-25T04:59:55.000Z</time>
      </trkpt>
      <trkpt lat="45.20682" lon="5.73044">
        <ele>511.20001220703</ele>
        <time>2021-08-25T04:59:56.000Z</time>
      </trkpt>
      <trkpt lat="45.20674" lon="5.73035">
        <ele>510.60000610352</ele>
        <time>2021-08-25T05:00:00.000Z</time>
      </trkpt>
      <trkpt lat="45.20672" lon="5.73033">
        <ele>510.60000610352</ele>
        <time>2021-08-25T05:00:01.000Z</time>
      </trkpt>
      <trkpt lat="45.2067" lon="5.73032">
        <ele>510.39999389648</ele>
        <time>2021-08-25T05:00:02.000Z</time>
      </trkpt>
      <trkpt lat="45.2066" lon="5.73026">
        <ele>510.39999389648</ele>
        <time>2021-08-25T05:00:06.000Z</time>
      </trkpt>
      <trkpt lat="45.20649" lon="5.73017">
        <ele>510.39999389648</ele>
        <time>2021-08-25T05:00:11.000Z</time>
      </trkpt>
      <trkpt lat="45.20647" lon="5.73015">
        <ele>510</ele>
        <time>2021-08-25T05:00:12.000Z</time>
      </trkpt>
      <trkpt lat="45.20637" lon="5.73001">
        <ele>509.79998779297</ele>
        <time>2021-08-25T05:00:19.000Z</time>
      </trkpt>
      <trkpt lat="45.20628" lon="5.72992">
        <ele>509.60000610352</ele>
        <time>2021-08-25T05:00:25.000Z</time>
      </trkpt>
      <trkpt lat="45.20625" lon="5.7299">
        <ele>510</ele>
        <time>2021-08-25T05:00:27.000Z</time>
      </trkpt>
      <trkpt lat="45.2062" lon="5.72985">
        <ele>510</ele>
        <time>2021-08-25T05:00:30.000Z</time>
      </trkpt>
      <trkpt lat="45.20612" lon="5.72976">
        <ele>509.79998779297</ele>
        <time>2021-08-25T05:00:36.000Z</time>
      </trkpt>
      <trkpt lat="45.206" lon="5.72963">
        <ele>509.20001220703</ele>
        <time>2021-08-25T05:00:44.000Z</time>
      </trkpt>
      <trkpt lat="45.20588" lon="5.72953">
        <ele>509.79998779297</ele>
        <time>2021-08-25T05:00:49.000Z</time>
      </trkpt>
      <trkpt lat="45.20583" lon="5.72949">
        <ele>509.79998779297</ele>
        <time>2021-08-25T05:00:51.000Z</time>
      </trkpt>
      <trkpt lat="45.20574" lon="5.72941">
        <ele>510.20001220703</ele>
        <time>2021-08-25T05:00:56.000Z</time>
      </trkpt>
      <trkpt lat="45.20567" lon="5.72934">
        <ele>510.20001220703</ele>
        <time>2021-08-25T05:01:00.000Z</time>
      </trkpt>
      <trkpt lat="45.20562" lon="5.72931">
        <ele>510.20001220703</ele>
        <time>2021-08-25T05:01:02.000Z</time>
      </trkpt>
      <trkpt lat="45.20554" lon="5.72927">
        <ele>510.20001220703</ele>
        <time>2021-08-25T05:01:05.000Z</time>
      </trkpt>
      <trkpt lat="45.20551" lon="5.72923">
        <ele>510.60000610352</ele>
        <time>2021-08-25T05:01:07.000Z</time>
      </trkpt>
      <trkpt lat="45.20542" lon="5.72919">
        <ele>511</ele>
        <time>2021-08-25T05:01:11.000Z</time>
      </trkpt>
      <trkpt lat="45.2054" lon="5.72918">
        <ele>511.20001220703</ele>
        <time>2021-08-25T05:01:12.000Z</time>
      </trkpt>
      <trkpt lat="45.20526" lon="5.72909">
        <ele>511.60000610352</ele>
        <time>2021-08-25T05:01:17.000Z</time>
      </trkpt>
      <trkpt lat="45.20514" lon="5.72901">
        <ele>511.79998779297</ele>
        <time>2021-08-25T05:01:22.000Z</time>
      </trkpt>
      <trkpt lat="45.20513" lon="5.72899">
        <ele>512</ele>
        <time>2021-08-25T05:01:23.000Z</time>
      </trkpt>
      <trkpt lat="45.20511" lon="5.72894">
        <ele>513.40002441406</ele>
        <time>2021-08-25T05:01:25.000Z</time>
      </trkpt>
      <trkpt lat="45.20508" lon="5.72891">
        <ele>513.79998779297</ele>
        <time>2021-08-25T05:01:27.000Z</time>
      </trkpt>
      <trkpt lat="45.20507" lon="5.72889">
        <ele>514</ele>
        <time>2021-08-25T05:01:28.000Z</time>
      </trkpt>
      <trkpt lat="45.20505" lon="5.72887">
        <ele>514.40002441406</ele>
        <time>2021-08-25T05:01:29.000Z</time>
      </trkpt>
      <trkpt lat="45.20503" lon="5.72885">
        <ele>515</ele>
        <time>2021-08-25T05:01:31.000Z</time>
      </trkpt>
      <trkpt lat="45.20495" lon="5.72882">
        <ele>515.20001220703</ele>
        <time>2021-08-25T05:01:35.000Z</time>
      </trkpt>
      <trkpt lat="45.2049" lon="5.72876">
        <ele>515.20001220703</ele>
        <time>2021-08-25T05:01:38.000Z</time>
      </trkpt>
      <trkpt lat="45.20487" lon="5.72873">
        <ele>515.79998779297</ele>
        <time>2021-08-25T05:01:40.000Z</time>
      </trkpt>
      <trkpt lat="45.20478" lon="5.72869">
        <ele>515.79998779297</ele>
        <time>2021-08-25T05:01:44.000Z</time>
      </trkpt>
      <trkpt lat="45.20466" lon="5.72858">
        <ele>514.79998779297</ele>
        <time>2021-08-25T05:01:50.000Z</time>
      </trkpt>
      <trkpt lat="45.20463" lon="5.72856">
        <ele>514</ele>
        <time>2021-08-25T05:01:51.000Z</time>
      </trkpt>
      <trkpt lat="45.20458" lon="5.72853">
        <ele>514</ele>
        <time>2021-08-25T05:01:53.000Z</time>
      </trkpt>
      <trkpt lat="45.20453" lon="5.72846">
        <ele>513.20001220703</ele>
        <time>2021-08-25T05:01:56.000Z</time>
      </trkpt>
      <trkpt lat="45.2044" lon="5.72834">
        <ele>513.20001220703</ele>
        <time>2021-08-25T05:02:02.000Z</time>
      </trkpt>
      <trkpt lat="45.20437" lon="5.72833">
        <ele>513.20001220703</ele>
        <time>2021-08-25T05:02:03.000Z</time>
      </trkpt>
      <trkpt lat="45.20435" lon="5.72831">
        <ele>513.20001220703</ele>
        <time>2021-08-25T05:02:04.000Z</time>
      </trkpt>
      <trkpt lat="45.20434" lon="5.72829">
        <ele>512.59997558594</ele>
        <time>2021-08-25T05:02:05.000Z</time>
      </trkpt>
      <trkpt lat="45.2043" lon="5.72823">
        <ele>512.59997558594</ele>
        <time>2021-08-25T05:02:07.000Z</time>
      </trkpt>
      <trkpt lat="45.20428" lon="5.72821">
        <ele>512.20001220703</ele>
        <time>2021-08-25T05:02:08.000Z</time>
      </trkpt>
      <trkpt lat="45.20424" lon="5.72814">
        <ele>511.60000610352</ele>
        <time>2021-08-25T05:02:11.000Z</time>
      </trkpt>
      <trkpt lat="45.20418" lon="5.72807">
        <ele>510</ele>
        <time>2021-08-25T05:02:15.000Z</time>
      </trkpt>
      <trkpt lat="45.2041" lon="5.72799">
        <ele>508.79998779297</ele>
        <time>2021-08-25T05:02:19.000Z</time>
      </trkpt>
      <trkpt lat="45.20405" lon="5.72792">
        <ele>507.79998779297</ele>
        <time>2021-08-25T05:02:22.000Z</time>
      </trkpt>
      <trkpt lat="45.20403" lon="5.72791">
        <ele>508</ele>
        <time>2021-08-25T05:02:23.000Z</time>
      </trkpt>
      <trkpt lat="45.20399" lon="5.72788">
        <ele>507.60000610352</ele>
        <time>2021-08-25T05:02:25.000Z</time>
      </trkpt>
      <trkpt lat="45.20397" lon="5.72786">
        <ele>507.39999389648</ele>
        <time>2021-08-25T05:02:26.000Z</time>
      </trkpt>
      <trkpt lat="45.20391" lon="5.7278">
        <ele>506.39999389648</ele>
        <time>2021-08-25T05:02:29.000Z</time>
      </trkpt>
      <trkpt lat="45.20382" lon="5.72775">
        <ele>505.39999389648</ele>
        <time>2021-08-25T05:02:33.000Z</time>
      </trkpt>
      <trkpt lat="45.20379" lon="5.72774">
        <ele>505.39999389648</ele>
        <time>2021-08-25T05:02:34.000Z</time>
      </trkpt>
      <trkpt lat="45.20374" lon="5.7277">
        <ele>504.79998779297</ele>
        <time>2021-08-25T05:02:36.000Z</time>
      </trkpt>
      <trkpt lat="45.20368" lon="5.72766">
        <ele>504.39999389648</ele>
        <time>2021-08-25T05:02:38.000Z</time>
      </trkpt>
      <trkpt lat="45.20363" lon="5.72764">
        <ele>503.79998779297</ele>
        <time>2021-08-25T05:02:40.000Z</time>
      </trkpt>
      <trkpt lat="45.2036" lon="5.72759">
        <ele>503.39999389648</ele>
        <time>2021-08-25T05:02:42.000Z</time>
      </trkpt>
      <trkpt lat="45.20355" lon="5.72752">
        <ele>502.39999389648</ele>
        <time>2021-08-25T05:02:46.000Z</time>
      </trkpt>
      <trkpt lat="45.20354" lon="5.72751">
        <ele>501.79998779297</ele>
        <time>2021-08-25T05:02:47.000Z</time>
      </trkpt>
      <trkpt lat="45.20345" lon="5.72744">
        <ele>500.79998779297</ele>
        <time>2021-08-25T05:02:52.000Z</time>
      </trkpt>
      <trkpt lat="45.20343" lon="5.72742">
        <ele>500.79998779297</ele>
        <time>2021-08-25T05:02:53.000Z</time>
      </trkpt>
      <trkpt lat="45.20328" lon="5.72729">
        <ele>499.79998779297</ele>
        <time>2021-08-25T05:03:00.000Z</time>
      </trkpt>
      <trkpt lat="45.20314" lon="5.72723">
        <ele>500</ele>
        <time>2021-08-25T05:03:05.000Z</time>
      </trkpt>
      <trkpt lat="45.20304" lon="5.72718">
        <ele>499.39999389648</ele>
        <time>2021-08-25T05:03:09.000Z</time>
      </trkpt>
      <trkpt lat="45.20297" lon="5.72709">
        <ele>498.39999389648</ele>
        <time>2021-08-25T05:03:12.000Z</time>
      </trkpt>
      <trkpt lat="45.20283" lon="5.72699">
        <ele>497.20001220703</ele>
        <time>2021-08-25T05:03:18.000Z</time>
      </trkpt>
      <trkpt lat="45.2028" lon="5.72698">
        <ele>497.20001220703</ele>
        <time>2021-08-25T05:03:19.000Z</time>
      </trkpt>
      <trkpt lat="45.20271" lon="5.72691">
        <ele>496</ele>
        <time>2021-08-25T05:03:23.000Z</time>
      </trkpt>
      <trkpt lat="45.20267" lon="5.72685">
        <ele>496</ele>
        <time>2021-08-25T05:03:25.000Z</time>
      </trkpt>
      <trkpt lat="45.20265" lon="5.72683">
        <ele>496</ele>
        <time>2021-08-25T05:03:26.000Z</time>
      </trkpt>
      <trkpt lat="45.20264" lon="5.72681">
        <ele>496.60000610352</ele>
        <time>2021-08-25T05:03:27.000Z</time>
      </trkpt>
      <trkpt lat="45.20262" lon="5.72679">
        <ele>497.39999389648</ele>
        <time>2021-08-25T05:03:28.000Z</time>
      </trkpt>
      <trkpt lat="45.20259" lon="5.72671">
        <ele>498.60000610352</ele>
        <time>2021-08-25T05:03:31.000Z</time>
      </trkpt>
      <trkpt lat="45.20255" lon="5.72667">
        <ele>499.79998779297</ele>
        <time>2021-08-25T05:03:34.000Z</time>
      </trkpt>
      <trkpt lat="45.2025" lon="5.72661">
        <ele>500.60000610352</ele>
        <time>2021-08-25T05:03:37.000Z</time>
      </trkpt>
      <trkpt lat="45.20246" lon="5.72658">
        <ele>501.39999389648</ele>
        <time>2021-08-25T05:03:39.000Z</time>
      </trkpt>
      <trkpt lat="45.20241" lon="5.72653">
        <ele>502.39999389648</ele>
        <time>2021-08-25T05:03:42.000Z</time>
      </trkpt>
      <trkpt lat="45.2024" lon="5.72652">
        <ele>502.60000610352</ele>
        <time>2021-08-25T05:03:43.000Z</time>
      </trkpt>
      <trkpt lat="45.20235" lon="5.72647">
        <ele>503.60000610352</ele>
        <time>2021-08-25T05:03:47.000Z</time>
      </trkpt>
      <trkpt lat="45.20223" lon="5.72636">
        <ele>504</ele>
        <time>2021-08-25T05:03:54.000Z</time>
      </trkpt>
      <trkpt lat="45.20218" lon="5.72628">
        <ele>504.60000610352</ele>
        <time>2021-08-25T05:03:58.000Z</time>
      </trkpt>
      <trkpt lat="45.20212" lon="5.7262">
        <ele>505.39999389648</ele>
        <time>2021-08-25T05:04:03.000Z</time>
      </trkpt>
      <trkpt lat="45.20211" lon="5.72619">
        <ele>506.20001220703</ele>
        <time>2021-08-25T05:04:04.000Z</time>
      </trkpt>
      <trkpt lat="45.20204" lon="5.7261">
        <ele>507.20001220703</ele>
        <time>2021-08-25T05:04:10.000Z</time>
      </trkpt>
      <trkpt lat="45.20203" lon="5.72609">
        <ele>507.39999389648</ele>
        <time>2021-08-25T05:04:11.000Z</time>
      </trkpt>
      <trkpt lat="45.20196" lon="5.72603">
        <ele>508.20001220703</ele>
        <time>2021-08-25T05:04:16.000Z</time>
      </trkpt>
      <trkpt lat="45.20191" lon="5.72597">
        <ele>509.60000610352</ele>
        <time>2021-08-25T05:04:20.000Z</time>
      </trkpt>
      <trkpt lat="45.2019" lon="5.72595">
        <ele>509.79998779297</ele>
        <time>2021-08-25T05:04:21.000Z</time>
      </trkpt>
      <trkpt lat="45.2019" lon="5.72589">
        <ele>510.39999389648</ele>
        <time>2021-08-25T05:04:24.000Z</time>
      </trkpt>
      <trkpt lat="45.20188" lon="5.72586">
        <ele>510.60000610352</ele>
        <time>2021-08-25T05:04:26.000Z</time>
      </trkpt>
      <trkpt lat="45.20179" lon="5.7258">
        <ele>509.39999389648</ele>
        <time>2021-08-25T05:04:30.000Z</time>
      </trkpt>
      <trkpt lat="45.20175" lon="5.72576">
        <ele>509</ele>
        <time>2021-08-25T05:04:32.000Z</time>
      </trkpt>
      <trkpt lat="45.20169" lon="5.72572">
        <ele>508.60000610352</ele>
        <time>2021-08-25T05:04:35.000Z</time>
      </trkpt>
      <trkpt lat="45.20163" lon="5.72566">
        <ele>507.39999389648</ele>
        <time>2021-08-25T05:04:38.000Z</time>
      </trkpt>
      <trkpt lat="45.2016" lon="5.72565">
        <ele>507.39999389648</ele>
        <time>2021-08-25T05:04:39.000Z</time>
      </trkpt>
      <trkpt lat="45.20149" lon="5.72561">
        <ele>506</ele>
        <time>2021-08-25T05:04:44.000Z</time>
      </trkpt>
      <trkpt lat="45.20146" lon="5.72559">
        <ele>505.79998779297</ele>
        <time>2021-08-25T05:04:45.000Z</time>
      </trkpt>
      <trkpt lat="45.20142" lon="5.72557">
        <ele>505.20001220703</ele>
        <time>2021-08-25T05:04:47.000Z</time>
      </trkpt>
      <trkpt lat="45.20138" lon="5.72557">
        <ele>504.39999389648</ele>
        <time>2021-08-25T05:04:49.000Z</time>
      </trkpt>
      <trkpt lat="45.20134" lon="5.72554">
        <ele>503.79998779297</ele>
        <time>2021-08-25T05:04:51.000Z</time>
      </trkpt>
      <trkpt lat="45.20127" lon="5.72552">
        <ele>503</ele>
        <time>2021-08-25T05:04:54.000Z</time>
      </trkpt>
      <trkpt lat="45.20121" lon="5.72548">
        <ele>502</ele>
        <time>2021-08-25T05:04:58.000Z</time>
      </trkpt>
      <trkpt lat="45.20119" lon="5.72547">
        <ele>501.20001220703</ele>
        <time>2021-08-25T05:04:59.000Z</time>
      </trkpt>
      <trkpt lat="45.20116" lon="5.72547">
        <ele>500.60000610352</ele>
        <time>2021-08-25T05:05:01.000Z</time>
      </trkpt>
      <trkpt lat="45.20114" lon="5.72546">
        <ele>500.39999389648</ele>
        <time>2021-08-25T05:05:02.000Z</time>
      </trkpt>
      <trkpt lat="45.20113" lon="5.72545">
        <ele>499.60000610352</ele>
        <time>2021-08-25T05:05:03.000Z</time>
      </trkpt>
      <trkpt lat="45.20112" lon="5.72545">
        <ele>499</ele>
        <time>2021-08-25T05:05:04.000Z</time>
      </trkpt>
      <trkpt lat="45.20106" lon="5.72546">
        <ele>498.20001220703</ele>
        <time>2021-08-25T05:05:07.000Z</time>
      </trkpt>
      <trkpt lat="45.20099" lon="5.72547">
        <ele>496.39999389648</ele>
        <time>2021-08-25T05:05:11.000Z</time>
      </trkpt>
      <trkpt lat="45.20095" lon="5.72547">
        <ele>494.79998779297</ele>
        <time>2021-08-25T05:05:13.000Z</time>
      </trkpt>
      <trkpt lat="45.20089" lon="5.72547">
        <ele>493.79998779297</ele>
        <time>2021-08-25T05:05:15.000Z</time>
      </trkpt>
      <trkpt lat="45.20087" lon="5.72547">
        <ele>493.39999389648</ele>
        <time>2021-08-25T05:05:16.000Z</time>
      </trkpt>
      <trkpt lat="45.2008" lon="5.7255">
        <ele>492.20001220703</ele>
        <time>2021-08-25T05:05:19.000Z</time>
      </trkpt>
      <trkpt lat="45.20077" lon="5.72553">
        <ele>492.20001220703</ele>
        <time>2021-08-25T05:05:21.000Z</time>
      </trkpt>
      <trkpt lat="45.20074" lon="5.72557">
        <ele>491.20001220703</ele>
        <time>2021-08-25T05:05:24.000Z</time>
      </trkpt>
      <trkpt lat="45.20073" lon="5.72558">
        <ele>490.79998779297</ele>
        <time>2021-08-25T05:05:25.000Z</time>
      </trkpt>
      <trkpt lat="45.20073" lon="5.72559">
        <ele>490.79998779297</ele>
        <time>2021-08-25T05:05:26.000Z</time>
      </trkpt>
      <trkpt lat="45.20073" lon="5.72558">
        <ele>490.60000610352</ele>
        <time>2021-08-25T05:05:28.000Z</time>
      </trkpt>
      <trkpt lat="45.20073" lon="5.72558">
        <ele>490.79998779297</ele>
        <time>2021-08-25T05:05:33.000Z</time>
      </trkpt>
      <trkpt lat="45.20072" lon="5.72556">
        <ele>490.39999389648</ele>
        <time>2021-08-25T05:05:42.000Z</time>
      </trkpt>
      <trkpt lat="45.20072" lon="5.72556">
        <ele>490.60000610352</ele>
        <time>2021-08-25T05:05:45.000Z</time>
      </trkpt>
      <trkpt lat="45.20071" lon="5.72551">
        <ele>490.79998779297</ele>
        <time>2021-08-25T05:05:48.000Z</time>
      </trkpt>
      <trkpt lat="45.20071" lon="5.72547">
        <ele>491</ele>
        <time>2021-08-25T05:05:49.000Z</time>
      </trkpt>
      <trkpt lat="45.2007" lon="5.72543">
        <ele>491.39999389648</ele>
        <time>2021-08-25T05:05:50.000Z</time>
      </trkpt>
      <trkpt lat="45.20069" lon="5.72539">
        <ele>492</ele>
        <time>2021-08-25T05:05:51.000Z</time>
      </trkpt>
      <trkpt lat="45.20067" lon="5.72526">
        <ele>492.20001220703</ele>
        <time>2021-08-25T05:05:54.000Z</time>
      </trkpt>
      <trkpt lat="45.20069" lon="5.72512">
        <ele>492.60000610352</ele>
        <time>2021-08-25T05:05:57.000Z</time>
      </trkpt>
      <trkpt lat="45.20072" lon="5.72496">
        <ele>491.39999389648</ele>
        <time>2021-08-25T05:06:01.000Z</time>
      </trkpt>
      <trkpt lat="45.20074" lon="5.72484">
        <ele>490.20001220703</ele>
        <time>2021-08-25T05:06:04.000Z</time>
      </trkpt>
      <trkpt lat="45.20074" lon="5.72476">
        <ele>490.20001220703</ele>
        <time>2021-08-25T05:06:06.000Z</time>
      </trkpt>
      <trkpt lat="45.20072" lon="5.72456">
        <ele>489</ele>
        <time>2021-08-25T05:06:11.000Z</time>
      </trkpt>
      <trkpt lat="45.20071" lon="5.72451">
        <ele>488.79998779297</ele>
        <time>2021-08-25T05:06:12.000Z</time>
      </trkpt>
      <trkpt lat="45.20065" lon="5.72439">
        <ele>487.60000610352</ele>
        <time>2021-08-25T05:06:16.000Z</time>
      </trkpt>
      <trkpt lat="45.20062" lon="5.72437">
        <ele>487.39999389648</ele>
        <time>2021-08-25T05:06:17.000Z</time>
      </trkpt>
      <trkpt lat="45.20058" lon="5.72433">
        <ele>486.39999389648</ele>
        <time>2021-08-25T05:06:19.000Z</time>
      </trkpt>
      <trkpt lat="45.20053" lon="5.72431">
        <ele>485.60000610352</ele>
        <time>2021-08-25T05:06:21.000Z</time>
      </trkpt>
      <trkpt lat="45.20047" lon="5.72431">
        <ele>485</ele>
        <time>2021-08-25T05:06:23.000Z</time>
      </trkpt>
      <trkpt lat="45.20038" lon="5.72432">
        <ele>484</ele>
        <time>2021-08-25T05:06:26.000Z</time>
      </trkpt>
      <trkpt lat="45.20023" lon="5.72433">
        <ele>482.60000610352</ele>
        <time>2021-08-25T05:06:31.000Z</time>
      </trkpt>
      <trkpt lat="45.2002" lon="5.72432">
        <ele>482.39999389648</ele>
        <time>2021-08-25T05:06:32.000Z</time>
      </trkpt>
      <trkpt lat="45.20014" lon="5.72431">
        <ele>481.60000610352</ele>
        <time>2021-08-25T05:06:34.000Z</time>
      </trkpt>
      <trkpt lat="45.20001" lon="5.72429">
        <ele>480.60000610352</ele>
        <time>2021-08-25T05:06:39.000Z</time>
      </trkpt>
      <trkpt lat="45.19995" lon="5.72428">
        <ele>479.39999389648</ele>
        <time>2021-08-25T05:06:41.000Z</time>
      </trkpt>
      <trkpt lat="45.19984" lon="5.72426">
        <ele>478.39999389648</ele>
        <time>2021-08-25T05:06:45.000Z</time>
      </trkpt>
      <trkpt lat="45.1998" lon="5.72427">
        <ele>477.79998779297</ele>
        <time>2021-08-25T05:06:46.000Z</time>
      </trkpt>
      <trkpt lat="45.19972" lon="5.72426">
        <ele>476.79998779297</ele>
        <time>2021-08-25T05:06:49.000Z</time>
      </trkpt>
      <trkpt lat="45.19962" lon="5.72424">
        <ele>476</ele>
        <time>2021-08-25T05:06:53.000Z</time>
      </trkpt>
      <trkpt lat="45.19959" lon="5.72423">
        <ele>475.39999389648</ele>
        <time>2021-08-25T05:06:54.000Z</time>
      </trkpt>
      <trkpt lat="45.19949" lon="5.72422">
        <ele>474.20001220703</ele>
        <time>2021-08-25T05:06:58.000Z</time>
      </trkpt>
      <trkpt lat="45.19935" lon="5.72424">
        <ele>474</ele>
        <time>2021-08-25T05:07:03.000Z</time>
      </trkpt>
      <trkpt lat="45.19919" lon="5.72428">
        <ele>474.39999389648</ele>
        <time>2021-08-25T05:07:08.000Z</time>
      </trkpt>
      <trkpt lat="45.19904" lon="5.72433">
        <ele>475</ele>
        <time>2021-08-25T05:07:13.000Z</time>
      </trkpt>
      <trkpt lat="45.19901" lon="5.72434">
        <ele>475.60000610352</ele>
        <time>2021-08-25T05:07:14.000Z</time>
      </trkpt>
      <trkpt lat="45.19893" lon="5.72438">
        <ele>476.79998779297</ele>
        <time>2021-08-25T05:07:18.000Z</time>
      </trkpt>
      <trkpt lat="45.19892" lon="5.7244">
        <ele>477</ele>
        <time>2021-08-25T05:07:19.000Z</time>
      </trkpt>
      <trkpt lat="45.19888" lon="5.72453">
        <ele>478.39999389648</ele>
        <time>2021-08-25T05:07:25.000Z</time>
      </trkpt>
      <trkpt lat="45.19885" lon="5.72455">
        <ele>478.39999389648</ele>
        <time>2021-08-25T05:07:27.000Z</time>
      </trkpt>
      <trkpt lat="45.19885" lon="5.72456">
        <ele>478.39999389648</ele>
        <time>2021-08-25T05:07:28.000Z</time>
      </trkpt>
      <trkpt lat="45.19884" lon="5.7246">
        <ele>478.39999389648</ele>
        <time>2021-08-25T05:07:30.000Z</time>
      </trkpt>
      <trkpt lat="45.19871" lon="5.72472">
        <ele>478.20001220703</ele>
        <time>2021-08-25T05:07:36.000Z</time>
      </trkpt>
      <trkpt lat="45.19868" lon="5.72475">
        <ele>478</ele>
        <time>2021-08-25T05:07:37.000Z</time>
      </trkpt>
      <trkpt lat="45.19864" lon="5.72478">
        <ele>477.60000610352</ele>
        <time>2021-08-25T05:07:39.000Z</time>
      </trkpt>
      <trkpt lat="45.19862" lon="5.72479">
        <ele>476.79998779297</ele>
        <time>2021-08-25T05:07:40.000Z</time>
      </trkpt>
      <trkpt lat="45.19861" lon="5.72481">
        <ele>476.79998779297</ele>
        <time>2021-08-25T05:07:41.000Z</time>
      </trkpt>
      <trkpt lat="45.19858" lon="5.72487">
        <ele>476.39999389648</ele>
        <time>2021-08-25T05:07:43.000Z</time>
      </trkpt>
      <trkpt lat="45.19858" lon="5.72492">
        <ele>476.39999389648</ele>
        <time>2021-08-25T05:07:44.000Z</time>
      </trkpt>
      <trkpt lat="45.19857" lon="5.72514">
        <ele>475.60000610352</ele>
        <time>2021-08-25T05:07:49.000Z</time>
      </trkpt>
      <trkpt lat="45.19858" lon="5.72518">
        <ele>475.39999389648</ele>
        <time>2021-08-25T05:07:50.000Z</time>
      </trkpt>
      <trkpt lat="45.19858" lon="5.72523">
        <ele>475.20001220703</ele>
        <time>2021-08-25T05:07:51.000Z</time>
      </trkpt>
      <trkpt lat="45.19858" lon="5.72533">
        <ele>474.60000610352</ele>
        <time>2021-08-25T05:07:53.000Z</time>
      </trkpt>
      <trkpt lat="45.19858" lon="5.72543">
        <ele>473.79998779297</ele>
        <time>2021-08-25T05:07:56.000Z</time>
      </trkpt>
      <trkpt lat="45.19858" lon="5.72544">
        <ele>473.39999389648</ele>
        <time>2021-08-25T05:07:57.000Z</time>
      </trkpt>
      <trkpt lat="45.19857" lon="5.72543">
        <ele>472.79998779297</ele>
        <time>2021-08-25T05:07:58.000Z</time>
      </trkpt>
      <trkpt lat="45.19856" lon="5.72541">
        <ele>472.60000610352</ele>
        <time>2021-08-25T05:07:59.000Z</time>
      </trkpt>
      <trkpt lat="45.19854" lon="5.72537">
        <ele>471.60000610352</ele>
        <time>2021-08-25T05:08:01.000Z</time>
      </trkpt>
      <trkpt lat="45.19853" lon="5.72521">
        <ele>471</ele>
        <time>2021-08-25T05:08:05.000Z</time>
      </trkpt>
      <trkpt lat="45.19852" lon="5.72514">
        <ele>470.39999389648</ele>
        <time>2021-08-25T05:08:07.000Z</time>
      </trkpt>
      <trkpt lat="45.19851" lon="5.72506">
        <ele>469.20001220703</ele>
        <time>2021-08-25T05:08:09.000Z</time>
      </trkpt>
      <trkpt lat="45.19848" lon="5.72494">
        <ele>468.39999389648</ele>
        <time>2021-08-25T05:08:12.000Z</time>
      </trkpt>
      <trkpt lat="45.19848" lon="5.72491">
        <ele>468.39999389648</ele>
        <time>2021-08-25T05:08:13.000Z</time>
      </trkpt>
      <trkpt lat="45.19847" lon="5.72479">
        <ele>468</ele>
        <time>2021-08-25T05:08:16.000Z</time>
      </trkpt>
      <trkpt lat="45.19847" lon="5.72476">
        <ele>467</ele>
        <time>2021-08-25T05:08:17.000Z</time>
      </trkpt>
      <trkpt lat="45.19845" lon="5.72458">
        <ele>465.79998779297</ele>
        <time>2021-08-25T05:08:22.000Z</time>
      </trkpt>
      <trkpt lat="45.19845" lon="5.72452">
        <ele>465.60000610352</ele>
        <time>2021-08-25T05:08:24.000Z</time>
      </trkpt>
      <trkpt lat="45.19843" lon="5.72448">
        <ele>465</ele>
        <time>2021-08-25T05:08:26.000Z</time>
      </trkpt>
      <trkpt lat="45.19841" lon="5.72448">
        <ele>464.60000610352</ele>
        <time>2021-08-25T05:08:27.000Z</time>
      </trkpt>
      <trkpt lat="45.1984" lon="5.72448">
        <ele>464.60000610352</ele>
        <time>2021-08-25T05:08:28.000Z</time>
      </trkpt>
      <trkpt lat="45.19839" lon="5.7245">
        <ele>464.39999389648</ele>
        <time>2021-08-25T05:08:29.000Z</time>
      </trkpt>
      <trkpt lat="45.19837" lon="5.72455">
        <ele>464</ele>
        <time>2021-08-25T05:08:31.000Z</time>
      </trkpt>
      <trkpt lat="45.19837" lon="5.72458">
        <ele>464</ele>
        <time>2021-08-25T05:08:32.000Z</time>
      </trkpt>
      <trkpt lat="45.19835" lon="5.72468">
        <ele>463.20001220703</ele>
        <time>2021-08-25T05:08:35.000Z</time>
      </trkpt>
      <trkpt lat="45.19833" lon="5.72478">
        <ele>461.79998779297</ele>
        <time>2021-08-25T05:08:38.000Z</time>
      </trkpt>
      <trkpt lat="45.1983" lon="5.72492">
        <ele>460.39999389648</ele>
        <time>2021-08-25T05:08:42.000Z</time>
      </trkpt>
      <trkpt lat="45.19828" lon="5.72506">
        <ele>458.39999389648</ele>
        <time>2021-08-25T05:08:46.000Z</time>
      </trkpt>
      <trkpt lat="45.19827" lon="5.72509">
        <ele>458.39999389648</ele>
        <time>2021-08-25T05:08:47.000Z</time>
      </trkpt>
      <trkpt lat="45.19824" lon="5.72529">
        <ele>456.79998779297</ele>
        <time>2021-08-25T05:08:52.000Z</time>
      </trkpt>
      <trkpt lat="45.19824" lon="5.72542">
        <ele>456.39999389648</ele>
        <time>2021-08-25T05:08:55.000Z</time>
      </trkpt>
      <trkpt lat="45.19823" lon="5.72552">
        <ele>455.60000610352</ele>
        <time>2021-08-25T05:08:57.000Z</time>
      </trkpt>
      <trkpt lat="45.19823" lon="5.72569">
        <ele>454.39999389648</ele>
        <time>2021-08-25T05:09:01.000Z</time>
      </trkpt>
      <trkpt lat="45.19823" lon="5.72572">
        <ele>454.39999389648</ele>
        <time>2021-08-25T05:09:02.000Z</time>
      </trkpt>
      <trkpt lat="45.19823" lon="5.72591">
        <ele>453.39999389648</ele>
        <time>2021-08-25T05:09:07.000Z</time>
      </trkpt>
      <trkpt lat="45.19823" lon="5.72595">
        <ele>453.39999389648</ele>
        <time>2021-08-25T05:09:08.000Z</time>
      </trkpt>
      <trkpt lat="45.19823" lon="5.72598">
        <ele>452.20001220703</ele>
        <time>2021-08-25T05:09:09.000Z</time>
      </trkpt>
      <trkpt lat="45.19826" lon="5.72613">
        <ele>451.20001220703</ele>
        <time>2021-08-25T05:09:14.000Z</time>
      </trkpt>
      <trkpt lat="45.19828" lon="5.72616">
        <ele>450.79998779297</ele>
        <time>2021-08-25T05:09:15.000Z</time>
      </trkpt>
      <trkpt lat="45.19832" lon="5.72627">
        <ele>450</ele>
        <time>2021-08-25T05:09:19.000Z</time>
      </trkpt>
      <trkpt lat="45.19835" lon="5.72636">
        <ele>449.20001220703</ele>
        <time>2021-08-25T05:09:22.000Z</time>
      </trkpt>
      <trkpt lat="45.19836" lon="5.72639">
        <ele>448.79998779297</ele>
        <time>2021-08-25T05:09:23.000Z</time>
      </trkpt>
      <trkpt lat="45.19845" lon="5.72654">
        <ele>447</ele>
        <time>2021-08-25T05:09:28.000Z</time>
      </trkpt>
      <trkpt lat="45.19851" lon="5.72664">
        <ele>447</ele>
        <time>2021-08-25T05:09:31.000Z</time>
      </trkpt>
      <trkpt lat="45.19855" lon="5.72672">
        <ele>445.79998779297</ele>
        <time>2021-08-25T05:09:33.000Z</time>
      </trkpt>
      <trkpt lat="45.19858" lon="5.72678">
        <ele>445.20001220703</ele>
        <time>2021-08-25T05:09:35.000Z</time>
      </trkpt>
      <trkpt lat="45.1986" lon="5.72681">
        <ele>444.79998779297</ele>
        <time>2021-08-25T05:09:36.000Z</time>
      </trkpt>
      <trkpt lat="45.1986" lon="5.72684">
        <ele>444.60000610352</ele>
        <time>2021-08-25T05:09:37.000Z</time>
      </trkpt>
      <trkpt lat="45.19857" lon="5.72686">
        <ele>444</ele>
        <time>2021-08-25T05:09:39.000Z</time>
      </trkpt>
      <trkpt lat="45.19852" lon="5.72684">
        <ele>443.39999389648</ele>
        <time>2021-08-25T05:09:41.000Z</time>
      </trkpt>
      <trkpt lat="45.19847" lon="5.7268">
        <ele>443.20001220703</ele>
        <time>2021-08-25T05:09:43.000Z</time>
      </trkpt>
      <trkpt lat="45.19842" lon="5.72676">
        <ele>442.39999389648</ele>
        <time>2021-08-25T05:09:45.000Z</time>
      </trkpt>
      <trkpt lat="45.1984" lon="5.72674">
        <ele>442</ele>
        <time>2021-08-25T05:09:46.000Z</time>
      </trkpt>
      <trkpt lat="45.19833" lon="5.72666">
        <ele>441.79998779297</ele>
        <time>2021-08-25T05:09:49.000Z</time>
      </trkpt>
      <trkpt lat="45.19825" lon="5.72659">
        <ele>440.79998779297</ele>
        <time>2021-08-25T05:09:52.000Z</time>
      </trkpt>
      <trkpt lat="45.19812" lon="5.72648">
        <ele>439.39999389648</ele>
        <time>2021-08-25T05:09:57.000Z</time>
      </trkpt>
      <trkpt lat="45.198" lon="5.7264">
        <ele>438.20001220703</ele>
        <time>2021-08-25T05:10:02.000Z</time>
      </trkpt>
      <trkpt lat="45.19798" lon="5.72638">
        <ele>437.79998779297</ele>
        <time>2021-08-25T05:10:03.000Z</time>
      </trkpt>
      <trkpt lat="45.19789" lon="5.72631">
        <ele>437.20001220703</ele>
        <time>2021-08-25T05:10:07.000Z</time>
      </trkpt>
      <trkpt lat="45.19788" lon="5.72627">
        <ele>436.79998779297</ele>
        <time>2021-08-25T05:10:08.000Z</time>
      </trkpt>
      <trkpt lat="45.19786" lon="5.72624">
        <ele>436.79998779297</ele>
        <time>2021-08-25T05:10:09.000Z</time>
      </trkpt>
      <trkpt lat="45.19784" lon="5.72616">
        <ele>435.79998779297</ele>
        <time>2021-08-25T05:10:11.000Z</time>
      </trkpt>
      <trkpt lat="45.19783" lon="5.72608">
        <ele>435.39999389648</ele>
        <time>2021-08-25T05:10:13.000Z</time>
      </trkpt>
      <trkpt lat="45.19784" lon="5.72599">
        <ele>435</ele>
        <time>2021-08-25T05:10:15.000Z</time>
      </trkpt>
      <trkpt lat="45.19784" lon="5.72593">
        <ele>434.60000610352</ele>
        <time>2021-08-25T05:10:16.000Z</time>
      </trkpt>
      <trkpt lat="45.19784" lon="5.72583">
        <ele>433.60000610352</ele>
        <time>2021-08-25T05:10:19.000Z</time>
      </trkpt>
      <trkpt lat="45.19785" lon="5.72578">
        <ele>433.39999389648</ele>
        <time>2021-08-25T05:10:20.000Z</time>
      </trkpt>
      <trkpt lat="45.19785" lon="5.72567">
        <ele>432.60000610352</ele>
        <time>2021-08-25T05:10:23.000Z</time>
      </trkpt>
      <trkpt lat="45.19785" lon="5.7256">
        <ele>432.39999389648</ele>
        <time>2021-08-25T05:10:25.000Z</time>
      </trkpt>
      <trkpt lat="45.19787" lon="5.72544">
        <ele>431.20001220703</ele>
        <time>2021-08-25T05:10:29.000Z</time>
      </trkpt>
      <trkpt lat="45.19789" lon="5.7253">
        <ele>430.20001220703</ele>
        <time>2021-08-25T05:10:32.000Z</time>
      </trkpt>
      <trkpt lat="45.19791" lon="5.7251">
        <ele>430</ele>
        <time>2021-08-25T05:10:37.000Z</time>
      </trkpt>
      <trkpt lat="45.19793" lon="5.72501">
        <ele>429.60000610352</ele>
        <time>2021-08-25T05:10:39.000Z</time>
      </trkpt>
      <trkpt lat="45.19797" lon="5.72475">
        <ele>429.60000610352</ele>
        <time>2021-08-25T05:10:45.000Z</time>
      </trkpt>
      <trkpt lat="45.198" lon="5.72447">
        <ele>429.39999389648</ele>
        <time>2021-08-25T05:10:52.000Z</time>
      </trkpt>
      <trkpt lat="45.198" lon="5.72443">
        <ele>429.39999389648</ele>
        <time>2021-08-25T05:10:53.000Z</time>
      </trkpt>
      <trkpt lat="45.198" lon="5.72438">
        <ele>429.39999389648</ele>
        <time>2021-08-25T05:10:54.000Z</time>
      </trkpt>
      <trkpt lat="45.19798" lon="5.72422">
        <ele>429</ele>
        <time>2021-08-25T05:10:58.000Z</time>
      </trkpt>
      <trkpt lat="45.19797" lon="5.72401">
        <ele>428.39999389648</ele>
        <time>2021-08-25T05:11:03.000Z</time>
      </trkpt>
      <trkpt lat="45.19806" lon="5.72378">
        <ele>428.39999389648</ele>
        <time>2021-08-25T05:11:09.000Z</time>
      </trkpt>
      <trkpt lat="45.19819" lon="5.72359">
        <ele>428</ele>
        <time>2021-08-25T05:11:16.000Z</time>
      </trkpt>
      <trkpt lat="45.1982" lon="5.72357">
        <ele>427.60000610352</ele>
        <time>2021-08-25T05:11:17.000Z</time>
      </trkpt>
      <trkpt lat="45.1982" lon="5.72351">
        <ele>426.39999389648</ele>
        <time>2021-08-25T05:11:21.000Z</time>
      </trkpt>
      <trkpt lat="45.1982" lon="5.7235">
        <ele>426.39999389648</ele>
        <time>2021-08-25T05:11:22.000Z</time>
      </trkpt>
      <trkpt lat="45.1982" lon="5.72347">
        <ele>425.39999389648</ele>
        <time>2021-08-25T05:11:24.000Z</time>
      </trkpt>
      <trkpt lat="45.1982" lon="5.72344">
        <ele>423.60000610352</ele>
        <time>2021-08-25T05:11:26.000Z</time>
      </trkpt>
      <trkpt lat="45.1982" lon="5.72341">
        <ele>422.39999389648</ele>
        <time>2021-08-25T05:11:29.000Z</time>
      </trkpt>
      <trkpt lat="45.19819" lon="5.72339">
        <ele>422</ele>
        <time>2021-08-25T05:11:30.000Z</time>
      </trkpt>
      <trkpt lat="45.19819" lon="5.72338">
        <ele>421.39999389648</ele>
        <time>2021-08-25T05:11:31.000Z</time>
      </trkpt>
      <trkpt lat="45.19819" lon="5.72335">
        <ele>420</ele>
        <time>2021-08-25T05:11:34.000Z</time>
      </trkpt>
      <trkpt lat="45.19819" lon="5.72333">
        <ele>418.79998779297</ele>
        <time>2021-08-25T05:11:36.000Z</time>
      </trkpt>
      <trkpt lat="45.19819" lon="5.72332">
        <ele>418.20001220703</ele>
        <time>2021-08-25T05:11:38.000Z</time>
      </trkpt>
      <trkpt lat="45.19818" lon="5.72331">
        <ele>417.20001220703</ele>
        <time>2021-08-25T05:11:39.000Z</time>
      </trkpt>
      <trkpt lat="45.19817" lon="5.72332">
        <ele>417.20001220703</ele>
        <time>2021-08-25T05:11:40.000Z</time>
      </trkpt>
      <trkpt lat="45.19814" lon="5.72337">
        <ele>417.20001220703</ele>
        <time>2021-08-25T05:11:42.000Z</time>
      </trkpt>
      <trkpt lat="45.19806" lon="5.72356">
        <ele>417</ele>
        <time>2021-08-25T05:11:47.000Z</time>
      </trkpt>
      <trkpt lat="45.19799" lon="5.72372">
        <ele>417.20001220703</ele>
        <time>2021-08-25T05:11:51.000Z</time>
      </trkpt>
      <trkpt lat="45.1979" lon="5.72388">
        <ele>416.60000610352</ele>
        <time>2021-08-25T05:11:56.000Z</time>
      </trkpt>
      <trkpt lat="45.19787" lon="5.72405">
        <ele>416.79998779297</ele>
        <time>2021-08-25T05:12:01.000Z</time>
      </trkpt>
      <trkpt lat="45.19788" lon="5.72415">
        <ele>416</ele>
        <time>2021-08-25T05:12:04.000Z</time>
      </trkpt>
      <trkpt lat="45.19787" lon="5.72422">
        <ele>416</ele>
        <time>2021-08-25T05:12:06.000Z</time>
      </trkpt>
      <trkpt lat="45.19779" lon="5.72446">
        <ele>415.79998779297</ele>
        <time>2021-08-25T05:12:13.000Z</time>
      </trkpt>
      <trkpt lat="45.19767" lon="5.7247">
        <ele>415.60000610352</ele>
        <time>2021-08-25T05:12:20.000Z</time>
      </trkpt>
      <trkpt lat="45.19755" lon="5.72492">
        <ele>415.60000610352</ele>
        <time>2021-08-25T05:12:27.000Z</time>
      </trkpt>
      <trkpt lat="45.19751" lon="5.72498">
        <ele>415.60000610352</ele>
        <time>2021-08-25T05:12:29.000Z</time>
      </trkpt>
      <trkpt lat="45.19743" lon="5.72508">
        <ele>415.60000610352</ele>
        <time>2021-08-25T05:12:33.000Z</time>
      </trkpt>
      <trkpt lat="45.1974" lon="5.72509">
        <ele>415.60000610352</ele>
        <time>2021-08-25T05:12:34.000Z</time>
      </trkpt>
      <trkpt lat="45.19738" lon="5.7251">
        <ele>415.60000610352</ele>
        <time>2021-08-25T05:12:35.000Z</time>
      </trkpt>
      <trkpt lat="45.19735" lon="5.72516">
        <ele>415.60000610352</ele>
        <time>2021-08-25T05:12:37.000Z</time>
      </trkpt>
      <trkpt lat="45.19733" lon="5.7253">
        <ele>416</ele>
        <time>2021-08-25T05:12:41.000Z</time>
      </trkpt>
      <trkpt lat="45.19736" lon="5.7253">
        <ele>416.20001220703</ele>
        <time>2021-08-25T05:12:42.000Z</time>
      </trkpt>
      <trkpt lat="45.19738" lon="5.72532">
        <ele>416.20001220703</ele>
        <time>2021-08-25T05:12:43.000Z</time>
      </trkpt>
      <trkpt lat="45.19742" lon="5.72536">
        <ele>416.20001220703</ele>
        <time>2021-08-25T05:12:45.000Z</time>
      </trkpt>
      <trkpt lat="45.19742" lon="5.72544">
        <ele>416.20001220703</ele>
        <time>2021-08-25T05:12:47.000Z</time>
      </trkpt>
      <trkpt lat="45.19743" lon="5.72553">
        <ele>415.60000610352</ele>
        <time>2021-08-25T05:12:49.000Z</time>
      </trkpt>
      <trkpt lat="45.19743" lon="5.72561">
        <ele>415.39999389648</ele>
        <time>2021-08-25T05:12:51.000Z</time>
      </trkpt>
      <trkpt lat="45.19742" lon="5.72569">
        <ele>415.39999389648</ele>
        <time>2021-08-25T05:12:53.000Z</time>
      </trkpt>
      <trkpt lat="45.19743" lon="5.72598">
        <ele>415.60000610352</ele>
        <time>2021-08-25T05:13:00.000Z</time>
      </trkpt>
      <trkpt lat="45.19743" lon="5.72602">
        <ele>415.60000610352</ele>
        <time>2021-08-25T05:13:01.000Z</time>
      </trkpt>
      <trkpt lat="45.19742" lon="5.72623">
        <ele>415.60000610352</ele>
        <time>2021-08-25T05:13:07.000Z</time>
      </trkpt>
      <trkpt lat="45.19743" lon="5.72625">
        <ele>416</ele>
        <time>2021-08-25T05:13:08.000Z</time>
      </trkpt>
      <trkpt lat="45.19746" lon="5.72628">
        <ele>415.60000610352</ele>
        <time>2021-08-25T05:13:10.000Z</time>
      </trkpt>
      <trkpt lat="45.19758" lon="5.72644">
        <ele>415.60000610352</ele>
        <time>2021-08-25T05:13:17.000Z</time>
      </trkpt>
      <trkpt lat="45.19773" lon="5.72663">
        <ele>415.39999389648</ele>
        <time>2021-08-25T05:13:24.000Z</time>
      </trkpt>
      <trkpt lat="45.19775" lon="5.72666">
        <ele>415.39999389648</ele>
        <time>2021-08-25T05:13:25.000Z</time>
      </trkpt>
      <trkpt lat="45.19778" lon="5.72672">
        <ele>415.39999389648</ele>
        <time>2021-08-25T05:13:27.000Z</time>
      </trkpt>
      <trkpt lat="45.19786" lon="5.72679">
        <ele>415.39999389648</ele>
        <time>2021-08-25T05:13:30.000Z</time>
      </trkpt>
      <trkpt lat="45.19792" lon="5.72686">
        <ele>414.79998779297</ele>
        <time>2021-08-25T05:13:33.000Z</time>
      </trkpt>
      <trkpt lat="45.19801" lon="5.72698">
        <ele>414.79998779297</ele>
        <time>2021-08-25T05:13:37.000Z</time>
      </trkpt>
      <trkpt lat="45.19803" lon="5.72699">
        <ele>415.20001220703</ele>
        <time>2021-08-25T05:13:38.000Z</time>
      </trkpt>
      <trkpt lat="45.19806" lon="5.72703">
        <ele>415.39999389648</ele>
        <time>2021-08-25T05:13:40.000Z</time>
      </trkpt>
      <trkpt lat="45.19816" lon="5.72715">
        <ele>415.39999389648</ele>
        <time>2021-08-25T05:13:45.000Z</time>
      </trkpt>
      <trkpt lat="45.19818" lon="5.72717">
        <ele>415.39999389648</ele>
        <time>2021-08-25T05:13:46.000Z</time>
      </trkpt>
      <trkpt lat="45.19828" lon="5.72737">
        <ele>415.39999389648</ele>
        <time>2021-08-25T05:13:52.000Z</time>
      </trkpt>
      <trkpt lat="45.19838" lon="5.72744">
        <ele>415.60000610352</ele>
        <time>2021-08-25T05:13:56.000Z</time>
      </trkpt>
      <trkpt lat="45.19839" lon="5.72743">
        <ele>415.60000610352</ele>
        <time>2021-08-25T05:13:57.000Z</time>
      </trkpt>
      <trkpt lat="45.19854" lon="5.72744">
        <ele>411.60000610352</ele>
        <time>2021-08-25T05:14:12.000Z</time>
      </trkpt>
      <trkpt lat="45.19855" lon="5.72751">
        <ele>411.20001220703</ele>
        <time>2021-08-25T05:14:13.000Z</time>
      </trkpt>
      <trkpt lat="45.19857" lon="5.72759">
        <ele>410.60000610352</ele>
        <time>2021-08-25T05:14:18.000Z</time>
      </trkpt>
      <trkpt lat="45.19856" lon="5.72758">
        <ele>409.79998779297</ele>
        <time>2021-08-25T05:14:19.000Z</time>
      </trkpt>
      <trkpt lat="45.19856" lon="5.72756">
        <ele>409.60000610352</ele>
        <time>2021-08-25T05:14:21.000Z</time>
      </trkpt>
      <trkpt lat="45.19856" lon="5.72755">
        <ele>408.79998779297</ele>
        <time>2021-08-25T05:14:23.000Z</time>
      </trkpt>
      <trkpt lat="45.19855" lon="5.72754">
        <ele>407.60000610352</ele>
        <time>2021-08-25T05:14:24.000Z</time>
      </trkpt>
      <trkpt lat="45.19855" lon="5.7275">
        <ele>406</ele>
        <time>2021-08-25T05:14:27.000Z</time>
      </trkpt>
      <trkpt lat="45.19855" lon="5.72755">
        <ele>405.79998779297</ele>
        <time>2021-08-25T05:14:29.000Z</time>
      </trkpt>
      <trkpt lat="45.19855" lon="5.72757">
        <ele>404.79998779297</ele>
        <time>2021-08-25T05:14:31.000Z</time>
      </trkpt>
      <trkpt lat="45.19845" lon="5.72774">
        <ele>387.20001220703</ele>
        <time>2021-08-25T05:15:13.000Z</time>
      </trkpt>
      <trkpt lat="45.19853" lon="5.72782">
        <ele>386.79998779297</ele>
        <time>2021-08-25T05:15:15.000Z</time>
      </trkpt>
      <trkpt lat="45.19852" lon="5.72786">
        <ele>386.79998779297</ele>
        <time>2021-08-25T05:15:16.000Z</time>
      </trkpt>
      <trkpt lat="45.19849" lon="5.72787">
        <ele>386.60000610352</ele>
        <time>2021-08-25T05:15:17.000Z</time>
      </trkpt>
      <trkpt lat="45.19838" lon="5.72786">
        <ele>385.60000610352</ele>
        <time>2021-08-25T05:15:20.000Z</time>
      </trkpt>
      <trkpt lat="45.19834" lon="5.7278">
        <ele>385.20001220703</ele>
        <time>2021-08-25T05:15:22.000Z</time>
      </trkpt>
      <trkpt lat="45.19823" lon="5.72773">
        <ele>384.39999389648</ele>
        <time>2021-08-25T05:15:26.000Z</time>
      </trkpt>
      <trkpt lat="45.19814" lon="5.72769">
        <ele>383.60000610352</ele>
        <time>2021-08-25T05:15:29.000Z</time>
      </trkpt>
      <trkpt lat="45.19812" lon="5.72767">
        <ele>383.20001220703</ele>
        <time>2021-08-25T05:15:30.000Z</time>
      </trkpt>
      <trkpt lat="45.19801" lon="5.72756">
        <ele>382</ele>
        <time>2021-08-25T05:15:35.000Z</time>
      </trkpt>
      <trkpt lat="45.19792" lon="5.72746">
        <ele>381</ele>
        <time>2021-08-25T05:15:39.000Z</time>
      </trkpt>
      <trkpt lat="45.19788" lon="5.72743">
        <ele>380.79998779297</ele>
        <time>2021-08-25T05:15:41.000Z</time>
      </trkpt>
      <trkpt lat="45.19785" lon="5.72742">
        <ele>379.79998779297</ele>
        <time>2021-08-25T05:15:43.000Z</time>
      </trkpt>
      <trkpt lat="45.19785" lon="5.72743">
        <ele>379.39999389648</ele>
        <time>2021-08-25T05:15:44.000Z</time>
      </trkpt>
      <trkpt lat="45.19786" lon="5.72743">
        <ele>379.20001220703</ele>
        <time>2021-08-25T05:15:45.000Z</time>
      </trkpt>
      <trkpt lat="45.19789" lon="5.72744">
        <ele>378.79998779297</ele>
        <time>2021-08-25T05:15:47.000Z</time>
      </trkpt>
      <trkpt lat="45.19792" lon="5.72745">
        <ele>378.20001220703</ele>
        <time>2021-08-25T05:15:48.000Z</time>
      </trkpt>
      <trkpt lat="45.19796" lon="5.72748">
        <ele>377.79998779297</ele>
        <time>2021-08-25T05:15:50.000Z</time>
      </trkpt>
      <trkpt lat="45.19798" lon="5.7275">
        <ele>377.60000610352</ele>
        <time>2021-08-25T05:15:51.000Z</time>
      </trkpt>
      <trkpt lat="45.198" lon="5.72752">
        <ele>377.20001220703</ele>
        <time>2021-08-25T05:15:52.000Z</time>
      </trkpt>
      <trkpt lat="45.19806" lon="5.7276">
        <ele>376.39999389648</ele>
        <time>2021-08-25T05:15:55.000Z</time>
      </trkpt>
      <trkpt lat="45.19811" lon="5.72768">
        <ele>374.20001220703</ele>
        <time>2021-08-25T05:15:58.000Z</time>
      </trkpt>
      <trkpt lat="45.19816" lon="5.72771">
        <ele>374.20001220703</ele>
        <time>2021-08-25T05:16:00.000Z</time>
      </trkpt>
      <trkpt lat="45.19825" lon="5.72784">
        <ele>373.39999389648</ele>
        <time>2021-08-25T05:16:05.000Z</time>
      </trkpt>
      <trkpt lat="45.19827" lon="5.72786">
        <ele>372.60000610352</ele>
        <time>2021-08-25T05:16:06.000Z</time>
      </trkpt>
      <trkpt lat="45.19837" lon="5.72794">
        <ele>371.39999389648</ele>
        <time>2021-08-25T05:16:10.000Z</time>
      </trkpt>
      <trkpt lat="45.1984" lon="5.72798">
        <ele>370.79998779297</ele>
        <time>2021-08-25T05:16:12.000Z</time>
      </trkpt>
      <trkpt lat="45.19841" lon="5.72801">
        <ele>370.20001220703</ele>
        <time>2021-08-25T05:16:13.000Z</time>
      </trkpt>
      <trkpt lat="45.19841" lon="5.72803">
        <ele>369.79998779297</ele>
        <time>2021-08-25T05:16:14.000Z</time>
      </trkpt>
      <trkpt lat="45.19839" lon="5.72804">
        <ele>369.60000610352</ele>
        <time>2021-08-25T05:16:15.000Z</time>
      </trkpt>
      <trkpt lat="45.19832" lon="5.72801">
        <ele>368.79998779297</ele>
        <time>2021-08-25T05:16:18.000Z</time>
      </trkpt>
      <trkpt lat="45.1983" lon="5.72799">
        <ele>368.60000610352</ele>
        <time>2021-08-25T05:16:19.000Z</time>
      </trkpt>
      <trkpt lat="45.19825" lon="5.72796">
        <ele>367.60000610352</ele>
        <time>2021-08-25T05:16:21.000Z</time>
      </trkpt>
      <trkpt lat="45.19813" lon="5.72793">
        <ele>366.79998779297</ele>
        <time>2021-08-25T05:16:25.000Z</time>
      </trkpt>
      <trkpt lat="45.19811" lon="5.72792">
        <ele>366.60000610352</ele>
        <time>2021-08-25T05:16:26.000Z</time>
      </trkpt>
      <trkpt lat="45.19803" lon="5.72786">
        <ele>365.39999389648</ele>
        <time>2021-08-25T05:16:29.000Z</time>
      </trkpt>
      <trkpt lat="45.198" lon="5.72784">
        <ele>365.20001220703</ele>
        <time>2021-08-25T05:16:30.000Z</time>
      </trkpt>
      <trkpt lat="45.19798" lon="5.72783">
        <ele>364.79998779297</ele>
        <time>2021-08-25T05:16:31.000Z</time>
      </trkpt>
      <trkpt lat="45.19795" lon="5.72783">
        <ele>364.60000610352</ele>
        <time>2021-08-25T05:16:32.000Z</time>
      </trkpt>
      <trkpt lat="45.19794" lon="5.72784">
        <ele>364.39999389648</ele>
        <time>2021-08-25T05:16:33.000Z</time>
      </trkpt>
      <trkpt lat="45.19794" lon="5.72786">
        <ele>363.60000610352</ele>
        <time>2021-08-25T05:16:34.000Z</time>
      </trkpt>
      <trkpt lat="45.19795" lon="5.72788">
        <ele>363.39999389648</ele>
        <time>2021-08-25T05:16:36.000Z</time>
      </trkpt>
      <trkpt lat="45.19796" lon="5.72789">
        <ele>363.20001220703</ele>
        <time>2021-08-25T05:16:37.000Z</time>
      </trkpt>
      <trkpt lat="45.19798" lon="5.7279">
        <ele>362.79998779297</ele>
        <time>2021-08-25T05:16:38.000Z</time>
      </trkpt>
      <trkpt lat="45.19802" lon="5.72794">
        <ele>362.60000610352</ele>
        <time>2021-08-25T05:16:40.000Z</time>
      </trkpt>
      <trkpt lat="45.19807" lon="5.72798">
        <ele>362</ele>
        <time>2021-08-25T05:16:42.000Z</time>
      </trkpt>
      <trkpt lat="45.19816" lon="5.72807">
        <ele>360.39999389648</ele>
        <time>2021-08-25T05:16:46.000Z</time>
      </trkpt>
      <trkpt lat="45.19817" lon="5.72808">
        <ele>360.20001220703</ele>
        <time>2021-08-25T05:16:47.000Z</time>
      </trkpt>
      <trkpt lat="45.19823" lon="5.72816">
        <ele>359</ele>
        <time>2021-08-25T05:16:50.000Z</time>
      </trkpt>
      <trkpt lat="45.19828" lon="5.7282">
        <ele>358.39999389648</ele>
        <time>2021-08-25T05:16:52.000Z</time>
      </trkpt>
      <trkpt lat="45.19831" lon="5.72823">
        <ele>358</ele>
        <time>2021-08-25T05:16:53.000Z</time>
      </trkpt>
      <trkpt lat="45.19841" lon="5.72831">
        <ele>356.79998779297</ele>
        <time>2021-08-25T05:16:58.000Z</time>
      </trkpt>
      <trkpt lat="45.19841" lon="5.72832">
        <ele>356.79998779297</ele>
        <time>2021-08-25T05:16:59.000Z</time>
      </trkpt>
      <trkpt lat="45.19835" lon="5.7283">
        <ele>356.20001220703</ele>
        <time>2021-08-25T05:17:02.000Z</time>
      </trkpt>
      <trkpt lat="45.19832" lon="5.72829">
        <ele>355.60000610352</ele>
        <time>2021-08-25T05:17:03.000Z</time>
      </trkpt>
      <trkpt lat="45.1982" lon="5.72823">
        <ele>354.20001220703</ele>
        <time>2021-08-25T05:17:08.000Z</time>
      </trkpt>
      <trkpt lat="45.19817" lon="5.72822">
        <ele>354.20001220703</ele>
        <time>2021-08-25T05:17:09.000Z</time>
      </trkpt>
      <trkpt lat="45.19812" lon="5.72818">
        <ele>353.20001220703</ele>
        <time>2021-08-25T05:17:12.000Z</time>
      </trkpt>
      <trkpt lat="45.19811" lon="5.72818">
        <ele>352.39999389648</ele>
        <time>2021-08-25T05:17:13.000Z</time>
      </trkpt>
      <trkpt lat="45.19812" lon="5.72819">
        <ele>352.20001220703</ele>
        <time>2021-08-25T05:17:14.000Z</time>
      </trkpt>
      <trkpt lat="45.19813" lon="5.72821">
        <ele>352</ele>
        <time>2021-08-25T05:17:15.000Z</time>
      </trkpt>
      <trkpt lat="45.19824" lon="5.72828">
        <ele>350.79998779297</ele>
        <time>2021-08-25T05:17:19.000Z</time>
      </trkpt>
      <trkpt lat="45.1983" lon="5.72834">
        <ele>349.79998779297</ele>
        <time>2021-08-25T05:17:22.000Z</time>
      </trkpt>
      <trkpt lat="45.1983" lon="5.72837">
        <ele>349.79998779297</ele>
        <time>2021-08-25T05:17:23.000Z</time>
      </trkpt>
      <trkpt lat="45.19828" lon="5.72838">
        <ele>349.39999389648</ele>
        <time>2021-08-25T05:17:24.000Z</time>
      </trkpt>
      <trkpt lat="45.19824" lon="5.72839">
        <ele>349</ele>
        <time>2021-08-25T05:17:26.000Z</time>
      </trkpt>
      <trkpt lat="45.19819" lon="5.72839">
        <ele>348.79998779297</ele>
        <time>2021-08-25T05:17:28.000Z</time>
      </trkpt>
      <trkpt lat="45.19816" lon="5.72838">
        <ele>348.79998779297</ele>
        <time>2021-08-25T05:17:29.000Z</time>
      </trkpt>
      <trkpt lat="45.19813" lon="5.72836">
        <ele>347.60000610352</ele>
        <time>2021-08-25T05:17:30.000Z</time>
      </trkpt>
      <trkpt lat="45.19811" lon="5.72835">
        <ele>347.39999389648</ele>
        <time>2021-08-25T05:17:31.000Z</time>
      </trkpt>
      <trkpt lat="45.19803" lon="5.72826">
        <ele>346.20001220703</ele>
        <time>2021-08-25T05:17:34.000Z</time>
      </trkpt>
      <trkpt lat="45.19801" lon="5.72825">
        <ele>346.20001220703</ele>
        <time>2021-08-25T05:17:35.000Z</time>
      </trkpt>
      <trkpt lat="45.19793" lon="5.72818">
        <ele>345.20001220703</ele>
        <time>2021-08-25T05:17:38.000Z</time>
      </trkpt>
      <trkpt lat="45.19789" lon="5.72815">
        <ele>344.79998779297</ele>
        <time>2021-08-25T05:17:40.000Z</time>
      </trkpt>
      <trkpt lat="45.19788" lon="5.72814">
        <ele>344.60000610352</ele>
        <time>2021-08-25T05:17:41.000Z</time>
      </trkpt>
      <trkpt lat="45.19789" lon="5.72816">
        <ele>344.20001220703</ele>
        <time>2021-08-25T05:17:42.000Z</time>
      </trkpt>
      <trkpt lat="45.1979" lon="5.72817">
        <ele>344.20001220703</ele>
        <time>2021-08-25T05:17:43.000Z</time>
      </trkpt>
      <trkpt lat="45.19792" lon="5.7282">
        <ele>344</ele>
        <time>2021-08-25T05:17:44.000Z</time>
      </trkpt>
      <trkpt lat="45.19801" lon="5.7283">
        <ele>343.20001220703</ele>
        <time>2021-08-25T05:17:48.000Z</time>
      </trkpt>
      <trkpt lat="45.19804" lon="5.72832">
        <ele>343</ele>
        <time>2021-08-25T05:17:49.000Z</time>
      </trkpt>
      <trkpt lat="45.19816" lon="5.72841">
        <ele>342</ele>
        <time>2021-08-25T05:17:53.000Z</time>
      </trkpt>
      <trkpt lat="45.19818" lon="5.72844">
        <ele>341.79998779297</ele>
        <time>2021-08-25T05:17:54.000Z</time>
      </trkpt>
      <trkpt lat="45.19821" lon="5.72848">
        <ele>341.39999389648</ele>
        <time>2021-08-25T05:17:56.000Z</time>
      </trkpt>
      <trkpt lat="45.19819" lon="5.72848">
        <ele>341</ele>
        <time>2021-08-25T05:17:57.000Z</time>
      </trkpt>
      <trkpt lat="45.19816" lon="5.72846">
        <ele>340.60000610352</ele>
        <time>2021-08-25T05:17:58.000Z</time>
      </trkpt>
      <trkpt lat="45.19807" lon="5.72842">
        <ele>339.60000610352</ele>
        <time>2021-08-25T05:18:02.000Z</time>
      </trkpt>
      <trkpt lat="45.19805" lon="5.7284">
        <ele>339</ele>
        <time>2021-08-25T05:18:03.000Z</time>
      </trkpt>
      <trkpt lat="45.19798" lon="5.72835">
        <ele>338.39999389648</ele>
        <time>2021-08-25T05:18:06.000Z</time>
      </trkpt>
      <trkpt lat="45.19789" lon="5.72832">
        <ele>337.20001220703</ele>
        <time>2021-08-25T05:18:09.000Z</time>
      </trkpt>
      <trkpt lat="45.1978" lon="5.72827">
        <ele>336.39999389648</ele>
        <time>2021-08-25T05:18:12.000Z</time>
      </trkpt>
      <trkpt lat="45.19777" lon="5.72826">
        <ele>335.79998779297</ele>
        <time>2021-08-25T05:18:13.000Z</time>
      </trkpt>
      <trkpt lat="45.19771" lon="5.72821">
        <ele>334.60000610352</ele>
        <time>2021-08-25T05:18:16.000Z</time>
      </trkpt>
      <trkpt lat="45.19763" lon="5.72818">
        <ele>334</ele>
        <time>2021-08-25T05:18:19.000Z</time>
      </trkpt>
      <trkpt lat="45.19757" lon="5.72816">
        <ele>332.79998779297</ele>
        <time>2021-08-25T05:18:21.000Z</time>
      </trkpt>
      <trkpt lat="45.19753" lon="5.72814">
        <ele>332.20001220703</ele>
        <time>2021-08-25T05:18:24.000Z</time>
      </trkpt>
      <trkpt lat="45.19754" lon="5.72815">
        <ele>331.79998779297</ele>
        <time>2021-08-25T05:18:25.000Z</time>
      </trkpt>
      <trkpt lat="45.19759" lon="5.72823">
        <ele>331</ele>
        <time>2021-08-25T05:18:28.000Z</time>
      </trkpt>
      <trkpt lat="45.19761" lon="5.72824">
        <ele>331</ele>
        <time>2021-08-25T05:18:29.000Z</time>
      </trkpt>
      <trkpt lat="45.19763" lon="5.72826">
        <ele>330.20001220703</ele>
        <time>2021-08-25T05:18:30.000Z</time>
      </trkpt>
      <trkpt lat="45.19767" lon="5.72829">
        <ele>329.60000610352</ele>
        <time>2021-08-25T05:18:32.000Z</time>
      </trkpt>
      <trkpt lat="45.19772" lon="5.72837">
        <ele>328.79998779297</ele>
        <time>2021-08-25T05:18:35.000Z</time>
      </trkpt>
      <trkpt lat="45.1978" lon="5.72849">
        <ele>327.60000610352</ele>
        <time>2021-08-25T05:18:39.000Z</time>
      </trkpt>
      <trkpt lat="45.19784" lon="5.72854">
        <ele>326.20001220703</ele>
        <time>2021-08-25T05:18:41.000Z</time>
      </trkpt>
      <trkpt lat="45.19788" lon="5.72859">
        <ele>325.39999389648</ele>
        <time>2021-08-25T05:18:44.000Z</time>
      </trkpt>
      <trkpt lat="45.1979" lon="5.72861">
        <ele>324.79998779297</ele>
        <time>2021-08-25T05:18:45.000Z</time>
      </trkpt>
      <trkpt lat="45.19795" lon="5.72866">
        <ele>324</ele>
        <time>2021-08-25T05:18:48.000Z</time>
      </trkpt>
      <trkpt lat="45.19798" lon="5.72869">
        <ele>324</ele>
        <time>2021-08-25T05:18:49.000Z</time>
      </trkpt>
      <trkpt lat="45.198" lon="5.72872">
        <ele>323.39999389648</ele>
        <time>2021-08-25T05:18:50.000Z</time>
      </trkpt>
      <trkpt lat="45.19803" lon="5.72876">
        <ele>322.20001220703</ele>
        <time>2021-08-25T05:18:52.000Z</time>
      </trkpt>
      <trkpt lat="45.198" lon="5.72879">
        <ele>322.20001220703</ele>
        <time>2021-08-25T05:18:54.000Z</time>
      </trkpt>
      <trkpt lat="45.19793" lon="5.72879">
        <ele>321.20001220703</ele>
        <time>2021-08-25T05:18:57.000Z</time>
      </trkpt>
      <trkpt lat="45.19785" lon="5.72875">
        <ele>319.79998779297</ele>
        <time>2021-08-25T05:19:00.000Z</time>
      </trkpt>
      <trkpt lat="45.19778" lon="5.72872">
        <ele>318.79998779297</ele>
        <time>2021-08-25T05:19:03.000Z</time>
      </trkpt>
      <trkpt lat="45.19773" lon="5.72869">
        <ele>318</ele>
        <time>2021-08-25T05:19:05.000Z</time>
      </trkpt>
      <trkpt lat="45.19768" lon="5.72865">
        <ele>317.60000610352</ele>
        <time>2021-08-25T05:19:07.000Z</time>
      </trkpt>
      <trkpt lat="45.19763" lon="5.72862">
        <ele>316.39999389648</ele>
        <time>2021-08-25T05:19:09.000Z</time>
      </trkpt>
      <trkpt lat="45.19757" lon="5.72859">
        <ele>316.39999389648</ele>
        <time>2021-08-25T05:19:11.000Z</time>
      </trkpt>
      <trkpt lat="45.19749" lon="5.72854">
        <ele>315.20001220703</ele>
        <time>2021-08-25T05:19:14.000Z</time>
      </trkpt>
      <trkpt lat="45.1974" lon="5.7285">
        <ele>314.20001220703</ele>
        <time>2021-08-25T05:19:17.000Z</time>
      </trkpt>
      <trkpt lat="45.19737" lon="5.7285">
        <ele>313.79998779297</ele>
        <time>2021-08-25T05:19:19.000Z</time>
      </trkpt>
      <trkpt lat="45.19738" lon="5.72852">
        <ele>313.39999389648</ele>
        <time>2021-08-25T05:19:20.000Z</time>
      </trkpt>
      <trkpt lat="45.19739" lon="5.72853">
        <ele>313</ele>
        <time>2021-08-25T05:19:21.000Z</time>
      </trkpt>
      <trkpt lat="45.19741" lon="5.72855">
        <ele>313</ele>
        <time>2021-08-25T05:19:22.000Z</time>
      </trkpt>
      <trkpt lat="45.19745" lon="5.72861">
        <ele>311.60000610352</ele>
        <time>2021-08-25T05:19:25.000Z</time>
      </trkpt>
      <trkpt lat="45.19754" lon="5.72871">
        <ele>310.39999389648</ele>
        <time>2021-08-25T05:19:30.000Z</time>
      </trkpt>
      <trkpt lat="45.19756" lon="5.72874">
        <ele>310</ele>
        <time>2021-08-25T05:19:31.000Z</time>
      </trkpt>
      <trkpt lat="45.19758" lon="5.72875">
        <ele>309.60000610352</ele>
        <time>2021-08-25T05:19:32.000Z</time>
      </trkpt>
      <trkpt lat="45.19761" lon="5.72878">
        <ele>309.39999389648</ele>
        <time>2021-08-25T05:19:33.000Z</time>
      </trkpt>
      <trkpt lat="45.19764" lon="5.72883">
        <ele>308.60000610352</ele>
        <time>2021-08-25T05:19:36.000Z</time>
      </trkpt>
      <trkpt lat="45.19766" lon="5.72885">
        <ele>307.79998779297</ele>
        <time>2021-08-25T05:19:37.000Z</time>
      </trkpt>
      <trkpt lat="45.19772" lon="5.72891">
        <ele>306.60000610352</ele>
        <time>2021-08-25T05:19:41.000Z</time>
      </trkpt>
      <trkpt lat="45.19774" lon="5.72892">
        <ele>306.39999389648</ele>
        <time>2021-08-25T05:19:42.000Z</time>
      </trkpt>
      <trkpt lat="45.19785" lon="5.72903">
        <ele>305</ele>
        <time>2021-08-25T05:19:47.000Z</time>
      </trkpt>
      <trkpt lat="45.19789" lon="5.72906">
        <ele>304.20001220703</ele>
        <time>2021-08-25T05:19:49.000Z</time>
      </trkpt>
      <trkpt lat="45.19791" lon="5.72908">
        <ele>303.60000610352</ele>
        <time>2021-08-25T05:19:50.000Z</time>
      </trkpt>
      <trkpt lat="45.19789" lon="5.72913">
        <ele>303.39999389648</ele>
        <time>2021-08-25T05:19:52.000Z</time>
      </trkpt>
      <trkpt lat="45.19786" lon="5.72912">
        <ele>302.60000610352</ele>
        <time>2021-08-25T05:19:54.000Z</time>
      </trkpt>
      <trkpt lat="45.19781" lon="5.7291">
        <ele>301.39999389648</ele>
        <time>2021-08-25T05:19:57.000Z</time>
      </trkpt>
      <trkpt lat="45.19769" lon="5.72905">
        <ele>300.39999389648</ele>
        <time>2021-08-25T05:20:02.000Z</time>
      </trkpt>
      <trkpt lat="45.19767" lon="5.72904">
        <ele>299.79998779297</ele>
        <time>2021-08-25T05:20:03.000Z</time>
      </trkpt>
      <trkpt lat="45.1976" lon="5.72901">
        <ele>298.60000610352</ele>
        <time>2021-08-25T05:20:06.000Z</time>
      </trkpt>
      <trkpt lat="45.19754" lon="5.72901">
        <ele>298.20001220703</ele>
        <time>2021-08-25T05:20:08.000Z</time>
      </trkpt>
      <trkpt lat="45.19749" lon="5.72899">
        <ele>297.20001220703</ele>
        <time>2021-08-25T05:20:10.000Z</time>
      </trkpt>
      <trkpt lat="45.1974" lon="5.72892">
        <ele>296.20001220703</ele>
        <time>2021-08-25T05:20:14.000Z</time>
      </trkpt>
      <trkpt lat="45.19737" lon="5.72892">
        <ele>295.79998779297</ele>
        <time>2021-08-25T05:20:15.000Z</time>
      </trkpt>
      <trkpt lat="45.19735" lon="5.7289">
        <ele>295.60000610352</ele>
        <time>2021-08-25T05:20:16.000Z</time>
      </trkpt>
      <trkpt lat="45.19733" lon="5.72888">
        <ele>295.20001220703</ele>
        <time>2021-08-25T05:20:17.000Z</time>
      </trkpt>
      <trkpt lat="45.19729" lon="5.72888">
        <ele>294.79998779297</ele>
        <time>2021-08-25T05:20:18.000Z</time>
      </trkpt>
      <trkpt lat="45.1972" lon="5.72885">
        <ele>294.20001220703</ele>
        <time>2021-08-25T05:20:21.000Z</time>
      </trkpt>
      <trkpt lat="45.19717" lon="5.72883">
        <ele>293.39999389648</ele>
        <time>2021-08-25T05:20:22.000Z</time>
      </trkpt>
      <trkpt lat="45.19706" lon="5.72874">
        <ele>291.60000610352</ele>
        <time>2021-08-25T05:20:27.000Z</time>
      </trkpt>
      <trkpt lat="45.19703" lon="5.72872">
        <ele>291.20001220703</ele>
        <time>2021-08-25T05:20:28.000Z</time>
      </trkpt>
      <trkpt lat="45.19693" lon="5.72861">
        <ele>290.20001220703</ele>
        <time>2021-08-25T05:20:32.000Z</time>
      </trkpt>
      <trkpt lat="45.19689" lon="5.72856">
        <ele>289.39999389648</ele>
        <time>2021-08-25T05:20:34.000Z</time>
      </trkpt>
      <trkpt lat="45.19687" lon="5.72856">
        <ele>289.39999389648</ele>
        <time>2021-08-25T05:20:35.000Z</time>
      </trkpt>
      <trkpt lat="45.19687" lon="5.72858">
        <ele>289</ele>
        <time>2021-08-25T05:20:37.000Z</time>
      </trkpt>
      <trkpt lat="45.19687" lon="5.72859">
        <ele>288.60000610352</ele>
        <time>2021-08-25T05:20:38.000Z</time>
      </trkpt>
      <trkpt lat="45.1969" lon="5.72863">
        <ele>288.20001220703</ele>
        <time>2021-08-25T05:20:40.000Z</time>
      </trkpt>
      <trkpt lat="45.19692" lon="5.72866">
        <ele>287.60000610352</ele>
        <time>2021-08-25T05:20:41.000Z</time>
      </trkpt>
      <trkpt lat="45.197" lon="5.72874">
        <ele>286.39999389648</ele>
        <time>2021-08-25T05:20:45.000Z</time>
      </trkpt>
      <trkpt lat="45.19703" lon="5.72877">
        <ele>285.60000610352</ele>
        <time>2021-08-25T05:20:47.000Z</time>
      </trkpt>
      <trkpt lat="45.19709" lon="5.72885">
        <ele>284.60000610352</ele>
        <time>2021-08-25T05:20:50.000Z</time>
      </trkpt>
      <trkpt lat="45.19713" lon="5.72891">
        <ele>284.39999389648</ele>
        <time>2021-08-25T05:20:52.000Z</time>
      </trkpt>
      <trkpt lat="45.19718" lon="5.72899">
        <ele>283.20001220703</ele>
        <time>2021-08-25T05:20:55.000Z</time>
      </trkpt>
      <trkpt lat="45.19727" lon="5.72913">
        <ele>281.39999389648</ele>
        <time>2021-08-25T05:21:00.000Z</time>
      </trkpt>
      <trkpt lat="45.19737" lon="5.72929">
        <ele>280</ele>
        <time>2021-08-25T05:21:05.000Z</time>
      </trkpt>
      <trkpt lat="45.1974" lon="5.72931">
        <ele>280</ele>
        <time>2021-08-25T05:21:06.000Z</time>
      </trkpt>
      <trkpt lat="45.19742" lon="5.72934">
        <ele>279.60000610352</ele>
        <time>2021-08-25T05:21:07.000Z</time>
      </trkpt>
      <trkpt lat="45.19748" lon="5.72942">
        <ele>278.60000610352</ele>
        <time>2021-08-25T05:21:10.000Z</time>
      </trkpt>
      <trkpt lat="45.1975" lon="5.72945">
        <ele>278.20001220703</ele>
        <time>2021-08-25T05:21:11.000Z</time>
      </trkpt>
      <trkpt lat="45.19753" lon="5.72949">
        <ele>278.20001220703</ele>
        <time>2021-08-25T05:21:12.000Z</time>
      </trkpt>
      <trkpt lat="45.1976" lon="5.72958">
        <ele>276.39999389648</ele>
        <time>2021-08-25T05:21:15.000Z</time>
      </trkpt>
      <trkpt lat="45.19766" lon="5.72969">
        <ele>276.20001220703</ele>
        <time>2021-08-25T05:21:18.000Z</time>
      </trkpt>
      <trkpt lat="45.19772" lon="5.72977">
        <ele>275.20001220703</ele>
        <time>2021-08-25T05:21:21.000Z</time>
      </trkpt>
      <trkpt lat="45.19781" lon="5.72987">
        <ele>274</ele>
        <time>2021-08-25T05:21:25.000Z</time>
      </trkpt>
      <trkpt lat="45.19788" lon="5.72992">
        <ele>273</ele>
        <time>2021-08-25T05:21:28.000Z</time>
      </trkpt>
      <trkpt lat="45.19792" lon="5.72995">
        <ele>272.20001220703</ele>
        <time>2021-08-25T05:21:30.000Z</time>
      </trkpt>
      <trkpt lat="45.19794" lon="5.72995">
        <ele>271.79998779297</ele>
        <time>2021-08-25T05:21:31.000Z</time>
      </trkpt>
      <trkpt lat="45.19803" lon="5.73001">
        <ele>270.60000610352</ele>
        <time>2021-08-25T05:21:35.000Z</time>
      </trkpt>
      <trkpt lat="45.19805" lon="5.73003">
        <ele>270.39999389648</ele>
        <time>2021-08-25T05:21:36.000Z</time>
      </trkpt>
      <trkpt lat="45.19807" lon="5.73005">
        <ele>270.20001220703</ele>
        <time>2021-08-25T05:21:37.000Z</time>
      </trkpt>
      <trkpt lat="45.19805" lon="5.73008">
        <ele>270</ele>
        <time>2021-08-25T05:21:39.000Z</time>
      </trkpt>
      <trkpt lat="45.19802" lon="5.73009">
        <ele>269.20001220703</ele>
        <time>2021-08-25T05:21:40.000Z</time>
      </trkpt>
      <trkpt lat="45.19793" lon="5.73008">
        <ele>268.60000610352</ele>
        <time>2021-08-25T05:21:43.000Z</time>
      </trkpt>
      <trkpt lat="45.19788" lon="5.73008">
        <ele>268</ele>
        <time>2021-08-25T05:21:45.000Z</time>
      </trkpt>
      <trkpt lat="45.1978" lon="5.73006">
        <ele>267.39999389648</ele>
        <time>2021-08-25T05:21:48.000Z</time>
      </trkpt>
      <trkpt lat="45.19775" lon="5.73004">
        <ele>266.39999389648</ele>
        <time>2021-08-25T05:21:50.000Z</time>
      </trkpt>
      <trkpt lat="45.19765" lon="5.73003">
        <ele>265.20001220703</ele>
        <time>2021-08-25T05:21:54.000Z</time>
      </trkpt>
      <trkpt lat="45.19764" lon="5.73004">
        <ele>265.20001220703</ele>
        <time>2021-08-25T05:21:55.000Z</time>
      </trkpt>
      <trkpt lat="45.19766" lon="5.73008">
        <ele>264.60000610352</ele>
        <time>2021-08-25T05:21:57.000Z</time>
      </trkpt>
      <trkpt lat="45.19767" lon="5.7301">
        <ele>263.79998779297</ele>
        <time>2021-08-25T05:21:59.000Z</time>
      </trkpt>
      <trkpt lat="45.19776" lon="5.73016">
        <ele>263</ele>
        <time>2021-08-25T05:22:03.000Z</time>
      </trkpt>
      <trkpt lat="45.19777" lon="5.73017">
        <ele>262.60000610352</ele>
        <time>2021-08-25T05:22:04.000Z</time>
      </trkpt>
      <trkpt lat="45.1978" lon="5.73017">
        <ele>262</ele>
        <time>2021-08-25T05:22:05.000Z</time>
      </trkpt>
      <trkpt lat="45.19782" lon="5.73019">
        <ele>261.60000610352</ele>
        <time>2021-08-25T05:22:06.000Z</time>
      </trkpt>
      <trkpt lat="45.19783" lon="5.7302">
        <ele>261.60000610352</ele>
        <time>2021-08-25T05:22:07.000Z</time>
      </trkpt>
      <trkpt lat="45.19785" lon="5.73022">
        <ele>261.39999389648</ele>
        <time>2021-08-25T05:22:08.000Z</time>
      </trkpt>
      <trkpt lat="45.19792" lon="5.73028">
        <ele>260.60000610352</ele>
        <time>2021-08-25T05:22:11.000Z</time>
      </trkpt>
      <trkpt lat="45.19797" lon="5.73037">
        <ele>259.60000610352</ele>
        <time>2021-08-25T05:22:14.000Z</time>
      </trkpt>
      <trkpt lat="45.19792" lon="5.73039">
        <ele>259.20001220703</ele>
        <time>2021-08-25T05:22:17.000Z</time>
      </trkpt>
      <trkpt lat="45.1979" lon="5.73039">
        <ele>258.20001220703</ele>
        <time>2021-08-25T05:22:18.000Z</time>
      </trkpt>
      <trkpt lat="45.1978" lon="5.73038">
        <ele>256.79998779297</ele>
        <time>2021-08-25T05:22:22.000Z</time>
      </trkpt>
      <trkpt lat="45.19777" lon="5.73037">
        <ele>256.39999389648</ele>
        <time>2021-08-25T05:22:23.000Z</time>
      </trkpt>
      <trkpt lat="45.19772" lon="5.73037">
        <ele>255.39999389648</ele>
        <time>2021-08-25T05:22:25.000Z</time>
      </trkpt>
      <trkpt lat="45.19762" lon="5.73039">
        <ele>255</ele>
        <time>2021-08-25T05:22:29.000Z</time>
      </trkpt>
      <trkpt lat="45.1976" lon="5.73038">
        <ele>254</ele>
        <time>2021-08-25T05:22:30.000Z</time>
      </trkpt>
      <trkpt lat="45.19752" lon="5.73033">
        <ele>252.80000305176</ele>
        <time>2021-08-25T05:22:34.000Z</time>
      </trkpt>
      <trkpt lat="45.19752" lon="5.73033">
        <ele>252.60000610352</ele>
        <time>2021-08-25T05:22:36.000Z</time>
      </trkpt>
      <trkpt lat="45.19756" lon="5.73036">
        <ele>251.80000305176</ele>
        <time>2021-08-25T05:22:38.000Z</time>
      </trkpt>
      <trkpt lat="45.19766" lon="5.73044">
        <ele>250.60000610352</ele>
        <time>2021-08-25T05:22:43.000Z</time>
      </trkpt>
      <trkpt lat="45.19768" lon="5.73045">
        <ele>250.39999389648</ele>
        <time>2021-08-25T05:22:44.000Z</time>
      </trkpt>
      <trkpt lat="45.19773" lon="5.73049">
        <ele>249.60000610352</ele>
        <time>2021-08-25T05:22:46.000Z</time>
      </trkpt>
      <trkpt lat="45.19782" lon="5.73054">
        <ele>248.39999389648</ele>
        <time>2021-08-25T05:22:50.000Z</time>
      </trkpt>
      <trkpt lat="45.1979" lon="5.73059">
        <ele>247.80000305176</ele>
        <time>2021-08-25T05:22:53.000Z</time>
      </trkpt>
      <trkpt lat="45.19791" lon="5.73061">
        <ele>247.39999389648</ele>
        <time>2021-08-25T05:22:54.000Z</time>
      </trkpt>
      <trkpt lat="45.1979" lon="5.73063">
        <ele>247.19999694824</ele>
        <time>2021-08-25T05:22:55.000Z</time>
      </trkpt>
      <trkpt lat="45.19788" lon="5.73065">
        <ele>247</ele>
        <time>2021-08-25T05:22:56.000Z</time>
      </trkpt>
      <trkpt lat="45.19784" lon="5.73068">
        <ele>246.19999694824</ele>
        <time>2021-08-25T05:22:58.000Z</time>
      </trkpt>
      <trkpt lat="45.1978" lon="5.73068">
        <ele>245.60000610352</ele>
        <time>2021-08-25T05:23:00.000Z</time>
      </trkpt>
      <trkpt lat="45.19776" lon="5.73067">
        <ele>244.60000610352</ele>
        <time>2021-08-25T05:23:02.000Z</time>
      </trkpt>
      <trkpt lat="45.1977" lon="5.73065">
        <ele>244.19999694824</ele>
        <time>2021-08-25T05:23:05.000Z</time>
      </trkpt>
      <trkpt lat="45.19769" lon="5.73064">
        <ele>243.60000610352</ele>
        <time>2021-08-25T05:23:06.000Z</time>
      </trkpt>
      <trkpt lat="45.19761" lon="5.73059">
        <ele>242</ele>
        <time>2021-08-25T05:23:10.000Z</time>
      </trkpt>
      <trkpt lat="45.19756" lon="5.73058">
        <ele>242</ele>
        <time>2021-08-25T05:23:12.000Z</time>
      </trkpt>
      <trkpt lat="45.19754" lon="5.73058">
        <ele>241.60000610352</ele>
        <time>2021-08-25T05:23:13.000Z</time>
      </trkpt>
      <trkpt lat="45.19753" lon="5.7306">
        <ele>241</ele>
        <time>2021-08-25T05:23:15.000Z</time>
      </trkpt>
      <trkpt lat="45.19753" lon="5.73062">
        <ele>240.80000305176</ele>
        <time>2021-08-25T05:23:16.000Z</time>
      </trkpt>
      <trkpt lat="45.19754" lon="5.73063">
        <ele>240.80000305176</ele>
        <time>2021-08-25T05:23:17.000Z</time>
      </trkpt>
      <trkpt lat="45.19757" lon="5.73064">
        <ele>239.80000305176</ele>
        <time>2021-08-25T05:23:19.000Z</time>
      </trkpt>
      <trkpt lat="45.19759" lon="5.73065">
        <ele>239.60000610352</ele>
        <time>2021-08-25T05:23:20.000Z</time>
      </trkpt>
      <trkpt lat="45.19765" lon="5.73071">
        <ele>238</ele>
        <time>2021-08-25T05:23:24.000Z</time>
      </trkpt>
      <trkpt lat="45.19767" lon="5.73071">
        <ele>237.80000305176</ele>
        <time>2021-08-25T05:23:25.000Z</time>
      </trkpt>
      <trkpt lat="45.19771" lon="5.73073">
        <ele>237.39999389648</ele>
        <time>2021-08-25T05:23:27.000Z</time>
      </trkpt>
      <trkpt lat="45.19775" lon="5.73074">
        <ele>236.60000610352</ele>
        <time>2021-08-25T05:23:29.000Z</time>
      </trkpt>
      <trkpt lat="45.19784" lon="5.73079">
        <ele>235.60000610352</ele>
        <time>2021-08-25T05:23:33.000Z</time>
      </trkpt>
      <trkpt lat="45.19785" lon="5.7308">
        <ele>235.19999694824</ele>
        <time>2021-08-25T05:23:34.000Z</time>
      </trkpt>
      <trkpt lat="45.19791" lon="5.73087">
        <ele>234.19999694824</ele>
        <time>2021-08-25T05:23:38.000Z</time>
      </trkpt>
      <trkpt lat="45.19791" lon="5.73089">
        <ele>234.19999694824</ele>
        <time>2021-08-25T05:23:39.000Z</time>
      </trkpt>
      <trkpt lat="45.19787" lon="5.73091">
        <ele>233.60000610352</ele>
        <time>2021-08-25T05:23:42.000Z</time>
      </trkpt>
      <trkpt lat="45.19785" lon="5.73091">
        <ele>233.60000610352</ele>
        <time>2021-08-25T05:23:43.000Z</time>
      </trkpt>
      <trkpt lat="45.19782" lon="5.7309">
        <ele>232.80000305176</ele>
        <time>2021-08-25T05:23:44.000Z</time>
      </trkpt>
      <trkpt lat="45.19771" lon="5.73084">
        <ele>231.80000305176</ele>
        <time>2021-08-25T05:23:48.000Z</time>
      </trkpt>
      <trkpt lat="45.19768" lon="5.73084">
        <ele>231.39999389648</ele>
        <time>2021-08-25T05:23:49.000Z</time>
      </trkpt>
      <trkpt lat="45.19763" lon="5.73084">
        <ele>230.39999389648</ele>
        <time>2021-08-25T05:23:51.000Z</time>
      </trkpt>
      <trkpt lat="45.19761" lon="5.73082">
        <ele>230.19999694824</ele>
        <time>2021-08-25T05:23:52.000Z</time>
      </trkpt>
      <trkpt lat="45.19758" lon="5.73081">
        <ele>229.60000610352</ele>
        <time>2021-08-25T05:23:54.000Z</time>
      </trkpt>
      <trkpt lat="45.19755" lon="5.73082">
        <ele>229</ele>
        <time>2021-08-25T05:23:55.000Z</time>
      </trkpt>
      <trkpt lat="45.19754" lon="5.73088">
        <ele>228.60000610352</ele>
        <time>2021-08-25T05:23:58.000Z</time>
      </trkpt>
      <trkpt lat="45.19754" lon="5.73089">
        <ele>228.19999694824</ele>
        <time>2021-08-25T05:23:59.000Z</time>
      </trkpt>
      <trkpt lat="45.19755" lon="5.7309">
        <ele>227.80000305176</ele>
        <time>2021-08-25T05:24:00.000Z</time>
      </trkpt>
      <trkpt lat="45.19761" lon="5.73092">
        <ele>226.60000610352</ele>
        <time>2021-08-25T05:24:03.000Z</time>
      </trkpt>
      <trkpt lat="45.19762" lon="5.73093">
        <ele>226.60000610352</ele>
        <time>2021-08-25T05:24:04.000Z</time>
      </trkpt>
      <trkpt lat="45.19802" lon="5.73126">
        <ele>223.80000305176</ele>
        <time>2021-08-25T05:24:14.000Z</time>
      </trkpt>
      <trkpt lat="45.19806" lon="5.73129">
        <ele>223.19999694824</ele>
        <time>2021-08-25T05:24:16.000Z</time>
      </trkpt>
      <trkpt lat="45.19804" lon="5.73133">
        <ele>223</ele>
        <time>2021-08-25T05:24:17.000Z</time>
      </trkpt>
      <trkpt lat="45.19801" lon="5.73136">
        <ele>222.60000610352</ele>
        <time>2021-08-25T05:24:18.000Z</time>
      </trkpt>
      <trkpt lat="45.19798" lon="5.73138">
        <ele>222.19999694824</ele>
        <time>2021-08-25T05:24:19.000Z</time>
      </trkpt>
      <trkpt lat="45.19793" lon="5.73139">
        <ele>221.60000610352</ele>
        <time>2021-08-25T05:24:21.000Z</time>
      </trkpt>
      <trkpt lat="45.19789" lon="5.73141">
        <ele>220.60000610352</ele>
        <time>2021-08-25T05:24:23.000Z</time>
      </trkpt>
      <trkpt lat="45.19788" lon="5.73143">
        <ele>220.60000610352</ele>
        <time>2021-08-25T05:24:24.000Z</time>
      </trkpt>
      <trkpt lat="45.19786" lon="5.73153">
        <ele>219.19999694824</ele>
        <time>2021-08-25T05:24:27.000Z</time>
      </trkpt>
      <trkpt lat="45.19783" lon="5.73161">
        <ele>218.60000610352</ele>
        <time>2021-08-25T05:24:30.000Z</time>
      </trkpt>
      <trkpt lat="45.19781" lon="5.73163">
        <ele>217.60000610352</ele>
        <time>2021-08-25T05:24:31.000Z</time>
      </trkpt>
      <trkpt lat="45.19781" lon="5.73175">
        <ele>216</ele>
        <time>2021-08-25T05:24:34.000Z</time>
      </trkpt>
      <trkpt lat="45.19782" lon="5.73179">
        <ele>216</ele>
        <time>2021-08-25T05:24:35.000Z</time>
      </trkpt>
      <trkpt lat="45.19787" lon="5.73201">
        <ele>215.60000610352</ele>
        <time>2021-08-25T05:24:41.000Z</time>
      </trkpt>
      <trkpt lat="45.19783" lon="5.73225">
        <ele>215.39999389648</ele>
        <time>2021-08-25T05:24:47.000Z</time>
      </trkpt>
      <trkpt lat="45.19776" lon="5.73246">
        <ele>215.39999389648</ele>
        <time>2021-08-25T05:24:52.000Z</time>
      </trkpt>
      <trkpt lat="45.1977" lon="5.73258">
        <ele>216.19999694824</ele>
        <time>2021-08-25T05:24:55.000Z</time>
      </trkpt>
      <trkpt lat="45.19759" lon="5.73283">
        <ele>216.80000305176</ele>
        <time>2021-08-25T05:25:02.000Z</time>
      </trkpt>
      <trkpt lat="45.19751" lon="5.73308">
        <ele>217</ele>
        <time>2021-08-25T05:25:08.000Z</time>
      </trkpt>
      <trkpt lat="45.19748" lon="5.7332">
        <ele>217</ele>
        <time>2021-08-25T05:25:11.000Z</time>
      </trkpt>
      <trkpt lat="45.19746" lon="5.73328">
        <ele>217.19999694824</ele>
        <time>2021-08-25T05:25:13.000Z</time>
      </trkpt>
      <trkpt lat="45.19742" lon="5.73341">
        <ele>217.19999694824</ele>
        <time>2021-08-25T05:25:16.000Z</time>
      </trkpt>
      <trkpt lat="45.19738" lon="5.73352">
        <ele>216.60000610352</ele>
        <time>2021-08-25T05:25:19.000Z</time>
      </trkpt>
      <trkpt lat="45.19736" lon="5.7336">
        <ele>216.60000610352</ele>
        <time>2021-08-25T05:25:21.000Z</time>
      </trkpt>
      <trkpt lat="45.19735" lon="5.73368">
        <ele>216.60000610352</ele>
        <time>2021-08-25T05:25:24.000Z</time>
      </trkpt>
      <trkpt lat="45.19737" lon="5.73369">
        <ele>216.39999389648</ele>
        <time>2021-08-25T05:25:25.000Z</time>
      </trkpt>
      <trkpt lat="45.19746" lon="5.73371">
        <ele>216</ele>
        <time>2021-08-25T05:25:28.000Z</time>
      </trkpt>
      <trkpt lat="45.19755" lon="5.73373">
        <ele>215.39999389648</ele>
        <time>2021-08-25T05:25:31.000Z</time>
      </trkpt>
      <trkpt lat="45.19761" lon="5.73374">
        <ele>215</ele>
        <time>2021-08-25T05:25:33.000Z</time>
      </trkpt>
      <trkpt lat="45.1977" lon="5.73377">
        <ele>215</ele>
        <time>2021-08-25T05:25:36.000Z</time>
      </trkpt>
      <trkpt lat="45.19777" lon="5.73378">
        <ele>214.60000610352</ele>
        <time>2021-08-25T05:25:38.000Z</time>
      </trkpt>
      <trkpt lat="45.19793" lon="5.73378">
        <ele>214.60000610352</ele>
        <time>2021-08-25T05:25:43.000Z</time>
      </trkpt>
      <trkpt lat="45.19804" lon="5.7338">
        <ele>214.60000610352</ele>
        <time>2021-08-25T05:25:47.000Z</time>
      </trkpt>
      <trkpt lat="45.19822" lon="5.73383">
        <ele>214.39999389648</ele>
        <time>2021-08-25T05:25:54.000Z</time>
      </trkpt>
      <trkpt lat="45.19842" lon="5.73387">
        <ele>214.19999694824</ele>
        <time>2021-08-25T05:26:00.000Z</time>
      </trkpt>
      <trkpt lat="45.19845" lon="5.73388">
        <ele>214.19999694824</ele>
        <time>2021-08-25T05:26:01.000Z</time>
      </trkpt>
      <trkpt lat="45.19855" lon="5.7339">
        <ele>214.19999694824</ele>
        <time>2021-08-25T05:26:05.000Z</time>
      </trkpt>
      <trkpt lat="45.19869" lon="5.73393">
        <ele>214.60000610352</ele>
        <time>2021-08-25T05:26:11.000Z</time>
      </trkpt>
      <trkpt lat="45.19889" lon="5.73395">
        <ele>214.60000610352</ele>
        <time>2021-08-25T05:26:18.000Z</time>
      </trkpt>
      <trkpt lat="45.19891" lon="5.73395">
        <ele>214.60000610352</ele>
        <time>2021-08-25T05:26:19.000Z</time>
      </trkpt>
      <trkpt lat="45.19907" lon="5.73398">
        <ele>214.39999389648</ele>
        <time>2021-08-25T05:26:24.000Z</time>
      </trkpt>
      <trkpt lat="45.19928" lon="5.73407">
        <ele>214.39999389648</ele>
        <time>2021-08-25T05:26:29.000Z</time>
      </trkpt>
      <trkpt lat="45.19946" lon="5.73414">
        <ele>214.60000610352</ele>
        <time>2021-08-25T05:26:34.000Z</time>
      </trkpt>
      <trkpt lat="45.19949" lon="5.73416">
        <ele>214.60000610352</ele>
        <time>2021-08-25T05:26:35.000Z</time>
      </trkpt>
      <trkpt lat="45.19969" lon="5.73421">
        <ele>214.39999389648</ele>
        <time>2021-08-25T05:26:41.000Z</time>
      </trkpt>
      <trkpt lat="45.1999" lon="5.73426">
        <ele>214.80000305176</ele>
        <time>2021-08-25T05:26:47.000Z</time>
      </trkpt>
      <trkpt lat="45.20004" lon="5.73436">
        <ele>214.60000610352</ele>
        <time>2021-08-25T05:26:51.000Z</time>
      </trkpt>
      <trkpt lat="45.20019" lon="5.73441">
        <ele>213.80000305176</ele>
        <time>2021-08-25T05:26:56.000Z</time>
      </trkpt>
      <trkpt lat="45.20028" lon="5.73443">
        <ele>213.60000610352</ele>
        <time>2021-08-25T05:26:59.000Z</time>
      </trkpt>
      <trkpt lat="45.20043" lon="5.73451">
        <ele>214</ele>
        <time>2021-08-25T05:27:04.000Z</time>
      </trkpt>
      <trkpt lat="45.20061" lon="5.7347">
        <ele>214.80000305176</ele>
        <time>2021-08-25T05:27:09.000Z</time>
      </trkpt>
      <trkpt lat="45.20065" lon="5.73473">
        <ele>214.80000305176</ele>
        <time>2021-08-25T05:27:10.000Z</time>
      </trkpt>
      <trkpt lat="45.20079" lon="5.73488">
        <ele>214.80000305176</ele>
        <time>2021-08-25T05:27:15.000Z</time>
      </trkpt>
      <trkpt lat="45.20085" lon="5.73494">
        <ele>214.80000305176</ele>
        <time>2021-08-25T05:27:17.000Z</time>
      </trkpt>
      <trkpt lat="45.201" lon="5.73513">
        <ele>215</ele>
        <time>2021-08-25T05:27:22.000Z</time>
      </trkpt>
      <trkpt lat="45.20109" lon="5.73526">
        <ele>215</ele>
        <time>2021-08-25T05:27:25.000Z</time>
      </trkpt>
      <trkpt lat="45.20123" lon="5.73544">
        <ele>214.80000305176</ele>
        <time>2021-08-25T05:27:30.000Z</time>
      </trkpt>
      <trkpt lat="45.20128" lon="5.73551">
        <ele>214.80000305176</ele>
        <time>2021-08-25T05:27:32.000Z</time>
      </trkpt>
      <trkpt lat="45.20138" lon="5.7357">
        <ele>215</ele>
        <time>2021-08-25T05:27:38.000Z</time>
      </trkpt>
      <trkpt lat="45.20148" lon="5.73594">
        <ele>214.60000610352</ele>
        <time>2021-08-25T05:27:45.000Z</time>
      </trkpt>
      <trkpt lat="45.20158" lon="5.73619">
        <ele>214.60000610352</ele>
        <time>2021-08-25T05:27:51.000Z</time>
      </trkpt>
      <trkpt lat="45.20165" lon="5.73646">
        <ele>214.60000610352</ele>
        <time>2021-08-25T05:27:57.000Z</time>
      </trkpt>
      <trkpt lat="45.20166" lon="5.73651">
        <ele>214.39999389648</ele>
        <time>2021-08-25T05:27:58.000Z</time>
      </trkpt>
      <trkpt lat="45.2017" lon="5.73676">
        <ele>214.60000610352</ele>
        <time>2021-08-25T05:28:04.000Z</time>
      </trkpt>
      <trkpt lat="45.20175" lon="5.73704">
        <ele>214.60000610352</ele>
        <time>2021-08-25T05:28:10.000Z</time>
      </trkpt>
      <trkpt lat="45.20176" lon="5.73709">
        <ele>214.60000610352</ele>
        <time>2021-08-25T05:28:11.000Z</time>
      </trkpt>
      <trkpt lat="45.20177" lon="5.73717">
        <ele>214.60000610352</ele>
        <time>2021-08-25T05:28:13.000Z</time>
      </trkpt>
      <trkpt lat="45.20179" lon="5.73726">
        <ele>214.60000610352</ele>
        <time>2021-08-25T05:28:15.000Z</time>
      </trkpt>
      <trkpt lat="45.2018" lon="5.7374">
        <ele>214.39999389648</ele>
        <time>2021-08-25T05:28:18.000Z</time>
      </trkpt>
      <trkpt lat="45.20179" lon="5.73768">
        <ele>214.39999389648</ele>
        <time>2021-08-25T05:28:23.000Z</time>
      </trkpt>
      <trkpt lat="45.2018" lon="5.73797">
        <ele>214.39999389648</ele>
        <time>2021-08-25T05:28:28.000Z</time>
      </trkpt>
      <trkpt lat="45.2018" lon="5.73802">
        <ele>214.39999389648</ele>
        <time>2021-08-25T05:28:29.000Z</time>
      </trkpt>
      <trkpt lat="45.20178" lon="5.73832">
        <ele>214.60000610352</ele>
        <time>2021-08-25T05:28:35.000Z</time>
      </trkpt>
      <trkpt lat="45.20176" lon="5.73839">
        <ele>214.19999694824</ele>
        <time>2021-08-25T05:28:37.000Z</time>
      </trkpt>
      <trkpt lat="45.20175" lon="5.73839">
        <ele>214</ele>
        <time>2021-08-25T05:28:39.000Z</time>
      </trkpt>
      <trkpt lat="45.20177" lon="5.73833">
        <ele>214</ele>
        <time>2021-08-25T05:28:42.000Z</time>
      </trkpt>
      <trkpt lat="45.20177" lon="5.73835">
        <ele>214</ele>
        <time>2021-08-25T05:28:43.000Z</time>
      </trkpt>
      <trkpt lat="45.20178" lon="5.73837">
        <ele>213.60000610352</ele>
        <time>2021-08-25T05:28:44.000Z</time>
      </trkpt>
      <trkpt lat="45.20178" lon="5.7384">
        <ele>213.19999694824</ele>
        <time>2021-08-25T05:28:45.000Z</time>
      </trkpt>
      <trkpt lat="45.20177" lon="5.73847">
        <ele>212.80000305176</ele>
        <time>2021-08-25T05:28:47.000Z</time>
      </trkpt>
      <trkpt lat="45.20173" lon="5.7386">
        <ele>212.80000305176</ele>
        <time>2021-08-25T05:28:51.000Z</time>
      </trkpt>
      <trkpt lat="45.20171" lon="5.73864">
        <ele>212.80000305176</ele>
        <time>2021-08-25T05:28:52.000Z</time>
      </trkpt>
      <trkpt lat="45.20168" lon="5.7387">
        <ele>212.80000305176</ele>
        <time>2021-08-25T05:28:54.000Z</time>
      </trkpt>
      <trkpt lat="45.20158" lon="5.73887">
        <ele>212.80000305176</ele>
        <time>2021-08-25T05:28:59.000Z</time>
      </trkpt>
      <trkpt lat="45.20147" lon="5.73906">
        <ele>212.80000305176</ele>
        <time>2021-08-25T05:29:04.000Z</time>
      </trkpt>
      <trkpt lat="45.20144" lon="5.7391">
        <ele>212.60000610352</ele>
        <time>2021-08-25T05:29:05.000Z</time>
      </trkpt>
      <trkpt lat="45.20131" lon="5.73927">
        <ele>213.19999694824</ele>
        <time>2021-08-25T05:29:10.000Z</time>
      </trkpt>
      <trkpt lat="45.20126" lon="5.73936">
        <ele>213.19999694824</ele>
        <time>2021-08-25T05:29:13.000Z</time>
      </trkpt>
      <trkpt lat="45.20121" lon="5.73944">
        <ele>213</ele>
        <time>2021-08-25T05:29:16.000Z</time>
      </trkpt>
      <trkpt lat="45.20118" lon="5.73951">
        <ele>213</ele>
        <time>2021-08-25T05:29:18.000Z</time>
      </trkpt>
      <trkpt lat="45.20113" lon="5.73962">
        <ele>212.60000610352</ele>
        <time>2021-08-25T05:29:21.000Z</time>
      </trkpt>
      <trkpt lat="45.20111" lon="5.73965">
        <ele>212.80000305176</ele>
        <time>2021-08-25T05:29:22.000Z</time>
      </trkpt>
      <trkpt lat="45.20104" lon="5.73983">
        <ele>212.60000610352</ele>
        <time>2021-08-25T05:29:27.000Z</time>
      </trkpt>
      <trkpt lat="45.20095" lon="5.73993">
        <ele>212.19999694824</ele>
        <time>2021-08-25T05:29:31.000Z</time>
      </trkpt>
      <trkpt lat="45.20087" lon="5.74003">
        <ele>212.39999389648</ele>
        <time>2021-08-25T05:29:36.000Z</time>
      </trkpt>
      <trkpt lat="45.20079" lon="5.74015">
        <ele>212.60000610352</ele>
        <time>2021-08-25T05:29:41.000Z</time>
      </trkpt>
      <trkpt lat="45.20064" lon="5.74024">
        <ele>212.80000305176</ele>
        <time>2021-08-25T05:29:47.000Z</time>
      </trkpt>
      <trkpt lat="45.20062" lon="5.74026">
        <ele>212.80000305176</ele>
        <time>2021-08-25T05:29:48.000Z</time>
      </trkpt>
      <trkpt lat="45.20054" lon="5.74035">
        <ele>212.80000305176</ele>
        <time>2021-08-25T05:29:52.000Z</time>
      </trkpt>
      <trkpt lat="45.20053" lon="5.74037">
        <ele>212.80000305176</ele>
        <time>2021-08-25T05:29:53.000Z</time>
      </trkpt>
      <trkpt lat="45.20051" lon="5.74039">
        <ele>212.80000305176</ele>
        <time>2021-08-25T05:29:54.000Z</time>
      </trkpt>
      <trkpt lat="45.20043" lon="5.74044">
        <ele>212.80000305176</ele>
        <time>2021-08-25T05:29:57.000Z</time>
      </trkpt>
      <trkpt lat="45.20035" lon="5.74051">
        <ele>212.80000305176</ele>
        <time>2021-08-25T05:30:00.000Z</time>
      </trkpt>
      <trkpt lat="45.20032" lon="5.74052">
        <ele>212.80000305176</ele>
        <time>2021-08-25T05:30:01.000Z</time>
      </trkpt>
      <trkpt lat="45.20028" lon="5.74056">
        <ele>212.80000305176</ele>
        <time>2021-08-25T05:30:03.000Z</time>
      </trkpt>
      <trkpt lat="45.20025" lon="5.74059">
        <ele>212.80000305176</ele>
        <time>2021-08-25T05:30:05.000Z</time>
      </trkpt>
      <trkpt lat="45.20019" lon="5.74067">
        <ele>212.80000305176</ele>
        <time>2021-08-25T05:30:08.000Z</time>
      </trkpt>
      <trkpt lat="45.20013" lon="5.74078">
        <ele>213.39999389648</ele>
        <time>2021-08-25T05:30:11.000Z</time>
      </trkpt>
      <trkpt lat="45.20006" lon="5.74092">
        <ele>213.60000610352</ele>
        <time>2021-08-25T05:30:14.000Z</time>
      </trkpt>
      <trkpt lat="45.20003" lon="5.74098">
        <ele>214.19999694824</ele>
        <time>2021-08-25T05:30:15.000Z</time>
      </trkpt>
      <trkpt lat="45.1999" lon="5.74123">
        <ele>214.60000610352</ele>
        <time>2021-08-25T05:30:19.000Z</time>
      </trkpt>
      <trkpt lat="45.19981" lon="5.74135">
        <ele>215.19999694824</ele>
        <time>2021-08-25T05:30:22.000Z</time>
      </trkpt>
      <trkpt lat="45.19976" lon="5.7414">
        <ele>215.19999694824</ele>
        <time>2021-08-25T05:30:23.000Z</time>
      </trkpt>
      <trkpt lat="45.19961" lon="5.74155">
        <ele>215.39999389648</ele>
        <time>2021-08-25T05:30:27.000Z</time>
      </trkpt>
      <trkpt lat="45.19952" lon="5.74163">
        <ele>215.39999389648</ele>
        <time>2021-08-25T05:30:30.000Z</time>
      </trkpt>
      <trkpt lat="45.19946" lon="5.74167">
        <ele>215.39999389648</ele>
        <time>2021-08-25T05:30:32.000Z</time>
      </trkpt>
      <trkpt lat="45.19928" lon="5.74184">
        <ele>215.19999694824</ele>
        <time>2021-08-25T05:30:39.000Z</time>
      </trkpt>
      <trkpt lat="45.19921" lon="5.74188">
        <ele>215.19999694824</ele>
        <time>2021-08-25T05:30:41.000Z</time>
      </trkpt>
      <trkpt lat="45.19903" lon="5.74196">
        <ele>215.39999389648</ele>
        <time>2021-08-25T05:30:47.000Z</time>
      </trkpt>
      <trkpt lat="45.199" lon="5.74198">
        <ele>215.39999389648</ele>
        <time>2021-08-25T05:30:48.000Z</time>
      </trkpt>
      <trkpt lat="45.19882" lon="5.74208">
        <ele>215.19999694824</ele>
        <time>2021-08-25T05:30:54.000Z</time>
      </trkpt>
      <trkpt lat="45.1988" lon="5.74209">
        <ele>215.19999694824</ele>
        <time>2021-08-25T05:30:55.000Z</time>
      </trkpt>
      <trkpt lat="45.19861" lon="5.74217">
        <ele>215.39999389648</ele>
        <time>2021-08-25T05:31:01.000Z</time>
      </trkpt>
      <trkpt lat="45.19842" lon="5.74226">
        <ele>215.80000305176</ele>
        <time>2021-08-25T05:31:07.000Z</time>
      </trkpt>
      <trkpt lat="45.19832" lon="5.74231">
        <ele>215.60000610352</ele>
        <time>2021-08-25T05:31:10.000Z</time>
      </trkpt>
      <trkpt lat="45.19814" lon="5.74239">
        <ele>215.39999389648</ele>
        <time>2021-08-25T05:31:15.000Z</time>
      </trkpt>
      <trkpt lat="45.19801" lon="5.7424">
        <ele>215.39999389648</ele>
        <time>2021-08-25T05:31:19.000Z</time>
      </trkpt>
      <trkpt lat="45.1978" lon="5.74246">
        <ele>215.39999389648</ele>
        <time>2021-08-25T05:31:25.000Z</time>
      </trkpt>
      <trkpt lat="45.19769" lon="5.7425">
        <ele>215.39999389648</ele>
        <time>2021-08-25T05:31:28.000Z</time>
      </trkpt>
      <trkpt lat="45.19749" lon="5.74253">
        <ele>215.19999694824</ele>
        <time>2021-08-25T05:31:34.000Z</time>
      </trkpt>
      <trkpt lat="45.19742" lon="5.74253">
        <ele>215.60000610352</ele>
        <time>2021-08-25T05:31:36.000Z</time>
      </trkpt>
      <trkpt lat="45.19731" lon="5.7425">
        <ele>215</ele>
        <time>2021-08-25T05:31:41.000Z</time>
      </trkpt>
      <trkpt lat="45.19731" lon="5.74249">
        <ele>214.80000305176</ele>
        <time>2021-08-25T05:31:42.000Z</time>
      </trkpt>
      <trkpt lat="45.1973" lon="5.74247">
        <ele>214.60000610352</ele>
        <time>2021-08-25T05:31:43.000Z</time>
      </trkpt>
      <trkpt lat="45.1973" lon="5.74246">
        <ele>214</ele>
        <time>2021-08-25T05:31:44.000Z</time>
      </trkpt>
      <trkpt lat="45.19729" lon="5.74243">
        <ele>214</ele>
        <time>2021-08-25T05:31:45.000Z</time>
      </trkpt>
      <trkpt lat="45.19727" lon="5.74226">
        <ele>213.60000610352</ele>
        <time>2021-08-25T05:31:49.000Z</time>
      </trkpt>
      <trkpt lat="45.19724" lon="5.74198">
        <ele>213.39999389648</ele>
        <time>2021-08-25T05:31:55.000Z</time>
      </trkpt>
      <trkpt lat="45.19723" lon="5.74194">
        <ele>213.39999389648</ele>
        <time>2021-08-25T05:31:56.000Z</time>
      </trkpt>
      <trkpt lat="45.19715" lon="5.74169">
        <ele>213.80000305176</ele>
        <time>2021-08-25T05:32:02.000Z</time>
      </trkpt>
      <trkpt lat="45.19711" lon="5.74155">
        <ele>213.80000305176</ele>
        <time>2021-08-25T05:32:05.000Z</time>
      </trkpt>
      <trkpt lat="45.19711" lon="5.74128">
        <ele>213.80000305176</ele>
        <time>2021-08-25T05:32:10.000Z</time>
      </trkpt>
      <trkpt lat="45.19708" lon="5.74121">
        <ele>213.80000305176</ele>
        <time>2021-08-25T05:32:12.000Z</time>
      </trkpt>
      <trkpt lat="45.197" lon="5.74097">
        <ele>213.60000610352</ele>
        <time>2021-08-25T05:32:18.000Z</time>
      </trkpt>
      <trkpt lat="45.197" lon="5.74089">
        <ele>213.60000610352</ele>
        <time>2021-08-25T05:32:20.000Z</time>
      </trkpt>
      <trkpt lat="45.19697" lon="5.7407">
        <ele>214</ele>
        <time>2021-08-25T05:32:25.000Z</time>
      </trkpt>
      <trkpt lat="45.1969" lon="5.74052">
        <ele>213.80000305176</ele>
        <time>2021-08-25T05:32:29.000Z</time>
      </trkpt>
      <trkpt lat="45.19689" lon="5.74045">
        <ele>213.80000305176</ele>
        <time>2021-08-25T05:32:31.000Z</time>
      </trkpt>
      <trkpt lat="45.19688" lon="5.74036">
        <ele>213.80000305176</ele>
        <time>2021-08-25T05:32:33.000Z</time>
      </trkpt>
      <trkpt lat="45.19685" lon="5.74027">
        <ele>213.39999389648</ele>
        <time>2021-08-25T05:32:35.000Z</time>
      </trkpt>
      <trkpt lat="45.19677" lon="5.74007">
        <ele>213.60000610352</ele>
        <time>2021-08-25T05:32:41.000Z</time>
      </trkpt>
      <trkpt lat="45.19677" lon="5.74004">
        <ele>213.80000305176</ele>
        <time>2021-08-25T05:32:43.000Z</time>
      </trkpt>
      <trkpt lat="45.19675" lon="5.74001">
        <ele>213.80000305176</ele>
        <time>2021-08-25T05:32:45.000Z</time>
      </trkpt>
      <trkpt lat="45.19673" lon="5.74001">
        <ele>213.60000610352</ele>
        <time>2021-08-25T05:32:46.000Z</time>
      </trkpt>
      <trkpt lat="45.19663" lon="5.74003">
        <ele>213.60000610352</ele>
        <time>2021-08-25T05:32:49.000Z</time>
      </trkpt>
      <trkpt lat="45.19657" lon="5.74001">
        <ele>213.39999389648</ele>
        <time>2021-08-25T05:32:51.000Z</time>
      </trkpt>
      <trkpt lat="45.19641" lon="5.73999">
        <ele>213.19999694824</ele>
        <time>2021-08-25T05:32:56.000Z</time>
      </trkpt>
      <trkpt lat="45.19629" lon="5.73995">
        <ele>213</ele>
        <time>2021-08-25T05:33:00.000Z</time>
      </trkpt>
      <trkpt lat="45.19627" lon="5.73993">
        <ele>213</ele>
        <time>2021-08-25T05:33:01.000Z</time>
      </trkpt>
      <trkpt lat="45.19623" lon="5.73979">
        <ele>213.39999389648</ele>
        <time>2021-08-25T05:33:05.000Z</time>
      </trkpt>
      <trkpt lat="45.19623" lon="5.73972">
        <ele>213.60000610352</ele>
        <time>2021-08-25T05:33:07.000Z</time>
      </trkpt>
      <trkpt lat="45.19626" lon="5.73967">
        <ele>213.60000610352</ele>
        <time>2021-08-25T05:33:09.000Z</time>
      </trkpt>
      <trkpt lat="45.19631" lon="5.73966">
        <ele>213.60000610352</ele>
        <time>2021-08-25T05:33:12.000Z</time>
      </trkpt>
      <trkpt lat="45.19634" lon="5.73964">
        <ele>213.60000610352</ele>
        <time>2021-08-25T05:33:14.000Z</time>
      </trkpt>
      <trkpt lat="45.19638" lon="5.73963">
        <ele>213.60000610352</ele>
        <time>2021-08-25T05:33:17.000Z</time>
      </trkpt>
      <trkpt lat="45.19639" lon="5.73964">
        <ele>213.60000610352</ele>
        <time>2021-08-25T05:33:18.000Z</time>
      </trkpt>
      <trkpt lat="45.19653" lon="5.73955">
        <ele>221.60000610352</ele>
        <time>2021-08-25T05:34:11.000Z</time>
      </trkpt>
      <trkpt lat="45.19651" lon="5.73957">
        <ele>221.60000610352</ele>
        <time>2021-08-25T05:34:12.000Z</time>
      </trkpt>
      <trkpt lat="45.19652" lon="5.73959">
        <ele>221.60000610352</ele>
        <time>2021-08-25T05:34:13.000Z</time>
      </trkpt>
    </trkseg>
  </trk>
</gpx>